<?xml version='1.0' encoding='UTF-8'?><gpx version="1.1" creator="JPX - https://github.com/jenetics/jpx" xmlns="http://www.topografix.com/GPX/1/1"><trk><trkseg><trkpt lat="43.59062995230061" lon="11.334758269834365"><ele>360.0</ele><time>2026-03-22T17:57:09Z</time></trkpt><trkpt lat="43.59068768872821" lon="11.334834216958033"><ele>360.0</ele><time>2026-03-22T17:57:12Z</time></trkpt><trkpt lat="43.59061417372343" lon="11.33486039838774"><ele>360.0</ele><time>2026-03-22T17:57:15Z</time></trkpt><trkpt lat="43.590540049838324" lon="11.334823375162857"><ele>360.0</ele><time>2026-03-22T17:57:17Z</time></trkpt><trkpt lat="43.59046809077109" lon="11.334776604344864"><ele>360.0</ele><time>2026-03-22T17:57:19Z</time></trkpt><trkpt lat="43.59040764705375" lon="11.33474271815748"><ele>360.0</ele><time>2026-03-22T17:57:20Z</time></trkpt><trkpt lat="43.59031135228385" lon="11.334682742096103"><ele>360.4</ele><time>2026-03-22T17:57:22Z</time></trkpt><trkpt lat="43.590225703360126" lon="11.33460853821674"><ele>360.8</ele><time>2026-03-22T17:57:24Z</time></trkpt><trkpt lat="43.59015601548313" lon="11.33461542910791"><ele>361.20000000000005</ele><time>2026-03-22T17:57:25.999Z</time></trkpt><trkpt lat="43.59013461352718" lon="11.33470878043437"><ele>361.6</ele><time>2026-03-22T17:57:27.999Z</time></trkpt><trkpt lat="43.590233823544274" lon="11.334822354588514"><ele>362.0</ele><time>2026-03-22T17:57:29.999Z</time></trkpt><trkpt lat="43.590304855097585" lon="11.334882819158262"><ele>361.6</ele><time>2026-03-22T17:57:30.999Z</time></trkpt><trkpt lat="43.59038333521109" lon="11.33496213150483"><ele>361.20000000000005</ele><time>2026-03-22T17:57:31.999Z</time></trkpt><trkpt lat="43.59046064553301" lon="11.335052378670225"><ele>360.8</ele><time>2026-03-22T17:57:32.999Z</time></trkpt><trkpt lat="43.59052983088043" lon="11.335138396623059"><ele>360.4</ele><time>2026-03-22T17:57:33.999Z</time></trkpt><trkpt lat="43.59060181293649" lon="11.335244562056268"><ele>360.0</ele><time>2026-03-22T17:57:34.999Z</time></trkpt><trkpt lat="43.59067299272393" lon="11.335374788959886"><ele>360.0</ele><time>2026-03-22T17:57:35.999Z</time></trkpt><trkpt lat="43.59074230845212" lon="11.335480768809678"><ele>360.0</ele><time>2026-03-22T17:57:36.999Z</time></trkpt><trkpt lat="43.590816439850954" lon="11.335580507216397"><ele>360.0</ele><time>2026-03-22T17:57:37.999Z</time></trkpt><trkpt lat="43.59089013735481" lon="11.335677466621007"><ele>360.0</ele><time>2026-03-22T17:57:38.999Z</time></trkpt><trkpt lat="43.590968344398" lon="11.335771878240132"><ele>360.0</ele><time>2026-03-22T17:57:39.999Z</time></trkpt><trkpt lat="43.591041576948626" lon="11.335869507758101"><ele>358.4</ele><time>2026-03-22T17:57:40.999Z</time></trkpt><trkpt lat="43.59111051869708" lon="11.335972917514113"><ele>356.8</ele><time>2026-03-22T17:57:41.999Z</time></trkpt><trkpt lat="43.59117997800207" lon="11.336078446167608"><ele>355.20000000000005</ele><time>2026-03-22T17:57:42.999Z</time></trkpt><trkpt lat="43.59123788758532" lon="11.336196875164685"><ele>353.6</ele><time>2026-03-22T17:57:43.999Z</time></trkpt><trkpt lat="43.59128807408128" lon="11.336323291537786"><ele>352.0</ele><time>2026-03-22T17:57:44.999Z</time></trkpt><trkpt lat="43.59132508895779" lon="11.336463916270668"><ele>355.6</ele><time>2026-03-22T17:57:45.999Z</time></trkpt><trkpt lat="43.591353499170495" lon="11.336602920933906"><ele>359.20000000000005</ele><time>2026-03-22T17:57:46.999Z</time></trkpt><trkpt lat="43.59137612777199" lon="11.336743362008106"><ele>362.8</ele><time>2026-03-22T17:57:47.999Z</time></trkpt><trkpt lat="43.5913738286677" lon="11.336887438326874"><ele>366.4</ele><time>2026-03-22T17:57:48.999Z</time></trkpt><trkpt lat="43.591403296365016" lon="11.337022517203739"><ele>370.0</ele><time>2026-03-22T17:57:49.999Z</time></trkpt><trkpt lat="43.59143700713794" lon="11.337158818863111"><ele>374.2</ele><time>2026-03-22T17:57:50.999Z</time></trkpt><trkpt lat="43.59148962093887" lon="11.337284911626108"><ele>378.4</ele><time>2026-03-22T17:57:51.999Z</time></trkpt><trkpt lat="43.59154004327552" lon="11.337414491006715"><ele>382.6</ele><time>2026-03-22T17:57:52.999Z</time></trkpt><trkpt lat="43.59162266927663" lon="11.337505240202676"><ele>386.8</ele><time>2026-03-22T17:57:53.999Z</time></trkpt><trkpt lat="43.59168663754843" lon="11.337617953980445"><ele>391.0</ele><time>2026-03-22T17:57:54.999Z</time></trkpt><trkpt lat="43.59177941464353" lon="11.337686375883969"><ele>391.0</ele><time>2026-03-22T17:57:55.999Z</time></trkpt><trkpt lat="43.59186870043243" lon="11.337763553875767"><ele>391.0</ele><time>2026-03-22T17:57:56.999Z</time></trkpt><trkpt lat="43.59194855513911" lon="11.337860677283519"><ele>391.0</ele><time>2026-03-22T17:57:57.999Z</time></trkpt><trkpt lat="43.592031246294866" lon="11.337953897500473"><ele>391.0</ele><time>2026-03-22T17:57:58.999Z</time></trkpt><trkpt lat="43.59209232121673" lon="11.338069564864758"><ele>391.0</ele><time>2026-03-22T17:57:59.999Z</time></trkpt><trkpt lat="43.59213924790552" lon="11.338206770624844"><ele>390.6</ele><time>2026-03-22T17:58:00.999Z</time></trkpt><trkpt lat="43.59217628321422" lon="11.338349714245744"><ele>390.20000000000005</ele><time>2026-03-22T17:58:01.999Z</time></trkpt><trkpt lat="43.592210599497236" lon="11.338494113363042"><ele>389.79999999999995</ele><time>2026-03-22T17:58:02.999Z</time></trkpt><trkpt lat="43.59224369830924" lon="11.338636192342467"><ele>389.4</ele><time>2026-03-22T17:58:03.999Z</time></trkpt><trkpt lat="43.592277070294315" lon="11.33877944381644"><ele>389.0</ele><time>2026-03-22T17:58:04.999Z</time></trkpt><trkpt lat="43.592310438850156" lon="11.338923195866645"><ele>391.5</ele><time>2026-03-22T17:58:05.999Z</time></trkpt><trkpt lat="43.59234368850978" lon="11.339066437876491"><ele>394.0</ele><time>2026-03-22T17:58:06.999Z</time></trkpt><trkpt lat="43.59237626297621" lon="11.339206801153493"><ele>396.5</ele><time>2026-03-22T17:58:07.999Z</time></trkpt><trkpt lat="43.59240961505153" lon="11.339362664682717"><ele>399.0</ele><time>2026-03-22T17:58:08.999Z</time></trkpt><trkpt lat="43.592442567528" lon="11.339525372940548"><ele>399.0</ele><time>2026-03-22T17:58:09.999Z</time></trkpt><trkpt lat="43.59247207289013" lon="11.339686350792071"><ele>399.0</ele><time>2026-03-22T17:58:10.999Z</time></trkpt><trkpt lat="43.592503405878965" lon="11.339854831474693"><ele>399.0</ele><time>2026-03-22T17:58:11.999Z</time></trkpt><trkpt lat="43.59256524506761" lon="11.340022563065325"><ele>399.0</ele><time>2026-03-22T17:58:12.999Z</time></trkpt><trkpt lat="43.59262947634055" lon="11.34018745413257"><ele>401.75</ele><time>2026-03-22T17:58:13.999Z</time></trkpt><trkpt lat="43.59271103858985" lon="11.340340143680368"><ele>404.5</ele><time>2026-03-22T17:58:14.999Z</time></trkpt><trkpt lat="43.592799809913586" lon="11.340470924296323"><ele>407.25</ele><time>2026-03-22T17:58:15.999Z</time></trkpt><trkpt lat="43.59290164169408" lon="11.340584266700883"><ele>410.0</ele><time>2026-03-22T17:58:16.999Z</time></trkpt><trkpt lat="43.593013373173044" lon="11.34067009085802"><ele>410.0</ele><time>2026-03-22T17:58:17.999Z</time></trkpt><trkpt lat="43.593122113684835" lon="11.340762604791202"><ele>410.0</ele><time>2026-03-22T17:58:18.999Z</time></trkpt><trkpt lat="43.59322882953651" lon="11.3408549086723"><ele>410.0</ele><time>2026-03-22T17:58:19.999Z</time></trkpt><trkpt lat="43.59332737420888" lon="11.340964161335625"><ele>410.0</ele><time>2026-03-22T17:58:20.999Z</time></trkpt><trkpt lat="43.59341966957756" lon="11.341089099381815"><ele>410.0</ele><time>2026-03-22T17:58:21.999Z</time></trkpt><trkpt lat="43.59349789789155" lon="11.341217975924081"><ele>410.0</ele><time>2026-03-22T17:58:22.999Z</time></trkpt><trkpt lat="43.5935561140209" lon="11.341343473220315"><ele>410.0</ele><time>2026-03-22T17:58:23.999Z</time></trkpt><trkpt lat="43.59359095799506" lon="11.341456947746057"><ele>410.0</ele><time>2026-03-22T17:58:24.999Z</time></trkpt><trkpt lat="43.593592353760556" lon="11.341573341547784"><ele>410.0</ele><time>2026-03-22T17:58:25.999Z</time></trkpt><trkpt lat="43.59357393337434" lon="11.34169513451813"><ele>411.25</ele><time>2026-03-22T17:58:26.999Z</time></trkpt><trkpt lat="43.5934969221154" lon="11.341802982329936"><ele>412.5</ele><time>2026-03-22T17:58:27.999Z</time></trkpt><trkpt lat="43.593400268859675" lon="11.341888480043261"><ele>413.75</ele><time>2026-03-22T17:58:28.999Z</time></trkpt><trkpt lat="43.59329410762277" lon="11.3419699733357"><ele>415.0</ele><time>2026-03-22T17:58:29.999Z</time></trkpt><trkpt lat="43.593178916495845" lon="11.34205112834901"><ele>415.0</ele><time>2026-03-22T17:58:30.999Z</time></trkpt><trkpt lat="43.59307173691083" lon="11.342132576939957"><ele>415.0</ele><time>2026-03-22T17:58:31.999Z</time></trkpt><trkpt lat="43.59296526023693" lon="11.342227615332906"><ele>415.0</ele><time>2026-03-22T17:58:32.999Z</time></trkpt><trkpt lat="43.59284910895738" lon="11.34232389425162"><ele>415.0</ele><time>2026-03-22T17:58:33.999Z</time></trkpt><trkpt lat="43.59274253744375" lon="11.34237751857626"><ele>417.0</ele><time>2026-03-22T17:58:34.999Z</time></trkpt><trkpt lat="43.59263770913924" lon="11.342364600548148"><ele>419.0</ele><time>2026-03-22T17:58:35.999Z</time></trkpt><trkpt lat="43.592538174219214" lon="11.342419087853948"><ele>421.0</ele><time>2026-03-22T17:58:36.999Z</time></trkpt><trkpt lat="43.592445812122406" lon="11.342493831067369"><ele>423.0</ele><time>2026-03-22T17:58:37.999Z</time></trkpt><trkpt lat="43.592394014923656" lon="11.342671731520165"><ele>423.0</ele><time>2026-03-22T17:58:38.999Z</time></trkpt><trkpt lat="43.592396490589145" lon="11.342858052630676"><ele>423.0</ele><time>2026-03-22T17:58:39.999Z</time></trkpt><trkpt lat="43.592350950811074" lon="11.343020860434255"><ele>423.0</ele><time>2026-03-22T17:58:40.999Z</time></trkpt><trkpt lat="43.592214309852196" lon="11.343115804144073"><ele>423.0</ele><time>2026-03-22T17:58:41.999Z</time></trkpt><trkpt lat="43.592098076230265" lon="11.343187745457803"><ele>422.66666666666663</ele><time>2026-03-22T17:58:42.999Z</time></trkpt><trkpt lat="43.59196408702397" lon="11.343266687006127"><ele>422.3333333333333</ele><time>2026-03-22T17:58:43.999Z</time></trkpt><trkpt lat="43.59182542147042" lon="11.343359816673958"><ele>422.0</ele><time>2026-03-22T17:58:44.999Z</time></trkpt><trkpt lat="43.591702003032864" lon="11.343488784803933"><ele>422.0</ele><time>2026-03-22T17:58:45.999Z</time></trkpt><trkpt lat="43.59162289327224" lon="11.343671626743973"><ele>422.0</ele><time>2026-03-22T17:58:46.999Z</time></trkpt><trkpt lat="43.591548528350735" lon="11.343869948357943"><ele>422.0</ele><time>2026-03-22T17:58:47.999Z</time></trkpt><trkpt lat="43.59147625654915" lon="11.344074270812072"><ele>422.3333333333333</ele><time>2026-03-22T17:58:48.999Z</time></trkpt><trkpt lat="43.59139237809754" lon="11.344270735476027"><ele>422.66666666666663</ele><time>2026-03-22T17:58:49.999Z</time></trkpt><trkpt lat="43.591315194193385" lon="11.344483179812007"><ele>423.0</ele><time>2026-03-22T17:58:50.999Z</time></trkpt><trkpt lat="43.59124357696382" lon="11.344680300327768"><ele>425.66666666666663</ele><time>2026-03-22T17:58:51.999Z</time></trkpt><trkpt lat="43.591173985722726" lon="11.344879728641226"><ele>428.3333333333333</ele><time>2026-03-22T17:58:52.998Z</time></trkpt><trkpt lat="43.591116712778756" lon="11.34507807853367"><ele>431.0</ele><time>2026-03-22T17:58:53.998Z</time></trkpt><trkpt lat="43.591100391638015" lon="11.345280462611896"><ele>431.0</ele><time>2026-03-22T17:58:54.998Z</time></trkpt><trkpt lat="43.59109278839659" lon="11.34548053173497"><ele>431.0</ele><time>2026-03-22T17:58:55.998Z</time></trkpt><trkpt lat="43.59111143815522" lon="11.34568066806774"><ele>431.0</ele><time>2026-03-22T17:58:56.998Z</time></trkpt><trkpt lat="43.5911444733306" lon="11.345884658198441"><ele>431.0</ele><time>2026-03-22T17:58:57.998Z</time></trkpt><trkpt lat="43.59119944095426" lon="11.346068167876517"><ele>430.0</ele><time>2026-03-22T17:58:58.999Z</time></trkpt><trkpt lat="43.59128294444769" lon="11.346202259439288"><ele>429.0</ele><time>2026-03-22T17:58:59.999Z</time></trkpt><trkpt lat="43.59139187865701" lon="11.346295225240784"><ele>428.0</ele><time>2026-03-22T17:59:00.999Z</time></trkpt><trkpt lat="43.591527881816795" lon="11.346345953766535"><ele>427.0</ele><time>2026-03-22T17:59:01.999Z</time></trkpt><trkpt lat="43.59167058944031" lon="11.346349696394443"><ele>427.0</ele><time>2026-03-22T17:59:02.999Z</time></trkpt><trkpt lat="43.591813561179265" lon="11.34631258345643"><ele>427.0</ele><time>2026-03-22T17:59:03.999Z</time></trkpt><trkpt lat="43.591960295325244" lon="11.346271421808666"><ele>427.0</ele><time>2026-03-22T17:59:04.999Z</time></trkpt><trkpt lat="43.59211123394704" lon="11.346282196515093"><ele>427.0</ele><time>2026-03-22T17:59:05.999Z</time></trkpt><trkpt lat="43.59225498007764" lon="11.346296698709022"><ele>425.0</ele><time>2026-03-22T17:59:06.999Z</time></trkpt><trkpt lat="43.59240524371736" lon="11.346349051704491"><ele>423.0</ele><time>2026-03-22T17:59:07.999Z</time></trkpt><trkpt lat="43.592545194215724" lon="11.34644355339642"><ele>421.0</ele><time>2026-03-22T17:59:09Z</time></trkpt><trkpt lat="43.59267946397057" lon="11.346567130507374"><ele>422.0</ele><time>2026-03-22T17:59:10Z</time></trkpt><trkpt lat="43.592811756269306" lon="11.346698245254842"><ele>423.0</ele><time>2026-03-22T17:59:11Z</time></trkpt><trkpt lat="43.59293121046454" lon="11.346825811922578"><ele>424.0</ele><time>2026-03-22T17:59:12Z</time></trkpt><trkpt lat="43.59303586939888" lon="11.34694629525073"><ele>424.0</ele><time>2026-03-22T17:59:13Z</time></trkpt><trkpt lat="43.59311959932154" lon="11.34707018926365"><ele>424.0</ele><time>2026-03-22T17:59:14Z</time></trkpt><trkpt lat="43.59318347933125" lon="11.347202074970452"><ele>424.0</ele><time>2026-03-22T17:59:15Z</time></trkpt><trkpt lat="43.593203335457936" lon="11.347347411480069"><ele>424.0</ele><time>2026-03-22T17:59:16Z</time></trkpt><trkpt lat="43.59318397835715" lon="11.347502757369245"><ele>427.5</ele><time>2026-03-22T17:59:17Z</time></trkpt><trkpt lat="43.59316908775015" lon="11.34767842663801"><ele>431.0</ele><time>2026-03-22T17:59:18Z</time></trkpt><trkpt lat="43.59313055024678" lon="11.3478499842985"><ele>434.5</ele><time>2026-03-22T17:59:19Z</time></trkpt><trkpt lat="43.5931221435127" lon="11.348026467797023"><ele>438.0</ele><time>2026-03-22T17:59:20Z</time></trkpt><trkpt lat="43.59315690396036" lon="11.34819814597941"><ele>439.5</ele><time>2026-03-22T17:59:21Z</time></trkpt><trkpt lat="43.59321847586798" lon="11.348362112988198"><ele>441.0</ele><time>2026-03-22T17:59:22Z</time></trkpt><trkpt lat="43.59330350659839" lon="11.348517219171287"><ele>442.5</ele><time>2026-03-22T17:59:23Z</time></trkpt><trkpt lat="43.59335830567516" lon="11.348694657743696"><ele>444.0</ele><time>2026-03-22T17:59:24Z</time></trkpt><trkpt lat="43.59342022304405" lon="11.348857865010611"><ele>447.0</ele><time>2026-03-22T17:59:25Z</time></trkpt><trkpt lat="43.593461390932234" lon="11.349008088118275"><ele>450.0</ele><time>2026-03-22T17:59:26Z</time></trkpt><trkpt lat="43.59348510398654" lon="11.349164839437792"><ele>453.0</ele><time>2026-03-22T17:59:27Z</time></trkpt><trkpt lat="43.59341458715175" lon="11.349329484590248"><ele>456.0</ele><time>2026-03-22T17:59:28Z</time></trkpt><trkpt lat="43.59336211247467" lon="11.34950574656455"><ele>456.0</ele><time>2026-03-22T17:59:29Z</time></trkpt><trkpt lat="43.59333808503699" lon="11.349691609278466"><ele>456.0</ele><time>2026-03-22T17:59:30Z</time></trkpt><trkpt lat="43.593329088947605" lon="11.349879211177829"><ele>456.0</ele><time>2026-03-22T17:59:31Z</time></trkpt><trkpt lat="43.5933599063722" lon="11.350064794825295"><ele>456.0</ele><time>2026-03-22T17:59:32Z</time></trkpt><trkpt lat="43.59341178714831" lon="11.350250889872273"><ele>458.25</ele><time>2026-03-22T17:59:33Z</time></trkpt><trkpt lat="43.59348163824702" lon="11.350428186757505"><ele>460.5</ele><time>2026-03-22T17:59:34Z</time></trkpt><trkpt lat="43.593561976054964" lon="11.350599688451284"><ele>462.75</ele><time>2026-03-22T17:59:35Z</time></trkpt><trkpt lat="43.593612791327054" lon="11.35077965497839"><ele>465.0</ele><time>2026-03-22T17:59:36Z</time></trkpt><trkpt lat="43.59365501605971" lon="11.350957856845415"><ele>467.0</ele><time>2026-03-22T17:59:37Z</time></trkpt><trkpt lat="43.59363667476583" lon="11.351129924685777"><ele>469.0</ele><time>2026-03-22T17:59:38Z</time></trkpt><trkpt lat="43.593621827767876" lon="11.35131058644468"><ele>471.0</ele><time>2026-03-22T17:59:39Z</time></trkpt><trkpt lat="43.59359056468544" lon="11.351479301684094"><ele>473.0</ele><time>2026-03-22T17:59:40Z</time></trkpt><trkpt lat="43.59354130311291" lon="11.351655703021981"><ele>473.0</ele><time>2026-03-22T17:59:41Z</time></trkpt><trkpt lat="43.59349871623141" lon="11.351841091660258"><ele>473.0</ele><time>2026-03-22T17:59:42Z</time></trkpt><trkpt lat="43.59342607499126" lon="11.35200340249517"><ele>473.0</ele><time>2026-03-22T17:59:43Z</time></trkpt><trkpt lat="43.59335721986216" lon="11.35216575768073"><ele>473.0</ele><time>2026-03-22T17:59:44Z</time></trkpt><trkpt lat="43.59327910402072" lon="11.35231166956103"><ele>470.75</ele><time>2026-03-22T17:59:45Z</time></trkpt><trkpt lat="43.59317961134205" lon="11.35244468199408"><ele>468.5</ele><time>2026-03-22T17:59:46Z</time></trkpt><trkpt lat="43.593098304746306" lon="11.352588954295937"><ele>466.25</ele><time>2026-03-22T17:59:47Z</time></trkpt><trkpt lat="43.59299967411805" lon="11.352725819782002"><ele>464.0</ele><time>2026-03-22T17:59:48Z</time></trkpt><trkpt lat="43.59294456286428" lon="11.352914453518531"><ele>465.5</ele><time>2026-03-22T17:59:49Z</time></trkpt><trkpt lat="43.592950567242404" lon="11.353115208684098"><ele>467.0</ele><time>2026-03-22T17:59:50Z</time></trkpt><trkpt lat="43.59290046910018" lon="11.353287233553932"><ele>468.5</ele><time>2026-03-22T17:59:51Z</time></trkpt><trkpt lat="43.59282683393686" lon="11.353447480151207"><ele>470.0</ele><time>2026-03-22T17:59:52Z</time></trkpt><trkpt lat="43.59273722002455" lon="11.353595718367277"><ele>470.0</ele><time>2026-03-22T17:59:53Z</time></trkpt><trkpt lat="43.5926303237361" lon="11.35371523532917"><ele>470.0</ele><time>2026-03-22T17:59:54Z</time></trkpt><trkpt lat="43.59252780540521" lon="11.35384692831199"><ele>470.0</ele><time>2026-03-22T17:59:55Z</time></trkpt><trkpt lat="43.59243032042372" lon="11.353986413093422"><ele>470.0</ele><time>2026-03-22T17:59:56Z</time></trkpt><trkpt lat="43.59234964893343" lon="11.354135294532194"><ele>469.0</ele><time>2026-03-22T17:59:57Z</time></trkpt><trkpt lat="43.5922595772179" lon="11.354245246404764"><ele>468.0</ele><time>2026-03-22T17:59:58Z</time></trkpt><trkpt lat="43.592138096327304" lon="11.354294002717905"><ele>467.0</ele><time>2026-03-22T17:59:59Z</time></trkpt><trkpt lat="43.59200495283879" lon="11.354309756628878"><ele>466.0</ele><time>2026-03-22T18:00:00Z</time></trkpt><trkpt lat="43.59186589739468" lon="11.354380201198722"><ele>467.0</ele><time>2026-03-22T18:00:01Z</time></trkpt><trkpt lat="43.59174134489213" lon="11.354479835293501"><ele>468.0</ele><time>2026-03-22T18:00:02Z</time></trkpt><trkpt lat="43.591638502503606" lon="11.354631476381314"><ele>469.0</ele><time>2026-03-22T18:00:03Z</time></trkpt><trkpt lat="43.591526640373836" lon="11.35474776445284"><ele>470.0</ele><time>2026-03-22T18:00:04Z</time></trkpt><trkpt lat="43.591390767381746" lon="11.354798538624678"><ele>470.0</ele><time>2026-03-22T18:00:05Z</time></trkpt><trkpt lat="43.591260582245404" lon="11.354861551142834"><ele>470.0</ele><time>2026-03-22T18:00:06Z</time></trkpt><trkpt lat="43.59112559309684" lon="11.354917601240528"><ele>470.0</ele><time>2026-03-22T18:00:07Z</time></trkpt><trkpt lat="43.59101048473574" lon="11.355002911498634"><ele>470.0</ele><time>2026-03-22T18:00:08Z</time></trkpt><trkpt lat="43.590908665113034" lon="11.355080032122864"><ele>471.6</ele><time>2026-03-22T18:00:09Z</time></trkpt><trkpt lat="43.59081360014094" lon="11.355156963779752"><ele>473.2</ele><time>2026-03-22T18:00:10Z</time></trkpt><trkpt lat="43.59074451431104" lon="11.355273521797997"><ele>474.79999999999995</ele><time>2026-03-22T18:00:11Z</time></trkpt><trkpt lat="43.5907254279481" lon="11.355424390359653"><ele>476.4</ele><time>2026-03-22T18:00:12Z</time></trkpt><trkpt lat="43.59073995751174" lon="11.355580074500603"><ele>478.0</ele><time>2026-03-22T18:00:13Z</time></trkpt><trkpt lat="43.59080169618804" lon="11.355719618857703"><ele>478.0</ele><time>2026-03-22T18:00:14Z</time></trkpt><trkpt lat="43.59090849537973" lon="11.355812133937476"><ele>478.0</ele><time>2026-03-22T18:00:15Z</time></trkpt><trkpt lat="43.5910383315616" lon="11.355844950089393"><ele>478.0</ele><time>2026-03-22T18:00:16Z</time></trkpt><trkpt lat="43.59116782908315" lon="11.355811787420933"><ele>478.0</ele><time>2026-03-22T18:00:17Z</time></trkpt><trkpt lat="43.59129759597429" lon="11.355764798490037"><ele>477.4</ele><time>2026-03-22T18:00:18Z</time></trkpt><trkpt lat="43.59141237164431" lon="11.355733261661248"><ele>476.79999999999995</ele><time>2026-03-22T18:00:19Z</time></trkpt><trkpt lat="43.59150338504743" lon="11.355792614737021"><ele>476.2</ele><time>2026-03-22T18:00:20Z</time></trkpt><trkpt lat="43.591570738890084" lon="11.355907174143155"><ele>475.6</ele><time>2026-03-22T18:00:21Z</time></trkpt><trkpt lat="43.59162680134713" lon="11.356047520737745"><ele>475.0</ele><time>2026-03-22T18:00:22Z</time></trkpt><trkpt lat="43.59170777864503" lon="11.356182522867497"><ele>475.0</ele><time>2026-03-22T18:00:23Z</time></trkpt><trkpt lat="43.59182161138821" lon="11.356285096796132"><ele>475.0</ele><time>2026-03-22T18:00:24Z</time></trkpt><trkpt lat="43.59195499828256" lon="11.35636874328143"><ele>475.0</ele><time>2026-03-22T18:00:25Z</time></trkpt><trkpt lat="43.592075589201905" lon="11.356474800154963"><ele>475.0</ele><time>2026-03-22T18:00:26Z</time></trkpt><trkpt lat="43.59218438411322" lon="11.356610670384349"><ele>473.0</ele><time>2026-03-22T18:00:27Z</time></trkpt><trkpt lat="43.59220510534122" lon="11.356812019678863"><ele>471.0</ele><time>2026-03-22T18:00:28Z</time></trkpt><trkpt lat="43.5922437836375" lon="11.357013837021263"><ele>469.0</ele><time>2026-03-22T18:00:29Z</time></trkpt><trkpt lat="43.59227551644081" lon="11.357229440933336"><ele>474.33333333333337</ele><time>2026-03-22T18:00:30Z</time></trkpt><trkpt lat="43.592307053398315" lon="11.357450524089202"><ele>479.66666666666663</ele><time>2026-03-22T18:00:31Z</time></trkpt><trkpt lat="43.59234189414818" lon="11.357669038044138"><ele>485.0</ele><time>2026-03-22T18:00:32Z</time></trkpt><trkpt lat="43.592398712466895" lon="11.357880149308537"><ele>489.5</ele><time>2026-03-22T18:00:33Z</time></trkpt><trkpt lat="43.59244482890605" lon="11.358081352398363"><ele>494.0</ele><time>2026-03-22T18:00:34Z</time></trkpt><trkpt lat="43.592484661822326" lon="11.358282851097918"><ele>498.5</ele><time>2026-03-22T18:00:35Z</time></trkpt><trkpt lat="43.59254995598012" lon="11.35845203325681"><ele>503.0</ele><time>2026-03-22T18:00:36Z</time></trkpt><trkpt lat="43.59261254471975" lon="11.358586053522783"><ele>503.0</ele><time>2026-03-22T18:00:37Z</time></trkpt><trkpt lat="43.59267792612359" lon="11.358705993391693"><ele>502.99999999999994</ele><time>2026-03-22T18:00:38Z</time></trkpt><trkpt lat="43.592721115021924" lon="11.358810044993865"><ele>502.99999999999994</ele><time>2026-03-22T18:00:39Z</time></trkpt><trkpt lat="43.59272992167253" lon="11.35892585358257"><ele>503.0</ele><time>2026-03-22T18:00:40Z</time></trkpt><trkpt lat="43.59269937848293" lon="11.359063000661477"><ele>503.0</ele><time>2026-03-22T18:00:41Z</time></trkpt><trkpt lat="43.592609640012576" lon="11.359154506651356"><ele>503.79999999999995</ele><time>2026-03-22T18:00:42Z</time></trkpt><trkpt lat="43.59254345464417" lon="11.359262440381057"><ele>504.59999999999997</ele><time>2026-03-22T18:00:43Z</time></trkpt><trkpt lat="43.59249729341967" lon="11.35939771597424"><ele>505.40000000000003</ele><time>2026-03-22T18:00:44Z</time></trkpt><trkpt lat="43.59246591735226" lon="11.359546951111911"><ele>506.20000000000005</ele><time>2026-03-22T18:00:45Z</time></trkpt><trkpt lat="43.59243122564005" lon="11.359698369103405"><ele>507.0</ele><time>2026-03-22T18:00:46Z</time></trkpt><trkpt lat="43.59241088342572" lon="11.359844377895143"><ele>507.20000000000005</ele><time>2026-03-22T18:00:47Z</time></trkpt><trkpt lat="43.59239153164084" lon="11.359986185242315"><ele>507.40000000000003</ele><time>2026-03-22T18:00:48Z</time></trkpt><trkpt lat="43.59237244855813" lon="11.360132397766247"><ele>507.59999999999997</ele><time>2026-03-22T18:00:49Z</time></trkpt><trkpt lat="43.59235740162036" lon="11.360254827848946"><ele>507.79999999999995</ele><time>2026-03-22T18:00:49.999Z</time></trkpt><trkpt lat="43.59235125029584" lon="11.360377080694324"><ele>508.0</ele><time>2026-03-22T18:00:50.999Z</time></trkpt><trkpt lat="43.592364867053846" lon="11.360510302952276"><ele>510.59999999999997</ele><time>2026-03-22T18:00:51.999Z</time></trkpt><trkpt lat="43.59239732366497" lon="11.36063781812525"><ele>513.1999999999999</ele><time>2026-03-22T18:00:52.999Z</time></trkpt><trkpt lat="43.59249017378191" lon="11.3607356620943"><ele>515.8</ele><time>2026-03-22T18:00:53.999Z</time></trkpt><trkpt lat="43.59260153354961" lon="11.360772748508843"><ele>518.4</ele><time>2026-03-22T18:00:54.999Z</time></trkpt><trkpt lat="43.59268504558505" lon="11.360812365164225"><ele>521.0</ele><time>2026-03-22T18:00:55.999Z</time></trkpt><trkpt lat="43.59276527615695" lon="11.360867721388258"><ele>521.0</ele><time>2026-03-22T18:00:56.999Z</time></trkpt><trkpt lat="43.5928326474515" lon="11.360945378953332"><ele>521.0</ele><time>2026-03-22T18:00:57.999Z</time></trkpt><trkpt lat="43.59287646273083" lon="11.361067580371856"><ele>521.0</ele><time>2026-03-22T18:00:58.999Z</time></trkpt><trkpt lat="43.592888373546444" lon="11.361180434843146"><ele>521.0</ele><time>2026-03-22T18:00:59.999Z</time></trkpt><trkpt lat="43.59288768020311" lon="11.361312045252212"><ele>521.0</ele><time>2026-03-22T18:01:00.999Z</time></trkpt><trkpt lat="43.592876645853124" lon="11.361463042183276"><ele>523.2</ele><time>2026-03-22T18:01:01.999Z</time></trkpt><trkpt lat="43.592854702382674" lon="11.361622016584176"><ele>525.4000000000001</ele><time>2026-03-22T18:01:02.999Z</time></trkpt><trkpt lat="43.592822578035175" lon="11.361765442191919"><ele>527.6</ele><time>2026-03-22T18:01:03.999Z</time></trkpt><trkpt lat="43.59278087438884" lon="11.36188494165214"><ele>529.8000000000001</ele><time>2026-03-22T18:01:04.999Z</time></trkpt><trkpt lat="43.59272769629873" lon="11.362005924035323"><ele>532.0</ele><time>2026-03-22T18:01:05.999Z</time></trkpt><trkpt lat="43.5926757595463" lon="11.362131843998945"><ele>532.0</ele><time>2026-03-22T18:01:06.999Z</time></trkpt><trkpt lat="43.59262104896841" lon="11.362264488819335"><ele>532.0</ele><time>2026-03-22T18:01:07.999Z</time></trkpt><trkpt lat="43.59257098285048" lon="11.362391846496406"><ele>532.0</ele><time>2026-03-22T18:01:08.999Z</time></trkpt><trkpt lat="43.592540088041886" lon="11.362533507706702"><ele>532.0</ele><time>2026-03-22T18:01:09.999Z</time></trkpt><trkpt lat="43.59249875959816" lon="11.362658916930258"><ele>532.0</ele><time>2026-03-22T18:01:10.999Z</time></trkpt><trkpt lat="43.592469404745266" lon="11.36277775112557"><ele>532.0</ele><time>2026-03-22T18:01:11.999Z</time></trkpt><trkpt lat="43.592438039025446" lon="11.362890790593436"><ele>532.0</ele><time>2026-03-22T18:01:12.999Z</time></trkpt><trkpt lat="43.59243601569194" lon="11.36301146255557"><ele>532.0</ele><time>2026-03-22T18:01:13.999Z</time></trkpt><trkpt lat="43.592444630317196" lon="11.363128840258357"><ele>532.0</ele><time>2026-03-22T18:01:15Z</time></trkpt><trkpt lat="43.59248220369105" lon="11.363236888889467"><ele>532.0</ele><time>2026-03-22T18:01:16Z</time></trkpt><trkpt lat="43.59256697571685" lon="11.363322998788524"><ele>532.75</ele><time>2026-03-22T18:01:17Z</time></trkpt><trkpt lat="43.5926730661414" lon="11.363366552281132"><ele>533.5</ele><time>2026-03-22T18:01:18Z</time></trkpt><trkpt lat="43.59278652493666" lon="11.363335071852559"><ele>534.25</ele><time>2026-03-22T18:01:19Z</time></trkpt><trkpt lat="43.59290514881266" lon="11.363321524968766"><ele>535.0</ele><time>2026-03-22T18:01:20Z</time></trkpt><trkpt lat="43.59302519857439" lon="11.363309931974797"><ele>533.0</ele><time>2026-03-22T18:01:21Z</time></trkpt><trkpt lat="43.59316709439208" lon="11.363279940929186"><ele>531.0</ele><time>2026-03-22T18:01:22Z</time></trkpt><trkpt lat="43.593286175024495" lon="11.363258042816506"><ele>529.0</ele><time>2026-03-22T18:01:23Z</time></trkpt><trkpt lat="43.59341099174367" lon="11.363242432114742"><ele>527.0</ele><time>2026-03-22T18:01:24Z</time></trkpt><trkpt lat="43.59352561316309" lon="11.36324358891618"><ele>527.0</ele><time>2026-03-22T18:01:25Z</time></trkpt><trkpt lat="43.59363802769103" lon="11.363207413955847"><ele>527.0</ele><time>2026-03-22T18:01:26Z</time></trkpt><trkpt lat="43.59375223093676" lon="11.363246092374322"><ele>527.0</ele><time>2026-03-22T18:01:27Z</time></trkpt><trkpt lat="43.59387903112474" lon="11.363334206603907"><ele>527.0</ele><time>2026-03-22T18:01:28Z</time></trkpt><trkpt lat="43.593994210984796" lon="11.363414538760354"><ele>525.25</ele><time>2026-03-22T18:01:29Z</time></trkpt><trkpt lat="43.594105384177354" lon="11.363503001547578"><ele>523.5</ele><time>2026-03-22T18:01:30Z</time></trkpt><trkpt lat="43.594222660164185" lon="11.3635084321607"><ele>521.75</ele><time>2026-03-22T18:01:31Z</time></trkpt><trkpt lat="43.594325003976884" lon="11.363513277590355"><ele>520.0</ele><time>2026-03-22T18:01:32Z</time></trkpt><trkpt lat="43.594429951479576" lon="11.36349484272751"><ele>522.0</ele><time>2026-03-22T18:01:33Z</time></trkpt><trkpt lat="43.594545940538936" lon="11.363434327431706"><ele>524.0</ele><time>2026-03-22T18:01:34Z</time></trkpt><trkpt lat="43.594653378572914" lon="11.363334675440989"><ele>526.0</ele><time>2026-03-22T18:01:35Z</time></trkpt><trkpt lat="43.5947521568381" lon="11.363221497734767"><ele>528.0</ele><time>2026-03-22T18:01:36Z</time></trkpt><trkpt lat="43.59483214712759" lon="11.363108016473783"><ele>522.5</ele><time>2026-03-22T18:01:37Z</time></trkpt><trkpt lat="43.594906708685556" lon="11.363009456746603"><ele>517.0</ele><time>2026-03-22T18:01:38Z</time></trkpt><trkpt lat="43.59500236497473" lon="11.36295336040693"><ele>511.5</ele><time>2026-03-22T18:01:39Z</time></trkpt><trkpt lat="43.59511967837391" lon="11.362894105300553"><ele>506.0</ele><time>2026-03-22T18:01:40Z</time></trkpt><trkpt lat="43.59526586553915" lon="11.3628167660291"><ele>511.66666666666663</ele><time>2026-03-22T18:01:41Z</time></trkpt><trkpt lat="43.5954120572103" lon="11.362716155309998"><ele>517.3333333333334</ele><time>2026-03-22T18:01:42Z</time></trkpt><trkpt lat="43.5955562110697" lon="11.362599142413396"><ele>523.0</ele><time>2026-03-22T18:01:43Z</time></trkpt><trkpt lat="43.59571105655837" lon="11.362476507833646"><ele>523.0</ele><time>2026-03-22T18:01:44Z</time></trkpt><trkpt lat="43.595865489971025" lon="11.362359665812763"><ele>523.0</ele><time>2026-03-22T18:01:45Z</time></trkpt><trkpt lat="43.59599477210011" lon="11.362267838026323"><ele>523.0</ele><time>2026-03-22T18:01:46Z</time></trkpt><trkpt lat="43.596123593721494" lon="11.362208235279699"><ele>523.75</ele><time>2026-03-22T18:01:47Z</time></trkpt><trkpt lat="43.596269530957024" lon="11.362179930609809"><ele>524.5</ele><time>2026-03-22T18:01:48Z</time></trkpt><trkpt lat="43.59641391998813" lon="11.36216583229732"><ele>525.25</ele><time>2026-03-22T18:01:49Z</time></trkpt><trkpt lat="43.596532337471906" lon="11.362197727323624"><ele>526.0</ele><time>2026-03-22T18:01:50Z</time></trkpt><trkpt lat="43.596646681549714" lon="11.362276526358302"><ele>526.0</ele><time>2026-03-22T18:01:51Z</time></trkpt><trkpt lat="43.59669699505882" lon="11.36245170720286"><ele>526.0</ele><time>2026-03-22T18:01:52Z</time></trkpt><trkpt lat="43.596754956980696" lon="11.36262823174902"><ele>526.0</ele><time>2026-03-22T18:01:53Z</time></trkpt><trkpt lat="43.59682902699391" lon="11.362782717344"><ele>526.0</ele><time>2026-03-22T18:01:54Z</time></trkpt><trkpt lat="43.59694211270187" lon="11.36290526919322"><ele>528.0</ele><time>2026-03-22T18:01:55Z</time></trkpt><trkpt lat="43.59707823055386" lon="11.3629852127117"><ele>530.0</ele><time>2026-03-22T18:01:56Z</time></trkpt><trkpt lat="43.597227437104735" lon="11.363037884748367"><ele>532.0</ele><time>2026-03-22T18:01:57Z</time></trkpt><trkpt lat="43.59737805247632" lon="11.363073344526207"><ele>532.0</ele><time>2026-03-22T18:01:58Z</time></trkpt><trkpt lat="43.59753072437172" lon="11.363137863931499"><ele>532.0</ele><time>2026-03-22T18:01:59Z</time></trkpt><trkpt lat="43.59767705291046" lon="11.363180074120297"><ele>532.0</ele><time>2026-03-22T18:02:00Z</time></trkpt><trkpt lat="43.59779999980032" lon="11.363223238227057"><ele>532.0</ele><time>2026-03-22T18:02:01Z</time></trkpt><trkpt lat="43.59791468180125" lon="11.363289389371728"><ele>532.0</ele><time>2026-03-22T18:02:02Z</time></trkpt><trkpt lat="43.598004671594715" lon="11.363387512935638"><ele>532.0</ele><time>2026-03-22T18:02:03Z</time></trkpt><trkpt lat="43.5980755281857" lon="11.36349042745402"><ele>532.0</ele><time>2026-03-22T18:02:04Z</time></trkpt><trkpt lat="43.59813290405063" lon="11.363606781447693"><ele>532.0</ele><time>2026-03-22T18:02:05Z</time></trkpt><trkpt lat="43.59816345769371" lon="11.363720769936421"><ele>532.0</ele><time>2026-03-22T18:02:06Z</time></trkpt><trkpt lat="43.59813252149901" lon="11.363829399337334"><ele>532.0</ele><time>2026-03-22T18:02:08Z</time></trkpt><trkpt lat="43.59804284216645" lon="11.363791120957906"><ele>532.0</ele><time>2026-03-22T18:02:10Z</time></trkpt><trkpt lat="43.59796626116764" lon="11.363769591277265"><ele>532.0</ele><time>2026-03-22T18:02:11Z</time></trkpt><trkpt lat="43.597887144629844" lon="11.363746380044377"><ele>532.0</ele><time>2026-03-22T18:02:12Z</time></trkpt><trkpt lat="43.59780502636678" lon="11.363722288174811"><ele>532.0</ele><time>2026-03-22T18:02:13Z</time></trkpt><trkpt lat="43.597701831492465" lon="11.363692012877546"><ele>532.0</ele><time>2026-03-22T18:02:14Z</time></trkpt><trkpt lat="43.59757199525307" lon="11.363670675859623"><ele>532.0</ele><time>2026-03-22T18:02:15Z</time></trkpt><trkpt lat="43.597468030981375" lon="11.363668599214082"><ele>532.0</ele><time>2026-03-22T18:02:16Z</time></trkpt><trkpt lat="43.597384759176904" lon="11.36374749019728"><ele>532.0</ele><time>2026-03-22T18:02:17Z</time></trkpt><trkpt lat="43.597295054532296" lon="11.363814004299364"><ele>532.0</ele><time>2026-03-22T18:02:18Z</time></trkpt><trkpt lat="43.597211106811955" lon="11.36384566645506"><ele>532.0</ele><time>2026-03-22T18:02:19Z</time></trkpt><trkpt lat="43.59712868621051" lon="11.363879091249684"><ele>533.1666666666667</ele><time>2026-03-22T18:02:20Z</time></trkpt><trkpt lat="43.597046274990824" lon="11.363904671262343"><ele>534.3333333333334</ele><time>2026-03-22T18:02:21Z</time></trkpt><trkpt lat="43.59695991477196" lon="11.363919671052747"><ele>535.5</ele><time>2026-03-22T18:02:22Z</time></trkpt><trkpt lat="43.59687452746256" lon="11.363916771718802"><ele>536.6666666666666</ele><time>2026-03-22T18:02:23Z</time></trkpt><trkpt lat="43.59679671470472" lon="11.36389971958952"><ele>537.8333333333333</ele><time>2026-03-22T18:02:24Z</time></trkpt><trkpt lat="43.5967087792965" lon="11.363902853940745"><ele>539.0</ele><time>2026-03-22T18:02:25Z</time></trkpt><trkpt lat="43.59663483454335" lon="11.363823158662285"><ele>539.8</ele><time>2026-03-22T18:02:26Z</time></trkpt><trkpt lat="43.59656993788512" lon="11.363722518252372"><ele>540.5999999999999</ele><time>2026-03-22T18:02:27Z</time></trkpt><trkpt lat="43.5964952647365" lon="11.363648961337926"><ele>541.4</ele><time>2026-03-22T18:02:28Z</time></trkpt><trkpt lat="43.596398554303974" lon="11.363600872424408"><ele>542.1999999999999</ele><time>2026-03-22T18:02:29Z</time></trkpt><trkpt lat="43.59629528026149" lon="11.363556411305982"><ele>543.0</ele><time>2026-03-22T18:02:30Z</time></trkpt><trkpt lat="43.59621051059289" lon="11.36353269856553"><ele>543.8333333333334</ele><time>2026-03-22T18:02:31Z</time></trkpt><trkpt lat="43.59613583103619" lon="11.363542426431378"><ele>544.6666666666666</ele><time>2026-03-22T18:02:32Z</time></trkpt><trkpt lat="43.59605193010221" lon="11.363585525127883"><ele>545.5</ele><time>2026-03-22T18:02:33Z</time></trkpt><trkpt lat="43.59596624887157" lon="11.363628171749594"><ele>546.3333333333333</ele><time>2026-03-22T18:02:34Z</time></trkpt><trkpt lat="43.59587429512848" lon="11.363679531775814"><ele>547.1666666666666</ele><time>2026-03-22T18:02:35Z</time></trkpt><trkpt lat="43.59581272445673" lon="11.363744504377438"><ele>548.0</ele><time>2026-03-22T18:02:36Z</time></trkpt><trkpt lat="43.59576557833555" lon="11.363822482557515"><ele>551.0</ele><time>2026-03-22T18:02:37Z</time></trkpt><trkpt lat="43.595731139892145" lon="11.363926152049405"><ele>554.0</ele><time>2026-03-22T18:02:38Z</time></trkpt><trkpt lat="43.595708727882936" lon="11.364044809701177"><ele>557.0</ele><time>2026-03-22T18:02:39Z</time></trkpt><trkpt lat="43.59568501355753" lon="11.364176298946077"><ele>560.0</ele><time>2026-03-22T18:02:40Z</time></trkpt><trkpt lat="43.595673124620326" lon="11.3643060904797"><ele>563.0</ele><time>2026-03-22T18:02:41Z</time></trkpt><trkpt lat="43.595673488209535" lon="11.364424541728187"><ele>563.0</ele><time>2026-03-22T18:02:42Z</time></trkpt><trkpt lat="43.5956800404595" lon="11.364538983432627"><ele>563.0</ele><time>2026-03-22T18:02:43Z</time></trkpt><trkpt lat="43.5956836108031" lon="11.364648574392513"><ele>563.0</ele><time>2026-03-22T18:02:44Z</time></trkpt><trkpt lat="43.5956993351208" lon="11.364739200984094"><ele>563.0</ele><time>2026-03-22T18:02:45Z</time></trkpt><trkpt lat="43.59571696848853" lon="11.36484039711272"><ele>563.0</ele><time>2026-03-22T18:02:46Z</time></trkpt><trkpt lat="43.59573043492093" lon="11.364935999038291"><ele>563.0</ele><time>2026-03-22T18:02:47Z</time></trkpt><trkpt lat="43.595746144126196" lon="11.365093474736451"><ele>564.2857142857142</ele><time>2026-03-22T18:02:49Z</time></trkpt><trkpt lat="43.59575826055628" lon="11.365187051905956"><ele>565.5714285714286</ele><time>2026-03-22T18:02:50Z</time></trkpt><trkpt lat="43.595744214029985" lon="11.365278076275994"><ele>566.8571428571429</ele><time>2026-03-22T18:02:51Z</time></trkpt><trkpt lat="43.59572088235427" lon="11.365370077935266"><ele>568.1428571428571</ele><time>2026-03-22T18:02:52Z</time></trkpt><trkpt lat="43.59569254838375" lon="11.365458942050713"><ele>569.4285714285714</ele><time>2026-03-22T18:02:53Z</time></trkpt><trkpt lat="43.595659734866246" lon="11.36554115197926"><ele>570.7142857142857</ele><time>2026-03-22T18:02:54Z</time></trkpt><trkpt lat="43.595623992477826" lon="11.365616283552555"><ele>572.0</ele><time>2026-03-22T18:02:55Z</time></trkpt><trkpt lat="43.595571531954725" lon="11.3656936407309"><ele>573.2</ele><time>2026-03-22T18:02:56Z</time></trkpt><trkpt lat="43.59550887612963" lon="11.365751783524274"><ele>574.4000000000001</ele><time>2026-03-22T18:02:57Z</time></trkpt><trkpt lat="43.595448097662235" lon="11.365777391858172"><ele>575.5999999999999</ele><time>2026-03-22T18:02:57.999Z</time></trkpt><trkpt lat="43.595321454388106" lon="11.365866434477656"><ele>576.8</ele><time>2026-03-22T18:02:59.999Z</time></trkpt><trkpt lat="43.59523530925233" lon="11.365917994904622"><ele>578.0</ele><time>2026-03-22T18:03:00.999Z</time></trkpt><trkpt lat="43.595137625076234" lon="11.365971152870605"><ele>578.0</ele><time>2026-03-22T18:03:01.999Z</time></trkpt><trkpt lat="43.59504720826295" lon="11.366005406257221"><ele>578.0</ele><time>2026-03-22T18:03:02.999Z</time></trkpt><trkpt lat="43.59496207148954" lon="11.366014575403614"><ele>578.0</ele><time>2026-03-22T18:03:03.999Z</time></trkpt><trkpt lat="43.59487180767663" lon="11.365994549222444"><ele>578.0</ele><time>2026-03-22T18:03:04.999Z</time></trkpt><trkpt lat="43.59477176815034" lon="11.365954573456742"><ele>578.0</ele><time>2026-03-22T18:03:05.999Z</time></trkpt><trkpt lat="43.59467489816339" lon="11.365878387730596"><ele>578.0</ele><time>2026-03-22T18:03:06.999Z</time></trkpt><trkpt lat="43.59457158708485" lon="11.365821824434144"><ele>578.0</ele><time>2026-03-22T18:03:07.999Z</time></trkpt><trkpt lat="43.59449646447959" lon="11.365790931286451"><ele>578.0</ele><time>2026-03-22T18:03:08.999Z</time></trkpt><trkpt lat="43.59436722891705" lon="11.365805433205487"><ele>578.0</ele><time>2026-03-22T18:03:10.999Z</time></trkpt><trkpt lat="43.594304295280274" lon="11.365848438257832"><ele>578.0</ele><time>2026-03-22T18:03:11.999Z</time></trkpt><trkpt lat="43.594229192499455" lon="11.365938841657849"><ele>579.5714285714286</ele><time>2026-03-22T18:03:12.999Z</time></trkpt><trkpt lat="43.59416153374814" lon="11.366025446594145"><ele>581.1428571428571</ele><time>2026-03-22T18:03:13.999Z</time></trkpt><trkpt lat="43.5940960591273" lon="11.366081344178015"><ele>582.7142857142857</ele><time>2026-03-22T18:03:14.999Z</time></trkpt><trkpt lat="43.594033016184056" lon="11.36607479132223"><ele>584.2857142857142</ele><time>2026-03-22T18:03:15.999Z</time></trkpt><trkpt lat="43.59396952097619" lon="11.366059411232115"><ele>585.8571428571428</ele><time>2026-03-22T18:03:16.999Z</time></trkpt><trkpt lat="43.59390093347092" lon="11.36603954925723"><ele>587.4285714285714</ele><time>2026-03-22T18:03:17.999Z</time></trkpt><trkpt lat="43.593830258267204" lon="11.366049977008487"><ele>589.0</ele><time>2026-03-22T18:03:19.999Z</time></trkpt><trkpt lat="43.59382993193402" lon="11.366162780513905"><ele>589.0</ele><time>2026-03-22T18:03:22Z</time></trkpt><trkpt lat="43.59380251077342" lon="11.366284550626343"><ele>589.0</ele><time>2026-03-22T18:03:24Z</time></trkpt><trkpt lat="43.593742366343214" lon="11.366362100690017"><ele>589.0</ele><time>2026-03-22T18:03:26Z</time></trkpt><trkpt lat="43.59370896142078" lon="11.366445342012556"><ele>589.0</ele><time>2026-03-22T18:03:27Z</time></trkpt><trkpt lat="43.59363759051162" lon="11.36654624530463"><ele>589.0</ele><time>2026-03-22T18:03:29Z</time></trkpt><trkpt lat="43.593557548529134" lon="11.366665253924651"><ele>591.6666666666667</ele><time>2026-03-22T18:03:31Z</time></trkpt><trkpt lat="43.59346032830596" lon="11.366677589348846"><ele>594.3333333333334</ele><time>2026-03-22T18:03:33Z</time></trkpt><trkpt lat="43.59339888903009" lon="11.36662842732766"><ele>597.0</ele><time>2026-03-22T18:03:34Z</time></trkpt><trkpt lat="43.59335720595607" lon="11.36653351772972"><ele>599.6666666666666</ele><time>2026-03-22T18:03:35Z</time></trkpt><trkpt lat="43.59332017030744" lon="11.366445692482515"><ele>602.3333333333333</ele><time>2026-03-22T18:03:36Z</time></trkpt><trkpt lat="43.59327281132351" lon="11.366386003582738"><ele>605.0</ele><time>2026-03-22T18:03:37Z</time></trkpt><trkpt lat="43.5932166864068" lon="11.366343827828318"><ele>605.0</ele><time>2026-03-22T18:03:38Z</time></trkpt><trkpt lat="43.59315433247772" lon="11.366285450987311"><ele>605.0</ele><time>2026-03-22T18:03:39Z</time></trkpt><trkpt lat="43.59309279018163" lon="11.36622196316223"><ele>605.0</ele><time>2026-03-22T18:03:40Z</time></trkpt><trkpt lat="43.59302290004633" lon="11.366168736092884"><ele>605.0</ele><time>2026-03-22T18:03:41Z</time></trkpt><trkpt lat="43.592960703166874" lon="11.366154381539625"><ele>605.0</ele><time>2026-03-22T18:03:42Z</time></trkpt><trkpt lat="43.59287008304526" lon="11.366201438139315"><ele>605.0</ele><time>2026-03-22T18:03:43Z</time></trkpt><trkpt lat="43.5927605334823" lon="11.366264240022053"><ele>604.8</ele><time>2026-03-22T18:03:44Z</time></trkpt><trkpt lat="43.592688529954444" lon="11.366273645474193"><ele>604.6</ele><time>2026-03-22T18:03:45Z</time></trkpt><trkpt lat="43.59259209937358" lon="11.366289869056535"><ele>604.4</ele><time>2026-03-22T18:03:47Z</time></trkpt><trkpt lat="43.59247524591024" lon="11.36632750654427"><ele>604.2</ele><time>2026-03-22T18:03:49Z</time></trkpt><trkpt lat="43.592346532634416" lon="11.366305782968013"><ele>604.0</ele><time>2026-03-22T18:03:51Z</time></trkpt><trkpt lat="43.59228153932825" lon="11.366293017515703"><ele>604.0</ele><time>2026-03-22T18:03:52Z</time></trkpt><trkpt lat="43.59221010584838" lon="11.366299020048496"><ele>604.0</ele><time>2026-03-22T18:03:53Z</time></trkpt><trkpt lat="43.59214683784424" lon="11.366323631950808"><ele>604.0</ele><time>2026-03-22T18:03:56Z</time></trkpt><trkpt lat="43.59205549497663" lon="11.366337490959198"><ele>604.0</ele><time>2026-03-22T18:04:02Z</time></trkpt><trkpt lat="43.59195703632037" lon="11.366389591469277"><ele>604.0</ele><time>2026-03-22T18:04:04Z</time></trkpt><trkpt lat="43.591890516395935" lon="11.366449047598916"><ele>604.0</ele><time>2026-03-22T18:04:05Z</time></trkpt><trkpt lat="43.59182138519932" lon="11.366509409179264"><ele>603.6666666666667</ele><time>2026-03-22T18:04:07Z</time></trkpt><trkpt lat="43.59180969214525" lon="11.366616922895432"><ele>603.3333333333334</ele><time>2026-03-22T18:04:11Z</time></trkpt><trkpt lat="43.59173039057673" lon="11.366630463535401"><ele>603.0</ele><time>2026-03-22T18:04:14Z</time></trkpt><trkpt lat="43.59165028051799" lon="11.366666564923658"><ele>602.6666666666666</ele><time>2026-03-22T18:04:17Z</time></trkpt><trkpt lat="43.59160291850348" lon="11.366744323446804"><ele>602.3333333333333</ele><time>2026-03-22T18:04:18Z</time></trkpt><trkpt lat="43.59156193313865" lon="11.366815817774059"><ele>602.0</ele><time>2026-03-22T18:04:19Z</time></trkpt><trkpt lat="43.59148364740621" lon="11.366885471340685"><ele>602.0</ele><time>2026-03-22T18:04:21Z</time></trkpt><trkpt lat="43.591387203517286" lon="11.366921657789261"><ele>602.0</ele><time>2026-03-22T18:04:23Z</time></trkpt><trkpt lat="43.59131077333291" lon="11.366977865015295"><ele>602.0</ele><time>2026-03-22T18:04:25Z</time></trkpt><trkpt lat="43.59123093228736" lon="11.36701040427632"><ele>602.0</ele><time>2026-03-22T18:04:27Z</time></trkpt><trkpt lat="43.591123215393814" lon="11.367074854875499"><ele>602.0</ele><time>2026-03-22T18:04:29Z</time></trkpt><trkpt lat="43.591042258193134" lon="11.367026706238951"><ele>601.3333333333333</ele><time>2026-03-22T18:04:31Z</time></trkpt><trkpt lat="43.591039096836084" lon="11.366863912131471"><ele>600.6666666666666</ele><time>2026-03-22T18:04:33Z</time></trkpt><trkpt lat="43.591029523187245" lon="11.366765046503719"><ele>600.0</ele><time>2026-03-22T18:04:34Z</time></trkpt><trkpt lat="43.59103681361624" lon="11.366670571225049"><ele>599.3333333333334</ele><time>2026-03-22T18:04:35Z</time></trkpt><trkpt lat="43.591004904071376" lon="11.366557978300325"><ele>598.6666666666667</ele><time>2026-03-22T18:04:38Z</time></trkpt><trkpt lat="43.59092045028612" lon="11.366512971342367"><ele>598.0</ele><time>2026-03-22T18:04:40Z</time></trkpt><trkpt lat="43.59086795813324" lon="11.366443121227636"><ele>598.0</ele><time>2026-03-22T18:04:43Z</time></trkpt><trkpt lat="43.59079779585727" lon="11.36637271900936"><ele>598.0</ele><time>2026-03-22T18:04:47Z</time></trkpt><trkpt lat="43.59072852853326" lon="11.366295037412815"><ele>598.0</ele><time>2026-03-22T18:04:49Z</time></trkpt><trkpt lat="43.59065088142477" lon="11.3662493868399"><ele>598.0</ele><time>2026-03-22T18:04:51Z</time></trkpt><trkpt lat="43.59058826019153" lon="11.366265404071703"><ele>598.0</ele><time>2026-03-22T18:04:53Z</time></trkpt><trkpt lat="43.59054111403203" lon="11.366415377244381"><ele>598.0</ele><time>2026-03-22T18:04:54.999Z</time></trkpt><trkpt lat="43.59051667550054" lon="11.366499542276598"><ele>598.0</ele><time>2026-03-22T18:04:55.999Z</time></trkpt><trkpt lat="43.59047617439824" lon="11.366576673537583"><ele>598.0</ele><time>2026-03-22T18:04:56.999Z</time></trkpt><trkpt lat="43.59042636752107" lon="11.366648627601137"><ele>598.0</ele><time>2026-03-22T18:04:57.999Z</time></trkpt><trkpt lat="43.59037893596219" lon="11.366720390882735"><ele>598.0</ele><time>2026-03-22T18:04:58.999Z</time></trkpt><trkpt lat="43.59029653118646" lon="11.366807932494144"><ele>598.0</ele><time>2026-03-22T18:05:00.999Z</time></trkpt><trkpt lat="43.59019425362153" lon="11.36684825652916"><ele>598.0</ele><time>2026-03-22T18:05:02.999Z</time></trkpt><trkpt lat="43.59011598359893" lon="11.366928534578225"><ele>600.6</ele><time>2026-03-22T18:05:04.999Z</time></trkpt><trkpt lat="43.59002333633035" lon="11.366972448688283"><ele>603.1999999999999</ele><time>2026-03-22T18:05:06.999Z</time></trkpt><trkpt lat="43.58996652697465" lon="11.367014192306952"><ele>605.8</ele><time>2026-03-22T18:05:08.999Z</time></trkpt><trkpt lat="43.58988191991408" lon="11.367064235862927"><ele>608.4</ele><time>2026-03-22T18:05:10.999Z</time></trkpt><trkpt lat="43.58976831254979" lon="11.367015609592402"><ele>611.0</ele><time>2026-03-22T18:05:12.999Z</time></trkpt><trkpt lat="43.58967097206113" lon="11.366958369268293"><ele>611.0</ele><time>2026-03-22T18:05:14.999Z</time></trkpt><trkpt lat="43.58958428191698" lon="11.366871904578504"><ele>611.0</ele><time>2026-03-22T18:05:16.999Z</time></trkpt><trkpt lat="43.58951318692742" lon="11.366851623542598"><ele>611.0</ele><time>2026-03-22T18:05:18.999Z</time></trkpt><trkpt lat="43.58944498443864" lon="11.366795447108661"><ele>611.0</ele><time>2026-03-22T18:05:20.999Z</time></trkpt><trkpt lat="43.589417261398026" lon="11.366700406746634"><ele>611.0</ele><time>2026-03-22T18:05:22.999Z</time></trkpt><trkpt lat="43.58931972231327" lon="11.366660972204027"><ele>611.0</ele><time>2026-03-22T18:05:24.999Z</time></trkpt><trkpt lat="43.589211073179925" lon="11.366677249245805"><ele>612.4</ele><time>2026-03-22T18:05:27Z</time></trkpt><trkpt lat="43.58911065900227" lon="11.366648818755154"><ele>613.8</ele><time>2026-03-22T18:05:29Z</time></trkpt><trkpt lat="43.58898664986694" lon="11.3665923279659"><ele>615.1999999999999</ele><time>2026-03-22T18:05:31Z</time></trkpt><trkpt lat="43.588909560085355" lon="11.366555226517935"><ele>616.6</ele><time>2026-03-22T18:05:32Z</time></trkpt><trkpt lat="43.58883537288019" lon="11.366501704220129"><ele>618.0</ele><time>2026-03-22T18:05:33Z</time></trkpt><trkpt lat="43.58876429037619" lon="11.366469416043955"><ele>618.0</ele><time>2026-03-22T18:05:34Z</time></trkpt><trkpt lat="43.58869917764132" lon="11.366491485114752"><ele>618.0</ele><time>2026-03-22T18:05:35Z</time></trkpt><trkpt lat="43.58861473549637" lon="11.366542034945361"><ele>618.0</ele><time>2026-03-22T18:05:36Z</time></trkpt><trkpt lat="43.588536476334866" lon="11.366588976841637"><ele>618.0</ele><time>2026-03-22T18:05:37Z</time></trkpt><trkpt lat="43.58845837290249" lon="11.36657407043803"><ele>618.0</ele><time>2026-03-22T18:05:38Z</time></trkpt><trkpt lat="43.58837387310376" lon="11.366553984411985"><ele>618.0</ele><time>2026-03-22T18:05:39Z</time></trkpt><trkpt lat="43.588290135130016" lon="11.366530841876715"><ele>618.4</ele><time>2026-03-22T18:05:40Z</time></trkpt><trkpt lat="43.588188977950814" lon="11.36650832305643"><ele>618.8</ele><time>2026-03-22T18:05:41Z</time></trkpt><trkpt lat="43.58808891111295" lon="11.366489004380995"><ele>619.2</ele><time>2026-03-22T18:05:42Z</time></trkpt><trkpt lat="43.58795137888255" lon="11.366460067750332"><ele>619.6</ele><time>2026-03-22T18:05:44Z</time></trkpt><trkpt lat="43.587858237495425" lon="11.366440632361323"><ele>620.0</ele><time>2026-03-22T18:05:45Z</time></trkpt><trkpt lat="43.58777372932461" lon="11.366431487600122"><ele>620.6</ele><time>2026-03-22T18:05:46Z</time></trkpt><trkpt lat="43.58768431327002" lon="11.36642389868639"><ele>621.2</ele><time>2026-03-22T18:05:47Z</time></trkpt><trkpt lat="43.58759428391591" lon="11.366420761390922"><ele>621.8</ele><time>2026-03-22T18:05:48Z</time></trkpt><trkpt lat="43.58749171423837" lon="11.366405491734003"><ele>622.4</ele><time>2026-03-22T18:05:49Z</time></trkpt><trkpt lat="43.587382548139864" lon="11.366390376644924"><ele>623.0</ele><time>2026-03-22T18:05:50Z</time></trkpt><trkpt lat="43.587273544081185" lon="11.3663957265165"><ele>623.0</ele><time>2026-03-22T18:05:51Z</time></trkpt><trkpt lat="43.587151615851575" lon="11.366413989653626"><ele>623.0</ele><time>2026-03-22T18:05:52Z</time></trkpt><trkpt lat="43.58704278493777" lon="11.366418005842048"><ele>623.0</ele><time>2026-03-22T18:05:53Z</time></trkpt><trkpt lat="43.58694729410872" lon="11.366426074256559"><ele>623.0</ele><time>2026-03-22T18:05:54Z</time></trkpt><trkpt lat="43.586853880851386" lon="11.36643032808673"><ele>623.0</ele><time>2026-03-22T18:05:55Z</time></trkpt><trkpt lat="43.586759445837544" lon="11.366432016937855"><ele>623.8</ele><time>2026-03-22T18:05:56Z</time></trkpt><trkpt lat="43.5866672207804" lon="11.366426401089516"><ele>624.5999999999999</ele><time>2026-03-22T18:05:57Z</time></trkpt><trkpt lat="43.58657470274586" lon="11.366424566313178"><ele>625.4000000000001</ele><time>2026-03-22T18:05:58Z</time></trkpt><trkpt lat="43.58648587878392" lon="11.366373565156962"><ele>626.2</ele><time>2026-03-22T18:05:59Z</time></trkpt><trkpt lat="43.58639163985897" lon="11.366363865268706"><ele>627.0</ele><time>2026-03-22T18:06:00Z</time></trkpt><trkpt lat="43.58629421503954" lon="11.36635383746364"><ele>627.0</ele><time>2026-03-22T18:06:01Z</time></trkpt><trkpt lat="43.58619326954211" lon="11.366343535165438"><ele>627.0</ele><time>2026-03-22T18:06:02Z</time></trkpt><trkpt lat="43.58609407270253" lon="11.36633444191173"><ele>627.0</ele><time>2026-03-22T18:06:03Z</time></trkpt><trkpt lat="43.58599965434251" lon="11.366325788470725"><ele>627.0</ele><time>2026-03-22T18:06:04Z</time></trkpt><trkpt lat="43.58590413991098" lon="11.366317032768935"><ele>627.0</ele><time>2026-03-22T18:06:05Z</time></trkpt><trkpt lat="43.585812397686894" lon="11.366308622866914"><ele>627.0</ele><time>2026-03-22T18:06:06Z</time></trkpt><trkpt lat="43.58572337484213" lon="11.366300462258701"><ele>627.0</ele><time>2026-03-22T18:06:07Z</time></trkpt><trkpt lat="43.58564588390516" lon="11.366293358758822"><ele>627.0</ele><time>2026-03-22T18:06:08Z</time></trkpt><trkpt lat="43.58557259623746" lon="11.366286640580135"><ele>627.0</ele><time>2026-03-22T18:06:09Z</time></trkpt><trkpt lat="43.58546139760826" lon="11.366276447135677"><ele>627.0</ele><time>2026-03-22T18:06:11Z</time></trkpt><trkpt lat="43.58537097790156" lon="11.36654412756323"><ele>627.0</ele><time>2026-03-22T18:06:14Z</time></trkpt><trkpt lat="43.58536126046292" lon="11.366651805053161"><ele>627.0</ele><time>2026-03-22T18:06:15Z</time></trkpt><trkpt lat="43.58535171834457" lon="11.366755279484009"><ele>627.0</ele><time>2026-03-22T18:06:16Z</time></trkpt><trkpt lat="43.585341310041514" lon="11.366865037732854"><ele>627.0</ele><time>2026-03-22T18:06:17Z</time></trkpt><trkpt lat="43.585345784585996" lon="11.36698309139144"><ele>627.0</ele><time>2026-03-22T18:06:18Z</time></trkpt><trkpt lat="43.5853190476044" lon="11.367087662155575"><ele>627.0</ele><time>2026-03-22T18:06:19Z</time></trkpt><trkpt lat="43.58530825396269" lon="11.367201788782245"><ele>628.0</ele><time>2026-03-22T18:06:20Z</time></trkpt><trkpt lat="43.58530229950489" lon="11.367313766495016"><ele>629.0</ele><time>2026-03-22T18:06:21Z</time></trkpt><trkpt lat="43.585306303237324" lon="11.367443404951915"><ele>630.0</ele><time>2026-03-22T18:06:22Z</time></trkpt><trkpt lat="43.585337672125355" lon="11.36756099091538"><ele>631.0</ele><time>2026-03-22T18:06:23Z</time></trkpt><trkpt lat="43.585363554006825" lon="11.367689624208719"><ele>632.0</ele><time>2026-03-22T18:06:24Z</time></trkpt><trkpt lat="43.58536915355685" lon="11.367811405961307"><ele>632.0</ele><time>2026-03-22T18:06:25Z</time></trkpt><trkpt lat="43.58537540514021" lon="11.367917072737105"><ele>632.0</ele><time>2026-03-22T18:06:26Z</time></trkpt><trkpt lat="43.585383594914724" lon="11.368023944631386"><ele>632.0</ele><time>2026-03-22T18:06:27Z</time></trkpt><trkpt lat="43.58534324508944" lon="11.368120418649028"><ele>632.0</ele><time>2026-03-22T18:06:28Z</time></trkpt><trkpt lat="43.585259883881385" lon="11.368173456938601"><ele>632.0</ele><time>2026-03-22T18:06:29Z</time></trkpt><trkpt lat="43.58518644446708" lon="11.368230507467912"><ele>632.0</ele><time>2026-03-22T18:06:30Z</time></trkpt><trkpt lat="43.58509693748847" lon="11.368310878296287"><ele>635.0</ele><time>2026-03-22T18:06:31Z</time></trkpt><trkpt lat="43.585010297024624" lon="11.368391755070544"><ele>638.0</ele><time>2026-03-22T18:06:32Z</time></trkpt><trkpt lat="43.584920154695325" lon="11.368476614880873"><ele>641.0</ele><time>2026-03-22T18:06:33Z</time></trkpt><trkpt lat="43.58482863425638" lon="11.368562772235528"><ele>644.0</ele><time>2026-03-22T18:06:34Z</time></trkpt><trkpt lat="43.58473870647909" lon="11.36864743038661"><ele>647.0</ele><time>2026-03-22T18:06:35Z</time></trkpt><trkpt lat="43.58464629839075" lon="11.368734423105142"><ele>647.0</ele><time>2026-03-22T18:06:36Z</time></trkpt><trkpt lat="43.58455309270826" lon="11.368818720011323"><ele>647.0</ele><time>2026-03-22T18:06:37Z</time></trkpt><trkpt lat="43.584456605944375" lon="11.368902797935148"><ele>647.0</ele><time>2026-03-22T18:06:38Z</time></trkpt><trkpt lat="43.584356340387664" lon="11.368990812716257"><ele>647.0</ele><time>2026-03-22T18:06:39Z</time></trkpt><trkpt lat="43.58426504254455" lon="11.36907952469839"><ele>649.4000000000001</ele><time>2026-03-22T18:06:40Z</time></trkpt><trkpt lat="43.584182537178954" lon="11.369174574848499"><ele>651.8000000000001</ele><time>2026-03-22T18:06:41Z</time></trkpt><trkpt lat="43.5840990443996" lon="11.369274406769494"><ele>654.2</ele><time>2026-03-22T18:06:42Z</time></trkpt><trkpt lat="43.58401286235046" lon="11.369373679101983"><ele>656.6</ele><time>2026-03-22T18:06:43Z</time></trkpt><trkpt lat="43.58392744154486" lon="11.36947108942395"><ele>659.0</ele><time>2026-03-22T18:06:44Z</time></trkpt><trkpt lat="43.583843207891825" lon="11.36956714589122"><ele>659.0</ele><time>2026-03-22T18:06:45Z</time></trkpt><trkpt lat="43.583758552594574" lon="11.369666385933272"><ele>659.0</ele><time>2026-03-22T18:06:46Z</time></trkpt><trkpt lat="43.58367594465737" lon="11.369763468430099"><ele>659.0</ele><time>2026-03-22T18:06:47Z</time></trkpt><trkpt lat="43.58359283136408" lon="11.369861144642954"><ele>659.0</ele><time>2026-03-22T18:06:48Z</time></trkpt><trkpt lat="43.58351113810917" lon="11.369956876693115"><ele>659.0</ele><time>2026-03-22T18:06:49Z</time></trkpt><trkpt lat="43.58343041616759" lon="11.37004761387119"><ele>659.8000000000001</ele><time>2026-03-22T18:06:50Z</time></trkpt><trkpt lat="43.58335359790498" lon="11.370131605983131"><ele>660.6</ele><time>2026-03-22T18:06:51Z</time></trkpt><trkpt lat="43.58327665819393" lon="11.370215458123752"><ele>661.4</ele><time>2026-03-22T18:06:52Z</time></trkpt><trkpt lat="43.5831969724447" lon="11.370302394786554"><ele>662.2</ele><time>2026-03-22T18:06:53Z</time></trkpt><trkpt lat="43.583108829099565" lon="11.370400470927386"><ele>663.0</ele><time>2026-03-22T18:06:54Z</time></trkpt><trkpt lat="43.58301738088909" lon="11.370502224409268"><ele>662.5</ele><time>2026-03-22T18:06:55Z</time></trkpt><trkpt lat="43.58291055933232" lon="11.370613725985875"><ele>662.0</ele><time>2026-03-22T18:06:56Z</time></trkpt><trkpt lat="43.58279103591009" lon="11.370703059523061"><ele>661.5</ele><time>2026-03-22T18:06:57Z</time></trkpt><trkpt lat="43.58266625365021" lon="11.3707916898811"><ele>661.0</ele><time>2026-03-22T18:06:58Z</time></trkpt><trkpt lat="43.582523601444" lon="11.370866050843741"><ele>663.25</ele><time>2026-03-22T18:06:59Z</time></trkpt><trkpt lat="43.582382621158324" lon="11.370922728007649"><ele>665.5</ele><time>2026-03-22T18:07:00Z</time></trkpt><trkpt lat="43.58224753829389" lon="11.370975547683134"><ele>667.75</ele><time>2026-03-22T18:07:01Z</time></trkpt><trkpt lat="43.58211129005291" lon="11.371022217964027"><ele>670.0</ele><time>2026-03-22T18:07:01.999Z</time></trkpt><trkpt lat="43.5819731561554" lon="11.371067777433968"><ele>672.25</ele><time>2026-03-22T18:07:02.999Z</time></trkpt><trkpt lat="43.58183493217927" lon="11.37111145580845"><ele>674.5</ele><time>2026-03-22T18:07:03.999Z</time></trkpt><trkpt lat="43.581692434032206" lon="11.37114550683163"><ele>676.75</ele><time>2026-03-22T18:07:04.999Z</time></trkpt><trkpt lat="43.58154803411046" lon="11.371168670630587"><ele>679.0</ele><time>2026-03-22T18:07:05.999Z</time></trkpt><trkpt lat="43.58140485131565" lon="11.37119086439769"><ele>679.0</ele><time>2026-03-22T18:07:06.999Z</time></trkpt><trkpt lat="43.58125550429272" lon="11.371209225841099"><ele>679.0</ele><time>2026-03-22T18:07:07.999Z</time></trkpt><trkpt lat="43.581117988526984" lon="11.37122422506191"><ele>679.0</ele><time>2026-03-22T18:07:08.999Z</time></trkpt><trkpt lat="43.58099418429036" lon="11.371224371581674"><ele>679.0</ele><time>2026-03-22T18:07:09.999Z</time></trkpt><trkpt lat="43.58087541397067" lon="11.371208093217847"><ele>681.5</ele><time>2026-03-22T18:07:10.999Z</time></trkpt><trkpt lat="43.58076352198089" lon="11.371150214649704"><ele>684.0</ele><time>2026-03-22T18:07:11.999Z</time></trkpt><trkpt lat="43.58065652121987" lon="11.371071175459791"><ele>686.5</ele><time>2026-03-22T18:07:12.999Z</time></trkpt><trkpt lat="43.58055376506748" lon="11.370993988613108"><ele>689.0</ele><time>2026-03-22T18:07:13.999Z</time></trkpt><trkpt lat="43.5804644898133" lon="11.370948450190367"><ele>689.0</ele><time>2026-03-22T18:07:14.999Z</time></trkpt><trkpt lat="43.58039655540021" lon="11.370885692431411"><ele>689.0</ele><time>2026-03-22T18:07:15.999Z</time></trkpt><trkpt lat="43.58031868684803" lon="11.370878007091463"><ele>689.0</ele><time>2026-03-22T18:07:16.999Z</time></trkpt><trkpt lat="43.5802411947913" lon="11.370920355710695"><ele>689.0</ele><time>2026-03-22T18:07:17.999Z</time></trkpt><trkpt lat="43.58016882940809" lon="11.371021581772766"><ele>689.0</ele><time>2026-03-22T18:07:18.999Z</time></trkpt><trkpt lat="43.580098511075285" lon="11.371145676163279"><ele>690.0</ele><time>2026-03-22T18:07:19.999Z</time></trkpt><trkpt lat="43.58003394345182" lon="11.371288016971832"><ele>691.0</ele><time>2026-03-22T18:07:20.999Z</time></trkpt><trkpt lat="43.57994072158792" lon="11.371361744117902"><ele>692.0</ele><time>2026-03-22T18:07:21.999Z</time></trkpt><trkpt lat="43.57985502220228" lon="11.371414658173496"><ele>693.0</ele><time>2026-03-22T18:07:22.999Z</time></trkpt><trkpt lat="43.57976303789838" lon="11.371432094701579"><ele>694.0</ele><time>2026-03-22T18:07:23.999Z</time></trkpt><trkpt lat="43.579661425764" lon="11.37142730398912"><ele>697.0</ele><time>2026-03-22T18:07:24.999Z</time></trkpt><trkpt lat="43.57955313787622" lon="11.371437035805549"><ele>700.0</ele><time>2026-03-22T18:07:25.999Z</time></trkpt><trkpt lat="43.57945160775837" lon="11.371468650572801"><ele>703.0</ele><time>2026-03-22T18:07:26.999Z</time></trkpt><trkpt lat="43.5793614371658" lon="11.37151815016454"><ele>706.0</ele><time>2026-03-22T18:07:27.999Z</time></trkpt><trkpt lat="43.5792757300271" lon="11.371608139786872"><ele>709.0</ele><time>2026-03-22T18:07:28.999Z</time></trkpt><trkpt lat="43.57920061182485" lon="11.371714550269195"><ele>709.0</ele><time>2026-03-22T18:07:29.999Z</time></trkpt><trkpt lat="43.579131630110886" lon="11.371823827836463"><ele>709.0</ele><time>2026-03-22T18:07:31Z</time></trkpt><trkpt lat="43.57906311349118" lon="11.371936814283698"><ele>709.0</ele><time>2026-03-22T18:07:32Z</time></trkpt><trkpt lat="43.578988976221204" lon="11.372027657203066"><ele>709.0</ele><time>2026-03-22T18:07:33Z</time></trkpt><trkpt lat="43.57889416545328" lon="11.37207484654677"><ele>709.0</ele><time>2026-03-22T18:07:34Z</time></trkpt><trkpt lat="43.57879786008102" lon="11.37213076300752"><ele>711.6</ele><time>2026-03-22T18:07:35Z</time></trkpt><trkpt lat="43.57869835977876" lon="11.372198332240359"><ele>714.2</ele><time>2026-03-22T18:07:36Z</time></trkpt><trkpt lat="43.57860647249507" lon="11.372275290792414"><ele>716.8000000000001</ele><time>2026-03-22T18:07:37Z</time></trkpt><trkpt lat="43.57851042171592" lon="11.372360583356281"><ele>719.4000000000001</ele><time>2026-03-22T18:07:38Z</time></trkpt><trkpt lat="43.57841618724297" lon="11.372440613369546"><ele>722.0</ele><time>2026-03-22T18:07:39Z</time></trkpt><trkpt lat="43.57832669644002" lon="11.372526252380881"><ele>722.0</ele><time>2026-03-22T18:07:40Z</time></trkpt><trkpt lat="43.578239862958725" lon="11.372618315339395"><ele>722.0</ele><time>2026-03-22T18:07:41Z</time></trkpt><trkpt lat="43.578161489056264" lon="11.372734282074736"><ele>722.0</ele><time>2026-03-22T18:07:42Z</time></trkpt><trkpt lat="43.57809541758726" lon="11.37285736875109"><ele>722.0</ele><time>2026-03-22T18:07:43Z</time></trkpt><trkpt lat="43.57803566907918" lon="11.372973946564224"><ele>722.0</ele><time>2026-03-22T18:07:44Z</time></trkpt><trkpt lat="43.577980818563375" lon="11.373089204416146"><ele>722.1666666666666</ele><time>2026-03-22T18:07:45Z</time></trkpt><trkpt lat="43.5779262036853" lon="11.373194015980927"><ele>722.3333333333333</ele><time>2026-03-22T18:07:46Z</time></trkpt><trkpt lat="43.57786308216762" lon="11.373293055167904"><ele>722.5</ele><time>2026-03-22T18:07:47Z</time></trkpt><trkpt lat="43.57780202932012" lon="11.373365645904526"><ele>722.6666666666666</ele><time>2026-03-22T18:07:48Z</time></trkpt><trkpt lat="43.57772763581876" lon="11.373407825952553"><ele>722.8333333333334</ele><time>2026-03-22T18:07:49Z</time></trkpt><trkpt lat="43.57763869792609" lon="11.373421076843785"><ele>723.0</ele><time>2026-03-22T18:07:50Z</time></trkpt><trkpt lat="43.57752345511354" lon="11.373422847268023"><ele>723.5</ele><time>2026-03-22T18:07:51Z</time></trkpt><trkpt lat="43.577407370479705" lon="11.373422044312331"><ele>724.0</ele><time>2026-03-22T18:07:52Z</time></trkpt><trkpt lat="43.57729313183261" lon="11.37342922350252"><ele>724.5</ele><time>2026-03-22T18:07:53Z</time></trkpt><trkpt lat="43.57716128099403" lon="11.373457373173911"><ele>725.0</ele><time>2026-03-22T18:07:54Z</time></trkpt><trkpt lat="43.57704998308545" lon="11.373553172848226"><ele>725.6</ele><time>2026-03-22T18:07:55Z</time></trkpt><trkpt lat="43.576947146650674" lon="11.373612370499973"><ele>726.2</ele><time>2026-03-22T18:07:56Z</time></trkpt><trkpt lat="43.576849944878475" lon="11.373608507868111"><ele>726.8</ele><time>2026-03-22T18:07:57Z</time></trkpt><trkpt lat="43.57674484498174" lon="11.373604293033853"><ele>727.4</ele><time>2026-03-22T18:07:58Z</time></trkpt><trkpt lat="43.57663703313619" lon="11.37358287585536"><ele>728.0</ele><time>2026-03-22T18:07:59Z</time></trkpt><trkpt lat="43.57652852372075" lon="11.373558429882308"><ele>728.0</ele><time>2026-03-22T18:08:00Z</time></trkpt><trkpt lat="43.57642494419532" lon="11.37352699081415"><ele>728.0</ele><time>2026-03-22T18:08:01Z</time></trkpt><trkpt lat="43.57631970345835" lon="11.373501463532484"><ele>728.0</ele><time>2026-03-22T18:08:02Z</time></trkpt><trkpt lat="43.576215638571156" lon="11.373483502023426"><ele>728.0</ele><time>2026-03-22T18:08:03Z</time></trkpt><trkpt lat="43.57610406146619" lon="11.373484966595194"><ele>728.0</ele><time>2026-03-22T18:08:04Z</time></trkpt><trkpt lat="43.57598627021064" lon="11.373509776560097"><ele>726.75</ele><time>2026-03-22T18:08:05Z</time></trkpt><trkpt lat="43.575868849924014" lon="11.373551813318874"><ele>725.5</ele><time>2026-03-22T18:08:06Z</time></trkpt><trkpt lat="43.57574697576297" lon="11.37361164542275"><ele>724.25</ele><time>2026-03-22T18:08:07Z</time></trkpt><trkpt lat="43.57564319729022" lon="11.373697303252076"><ele>723.0</ele><time>2026-03-22T18:08:08Z</time></trkpt><trkpt lat="43.57555100797238" lon="11.373806276040122"><ele>723.25</ele><time>2026-03-22T18:08:09Z</time></trkpt><trkpt lat="43.575462800799336" lon="11.37391358744814"><ele>723.5</ele><time>2026-03-22T18:08:10Z</time></trkpt><trkpt lat="43.5753711341413" lon="11.374031789649253"><ele>723.75</ele><time>2026-03-22T18:08:11Z</time></trkpt><trkpt lat="43.57528368887562" lon="11.37415265188246"><ele>724.0</ele><time>2026-03-22T18:08:12Z</time></trkpt><trkpt lat="43.57519661891539" lon="11.37427725518785"><ele>724.25</ele><time>2026-03-22T18:08:13Z</time></trkpt><trkpt lat="43.57510810795539" lon="11.37439893022696"><ele>724.5</ele><time>2026-03-22T18:08:14Z</time></trkpt><trkpt lat="43.5750187100219" lon="11.374521824570843"><ele>724.75</ele><time>2026-03-22T18:08:15Z</time></trkpt><trkpt lat="43.57492852138869" lon="11.374647542866843"><ele>725.0</ele><time>2026-03-22T18:08:16Z</time></trkpt><trkpt lat="43.57483608570041" lon="11.374780058607282"><ele>727.0</ele><time>2026-03-22T18:08:17Z</time></trkpt><trkpt lat="43.57474894724536" lon="11.374908449983314"><ele>729.0</ele><time>2026-03-22T18:08:18Z</time></trkpt><trkpt lat="43.5746667818866" lon="11.375036653787253"><ele>731.0</ele><time>2026-03-22T18:08:19Z</time></trkpt><trkpt lat="43.57458120190039" lon="11.375158486845978"><ele>733.0</ele><time>2026-03-22T18:08:20Z</time></trkpt><trkpt lat="43.57449542388825" lon="11.37526188998403"><ele>733.0</ele><time>2026-03-22T18:08:21Z</time></trkpt><trkpt lat="43.574396923804656" lon="11.37535132496869"><ele>733.0</ele><time>2026-03-22T18:08:22Z</time></trkpt><trkpt lat="43.57430293304518" lon="11.37542326775133"><ele>733.0</ele><time>2026-03-22T18:08:23Z</time></trkpt><trkpt lat="43.57418716159695" lon="11.375494020282531"><ele>733.0</ele><time>2026-03-22T18:08:24Z</time></trkpt><trkpt lat="43.574058723643546" lon="11.375571279629686"><ele>735.0</ele><time>2026-03-22T18:08:25Z</time></trkpt><trkpt lat="43.573947183885416" lon="11.375635274731081"><ele>737.0</ele><time>2026-03-22T18:08:26Z</time></trkpt><trkpt lat="43.573836556307825" lon="11.375696379949943"><ele>739.0</ele><time>2026-03-22T18:08:27Z</time></trkpt><trkpt lat="43.57372196468725" lon="11.375761114667009"><ele>741.0</ele><time>2026-03-22T18:08:28Z</time></trkpt><trkpt lat="43.57360186256716" lon="11.375818502926425"><ele>741.0</ele><time>2026-03-22T18:08:29Z</time></trkpt><trkpt lat="43.57348782244523" lon="11.375890021181911"><ele>741.0</ele><time>2026-03-22T18:08:30Z</time></trkpt><trkpt lat="43.57338799696653" lon="11.375968589235523"><ele>741.0</ele><time>2026-03-22T18:08:31Z</time></trkpt><trkpt lat="43.57329009327518" lon="11.376051253369443"><ele>741.0</ele><time>2026-03-22T18:08:32Z</time></trkpt><trkpt lat="43.573182778759175" lon="11.376124509956338"><ele>741.0</ele><time>2026-03-22T18:08:33Z</time></trkpt><trkpt lat="43.57306667927535" lon="11.376172886338008"><ele>741.0</ele><time>2026-03-22T18:08:34Z</time></trkpt><trkpt lat="43.57294552824625" lon="11.37619152624056"><ele>741.0</ele><time>2026-03-22T18:08:35Z</time></trkpt><trkpt lat="43.57281301771721" lon="11.376218030986948"><ele>741.0</ele><time>2026-03-22T18:08:36Z</time></trkpt><trkpt lat="43.57269058771704" lon="11.376256229264866"><ele>741.5</ele><time>2026-03-22T18:08:37Z</time></trkpt><trkpt lat="43.57257666716475" lon="11.3763120462737"><ele>742.0</ele><time>2026-03-22T18:08:38Z</time></trkpt><trkpt lat="43.5724631075997" lon="11.376368046558216"><ele>742.5</ele><time>2026-03-22T18:08:39Z</time></trkpt><trkpt lat="43.5723371115565" lon="11.376425347817317"><ele>743.0</ele><time>2026-03-22T18:08:40Z</time></trkpt><trkpt lat="43.57219913249577" lon="11.376471315200728"><ele>744.25</ele><time>2026-03-22T18:08:41Z</time></trkpt><trkpt lat="43.57204463544352" lon="11.376526194556526"><ele>745.5</ele><time>2026-03-22T18:08:42Z</time></trkpt><trkpt lat="43.57190961305729" lon="11.376594340987564"><ele>746.75</ele><time>2026-03-22T18:08:43Z</time></trkpt><trkpt lat="43.57178418960294" lon="11.376663953366362"><ele>748.0</ele><time>2026-03-22T18:08:44Z</time></trkpt><trkpt lat="43.571682077152865" lon="11.3767501127525"><ele>748.75</ele><time>2026-03-22T18:08:45Z</time></trkpt><trkpt lat="43.57157418982669" lon="11.376806972415363"><ele>749.5</ele><time>2026-03-22T18:08:46Z</time></trkpt><trkpt lat="43.57145717794888" lon="11.376853879250362"><ele>750.25</ele><time>2026-03-22T18:08:47Z</time></trkpt><trkpt lat="43.571330175756515" lon="11.376859302967542"><ele>751.0</ele><time>2026-03-22T18:08:48Z</time></trkpt><trkpt lat="43.571199897645414" lon="11.376873424703081"><ele>750.5999999999999</ele><time>2026-03-22T18:08:49Z</time></trkpt><trkpt lat="43.57108289608691" lon="11.376892749932434"><ele>750.2</ele><time>2026-03-22T18:08:50Z</time></trkpt><trkpt lat="43.57098418567387" lon="11.376911696798743"><ele>749.8</ele><time>2026-03-22T18:08:51Z</time></trkpt><trkpt lat="43.57087586003027" lon="11.376935316978697"><ele>749.4000000000001</ele><time>2026-03-22T18:08:52Z</time></trkpt><trkpt lat="43.5707623402506" lon="11.376984027382068"><ele>749.0</ele><time>2026-03-22T18:08:53Z</time></trkpt><trkpt lat="43.570651670881865" lon="11.377041813912408"><ele>749.0</ele><time>2026-03-22T18:08:54Z</time></trkpt><trkpt lat="43.57054124693255" lon="11.377113888035074"><ele>749.0</ele><time>2026-03-22T18:08:55Z</time></trkpt><trkpt lat="43.57043603791324" lon="11.377183299422239"><ele>749.0</ele><time>2026-03-22T18:08:56Z</time></trkpt><trkpt lat="43.5703329956327" lon="11.377251281190782"><ele>749.0</ele><time>2026-03-22T18:08:57Z</time></trkpt><trkpt lat="43.57022990088983" lon="11.377322727993556"><ele>748.2</ele><time>2026-03-22T18:08:58Z</time></trkpt><trkpt lat="43.570128509449496" lon="11.377392105005358"><ele>747.4000000000001</ele><time>2026-03-22T18:08:59Z</time></trkpt><trkpt lat="43.57002283767861" lon="11.377462387266176"><ele>746.6</ele><time>2026-03-22T18:09:00Z</time></trkpt><trkpt lat="43.56992921815098" lon="11.377509493865206"><ele>745.8</ele><time>2026-03-22T18:09:01Z</time></trkpt><trkpt lat="43.569827512894555" lon="11.377562551949437"><ele>745.0</ele><time>2026-03-22T18:09:02Z</time></trkpt><trkpt lat="43.56973947247319" lon="11.377625481356695"><ele>745.0</ele><time>2026-03-22T18:09:03Z</time></trkpt><trkpt lat="43.56965076027433" lon="11.377696879689765"><ele>745.0</ele><time>2026-03-22T18:09:04Z</time></trkpt><trkpt lat="43.56956776626975" lon="11.377763482608167"><ele>745.0</ele><time>2026-03-22T18:09:05Z</time></trkpt><trkpt lat="43.56949085315852" lon="11.37782757162493"><ele>745.0</ele><time>2026-03-22T18:09:06Z</time></trkpt><trkpt lat="43.56942805446702" lon="11.3778798428283"><ele>745.0</ele><time>2026-03-22T18:09:07Z</time></trkpt><trkpt lat="43.56936337600481" lon="11.377929477562816"><ele>745.0</ele><time>2026-03-22T18:09:08Z</time></trkpt><trkpt lat="43.56929079771668" lon="11.377903769921243"><ele>745.8</ele><time>2026-03-22T18:09:09Z</time></trkpt><trkpt lat="43.569223314208834" lon="11.377869164603736"><ele>746.6</ele><time>2026-03-22T18:09:11Z</time></trkpt><trkpt lat="43.56924342348021" lon="11.377747052293849"><ele>747.4000000000001</ele><time>2026-03-22T18:09:13Z</time></trkpt><trkpt lat="43.569107888195475" lon="11.377908207334471"><ele>748.2</ele><time>2026-03-22T18:09:15Z</time></trkpt><trkpt lat="43.56905555738848" lon="11.377810980618035"><ele>749.0</ele><time>2026-03-22T18:09:15.999Z</time></trkpt><trkpt lat="43.568656925704616" lon="11.37797607219429"><ele>752.2</ele><time>2026-03-22T18:09:18.999Z</time></trkpt><trkpt lat="43.56863900338925" lon="11.377851806860184"><ele>755.4000000000001</ele><time>2026-03-22T18:09:20.999Z</time></trkpt><trkpt lat="43.568610903479396" lon="11.377738999071845"><ele>758.6</ele><time>2026-03-22T18:09:23.999Z</time></trkpt><trkpt lat="43.568582495444865" lon="11.377643313467635"><ele>761.8</ele><time>2026-03-22T18:09:25.999Z</time></trkpt><trkpt lat="43.568675939561395" lon="11.377507870311371"><ele>765.0</ele><time>2026-03-22T18:09:26.999Z</time></trkpt><trkpt lat="43.568595275786784" lon="11.37745300032056"><ele>765.0</ele><time>2026-03-22T18:09:27.999Z</time></trkpt><trkpt lat="43.568521239817" lon="11.377331832281934"><ele>765.0</ele><time>2026-03-22T18:09:29.999Z</time></trkpt><trkpt lat="43.56841723874813" lon="11.377233786556786"><ele>765.0</ele><time>2026-03-22T18:09:31.999Z</time></trkpt><trkpt lat="43.56835743379904" lon="11.377162529449066"><ele>765.0</ele><time>2026-03-22T18:09:32.999Z</time></trkpt><trkpt lat="43.56829827548005" lon="11.377107785748946"><ele>765.0</ele><time>2026-03-22T18:09:33.999Z</time></trkpt><trkpt lat="43.56817696961841" lon="11.37716980665978"><ele>765.0</ele><time>2026-03-22T18:09:35.999Z</time></trkpt><trkpt lat="43.568120361682965" lon="11.377304246720739"><ele>765.0</ele><time>2026-03-22T18:09:38Z</time></trkpt><trkpt lat="43.56810820183875" lon="11.3774257910337"><ele>765.0</ele><time>2026-03-22T18:09:39Z</time></trkpt><trkpt lat="43.56809880289122" lon="11.377549742825057"><ele>765.0</ele><time>2026-03-22T18:09:40Z</time></trkpt><trkpt lat="43.568078064098735" lon="11.377660507320877"><ele>765.0</ele><time>2026-03-22T18:09:41Z</time></trkpt><trkpt lat="43.56804214267931" lon="11.37776263549056"><ele>765.0</ele><time>2026-03-22T18:09:42Z</time></trkpt><trkpt lat="43.567978776757485" lon="11.377857793638453"><ele>765.0</ele><time>2026-03-22T18:09:43Z</time></trkpt><trkpt lat="43.56790909352657" lon="11.377953374241068"><ele>765.0</ele><time>2026-03-22T18:09:44Z</time></trkpt><trkpt lat="43.56782716368706" lon="11.37803735730988"><ele>765.0</ele><time>2026-03-22T18:09:45Z</time></trkpt><trkpt lat="43.56773921235952" lon="11.378113566318854"><ele>765.0</ele><time>2026-03-22T18:09:46Z</time></trkpt><trkpt lat="43.56765678967231" lon="11.378170310855385"><ele>767.2</ele><time>2026-03-22T18:09:47Z</time></trkpt><trkpt lat="43.56756954988468" lon="11.378205186843362"><ele>769.4</ele><time>2026-03-22T18:09:48Z</time></trkpt><trkpt lat="43.56747608647455" lon="11.378212076636416"><ele>771.5999999999999</ele><time>2026-03-22T18:09:49Z</time></trkpt><trkpt lat="43.56737870000503" lon="11.378211589913356"><ele>773.8</ele><time>2026-03-22T18:09:50Z</time></trkpt><trkpt lat="43.56728039398208" lon="11.37818978366262"><ele>776.0</ele><time>2026-03-22T18:09:51Z</time></trkpt><trkpt lat="43.56717941409362" lon="11.378162377327772"><ele>776.0</ele><time>2026-03-22T18:09:52Z</time></trkpt><trkpt lat="43.56708329027028" lon="11.378129783443539"><ele>776.0</ele><time>2026-03-22T18:09:53Z</time></trkpt><trkpt lat="43.56698741836279" lon="11.378098929523468"><ele>776.0</ele><time>2026-03-22T18:09:54Z</time></trkpt><trkpt lat="43.5668831950316" lon="11.378072268229168"><ele>776.0</ele><time>2026-03-22T18:09:55Z</time></trkpt><trkpt lat="43.56678474798626" lon="11.378001350621272"><ele>776.0</ele><time>2026-03-22T18:09:56Z</time></trkpt><trkpt lat="43.56667578624463" lon="11.37797338285864"><ele>777.4</ele><time>2026-03-22T18:09:57Z</time></trkpt><trkpt lat="43.56656210607544" lon="11.377956012445663"><ele>778.8</ele><time>2026-03-22T18:09:58Z</time></trkpt><trkpt lat="43.566464371995835" lon="11.377885111625005"><ele>780.1999999999999</ele><time>2026-03-22T18:09:59Z</time></trkpt><trkpt lat="43.566359819966145" lon="11.377825769135104"><ele>781.5999999999999</ele><time>2026-03-22T18:10:00Z</time></trkpt><trkpt lat="43.566260231826256" lon="11.37776145493538"><ele>783.0</ele><time>2026-03-22T18:10:01Z</time></trkpt><trkpt lat="43.566175326477506" lon="11.377704424610249"><ele>785.2</ele><time>2026-03-22T18:10:02Z</time></trkpt><trkpt lat="43.56607790182298" lon="11.377649423780946"><ele>787.4</ele><time>2026-03-22T18:10:03Z</time></trkpt><trkpt lat="43.56598220569907" lon="11.377615922271692"><ele>789.6</ele><time>2026-03-22T18:10:04Z</time></trkpt><trkpt lat="43.56590247676581" lon="11.377608042197092"><ele>791.8000000000001</ele><time>2026-03-22T18:10:05Z</time></trkpt><trkpt lat="43.56581452062749" lon="11.37761746130817"><ele>794.0</ele><time>2026-03-22T18:10:06Z</time></trkpt><trkpt lat="43.565714599284995" lon="11.377660594128782"><ele>794.0000000000001</ele><time>2026-03-22T18:10:07Z</time></trkpt><trkpt lat="43.565622813516704" lon="11.377725631752647"><ele>794.0</ele><time>2026-03-22T18:10:08Z</time></trkpt><trkpt lat="43.565548423996354" lon="11.377822603262715"><ele>794.0</ele><time>2026-03-22T18:10:09Z</time></trkpt><trkpt lat="43.56549886634833" lon="11.377901062140001"><ele>794.0</ele><time>2026-03-22T18:10:10Z</time></trkpt><trkpt lat="43.5654311632956" lon="11.377938244156287"><ele>794.0000000000001</ele><time>2026-03-22T18:10:12Z</time></trkpt><trkpt lat="43.56536329399391" lon="11.378023088962989"><ele>794.0</ele><time>2026-03-22T18:10:17Z</time></trkpt><trkpt lat="43.56531047844273" lon="11.378087268882826"><ele>795.5000000000001</ele><time>2026-03-22T18:10:19Z</time></trkpt><trkpt lat="43.56525020870839" lon="11.378160506543837"><ele>797.0</ele><time>2026-03-22T18:10:21Z</time></trkpt><trkpt lat="43.565199415007015" lon="11.378222229261493"><ele>798.5</ele><time>2026-03-22T18:10:23Z</time></trkpt><trkpt lat="43.56515494724198" lon="11.378287710253181"><ele>800.0</ele><time>2026-03-22T18:10:24Z</time></trkpt><trkpt lat="43.56507037936701" lon="11.378372783972997"><ele>801.5000000000001</ele><time>2026-03-22T18:10:26Z</time></trkpt><trkpt lat="43.56497993079655" lon="11.378448687727625"><ele>803.0</ele><time>2026-03-22T18:10:28Z</time></trkpt><trkpt lat="43.56477114720144" lon="11.377989908179263"><ele>803.0000000000001</ele><time>2026-03-22T18:10:29Z</time></trkpt><trkpt lat="43.56468334510052" lon="11.378012438591757"><ele>803.0</ele><time>2026-03-22T18:10:31Z</time></trkpt><trkpt lat="43.564598415519924" lon="11.37801810741527"><ele>803.0</ele><time>2026-03-22T18:10:33Z</time></trkpt><trkpt lat="43.56452894591806" lon="11.378033646764958"><ele>803.0</ele><time>2026-03-22T18:11:04Z</time></trkpt><trkpt lat="43.56447794963987" lon="11.378088118622278"><ele>803.0000000000001</ele><time>2026-03-22T18:11:21Z</time></trkpt><trkpt lat="43.56453242951592" lon="11.378034844416332"><ele>803.0</ele><time>2026-03-22T18:12:34Z</time></trkpt><trkpt lat="43.56460999099258" lon="11.377998657214217"><ele>803.0000000000001</ele><time>2026-03-22T18:13:12Z</time></trkpt><trkpt lat="43.56469416809957" lon="11.377992964469621"><ele>803.0</ele><time>2026-03-22T18:13:14Z</time></trkpt><trkpt lat="43.564762792745675" lon="11.377972468884975"><ele>803.0</ele><time>2026-03-22T18:13:16Z</time></trkpt><trkpt lat="43.56483969499441" lon="11.377960126230315"><ele>803.0</ele><time>2026-03-22T18:13:18Z</time></trkpt><trkpt lat="43.56493084593451" lon="11.377954583016843"><ele>803.0000000000001</ele><time>2026-03-22T18:13:20Z</time></trkpt><trkpt lat="43.56503825260647" lon="11.377938718939777"><ele>803.0</ele><time>2026-03-22T18:13:22Z</time></trkpt><trkpt lat="43.56512168573859" lon="11.37792325044259"><ele>803.0</ele><time>2026-03-22T18:13:24Z</time></trkpt><trkpt lat="43.56523900554418" lon="11.377900797304031"><ele>803.0</ele><time>2026-03-22T18:13:26Z</time></trkpt><trkpt lat="43.56534723648575" lon="11.377900668438507"><ele>803.0</ele><time>2026-03-22T18:13:28Z</time></trkpt><trkpt lat="43.56544006294242" lon="11.377900165239883"><ele>803.0</ele><time>2026-03-22T18:13:30Z</time></trkpt><trkpt lat="43.56550499827602" lon="11.377901010663159"><ele>803.0</ele><time>2026-03-22T18:13:31.999Z</time></trkpt><trkpt lat="43.56547838041016" lon="11.378017313409583"><ele>802.5000000000001</ele><time>2026-03-22T18:13:34.999Z</time></trkpt><trkpt lat="43.56539003288596" lon="11.378130901219658"><ele>802.0</ele><time>2026-03-22T18:13:36.999Z</time></trkpt><trkpt lat="43.56531993723466" lon="11.378205842037243"><ele>801.5</ele><time>2026-03-22T18:13:37.999Z</time></trkpt><trkpt lat="43.565270798578105" lon="11.378284832091522"><ele>801.0</ele><time>2026-03-22T18:13:38.999Z</time></trkpt><trkpt lat="43.565203134019825" lon="11.378357378202827"><ele>800.5000000000001</ele><time>2026-03-22T18:13:39.999Z</time></trkpt><trkpt lat="43.565150488159716" lon="11.37841428078247"><ele>800.0</ele><time>2026-03-22T18:13:40.999Z</time></trkpt><trkpt lat="43.56503896605838" lon="11.378490877798429"><ele>801.0000000000001</ele><time>2026-03-22T18:13:42.999Z</time></trkpt><trkpt lat="43.56498158777397" lon="11.378537387410685"><ele>802.0</ele><time>2026-03-22T18:13:43.999Z</time></trkpt><trkpt lat="43.564924486165815" lon="11.37858416397931"><ele>803.0</ele><time>2026-03-22T18:13:44.999Z</time></trkpt><trkpt lat="43.56486145930719" lon="11.37862734486986"><ele>804.0</ele><time>2026-03-22T18:13:45.999Z</time></trkpt><trkpt lat="43.56478895406383" lon="11.378657260333373"><ele>805.0</ele><time>2026-03-22T18:13:46.999Z</time></trkpt><trkpt lat="43.564710391275156" lon="11.378684031801033"><ele>806.0000000000001</ele><time>2026-03-22T18:13:47.999Z</time></trkpt><trkpt lat="43.56462539546206" lon="11.378710888278713"><ele>807.0</ele><time>2026-03-22T18:13:49Z</time></trkpt><trkpt lat="43.56452017335517" lon="11.378748005888855"><ele>810.0</ele><time>2026-03-22T18:13:50Z</time></trkpt><trkpt lat="43.564408540600816" lon="11.37878002497533"><ele>813.0</ele><time>2026-03-22T18:13:51Z</time></trkpt><trkpt lat="43.564292334200935" lon="11.37880550990482"><ele>816.0</ele><time>2026-03-22T18:13:52Z</time></trkpt><trkpt lat="43.56418020947306" lon="11.378820636146527"><ele>819.0</ele><time>2026-03-22T18:13:53Z</time></trkpt><trkpt lat="43.56407756781634" lon="11.378820248062565"><ele>822.0</ele><time>2026-03-22T18:13:54Z</time></trkpt><trkpt lat="43.563984563201835" lon="11.378805324942132"><ele>822.0</ele><time>2026-03-22T18:13:55Z</time></trkpt><trkpt lat="43.56391247747945" lon="11.378764138222989"><ele>822.0</ele><time>2026-03-22T18:13:56Z</time></trkpt><trkpt lat="43.56385877494029" lon="11.378699324673452"><ele>822.0</ele><time>2026-03-22T18:13:57Z</time></trkpt><trkpt lat="43.56380118281675" lon="11.378591592329942"><ele>822.0</ele><time>2026-03-22T18:13:59Z</time></trkpt><trkpt lat="43.563824217878725" lon="11.37851028437209"><ele>822.0</ele><time>2026-03-22T18:14:02Z</time></trkpt><trkpt lat="43.56385350148316" lon="11.378397728239195"><ele>822.0</ele><time>2026-03-22T18:14:04Z</time></trkpt><trkpt lat="43.56388295668057" lon="11.378291689925248"><ele>822.0</ele><time>2026-03-22T18:14:06Z</time></trkpt><trkpt lat="43.56394360254589" lon="11.378190514815794"><ele>822.0</ele><time>2026-03-22T18:14:08Z</time></trkpt><trkpt lat="43.56396659470666" lon="11.378091176330953"><ele>822.0</ele><time>2026-03-22T18:14:10Z</time></trkpt><trkpt lat="43.563907655382366" lon="11.378168423915339"><ele>822.0</ele><time>2026-03-22T18:14:14Z</time></trkpt><trkpt lat="43.563900352638385" lon="11.378260731595095"><ele>822.0</ele><time>2026-03-22T18:14:15Z</time></trkpt><trkpt lat="43.563860191893035" lon="11.378406267874324"><ele>822.0</ele><time>2026-03-22T18:14:17Z</time></trkpt><trkpt lat="43.563848305786195" lon="11.378520704392232"><ele>822.0</ele><time>2026-03-22T18:14:19Z</time></trkpt><trkpt lat="43.56382315981427" lon="11.3786107095568"><ele>822.0</ele><time>2026-03-22T18:14:23Z</time></trkpt><trkpt lat="43.56374370528306" lon="11.37855558339562"><ele>822.0</ele><time>2026-03-22T18:14:26Z</time></trkpt><trkpt lat="43.563681834153506" lon="11.378518498127614"><ele>822.0</ele><time>2026-03-22T18:14:28Z</time></trkpt><trkpt lat="43.56360950977922" lon="11.378477185701744"><ele>822.0</ele><time>2026-03-22T18:14:30Z</time></trkpt><trkpt lat="43.56353797173985" lon="11.378416900249505"><ele>822.0</ele><time>2026-03-22T18:14:34Z</time></trkpt><trkpt lat="43.563434362512716" lon="11.378341323334379"><ele>824.2</ele><time>2026-03-22T18:14:36Z</time></trkpt><trkpt lat="43.563333654503765" lon="11.378304679656733"><ele>826.4000000000001</ele><time>2026-03-22T18:14:38Z</time></trkpt><trkpt lat="43.56321403402544" lon="11.378328935271801"><ele>828.5999999999999</ele><time>2026-03-22T18:14:40Z</time></trkpt><trkpt lat="43.5630796867259" lon="11.378412956242773"><ele>830.8</ele><time>2026-03-22T18:14:42Z</time></trkpt><trkpt lat="43.563010281267616" lon="11.378434533756772"><ele>833.0</ele><time>2026-03-22T18:14:43Z</time></trkpt><trkpt lat="43.56288854038243" lon="11.378397930366944"><ele>835.0</ele><time>2026-03-22T18:14:45Z</time></trkpt><trkpt lat="43.5628272438844" lon="11.378357237338555"><ele>837.0</ele><time>2026-03-22T18:14:46Z</time></trkpt><trkpt lat="43.562728268445376" lon="11.378261542903553"><ele>839.0</ele><time>2026-03-22T18:14:48Z</time></trkpt><trkpt lat="43.56261962525349" lon="11.378243911035428"><ele>841.0</ele><time>2026-03-22T18:14:50Z</time></trkpt><trkpt lat="43.562554632537065" lon="11.378202787785867"><ele>843.0</ele><time>2026-03-22T18:14:52Z</time></trkpt><trkpt lat="43.56250828413108" lon="11.37807792617204"><ele>843.1428571428571</ele><time>2026-03-22T18:14:54Z</time></trkpt><trkpt lat="43.56247887328355" lon="11.37799647330217"><ele>843.2857142857142</ele><time>2026-03-22T18:14:55Z</time></trkpt><trkpt lat="43.56246164948288" lon="11.377901596628904"><ele>843.4285714285714</ele><time>2026-03-22T18:14:56Z</time></trkpt><trkpt lat="43.5624410781021" lon="11.377788119798176"><ele>843.5714285714286</ele><time>2026-03-22T18:14:57Z</time></trkpt><trkpt lat="43.56243304849873" lon="11.377680969470795"><ele>843.7142857142858</ele><time>2026-03-22T18:14:58Z</time></trkpt><trkpt lat="43.562414001626024" lon="11.377588632033257"><ele>843.8571428571429</ele><time>2026-03-22T18:14:59Z</time></trkpt><trkpt lat="43.56238130284673" lon="11.3775091079478"><ele>844.0</ele><time>2026-03-22T18:15:00Z</time></trkpt><trkpt lat="43.56231868522866" lon="11.377395087832136"><ele>843.9999999999999</ele><time>2026-03-22T18:15:02Z</time></trkpt><trkpt lat="43.56227168208106" lon="11.377327972023286"><ele>844.0</ele><time>2026-03-22T18:15:03Z</time></trkpt><trkpt lat="43.56222527249009" lon="11.377258817383911"><ele>844.0</ele><time>2026-03-22T18:15:04Z</time></trkpt><trkpt lat="43.56216668567689" lon="11.377170354102464"><ele>844.0</ele><time>2026-03-22T18:15:05Z</time></trkpt><trkpt lat="43.56212725857868" lon="11.377083656302824"><ele>843.9999999999999</ele><time>2026-03-22T18:15:06Z</time></trkpt><trkpt lat="43.56202131586798" lon="11.376985709121898"><ele>844.0</ele><time>2026-03-22T18:15:08Z</time></trkpt><trkpt lat="43.56196820486429" lon="11.376931567832191"><ele>846.6666666666666</ele><time>2026-03-22T18:15:09Z</time></trkpt><trkpt lat="43.56191357207208" lon="11.376886802103215"><ele>849.3333333333333</ele><time>2026-03-22T18:15:10Z</time></trkpt><trkpt lat="43.561858522785016" lon="11.376834985028331"><ele>852.0</ele><time>2026-03-22T18:15:11Z</time></trkpt><trkpt lat="43.561789331788134" lon="11.376784031618998"><ele>854.6666666666667</ele><time>2026-03-22T18:15:12Z</time></trkpt><trkpt lat="43.56170284164504" lon="11.376697702823868"><ele>857.3333333333334</ele><time>2026-03-22T18:15:14Z</time></trkpt><trkpt lat="43.561617873022946" lon="11.376640438490883"><ele>860.0</ele><time>2026-03-22T18:15:16Z</time></trkpt><trkpt lat="43.561527260333804" lon="11.376563499478898"><ele>860.0000000000001</ele><time>2026-03-22T18:15:18Z</time></trkpt><trkpt lat="43.56146607043087" lon="11.376524671020308"><ele>860.0</ele><time>2026-03-22T18:15:19Z</time></trkpt><trkpt lat="43.56140509369203" lon="11.376486480566598"><ele>860.0</ele><time>2026-03-22T18:15:20Z</time></trkpt><trkpt lat="43.56132117491872" lon="11.37642446626615"><ele>860.0</ele><time>2026-03-22T18:15:22Z</time></trkpt><trkpt lat="43.56125696515374" lon="11.376389962664936"><ele>860.0000000000001</ele><time>2026-03-22T18:15:24Z</time></trkpt><trkpt lat="43.56118459043407" lon="11.37642546381402"><ele>860.0</ele><time>2026-03-22T18:15:26Z</time></trkpt><trkpt lat="43.561100693637876" lon="11.376525127570941"><ele>860.1666666666667</ele><time>2026-03-22T18:15:28Z</time></trkpt><trkpt lat="43.561056542725666" lon="11.376587400845018"><ele>860.3333333333334</ele><time>2026-03-22T18:15:29Z</time></trkpt><trkpt lat="43.56098199613046" lon="11.376656295592058"><ele>860.5</ele><time>2026-03-22T18:15:31Z</time></trkpt><trkpt lat="43.56089256346392" lon="11.376741224098462"><ele>860.6666666666667</ele><time>2026-03-22T18:15:33Z</time></trkpt><trkpt lat="43.56083318771772" lon="11.376778004017277"><ele>860.8333333333334</ele><time>2026-03-22T18:15:34Z</time></trkpt><trkpt lat="43.56073373891582" lon="11.376831901553544"><ele>861.0</ele><time>2026-03-22T18:15:36Z</time></trkpt><trkpt lat="43.560638407682234" lon="11.37686395630504"><ele>861.0</ele><time>2026-03-22T18:15:38Z</time></trkpt><trkpt lat="43.560526787735256" lon="11.376895446490298"><ele>860.9999999999999</ele><time>2026-03-22T18:15:40Z</time></trkpt><trkpt lat="43.5604315879449" lon="11.376930473903055"><ele>860.9999999999999</ele><time>2026-03-22T18:15:42Z</time></trkpt><trkpt lat="43.560371586631845" lon="11.376965968853343"><ele>861.0</ele><time>2026-03-22T18:15:44Z</time></trkpt><trkpt lat="43.560307187687705" lon="11.377036987279359"><ele>861.0</ele><time>2026-03-22T18:15:53Z</time></trkpt><trkpt lat="43.560214840260706" lon="11.377144030609735"><ele>860.3333333333334</ele><time>2026-03-22T18:15:55Z</time></trkpt><trkpt lat="43.56015656600883" lon="11.377201989065325"><ele>859.6666666666667</ele><time>2026-03-22T18:15:56Z</time></trkpt><trkpt lat="43.5600990305527" lon="11.377251563485475"><ele>859.0</ele><time>2026-03-22T18:15:57Z</time></trkpt><trkpt lat="43.56000526074869" lon="11.377352815352824"><ele>858.3333333333334</ele><time>2026-03-22T18:15:59Z</time></trkpt><trkpt lat="43.559925091042146" lon="11.377422733379586"><ele>857.6666666666667</ele><time>2026-03-22T18:16:01Z</time></trkpt><trkpt lat="43.55986955298832" lon="11.377465377869601"><ele>857.0</ele><time>2026-03-22T18:16:02Z</time></trkpt><trkpt lat="43.55980135430117" lon="11.377503590759845"><ele>857.0</ele><time>2026-03-22T18:16:03Z</time></trkpt><trkpt lat="43.55974256773777" lon="11.377554765808904"><ele>857.0</ele><time>2026-03-22T18:16:04Z</time></trkpt><trkpt lat="43.559685871201324" lon="11.377614068398067"><ele>857.0</ele><time>2026-03-22T18:16:05Z</time></trkpt><trkpt lat="43.55958097935606" lon="11.377703800980095"><ele>857.0</ele><time>2026-03-22T18:16:07Z</time></trkpt><trkpt lat="43.559491807745296" lon="11.377805334728022"><ele>857.0</ele><time>2026-03-22T18:16:09Z</time></trkpt><trkpt lat="43.559390504622534" lon="11.37785947676807"><ele>854.4000000000001</ele><time>2026-03-22T18:16:11Z</time></trkpt><trkpt lat="43.5593298169547" lon="11.37790714528689"><ele>851.8000000000001</ele><time>2026-03-22T18:16:12Z</time></trkpt><trkpt lat="43.55923116879568" lon="11.377992900110982"><ele>849.2</ele><time>2026-03-22T18:16:14Z</time></trkpt><trkpt lat="43.5591325418396" lon="11.378058786301393"><ele>846.6</ele><time>2026-03-22T18:16:16Z</time></trkpt><trkpt lat="43.55905307835277" lon="11.378166105199341"><ele>844.0</ele><time>2026-03-22T18:16:18Z</time></trkpt><trkpt lat="43.55897918029536" lon="11.37824539913018"><ele>844.0</ele><time>2026-03-22T18:16:20Z</time></trkpt><trkpt lat="43.55889253841203" lon="11.378334588595008"><ele>844.0</ele><time>2026-03-22T18:16:22Z</time></trkpt><trkpt lat="43.55881058195095" lon="11.37841478158637"><ele>844.0</ele><time>2026-03-22T18:16:24Z</time></trkpt><trkpt lat="43.55870973857421" lon="11.378510682283046"><ele>844.0</ele><time>2026-03-22T18:16:26Z</time></trkpt><trkpt lat="43.55862498549847" lon="11.378618007518114"><ele>844.0</ele><time>2026-03-22T18:16:28Z</time></trkpt><trkpt lat="43.55856357808077" lon="11.37871647074095"><ele>840.0</ele><time>2026-03-22T18:16:30Z</time></trkpt><trkpt lat="43.55850266808146" lon="11.378841397846177"><ele>836.0</ele><time>2026-03-22T18:16:32Z</time></trkpt><trkpt lat="43.55845976955629" lon="11.37895287782531"><ele>832.0</ele><time>2026-03-22T18:16:34Z</time></trkpt><trkpt lat="43.558422272628476" lon="11.379094397819259"><ele>828.0</ele><time>2026-03-22T18:16:36Z</time></trkpt><trkpt lat="43.55838057829001" lon="11.379222527880955"><ele>824.0</ele><time>2026-03-22T18:16:38Z</time></trkpt><trkpt lat="43.55834766529839" lon="11.37932985984124"><ele>823.8000000000001</ele><time>2026-03-22T18:16:40Z</time></trkpt><trkpt lat="43.55829079133413" lon="11.379429779706129"><ele>823.6</ele><time>2026-03-22T18:16:42Z</time></trkpt><trkpt lat="43.55823236897253" lon="11.379543163641213"><ele>823.4</ele><time>2026-03-22T18:16:44Z</time></trkpt><trkpt lat="43.558183777643045" lon="11.379630961603215"><ele>823.2</ele><time>2026-03-22T18:16:46Z</time></trkpt><trkpt lat="43.55812806472958" lon="11.379729456643283"><ele>823.0</ele><time>2026-03-22T18:16:48Z</time></trkpt><trkpt lat="43.55808521952582" lon="11.379836328194296"><ele>822.9999999999999</ele><time>2026-03-22T18:16:50Z</time></trkpt><trkpt lat="43.558057100061816" lon="11.379943248988134"><ele>823.0</ele><time>2026-03-22T18:16:53Z</time></trkpt><trkpt lat="43.558036630618126" lon="11.38004118587288"><ele>823.0</ele><time>2026-03-22T18:16:55Z</time></trkpt><trkpt lat="43.558038363430384" lon="11.38015780858635"><ele>823.0</ele><time>2026-03-22T18:16:57Z</time></trkpt><trkpt lat="43.55805725481319" lon="11.3802681972608"><ele>822.9999999999999</ele><time>2026-03-22T18:16:59Z</time></trkpt><trkpt lat="43.5580938840235" lon="11.38040354289859"><ele>823.0</ele><time>2026-03-22T18:17:01Z</time></trkpt><trkpt lat="43.55813472676964" lon="11.38051753301422"><ele>823.8333333333333</ele><time>2026-03-22T18:17:03Z</time></trkpt><trkpt lat="43.55818624713716" lon="11.38063413400436"><ele>824.6666666666666</ele><time>2026-03-22T18:17:05Z</time></trkpt><trkpt lat="43.55822859847204" lon="11.380748704529108"><ele>825.5</ele><time>2026-03-22T18:17:07Z</time></trkpt><trkpt lat="43.55829531012911" lon="11.380802625455528"><ele>826.3333333333333</ele><time>2026-03-22T18:17:09Z</time></trkpt><trkpt lat="43.55835231216307" lon="11.380839875480703"><ele>827.1666666666666</ele><time>2026-03-22T18:17:10Z</time></trkpt><trkpt lat="43.55844366045647" lon="11.38090688038639"><ele>828.0</ele><time>2026-03-22T18:17:12Z</time></trkpt><trkpt lat="43.55854030273081" lon="11.380982993088978"><ele>828.0</ele><time>2026-03-22T18:17:14Z</time></trkpt><trkpt lat="43.55862883926882" lon="11.381020097596691"><ele>828.0</ele><time>2026-03-22T18:17:16Z</time></trkpt><trkpt lat="43.558713541347736" lon="11.381060140073417"><ele>828.0</ele><time>2026-03-22T18:17:18Z</time></trkpt><trkpt lat="43.558815942732814" lon="11.381116621837366"><ele>828.0</ele><time>2026-03-22T18:17:20Z</time></trkpt><trkpt lat="43.55891098383842" lon="11.381204432143727"><ele>828.0</ele><time>2026-03-22T18:17:22Z</time></trkpt><trkpt lat="43.55897076051993" lon="11.381254924155003"><ele>830.2</ele><time>2026-03-22T18:17:23Z</time></trkpt><trkpt lat="43.559025062764974" lon="11.381312231885977"><ele>832.4</ele><time>2026-03-22T18:17:24Z</time></trkpt><trkpt lat="43.55912328487563" lon="11.381422828171242"><ele>834.6</ele><time>2026-03-22T18:17:26Z</time></trkpt><trkpt lat="43.55919171433635" lon="11.381512408666584"><ele>836.8000000000001</ele><time>2026-03-22T18:17:28Z</time></trkpt><trkpt lat="43.55927791030673" lon="11.381542488490732"><ele>839.0</ele><time>2026-03-22T18:17:30Z</time></trkpt><trkpt lat="43.55936069342341" lon="11.381515801777635"><ele>839.0</ele><time>2026-03-22T18:17:32Z</time></trkpt><trkpt lat="43.55942033146686" lon="11.381390889843376"><ele>839.0</ele><time>2026-03-22T18:17:34Z</time></trkpt><trkpt lat="43.559459277257055" lon="11.381313260031819"><ele>839.0</ele><time>2026-03-22T18:17:37Z</time></trkpt><trkpt lat="43.55951641777413" lon="11.38121638191271"><ele>839.0</ele><time>2026-03-22T18:17:39Z</time></trkpt><trkpt lat="43.55957603002309" lon="11.381088782951549"><ele>839.0</ele><time>2026-03-22T18:17:41Z</time></trkpt><trkpt lat="43.55963818624051" lon="11.380978661791982"><ele>840.1428571428571</ele><time>2026-03-22T18:17:43Z</time></trkpt><trkpt lat="43.55967060749757" lon="11.380902018828134"><ele>841.2857142857143</ele><time>2026-03-22T18:17:45Z</time></trkpt><trkpt lat="43.559718119268176" lon="11.380805687193199"><ele>842.4285714285714</ele><time>2026-03-22T18:17:47Z</time></trkpt><trkpt lat="43.559803737464755" lon="11.380761505579505"><ele>843.5714285714286</ele><time>2026-03-22T18:17:49Z</time></trkpt><trkpt lat="43.559866749691665" lon="11.380753731643605"><ele>844.7142857142858</ele><time>2026-03-22T18:17:51Z</time></trkpt><trkpt lat="43.559915292535166" lon="11.380819423459217"><ele>845.8571428571429</ele><time>2026-03-22T18:17:54Z</time></trkpt><trkpt lat="43.5598629035574" lon="11.380885681358565"><ele>847.0</ele><time>2026-03-22T18:17:56Z</time></trkpt><trkpt lat="43.55983025570075" lon="11.380961402805514"><ele>847.0</ele><time>2026-03-22T18:17:58Z</time></trkpt><trkpt lat="43.55981831835627" lon="11.381088241945427"><ele>847.0</ele><time>2026-03-22T18:18:00Z</time></trkpt><trkpt lat="43.559814629216184" lon="11.38122314559512"><ele>847.0</ele><time>2026-03-22T18:18:02Z</time></trkpt><trkpt lat="43.559812547402736" lon="11.381388632751278"><ele>847.0</ele><time>2026-03-22T18:18:04Z</time></trkpt><trkpt lat="43.55978041972034" lon="11.381509387300639"><ele>847.0</ele><time>2026-03-22T18:18:06Z</time></trkpt><trkpt lat="43.55978078863866" lon="11.381605663324251"><ele>845.0</ele><time>2026-03-22T18:18:08Z</time></trkpt><trkpt lat="43.559805313633845" lon="11.381701428093105"><ele>843.0</ele><time>2026-03-22T18:18:11Z</time></trkpt><trkpt lat="43.55971819430736" lon="11.381874772770518"><ele>841.0</ele><time>2026-03-22T18:18:13Z</time></trkpt><trkpt lat="43.55965311447011" lon="11.381991321189556"><ele>839.0</ele><time>2026-03-22T18:18:14Z</time></trkpt><trkpt lat="43.55957079961536" lon="11.38213000798763"><ele>840.0</ele><time>2026-03-22T18:18:15Z</time></trkpt><trkpt lat="43.559486614934166" lon="11.382251511838978"><ele>841.0</ele><time>2026-03-22T18:18:16Z</time></trkpt><trkpt lat="43.55941944195561" lon="11.382350003551887"><ele>842.0</ele><time>2026-03-22T18:18:17Z</time></trkpt><trkpt lat="43.5593598970071" lon="11.382439259347606"><ele>843.0</ele><time>2026-03-22T18:18:18Z</time></trkpt><trkpt lat="43.55930762180259" lon="11.38251748987567"><ele>844.0</ele><time>2026-03-22T18:18:19Z</time></trkpt><trkpt lat="43.55924986626939" lon="11.382600564234451"><ele>843.9999999999999</ele><time>2026-03-22T18:18:20Z</time></trkpt><trkpt lat="43.55920606409312" lon="11.382664121410196"><ele>844.0</ele><time>2026-03-22T18:18:21Z</time></trkpt><trkpt lat="43.5591817807324" lon="11.382778698503513"><ele>844.0</ele><time>2026-03-22T18:18:23Z</time></trkpt><trkpt lat="43.55923045059486" lon="11.38285731551764"><ele>844.0</ele><time>2026-03-22T18:18:30Z</time></trkpt><trkpt lat="43.55928834222065" lon="11.382933830203832"><ele>843.9999999999999</ele><time>2026-03-22T18:18:32Z</time></trkpt><trkpt lat="43.55936580821714" lon="11.3830061750172"><ele>844.0</ele><time>2026-03-22T18:18:34Z</time></trkpt><trkpt lat="43.55938717474741" lon="11.383098065872492"><ele>842.8333333333333</ele><time>2026-03-22T18:18:36Z</time></trkpt><trkpt lat="43.55933079524093" lon="11.383203186197367"><ele>841.6666666666666</ele><time>2026-03-22T18:18:38Z</time></trkpt><trkpt lat="43.559264182433125" lon="11.3832409294993"><ele>840.5</ele><time>2026-03-22T18:18:39Z</time></trkpt><trkpt lat="43.55919457582528" lon="11.383267482511926"><ele>839.3333333333333</ele><time>2026-03-22T18:18:40Z</time></trkpt><trkpt lat="43.55912061300341" lon="11.383301845153785"><ele>838.1666666666666</ele><time>2026-03-22T18:18:41Z</time></trkpt><trkpt lat="43.55906635737086" lon="11.383346265318302"><ele>837.0</ele><time>2026-03-22T18:18:42Z</time></trkpt><trkpt lat="43.55900854091396" lon="11.38340162325422"><ele>837.0</ele><time>2026-03-22T18:18:43Z</time></trkpt><trkpt lat="43.55890036026782" lon="11.383500407717962"><ele>837.0</ele><time>2026-03-22T18:18:45Z</time></trkpt><trkpt lat="43.55883170142016" lon="11.383529732572663"><ele>837.0</ele><time>2026-03-22T18:18:46Z</time></trkpt><trkpt lat="43.55876686343903" lon="11.383532157813217"><ele>837.0</ele><time>2026-03-22T18:18:47Z</time></trkpt><trkpt lat="43.55864054241982" lon="11.383584255744704"><ele>837.0</ele><time>2026-03-22T18:18:49Z</time></trkpt><trkpt lat="43.558509644461054" lon="11.383674163339178"><ele>839.5</ele><time>2026-03-22T18:18:51Z</time></trkpt><trkpt lat="43.55844593987318" lon="11.383727518829875"><ele>842.0</ele><time>2026-03-22T18:18:52Z</time></trkpt><trkpt lat="43.55838607139232" lon="11.383767234781542"><ele>844.5</ele><time>2026-03-22T18:18:53Z</time></trkpt><trkpt lat="43.55831987065201" lon="11.383844488295598"><ele>847.0</ele><time>2026-03-22T18:18:54Z</time></trkpt><trkpt lat="43.55825678710086" lon="11.383924800337066"><ele>849.5</ele><time>2026-03-22T18:18:55Z</time></trkpt><trkpt lat="43.55821184905409" lon="11.384015416792398"><ele>852.0</ele><time>2026-03-22T18:18:56Z</time></trkpt><trkpt lat="43.55817299153221" lon="11.384087268717147"><ele>852.0</ele><time>2026-03-22T18:18:57Z</time></trkpt><trkpt lat="43.55808956111923" lon="11.384213118676932"><ele>852.0</ele><time>2026-03-22T18:18:59Z</time></trkpt><trkpt lat="43.5580267865572" lon="11.38425383236811"><ele>852.0</ele><time>2026-03-22T18:19:00Z</time></trkpt><trkpt lat="43.55795714827049" lon="11.384302424106897"><ele>852.0</ele><time>2026-03-22T18:19:01Z</time></trkpt><trkpt lat="43.55788916637102" lon="11.384363160586863"><ele>852.0</ele><time>2026-03-22T18:19:02Z</time></trkpt><trkpt lat="43.557826211432996" lon="11.384458276249186"><ele>852.0</ele><time>2026-03-22T18:19:03Z</time></trkpt><trkpt lat="43.557770001725736" lon="11.38455119477603"><ele>855.0</ele><time>2026-03-22T18:19:04Z</time></trkpt><trkpt lat="43.55771533954844" lon="11.384647595774934"><ele>858.0</ele><time>2026-03-22T18:19:05Z</time></trkpt><trkpt lat="43.557679220510835" lon="11.384739969163581"><ele>861.0</ele><time>2026-03-22T18:19:06Z</time></trkpt><trkpt lat="43.55763868724271" lon="11.3848142775582"><ele>864.0</ele><time>2026-03-22T18:19:07Z</time></trkpt><trkpt lat="43.557586926562884" lon="11.384894374987699"><ele>867.0</ele><time>2026-03-22T18:19:08Z</time></trkpt><trkpt lat="43.55751906930633" lon="11.384976382757449"><ele>870.0</ele><time>2026-03-22T18:19:09Z</time></trkpt><trkpt lat="43.55746365614766" lon="11.385057437637895"><ele>870.0</ele><time>2026-03-22T18:19:10Z</time></trkpt><trkpt lat="43.55740554138572" lon="11.385125782482138"><ele>870.0</ele><time>2026-03-22T18:19:11Z</time></trkpt><trkpt lat="43.557310811224035" lon="11.385223394435092"><ele>870.0</ele><time>2026-03-22T18:19:13Z</time></trkpt><trkpt lat="43.55725100235796" lon="11.385349035666486"><ele>870.0</ele><time>2026-03-22T18:19:15Z</time></trkpt><trkpt lat="43.557209698099705" lon="11.38542581702506"><ele>870.0</ele><time>2026-03-22T18:19:16Z</time></trkpt><trkpt lat="43.55716579327773" lon="11.385540352719545"><ele>868.6</ele><time>2026-03-22T18:19:17Z</time></trkpt><trkpt lat="43.55710202700324" lon="11.385675900984243"><ele>867.2</ele><time>2026-03-22T18:19:18Z</time></trkpt><trkpt lat="43.55705165511665" lon="11.385792636911171"><ele>865.8</ele><time>2026-03-22T18:19:19Z</time></trkpt><trkpt lat="43.557008317008695" lon="11.385886503269726"><ele>864.4</ele><time>2026-03-22T18:19:20Z</time></trkpt><trkpt lat="43.556924937387706" lon="11.386018268750897"><ele>863.0</ele><time>2026-03-22T18:19:22Z</time></trkpt><trkpt lat="43.556875617321786" lon="11.386079159840552"><ele>864.1666666666667</ele><time>2026-03-22T18:19:23Z</time></trkpt><trkpt lat="43.55682341584599" lon="11.386154184461864"><ele>865.3333333333334</ele><time>2026-03-22T18:19:24Z</time></trkpt><trkpt lat="43.556763241162315" lon="11.386314202110265"><ele>866.5</ele><time>2026-03-22T18:19:26Z</time></trkpt><trkpt lat="43.556730016021675" lon="11.386394659334117"><ele>867.6666666666667</ele><time>2026-03-22T18:19:27Z</time></trkpt><trkpt lat="43.55669399752573" lon="11.386492000687563"><ele>868.8333333333334</ele><time>2026-03-22T18:19:28Z</time></trkpt><trkpt lat="43.55665600512466" lon="11.386580110962633"><ele>870.0</ele><time>2026-03-22T18:19:29Z</time></trkpt><trkpt lat="43.55660881985712" lon="11.386722298355586"><ele>870.0000000000001</ele><time>2026-03-22T18:19:31Z</time></trkpt><trkpt lat="43.5565393973144" lon="11.386761226433405"><ele>870.0</ele><time>2026-03-22T18:19:33Z</time></trkpt><trkpt lat="43.556466000390216" lon="11.386775642286054"><ele>870.0</ele><time>2026-03-22T18:19:35Z</time></trkpt><trkpt lat="43.556392591825094" lon="11.386817930109286"><ele>870.0</ele><time>2026-03-22T18:19:36Z</time></trkpt><trkpt lat="43.556326633887615" lon="11.386868515609102"><ele>870.0</ele><time>2026-03-22T18:19:37Z</time></trkpt><trkpt lat="43.55626355683326" lon="11.38687828721123"><ele>870.0000000000001</ele><time>2026-03-22T18:19:38Z</time></trkpt><trkpt lat="43.556183358191205" lon="11.38688324340002"><ele>870.0</ele><time>2026-03-22T18:19:39Z</time></trkpt><trkpt lat="43.556097014237665" lon="11.386887624824078"><ele>871.4</ele><time>2026-03-22T18:19:40Z</time></trkpt><trkpt lat="43.55599716948178" lon="11.386900537597674"><ele>872.8</ele><time>2026-03-22T18:19:41Z</time></trkpt><trkpt lat="43.555894636561135" lon="11.3869221610999"><ele>874.2</ele><time>2026-03-22T18:19:42Z</time></trkpt><trkpt lat="43.55580834524221" lon="11.386936690546328"><ele>875.6</ele><time>2026-03-22T18:19:43Z</time></trkpt><trkpt lat="43.555729756418884" lon="11.386940991618223"><ele>877.0</ele><time>2026-03-22T18:19:44Z</time></trkpt><trkpt lat="43.555647482512434" lon="11.386948583154028"><ele>877.0000000000001</ele><time>2026-03-22T18:19:45Z</time></trkpt><trkpt lat="43.55557170438785" lon="11.386962832863139"><ele>877.0</ele><time>2026-03-22T18:19:46Z</time></trkpt><trkpt lat="43.55550421910853" lon="11.386984631730597"><ele>877.0</ele><time>2026-03-22T18:19:47Z</time></trkpt><trkpt lat="43.55543518205043" lon="11.386989244248118"><ele>877.0</ele><time>2026-03-22T18:19:48Z</time></trkpt><trkpt lat="43.55535699298843" lon="11.386979011060188"><ele>877.0</ele><time>2026-03-22T18:19:49Z</time></trkpt><trkpt lat="43.55528230295031" lon="11.38696738373716"><ele>877.0000000000001</ele><time>2026-03-22T18:19:50Z</time></trkpt><trkpt lat="43.55520692806517" lon="11.386959879404765"><ele>877.0</ele><time>2026-03-22T18:19:51Z</time></trkpt><trkpt lat="43.55512381938306" lon="11.386954324435496"><ele>878.4999999999999</ele><time>2026-03-22T18:19:52Z</time></trkpt><trkpt lat="43.55505157356865" lon="11.386954198734834"><ele>880.0</ele><time>2026-03-22T18:19:53Z</time></trkpt><trkpt lat="43.554979466364145" lon="11.386952119057268"><ele>881.5</ele><time>2026-03-22T18:19:54Z</time></trkpt><trkpt lat="43.55490517932019" lon="11.386948671847774"><ele>883.0</ele><time>2026-03-22T18:19:55Z</time></trkpt><trkpt lat="43.554786879126944" lon="11.38694736573085"><ele>884.4999999999999</ele><time>2026-03-22T18:19:57Z</time></trkpt><trkpt lat="43.55469642534047" lon="11.38697321137292"><ele>886.0</ele><time>2026-03-22T18:19:59Z</time></trkpt><trkpt lat="43.5545910790757" lon="11.387009470301615"><ele>885.0</ele><time>2026-03-22T18:20:01Z</time></trkpt><trkpt lat="43.55449566340613" lon="11.386902545313324"><ele>883.9999999999999</ele><time>2026-03-22T18:20:03Z</time></trkpt><trkpt lat="43.55442871421637" lon="11.386905642042148"><ele>882.9999999999999</ele><time>2026-03-22T18:20:05Z</time></trkpt><trkpt lat="43.55434109450783" lon="11.386909694865802"><ele>882.0</ele><time>2026-03-22T18:20:07Z</time></trkpt><trkpt lat="43.55424425041572" lon="11.386914174367309"><ele>881.0</ele><time>2026-03-22T18:20:09Z</time></trkpt><trkpt lat="43.554152627224106" lon="11.386918412518586"><ele>881.0</ele><time>2026-03-22T18:20:11Z</time></trkpt><trkpt lat="43.55409475560665" lon="11.38707329193104"><ele>880.9999999999999</ele><time>2026-03-22T18:20:12Z</time></trkpt><trkpt lat="43.55400136786231" lon="11.38714869707001"><ele>880.9999999999999</ele><time>2026-03-22T18:20:14Z</time></trkpt><trkpt lat="43.55393220079784" lon="11.387194154224439"><ele>881.0</ele><time>2026-03-22T18:20:15Z</time></trkpt><trkpt lat="43.55382825150641" lon="11.387277070296799"><ele>881.0</ele><time>2026-03-22T18:20:17Z</time></trkpt><trkpt lat="43.5537313308964" lon="11.387374914462832"><ele>883.1999999999999</ele><time>2026-03-22T18:20:19Z</time></trkpt><trkpt lat="43.553630831155836" lon="11.387478394142247"><ele>885.3999999999999</ele><time>2026-03-22T18:20:21Z</time></trkpt><trkpt lat="43.55357386828324" lon="11.387542882390312"><ele>887.6</ele><time>2026-03-22T18:20:22Z</time></trkpt><trkpt lat="43.55351790874433" lon="11.38761195068617"><ele>889.8</ele><time>2026-03-22T18:20:23Z</time></trkpt><trkpt lat="43.55345992832516" lon="11.387762253177248"><ele>892.0</ele><time>2026-03-22T18:20:25Z</time></trkpt><trkpt lat="43.55336095508958" lon="11.387873696779504"><ele>891.9999999999999</ele><time>2026-03-22T18:20:27Z</time></trkpt><trkpt lat="43.55330041916184" lon="11.387941859992072"><ele>892.0</ele><time>2026-03-22T18:20:28Z</time></trkpt><trkpt lat="43.553228693335186" lon="11.387942312523116"><ele>892.0</ele><time>2026-03-22T18:20:29Z</time></trkpt><trkpt lat="43.553157023228565" lon="11.38799101948097"><ele>892.0</ele><time>2026-03-22T18:20:30Z</time></trkpt><trkpt lat="43.55307985711582" lon="11.388044738388308"><ele>891.9999999999999</ele><time>2026-03-22T18:20:31Z</time></trkpt><trkpt lat="43.55299609891562" lon="11.388105143436992"><ele>892.0</ele><time>2026-03-22T18:20:32Z</time></trkpt><trkpt lat="43.552903540362045" lon="11.38817797676134"><ele>893.8333333333333</ele><time>2026-03-22T18:20:33Z</time></trkpt><trkpt lat="43.552821059268496" lon="11.388246498056374"><ele>895.6666666666666</ele><time>2026-03-22T18:20:34Z</time></trkpt><trkpt lat="43.55274480809518" lon="11.388312577606467"><ele>897.5</ele><time>2026-03-22T18:20:35Z</time></trkpt><trkpt lat="43.552679307731054" lon="11.38836955611832"><ele>899.3333333333333</ele><time>2026-03-22T18:20:36Z</time></trkpt><trkpt lat="43.55261753435335" lon="11.388423292502184"><ele>901.1666666666666</ele><time>2026-03-22T18:20:37Z</time></trkpt><trkpt lat="43.552545268117846" lon="11.388486696852565"><ele>903.0</ele><time>2026-03-22T18:20:38Z</time></trkpt><trkpt lat="43.55248246407763" lon="11.388543084835984"><ele>903.0</ele><time>2026-03-22T18:20:39Z</time></trkpt><trkpt lat="43.552416324832656" lon="11.388602613170404"><ele>903.0</ele><time>2026-03-22T18:20:40Z</time></trkpt><trkpt lat="43.552349282672694" lon="11.3886638780341"><ele>903.0</ele><time>2026-03-22T18:20:41Z</time></trkpt><trkpt lat="43.55227337185703" lon="11.388733247317603"><ele>903.0</ele><time>2026-03-22T18:20:42Z</time></trkpt><trkpt lat="43.55220214398748" lon="11.388801842979362"><ele>903.0</ele><time>2026-03-22T18:20:43Z</time></trkpt><trkpt lat="43.5521316640845" lon="11.388876129753173"><ele>903.0</ele><time>2026-03-22T18:20:44Z</time></trkpt><trkpt lat="43.55207303758942" lon="11.388947152367235"><ele>902.8333333333334</ele><time>2026-03-22T18:20:45Z</time></trkpt><trkpt lat="43.551975240839056" lon="11.388937387249156"><ele>902.6666666666667</ele><time>2026-03-22T18:20:48Z</time></trkpt><trkpt lat="43.551943134133886" lon="11.388862188105962"><ele>902.5</ele><time>2026-03-22T18:20:49Z</time></trkpt><trkpt lat="43.55190248001607" lon="11.388737178222359"><ele>902.3333333333334</ele><time>2026-03-22T18:20:51Z</time></trkpt><trkpt lat="43.55184110103491" lon="11.388681773480203"><ele>902.1666666666667</ele><time>2026-03-22T18:20:53Z</time></trkpt><trkpt lat="43.55175447006582" lon="11.388710131908166"><ele>902.0</ele><time>2026-03-22T18:20:55Z</time></trkpt><trkpt lat="43.5516869260547" lon="11.388728547083806"><ele>902.0</ele><time>2026-03-22T18:20:56Z</time></trkpt><trkpt lat="43.55161842305919" lon="11.388732011824775"><ele>902.0</ele><time>2026-03-22T18:20:57Z</time></trkpt><trkpt lat="43.55155275634425" lon="11.388715631041968"><ele>902.0</ele><time>2026-03-22T18:20:58Z</time></trkpt><trkpt lat="43.551452522943315" lon="11.388675430618488"><ele>902.0</ele><time>2026-03-22T18:21:00Z</time></trkpt><trkpt lat="43.55135091830679" lon="11.388603953835295"><ele>902.0</ele><time>2026-03-22T18:21:02Z</time></trkpt><trkpt lat="43.55124403525945" lon="11.38853754638075"><ele>901.4000000000001</ele><time>2026-03-22T18:21:04Z</time></trkpt><trkpt lat="43.55118053277283" lon="11.388512892159598"><ele>900.8000000000001</ele><time>2026-03-22T18:21:05Z</time></trkpt><trkpt lat="43.55111376882052" lon="11.38849674166479"><ele>900.2</ele><time>2026-03-22T18:21:06Z</time></trkpt><trkpt lat="43.55100422187238" lon="11.388442213046755"><ele>899.6</ele><time>2026-03-22T18:21:08Z</time></trkpt><trkpt lat="43.55091331276477" lon="11.38838682819125"><ele>899.0</ele><time>2026-03-22T18:21:09Z</time></trkpt><trkpt lat="43.550810963545295" lon="11.388343700354197"><ele>899.0000000000001</ele><time>2026-03-22T18:21:10Z</time></trkpt><trkpt lat="43.55073513898097" lon="11.388299242593343"><ele>899.0</ele><time>2026-03-22T18:21:11Z</time></trkpt><trkpt lat="43.550658985464516" lon="11.388240375758757"><ele>899.0</ele><time>2026-03-22T18:21:12Z</time></trkpt><trkpt lat="43.55057812990733" lon="11.38818923462343"><ele>899.0</ele><time>2026-03-22T18:21:13Z</time></trkpt><trkpt lat="43.5505071653657" lon="11.388145908565205"><ele>899.0000000000001</ele><time>2026-03-22T18:21:14Z</time></trkpt><trkpt lat="43.55043430279011" lon="11.388105644040087"><ele>899.0</ele><time>2026-03-22T18:21:15Z</time></trkpt><trkpt lat="43.5503677300296" lon="11.388033405160797"><ele>896.4000000000001</ele><time>2026-03-22T18:21:16Z</time></trkpt><trkpt lat="43.55029147495576" lon="11.38792957404414"><ele>893.8000000000001</ele><time>2026-03-22T18:21:17Z</time></trkpt><trkpt lat="43.55021437765398" lon="11.387847958219341"><ele>891.1999999999999</ele><time>2026-03-22T18:21:18Z</time></trkpt><trkpt lat="43.55016515207569" lon="11.387789960684518"><ele>888.5999999999999</ele><time>2026-03-22T18:21:19Z</time></trkpt><trkpt lat="43.55008552412356" lon="11.38766149362879"><ele>886.0</ele><time>2026-03-22T18:21:21Z</time></trkpt><trkpt lat="43.550069665873856" lon="11.387570681041455"><ele>886.0</ele><time>2026-03-22T18:21:22Z</time></trkpt><trkpt lat="43.550095652026" lon="11.387489201253365"><ele>885.9999999999999</ele><time>2026-03-22T18:21:23Z</time></trkpt><trkpt lat="43.55014508976765" lon="11.3873435280691"><ele>885.9999999999999</ele><time>2026-03-22T18:21:25Z</time></trkpt><trkpt lat="43.55018439186579" lon="11.387199309144636"><ele>886.0</ele><time>2026-03-22T18:21:27Z</time></trkpt><trkpt lat="43.55019594338288" lon="11.387043756849044"><ele>886.0</ele><time>2026-03-22T18:21:29Z</time></trkpt><trkpt lat="43.55021565127559" lon="11.38688150755823"><ele>883.4</ele><time>2026-03-22T18:21:31Z</time></trkpt><trkpt lat="43.55023432843399" lon="11.386740394694861"><ele>880.8</ele><time>2026-03-22T18:21:33Z</time></trkpt><trkpt lat="43.55023249355627" lon="11.386595620649521"><ele>878.1999999999999</ele><time>2026-03-22T18:21:35Z</time></trkpt><trkpt lat="43.5502345901933" lon="11.386445255129418"><ele>875.5999999999999</ele><time>2026-03-22T18:21:37Z</time></trkpt><trkpt lat="43.55020196406693" lon="11.386333334239355"><ele>873.0</ele><time>2026-03-22T18:21:39Z</time></trkpt><trkpt lat="43.55017600018832" lon="11.386205591087823"><ele>871.1666666666666</ele><time>2026-03-22T18:21:42Z</time></trkpt><trkpt lat="43.5502023850613" lon="11.386052213405886"><ele>869.3333333333333</ele><time>2026-03-22T18:21:44Z</time></trkpt><trkpt lat="43.550158884404844" lon="11.385917327901344"><ele>867.5</ele><time>2026-03-22T18:21:46Z</time></trkpt><trkpt lat="43.550105838749126" lon="11.38585659980708"><ele>865.6666666666666</ele><time>2026-03-22T18:21:47Z</time></trkpt><trkpt lat="43.550052552136776" lon="11.385803154498811"><ele>863.8333333333333</ele><time>2026-03-22T18:21:48Z</time></trkpt><trkpt lat="43.54999760399744" lon="11.38575490703785"><ele>862.0</ele><time>2026-03-22T18:21:49Z</time></trkpt><trkpt lat="43.54995839841447" lon="11.385684742215565"><ele>862.0</ele><time>2026-03-22T18:21:50Z</time></trkpt><trkpt lat="43.549908046163296" lon="11.38562234419348"><ele>862.0</ele><time>2026-03-22T18:21:51Z</time></trkpt><trkpt lat="43.549789978095205" lon="11.385552033512655"><ele>862.0</ele><time>2026-03-22T18:21:53Z</time></trkpt><trkpt lat="43.54967812725576" lon="11.385531383804896"><ele>862.0</ele><time>2026-03-22T18:21:55Z</time></trkpt><trkpt lat="43.54961697513651" lon="11.385502790881569"><ele>862.0</ele><time>2026-03-22T18:21:56Z</time></trkpt><trkpt lat="43.54951992210458" lon="11.385405216838228"><ele>859.1428571428572</ele><time>2026-03-22T18:21:58Z</time></trkpt><trkpt lat="43.549481442265595" lon="11.38533424465458"><ele>856.2857142857142</ele><time>2026-03-22T18:21:59Z</time></trkpt><trkpt lat="43.54944443348888" lon="11.385252855223529"><ele>853.4285714285714</ele><time>2026-03-22T18:22:00Z</time></trkpt><trkpt lat="43.54939706834569" lon="11.385166737981656"><ele>850.5714285714287</ele><time>2026-03-22T18:22:01Z</time></trkpt><trkpt lat="43.54935879738144" lon="11.385090946710438"><ele>847.7142857142858</ele><time>2026-03-22T18:22:02Z</time></trkpt><trkpt lat="43.54930870129038" lon="11.38501131492153"><ele>844.8571428571429</ele><time>2026-03-22T18:22:03Z</time></trkpt><trkpt lat="43.5492643568583" lon="11.384928377867608"><ele>842.0</ele><time>2026-03-22T18:22:04Z</time></trkpt><trkpt lat="43.549218545171215" lon="11.384828566640612"><ele>842.0000000000001</ele><time>2026-03-22T18:22:05Z</time></trkpt><trkpt lat="43.54915865099109" lon="11.384731013285109"><ele>842.0</ele><time>2026-03-22T18:22:06Z</time></trkpt><trkpt lat="43.54910883275852" lon="11.384641418141161"><ele>842.0</ele><time>2026-03-22T18:22:07Z</time></trkpt><trkpt lat="43.549059174687805" lon="11.384553662272458"><ele>842.0</ele><time>2026-03-22T18:22:08Z</time></trkpt><trkpt lat="43.54900619710914" lon="11.384490839160692"><ele>842.0000000000001</ele><time>2026-03-22T18:22:09Z</time></trkpt><trkpt lat="43.54894202324364" lon="11.38443304337186"><ele>842.0</ele><time>2026-03-22T18:22:10Z</time></trkpt><trkpt lat="43.54888525460432" lon="11.384363451441427"><ele>841.8</ele><time>2026-03-22T18:22:11Z</time></trkpt><trkpt lat="43.548842897126065" lon="11.384287407498503"><ele>841.6</ele><time>2026-03-22T18:22:12Z</time></trkpt><trkpt lat="43.54879420608569" lon="11.384210533820632"><ele>841.4</ele><time>2026-03-22T18:22:13Z</time></trkpt><trkpt lat="43.54873277894206" lon="11.384075005730264"><ele>841.1999999999999</ele><time>2026-03-22T18:22:15Z</time></trkpt><trkpt lat="43.54865813284481" lon="11.383980424560805"><ele>841.0</ele><time>2026-03-22T18:22:17Z</time></trkpt><trkpt lat="43.5485721955725" lon="11.383884660060087"><ele>843.1999999999999</ele><time>2026-03-22T18:22:19Z</time></trkpt><trkpt lat="43.54848398832566" lon="11.383764086969487"><ele>845.4</ele><time>2026-03-22T18:22:21Z</time></trkpt><trkpt lat="43.548409656403344" lon="11.383661258844223"><ele>847.6</ele><time>2026-03-22T18:22:23Z</time></trkpt><trkpt lat="43.54833161923969" lon="11.383572423204113"><ele>849.8</ele><time>2026-03-22T18:22:25Z</time></trkpt><trkpt lat="43.54826930035279" lon="11.38344891422424"><ele>852.0</ele><time>2026-03-22T18:22:27Z</time></trkpt><trkpt lat="43.54821570951783" lon="11.383300856384865"><ele>851.9999999999999</ele><time>2026-03-22T18:22:29Z</time></trkpt><trkpt lat="43.54818901420851" lon="11.383207800590895"><ele>852.0</ele><time>2026-03-22T18:22:30Z</time></trkpt><trkpt lat="43.54815836777793" lon="11.383111848886168"><ele>852.0</ele><time>2026-03-22T18:22:31Z</time></trkpt><trkpt lat="43.54813952956877" lon="11.383025213201291"><ele>852.0</ele><time>2026-03-22T18:22:32Z</time></trkpt><trkpt lat="43.548129962544955" lon="11.382933902203149"><ele>852.0</ele><time>2026-03-22T18:22:33Z</time></trkpt><trkpt lat="43.54813903489622" lon="11.382835876439653"><ele>851.9999999999999</ele><time>2026-03-22T18:22:34Z</time></trkpt><trkpt lat="43.548154746059886" lon="11.382731588189698"><ele>852.0</ele><time>2026-03-22T18:22:35Z</time></trkpt><trkpt lat="43.54813718186" lon="11.382582229791966"><ele>852.2857142857142</ele><time>2026-03-22T18:22:37Z</time></trkpt><trkpt lat="43.54808066568075" lon="11.382514460781795"><ele>852.5714285714286</ele><time>2026-03-22T18:22:38Z</time></trkpt><trkpt lat="43.548029897786726" lon="11.382430486123365"><ele>852.8571428571429</ele><time>2026-03-22T18:22:39Z</time></trkpt><trkpt lat="43.54800288957112" lon="11.382351562435668"><ele>853.1428571428571</ele><time>2026-03-22T18:22:40Z</time></trkpt><trkpt lat="43.54796831417028" lon="11.382257920910591"><ele>853.4285714285714</ele><time>2026-03-22T18:22:41Z</time></trkpt><trkpt lat="43.54792435161911" lon="11.382194439905689"><ele>853.7142857142857</ele><time>2026-03-22T18:22:42Z</time></trkpt><trkpt lat="43.54785962340824" lon="11.382140101591885"><ele>854.0</ele><time>2026-03-22T18:22:43Z</time></trkpt><trkpt lat="43.5477990718979" lon="11.382087631261259"><ele>854.0</ele><time>2026-03-22T18:22:44Z</time></trkpt><trkpt lat="43.547691705204734" lon="11.38202638691697"><ele>854.0000000000001</ele><time>2026-03-22T18:22:46Z</time></trkpt><trkpt lat="43.547613591131196" lon="11.382000943950153"><ele>854.0000000000001</ele><time>2026-03-22T18:22:48Z</time></trkpt><trkpt lat="43.5475450928135" lon="11.381986945666885"><ele>854.0</ele><time>2026-03-22T18:22:50Z</time></trkpt><trkpt lat="43.54746134500172" lon="11.381937863337264"><ele>854.0</ele><time>2026-03-22T18:22:53Z</time></trkpt><trkpt lat="43.5473869801262" lon="11.38185895329805"><ele>854.0</ele><time>2026-03-22T18:22:55Z</time></trkpt><trkpt lat="43.54726427586869" lon="11.381798495299144"><ele>854.0000000000001</ele><time>2026-03-22T18:22:57Z</time></trkpt><trkpt lat="43.54717087988644" lon="11.381732951325587"><ele>854.0000000000001</ele><time>2026-03-22T18:22:59Z</time></trkpt><trkpt lat="43.547120840406286" lon="11.381599048562943"><ele>854.0</ele><time>2026-03-22T18:23:01Z</time></trkpt><trkpt lat="43.5471008113728" lon="11.381497430964933"><ele>854.0</ele><time>2026-03-22T18:23:03Z</time></trkpt><trkpt lat="43.54703000413525" lon="11.381408870180419"><ele>853.4000000000001</ele><time>2026-03-22T18:23:05Z</time></trkpt><trkpt lat="43.54693843160815" lon="11.381328904241354"><ele>852.8000000000001</ele><time>2026-03-22T18:23:07Z</time></trkpt><trkpt lat="43.54686399617359" lon="11.38127789162245"><ele>852.2</ele><time>2026-03-22T18:23:09Z</time></trkpt><trkpt lat="43.546777660169155" lon="11.381232873794831"><ele>851.5999999999999</ele><time>2026-03-22T18:23:11Z</time></trkpt><trkpt lat="43.54670407275442" lon="11.381183859876955"><ele>851.0</ele><time>2026-03-22T18:23:13Z</time></trkpt><trkpt lat="43.54659610561588" lon="11.381122766814888"><ele>851.0</ele><time>2026-03-22T18:23:15Z</time></trkpt><trkpt lat="43.54648244327407" lon="11.38108881917444"><ele>851.0</ele><time>2026-03-22T18:23:17Z</time></trkpt><trkpt lat="43.54641251224398" lon="11.38105442305587"><ele>851.0</ele><time>2026-03-22T18:23:18Z</time></trkpt><trkpt lat="43.546292341003856" lon="11.381037213837807"><ele>851.0</ele><time>2026-03-22T18:23:20Z</time></trkpt><trkpt lat="43.54622582620483" lon="11.381004873675245"><ele>851.0</ele><time>2026-03-22T18:23:21Z</time></trkpt><trkpt lat="43.54614717443601" lon="11.380922866004527"><ele>850.8333333333334</ele><time>2026-03-22T18:23:23Z</time></trkpt><trkpt lat="43.54611150807399" lon="11.380835969631116"><ele>850.6666666666667</ele><time>2026-03-22T18:23:26Z</time></trkpt><trkpt lat="43.5460606922865" lon="11.380771643284813"><ele>850.5</ele><time>2026-03-22T18:23:28Z</time></trkpt><trkpt lat="43.545994233925875" lon="11.380699872076361"><ele>850.3333333333333</ele><time>2026-03-22T18:23:30Z</time></trkpt><trkpt lat="43.54593833250194" lon="11.380657017983834"><ele>850.1666666666666</ele><time>2026-03-22T18:23:31Z</time></trkpt><trkpt lat="43.5458909492518" lon="11.38059837315814"><ele>850.0</ele><time>2026-03-22T18:23:32Z</time></trkpt><trkpt lat="43.54581434212493" lon="11.38048406065294"><ele>847.9999999999999</ele><time>2026-03-22T18:23:34Z</time></trkpt><trkpt lat="43.54575842229661" lon="11.380392870019051"><ele>846.0</ele><time>2026-03-22T18:23:35Z</time></trkpt><trkpt lat="43.54570653037382" lon="11.380318397609754"><ele>844.0</ele><time>2026-03-22T18:23:36Z</time></trkpt><trkpt lat="43.545626155593204" lon="11.380207567308716"><ele>842.0</ele><time>2026-03-22T18:23:38Z</time></trkpt><trkpt lat="43.5455912115141" lon="11.380125078030616"><ele>839.9999999999999</ele><time>2026-03-22T18:23:40Z</time></trkpt><trkpt lat="43.54553146144008" lon="11.380065484484897"><ele>838.0</ele><time>2026-03-22T18:23:42Z</time></trkpt><trkpt lat="43.54546818753807" lon="11.38001073377968"><ele>837.9999999999999</ele><time>2026-03-22T18:23:43Z</time></trkpt><trkpt lat="43.54540911474505" lon="11.3799803058172"><ele>838.0</ele><time>2026-03-22T18:23:44Z</time></trkpt><trkpt lat="43.54533879575097" lon="11.379995638837945"><ele>838.0</ele><time>2026-03-22T18:23:45Z</time></trkpt><trkpt lat="43.54525797326685" lon="11.380015089728444"><ele>838.0</ele><time>2026-03-22T18:23:47Z</time></trkpt><trkpt lat="43.54519698113536" lon="11.37997432598281"><ele>838.0</ele><time>2026-03-22T18:23:49Z</time></trkpt><trkpt lat="43.5451280735255" lon="11.37988205908019"><ele>837.9999999999999</ele><time>2026-03-22T18:23:51Z</time></trkpt><trkpt lat="43.54509523277435" lon="11.379800172065659"><ele>838.0</ele><time>2026-03-22T18:23:52Z</time></trkpt><trkpt lat="43.545053614918935" lon="11.379657420512626"><ele>837.2</ele><time>2026-03-22T18:23:54Z</time></trkpt><trkpt lat="43.544987814620335" lon="11.379571426643563"><ele>836.4</ele><time>2026-03-22T18:23:56Z</time></trkpt><trkpt lat="43.54490784592906" lon="11.379446675837347"><ele>835.6</ele><time>2026-03-22T18:23:58Z</time></trkpt><trkpt lat="43.544836057378006" lon="11.379332579089233"><ele>834.8000000000001</ele><time>2026-03-22T18:24:00Z</time></trkpt><trkpt lat="43.54480949878695" lon="11.37924857973409"><ele>834.0</ele><time>2026-03-22T18:24:01Z</time></trkpt><trkpt lat="43.544785799710034" lon="11.37915340688328"><ele>834.0</ele><time>2026-03-22T18:24:02Z</time></trkpt><trkpt lat="43.544707297384036" lon="11.379048879626588"><ele>834.0</ele><time>2026-03-22T18:24:04Z</time></trkpt><trkpt lat="43.54462318839898" lon="11.378948238418996"><ele>834.0</ele><time>2026-03-22T18:24:06Z</time></trkpt><trkpt lat="43.54458240501595" lon="11.378869709320348"><ele>834.0</ele><time>2026-03-22T18:24:08Z</time></trkpt><trkpt lat="43.54451679586261" lon="11.378861978772763"><ele>834.0</ele><time>2026-03-22T18:24:26Z</time></trkpt><trkpt lat="43.544571092130596" lon="11.378947817891943"><ele>834.0</ele><time>2026-03-22T18:24:29Z</time></trkpt><trkpt lat="43.54457924138166" lon="11.378838626218334"><ele>834.8333333333334</ele><time>2026-03-22T18:24:32Z</time></trkpt><trkpt lat="43.544518459971584" lon="11.378865413295614"><ele>835.6666666666667</ele><time>2026-03-22T18:24:51Z</time></trkpt><trkpt lat="43.544453083481834" lon="11.378894177393317"><ele>836.5</ele><time>2026-03-22T18:24:53Z</time></trkpt><trkpt lat="43.54437785989179" lon="11.378901176429377"><ele>837.3333333333334</ele><time>2026-03-22T18:24:55Z</time></trkpt><trkpt lat="43.54425586142386" lon="11.378914550651862"><ele>838.1666666666667</ele><time>2026-03-22T18:24:57Z</time></trkpt><trkpt lat="43.544179769842316" lon="11.378902709607438"><ele>839.0</ele><time>2026-03-22T18:24:58Z</time></trkpt><trkpt lat="43.54410504670515" lon="11.378892046574201"><ele>839.0</ele><time>2026-03-22T18:24:59Z</time></trkpt><trkpt lat="43.54403647961345" lon="11.378895890085229"><ele>839.0</ele><time>2026-03-22T18:25:00Z</time></trkpt><trkpt lat="43.54391487407225" lon="11.378919274168574"><ele>839.0</ele><time>2026-03-22T18:25:02Z</time></trkpt><trkpt lat="43.543800573057666" lon="11.378962263697067"><ele>839.0</ele><time>2026-03-22T18:25:04Z</time></trkpt><trkpt lat="43.543694873290335" lon="11.379039652452215"><ele>839.0</ele><time>2026-03-22T18:25:06Z</time></trkpt><trkpt lat="43.543640431982375" lon="11.379085518062984"><ele>838.6666666666667</ele><time>2026-03-22T18:25:07Z</time></trkpt><trkpt lat="43.543528747918295" lon="11.379151075338452"><ele>838.3333333333334</ele><time>2026-03-22T18:25:09Z</time></trkpt><trkpt lat="43.543463173812434" lon="11.379198977136841"><ele>838.0</ele><time>2026-03-22T18:25:10Z</time></trkpt><trkpt lat="43.54339026408416" lon="11.379255195035956"><ele>837.6666666666667</ele><time>2026-03-22T18:25:11Z</time></trkpt><trkpt lat="43.543315834629674" lon="11.379301627512888"><ele>837.3333333333334</ele><time>2026-03-22T18:25:12Z</time></trkpt><trkpt lat="43.543250657488976" lon="11.379328480802187"><ele>837.0</ele><time>2026-03-22T18:25:13Z</time></trkpt><trkpt lat="43.54318919030073" lon="11.37935061099772"><ele>837.0</ele><time>2026-03-22T18:25:14Z</time></trkpt><trkpt lat="43.54307051593477" lon="11.379365821328122"><ele>837.0</ele><time>2026-03-22T18:25:16Z</time></trkpt><trkpt lat="43.543003596967324" lon="11.379394781573552"><ele>837.0</ele><time>2026-03-22T18:25:17Z</time></trkpt><trkpt lat="43.542938235717486" lon="11.379427974754657"><ele>837.0</ele><time>2026-03-22T18:25:18Z</time></trkpt><trkpt lat="43.542862228281464" lon="11.379459237063504"><ele>837.0</ele><time>2026-03-22T18:25:19Z</time></trkpt><trkpt lat="43.542781803668035" lon="11.37950469065933"><ele>837.0</ele><time>2026-03-22T18:25:20Z</time></trkpt><trkpt lat="43.54270580851297" lon="11.379547496164887"><ele>836.6666666666666</ele><time>2026-03-22T18:25:21Z</time></trkpt><trkpt lat="43.54261996366064" lon="11.379588396948725"><ele>836.3333333333333</ele><time>2026-03-22T18:25:22Z</time></trkpt><trkpt lat="43.54254721314633" lon="11.379615183480286"><ele>836.0</ele><time>2026-03-22T18:25:23Z</time></trkpt><trkpt lat="43.54248029595932" lon="11.379652238522622"><ele>835.6666666666666</ele><time>2026-03-22T18:25:24Z</time></trkpt><trkpt lat="43.542410653107105" lon="11.379705437849102"><ele>835.3333333333333</ele><time>2026-03-22T18:25:25Z</time></trkpt><trkpt lat="43.54234772302105" lon="11.379747669125624"><ele>835.0</ele><time>2026-03-22T18:25:26Z</time></trkpt><trkpt lat="43.54227670887249" lon="11.379811962634179"><ele>834.9999999999999</ele><time>2026-03-22T18:25:27Z</time></trkpt><trkpt lat="43.54220387005581" lon="11.379865814149971"><ele>835.0</ele><time>2026-03-22T18:25:28Z</time></trkpt><trkpt lat="43.54213091361058" lon="11.379913253083505"><ele>835.0</ele><time>2026-03-22T18:25:29Z</time></trkpt><trkpt lat="43.54205702696046" lon="11.37994969740284"><ele>835.0</ele><time>2026-03-22T18:25:30Z</time></trkpt><trkpt lat="43.541987570785324" lon="11.379973227103344"><ele>834.9999999999999</ele><time>2026-03-22T18:25:31Z</time></trkpt><trkpt lat="43.541909951384746" lon="11.379995419093941"><ele>835.0</ele><time>2026-03-22T18:25:32Z</time></trkpt><trkpt lat="43.54182789172353" lon="11.380015668526212"><ele>833.4999999999999</ele><time>2026-03-22T18:25:33Z</time></trkpt><trkpt lat="43.541752979009146" lon="11.380052763818531"><ele>832.0</ele><time>2026-03-22T18:25:34Z</time></trkpt><trkpt lat="43.541693709725486" lon="11.380095945958843"><ele>830.5</ele><time>2026-03-22T18:25:35Z</time></trkpt><trkpt lat="43.541628265605155" lon="11.380165575874482"><ele>829.0</ele><time>2026-03-22T18:25:36Z</time></trkpt><trkpt lat="43.541565625764825" lon="11.380244078103708"><ele>827.4999999999999</ele><time>2026-03-22T18:25:37Z</time></trkpt><trkpt lat="43.54148518395223" lon="11.380342280541978"><ele>826.0</ele><time>2026-03-22T18:25:38Z</time></trkpt><trkpt lat="43.54141295387475" lon="11.380413634112712"><ele>825.9999999999999</ele><time>2026-03-22T18:25:39Z</time></trkpt><trkpt lat="43.541344228730125" lon="11.380498633670438"><ele>826.0</ele><time>2026-03-22T18:25:40Z</time></trkpt><trkpt lat="43.541285816145894" lon="11.380564007206205"><ele>826.0</ele><time>2026-03-22T18:25:41Z</time></trkpt><trkpt lat="43.54124020777091" lon="11.38062778331482"><ele>826.0</ele><time>2026-03-22T18:25:42Z</time></trkpt><trkpt lat="43.54118186754476" lon="11.380703141883217"><ele>825.9999999999999</ele><time>2026-03-22T18:25:43Z</time></trkpt><trkpt lat="43.541121150438315" lon="11.380769548107855"><ele>826.0</ele><time>2026-03-22T18:25:44Z</time></trkpt><trkpt lat="43.54106003908252" lon="11.380833914466928"><ele>824.4</ele><time>2026-03-22T18:25:45Z</time></trkpt><trkpt lat="43.54097040255013" lon="11.380934104046315"><ele>822.8</ele><time>2026-03-22T18:25:47Z</time></trkpt><trkpt lat="43.5408916842468" lon="11.38101111035258"><ele>821.1999999999999</ele><time>2026-03-22T18:25:49Z</time></trkpt><trkpt lat="43.54081388369054" lon="11.381100623896366"><ele>819.5999999999999</ele><time>2026-03-22T18:25:51Z</time></trkpt><trkpt lat="43.54075105571604" lon="11.38116492740906"><ele>818.0</ele><time>2026-03-22T18:25:53Z</time></trkpt><trkpt lat="43.54066392593563" lon="11.381264611487282"><ele>818.0000000000001</ele><time>2026-03-22T18:25:55Z</time></trkpt><trkpt lat="43.54059095738082" lon="11.381304228856559"><ele>818.0</ele><time>2026-03-22T18:25:56Z</time></trkpt><trkpt lat="43.54052651886943" lon="11.381318433121073"><ele>818.0</ele><time>2026-03-22T18:25:57Z</time></trkpt><trkpt lat="43.54041226923652" lon="11.38135313512843"><ele>818.0</ele><time>2026-03-22T18:25:59Z</time></trkpt><trkpt lat="43.5403423585939" lon="11.381409869465534"><ele>818.0000000000001</ele><time>2026-03-22T18:26:00Z</time></trkpt><trkpt lat="43.5402747307213" lon="11.381455208704876"><ele>818.0</ele><time>2026-03-22T18:26:01Z</time></trkpt><trkpt lat="43.540200362301505" lon="11.381491098374262"><ele>818.0000000000001</ele><time>2026-03-22T18:26:02Z</time></trkpt><trkpt lat="43.54008752068211" lon="11.381537028625871"><ele>818.0</ele><time>2026-03-22T18:26:04Z</time></trkpt><trkpt lat="43.540016727459516" lon="11.381570229036848"><ele>818.0</ele><time>2026-03-22T18:26:05Z</time></trkpt><trkpt lat="43.539941715539555" lon="11.381606055306648"><ele>818.0</ele><time>2026-03-22T18:26:06Z</time></trkpt><trkpt lat="43.53985415751853" lon="11.381637763530257"><ele>818.0000000000001</ele><time>2026-03-22T18:26:07Z</time></trkpt><trkpt lat="43.539770257611266" lon="11.381668880494619"><ele>818.0</ele><time>2026-03-22T18:26:08Z</time></trkpt><trkpt lat="43.53968913217186" lon="11.381710861319975"><ele>818.0000000000001</ele><time>2026-03-22T18:26:09Z</time></trkpt><trkpt lat="43.539594755757015" lon="11.38175207618549"><ele>818.0</ele><time>2026-03-22T18:26:10Z</time></trkpt><trkpt lat="43.539499482272625" lon="11.381792536010773"><ele>818.0</ele><time>2026-03-22T18:26:11Z</time></trkpt><trkpt lat="43.53941810308396" lon="11.381831583509916"><ele>818.0</ele><time>2026-03-22T18:26:12Z</time></trkpt><trkpt lat="43.53934838007847" lon="11.381874490348514"><ele>818.0000000000001</ele><time>2026-03-22T18:26:13Z</time></trkpt><trkpt lat="43.53927881469689" lon="11.38190605287051"><ele>818.0</ele><time>2026-03-22T18:26:14Z</time></trkpt><trkpt lat="43.5392048572791" lon="11.381931297655782"><ele>818.1666666666667</ele><time>2026-03-22T18:26:15Z</time></trkpt><trkpt lat="43.53913105145219" lon="11.38197654994592"><ele>818.3333333333334</ele><time>2026-03-22T18:26:16Z</time></trkpt><trkpt lat="43.53905437521678" lon="11.382030467169944"><ele>818.5</ele><time>2026-03-22T18:26:17Z</time></trkpt><trkpt lat="43.53898388288797" lon="11.382089569401943"><ele>818.6666666666667</ele><time>2026-03-22T18:26:18Z</time></trkpt><trkpt lat="43.53893086197071" lon="11.382139883263548"><ele>818.8333333333334</ele><time>2026-03-22T18:26:19Z</time></trkpt><trkpt lat="43.53887556862248" lon="11.382185633225093"><ele>819.0</ele><time>2026-03-22T18:26:20Z</time></trkpt><trkpt lat="43.53876778338855" lon="11.382248586444687"><ele>820.0</ele><time>2026-03-22T18:26:22Z</time></trkpt><trkpt lat="43.53864221930092" lon="11.382279176070464"><ele>821.0</ele><time>2026-03-22T18:26:24Z</time></trkpt><trkpt lat="43.53855577186107" lon="11.382288593495364"><ele>822.0</ele><time>2026-03-22T18:26:25Z</time></trkpt><trkpt lat="43.53847239883028" lon="11.38231988329641"><ele>823.0</ele><time>2026-03-22T18:26:26Z</time></trkpt><trkpt lat="43.53840374522933" lon="11.382365594570695"><ele>824.0</ele><time>2026-03-22T18:26:27Z</time></trkpt><trkpt lat="43.53834200683895" lon="11.38240301990069"><ele>825.0</ele><time>2026-03-22T18:26:28Z</time></trkpt><trkpt lat="43.53826937586008" lon="11.382441853735687"><ele>825.0</ele><time>2026-03-22T18:26:29Z</time></trkpt><trkpt lat="43.53820270199753" lon="11.382459255914206"><ele>825.0</ele><time>2026-03-22T18:26:30Z</time></trkpt><trkpt lat="43.538134576810286" lon="11.382469177769293"><ele>825.0</ele><time>2026-03-22T18:26:31Z</time></trkpt><trkpt lat="43.53805455127675" lon="11.382555824268065"><ele>825.0</ele><time>2026-03-22T18:26:33Z</time></trkpt><trkpt lat="43.53797137816366" lon="11.382690061573365"><ele>825.0</ele><time>2026-03-22T18:26:35Z</time></trkpt><trkpt lat="43.537955035513235" lon="11.382803790160773"><ele>825.0</ele><time>2026-03-22T18:26:36Z</time></trkpt><trkpt lat="43.537946736098114" lon="11.382905667262914"><ele>825.0</ele><time>2026-03-22T18:26:37Z</time></trkpt><trkpt lat="43.53789117210279" lon="11.383037068827058"><ele>825.0</ele><time>2026-03-22T18:26:39Z</time></trkpt><trkpt lat="43.53782199701621" lon="11.383100892416257"><ele>825.0</ele><time>2026-03-22T18:26:40Z</time></trkpt><trkpt lat="43.53771905913916" lon="11.383157222617696"><ele>825.0</ele><time>2026-03-22T18:26:41Z</time></trkpt><trkpt lat="43.53763346265816" lon="11.38320365929221"><ele>824.4</ele><time>2026-03-22T18:26:42Z</time></trkpt><trkpt lat="43.53757050346613" lon="11.38324004540072"><ele>823.8</ele><time>2026-03-22T18:26:43Z</time></trkpt><trkpt lat="43.53745638458227" lon="11.383299215692382"><ele>823.2</ele><time>2026-03-22T18:26:45Z</time></trkpt><trkpt lat="43.53732869190738" lon="11.383341788671649"><ele>822.6</ele><time>2026-03-22T18:26:47Z</time></trkpt><trkpt lat="43.53721299959912" lon="11.383386560251827"><ele>822.0</ele><time>2026-03-22T18:26:49Z</time></trkpt><trkpt lat="43.5371289403998" lon="11.383399446490843"><ele>822.0</ele><time>2026-03-22T18:26:52Z</time></trkpt><trkpt lat="43.53705148133738" lon="11.383358389407995"><ele>822.0</ele><time>2026-03-22T18:26:54Z</time></trkpt><trkpt lat="43.53699381001792" lon="11.383314930012657"><ele>822.0</ele><time>2026-03-22T18:26:55Z</time></trkpt><trkpt lat="43.536941262787906" lon="11.383243923824534"><ele>822.0</ele><time>2026-03-22T18:26:56Z</time></trkpt><trkpt lat="43.53688289082026" lon="11.383170153954593"><ele>822.0</ele><time>2026-03-22T18:26:57Z</time></trkpt><trkpt lat="43.53681903465908" lon="11.383112355944567"><ele>822.0</ele><time>2026-03-22T18:26:58Z</time></trkpt><trkpt lat="43.53675194334754" lon="11.383062748998492"><ele>822.0</ele><time>2026-03-22T18:26:59Z</time></trkpt><trkpt lat="43.53668359951222" lon="11.383014439281391"><ele>822.0</ele><time>2026-03-22T18:27:00Z</time></trkpt><trkpt lat="43.53660219600166" lon="11.382970872854369"><ele>822.0</ele><time>2026-03-22T18:27:01Z</time></trkpt><trkpt lat="43.53652794032569" lon="11.382925326335563"><ele>822.0</ele><time>2026-03-22T18:27:02Z</time></trkpt><trkpt lat="43.536455802789604" lon="11.382891499317923"><ele>822.0</ele><time>2026-03-22T18:27:03Z</time></trkpt><trkpt lat="43.536374243462305" lon="11.38286984236843"><ele>822.0</ele><time>2026-03-22T18:27:04Z</time></trkpt><trkpt lat="43.53630513687778" lon="11.38283889745737"><ele>821.3333333333334</ele><time>2026-03-22T18:27:05Z</time></trkpt><trkpt lat="43.53623577983549" lon="11.382791620287948"><ele>820.6666666666667</ele><time>2026-03-22T18:27:06Z</time></trkpt><trkpt lat="43.53617036770411" lon="11.382753275742902"><ele>820.0</ele><time>2026-03-22T18:27:07Z</time></trkpt><trkpt lat="43.53610823529715" lon="11.382718064246594"><ele>819.3333333333334</ele><time>2026-03-22T18:27:08Z</time></trkpt><trkpt lat="43.53600476720861" lon="11.382676675560937"><ele>818.6666666666667</ele><time>2026-03-22T18:27:10Z</time></trkpt><trkpt lat="43.535911706947466" lon="11.382661452720482"><ele>818.0</ele><time>2026-03-22T18:27:12Z</time></trkpt><trkpt lat="43.535848107216495" lon="11.382654728496991"><ele>818.0</ele><time>2026-03-22T18:27:14Z</time></trkpt><trkpt lat="43.53574368252828" lon="11.382663535296757"><ele>818.0</ele><time>2026-03-22T18:27:16Z</time></trkpt><trkpt lat="43.5356371431889" lon="11.38267050951639"><ele>818.0</ele><time>2026-03-22T18:27:18Z</time></trkpt><trkpt lat="43.53553399404953" lon="11.382659962776774"><ele>818.0</ele><time>2026-03-22T18:27:20Z</time></trkpt><trkpt lat="43.53546414012952" lon="11.382709780752496"><ele>818.0</ele><time>2026-03-22T18:27:22Z</time></trkpt><trkpt lat="43.53539615532252" lon="11.382763869919355"><ele>818.0000000000001</ele><time>2026-03-22T18:27:24Z</time></trkpt><trkpt lat="43.535345086959154" lon="11.382825518306445"><ele>818.0</ele><time>2026-03-22T18:27:26Z</time></trkpt><trkpt lat="43.53526351226333" lon="11.382890804040265"><ele>818.0</ele><time>2026-03-22T18:27:28Z</time></trkpt><trkpt lat="43.535189614666116" lon="11.38293614285437"><ele>818.0</ele><time>2026-03-22T18:27:29Z</time></trkpt><trkpt lat="43.53510695762962" lon="11.38299678937735"><ele>818.0000000000001</ele><time>2026-03-22T18:27:30Z</time></trkpt><trkpt lat="43.53504322869522" lon="11.383039474678142"><ele>818.0</ele><time>2026-03-22T18:27:31Z</time></trkpt><trkpt lat="43.534985775838805" lon="11.38308925864022"><ele>818.0000000000001</ele><time>2026-03-22T18:27:32Z</time></trkpt><trkpt lat="43.534881180299486" lon="11.383116988578147"><ele>818.0</ele><time>2026-03-22T18:27:34Z</time></trkpt><trkpt lat="43.53481914534759" lon="11.383070874290194"><ele>818.0</ele><time>2026-03-22T18:27:35Z</time></trkpt><trkpt lat="43.534772805544186" lon="11.38301185667163"><ele>818.0</ele><time>2026-03-22T18:27:36Z</time></trkpt><trkpt lat="43.534692696832664" lon="11.382968436327976"><ele>818.0000000000001</ele><time>2026-03-22T18:27:38Z</time></trkpt><trkpt lat="43.534609642537966" lon="11.382897409432706"><ele>818.0</ele><time>2026-03-22T18:27:40Z</time></trkpt><trkpt lat="43.534533892498054" lon="11.382843721035622"><ele>818.1666666666667</ele><time>2026-03-22T18:27:42Z</time></trkpt><trkpt lat="43.534460937633" lon="11.382780660015856"><ele>818.3333333333334</ele><time>2026-03-22T18:27:44Z</time></trkpt><trkpt lat="43.53434421722425" lon="11.382747906368943"><ele>818.5</ele><time>2026-03-22T18:27:46Z</time></trkpt><trkpt lat="43.53427216146692" lon="11.382731023779431"><ele>818.6666666666667</ele><time>2026-03-22T18:27:47Z</time></trkpt><trkpt lat="43.534199168189225" lon="11.382715241092038"><ele>818.8333333333334</ele><time>2026-03-22T18:27:48Z</time></trkpt><trkpt lat="43.53412529017419" lon="11.382709807231471"><ele>819.0</ele><time>2026-03-22T18:27:49Z</time></trkpt><trkpt lat="43.53405257349702" lon="11.382703259519985"><ele>819.0</ele><time>2026-03-22T18:27:50Z</time></trkpt><trkpt lat="43.53397125963241" lon="11.382697223711567"><ele>819.0</ele><time>2026-03-22T18:27:51Z</time></trkpt><trkpt lat="43.53388898716418" lon="11.382688199516759"><ele>819.0</ele><time>2026-03-22T18:27:52Z</time></trkpt><trkpt lat="43.53380829446381" lon="11.38268724150992"><ele>819.0</ele><time>2026-03-22T18:27:53Z</time></trkpt><trkpt lat="43.53368782324551" lon="11.382684381808405"><ele>819.0</ele><time>2026-03-22T18:27:55Z</time></trkpt><trkpt lat="43.533615126841056" lon="11.382671200055997"><ele>819.0</ele><time>2026-03-22T18:27:56Z</time></trkpt><trkpt lat="43.53353519211401" lon="11.382663450338887"><ele>821.5</ele><time>2026-03-22T18:27:57Z</time></trkpt><trkpt lat="43.53346519184714" lon="11.382656632334665"><ele>824.0</ele><time>2026-03-22T18:27:58Z</time></trkpt><trkpt lat="43.53334779548588" lon="11.382622004166935"><ele>826.5</ele><time>2026-03-22T18:28:00Z</time></trkpt><trkpt lat="43.533285839480484" lon="11.382589771688712"><ele>829.0</ele><time>2026-03-22T18:28:01Z</time></trkpt><trkpt lat="43.53319549769644" lon="11.382481471924425"><ele>831.5</ele><time>2026-03-22T18:28:03Z</time></trkpt><trkpt lat="43.533132559016195" lon="11.382429467856712"><ele>834.0</ele><time>2026-03-22T18:28:04Z</time></trkpt><trkpt lat="43.533069503297185" lon="11.382378365642412"><ele>834.0</ele><time>2026-03-22T18:28:05Z</time></trkpt><trkpt lat="43.5329898527806" lon="11.382326358530102"><ele>834.0</ele><time>2026-03-22T18:28:06Z</time></trkpt><trkpt lat="43.532917704529375" lon="11.382290068748784"><ele>834.0</ele><time>2026-03-22T18:28:07Z</time></trkpt><trkpt lat="43.5328540075452" lon="11.382238532770453"><ele>834.0</ele><time>2026-03-22T18:28:08Z</time></trkpt><trkpt lat="43.532737579120116" lon="11.382205019221326"><ele>834.0</ele><time>2026-03-22T18:28:10Z</time></trkpt><trkpt lat="43.532643692805934" lon="11.382135203451204"><ele>834.8000000000001</ele><time>2026-03-22T18:28:12Z</time></trkpt><trkpt lat="43.53259736760668" lon="11.382068779625458"><ele>835.6</ele><time>2026-03-22T18:28:13Z</time></trkpt><trkpt lat="43.5325676853178" lon="11.38196267194284"><ele>836.4</ele><time>2026-03-22T18:28:14Z</time></trkpt><trkpt lat="43.53255353818904" lon="11.381872798883856"><ele>837.2</ele><time>2026-03-22T18:28:15Z</time></trkpt><trkpt lat="43.53246859875444" lon="11.381650670256409"><ele>838.0</ele><time>2026-03-22T18:28:17Z</time></trkpt><trkpt lat="43.532433007449775" lon="11.381551734911271"><ele>838.0</ele><time>2026-03-22T18:28:18Z</time></trkpt><trkpt lat="43.53241254906253" lon="11.381462816736269"><ele>838.0</ele><time>2026-03-22T18:28:19Z</time></trkpt><trkpt lat="43.53239097631492" lon="11.381297163450572"><ele>838.0</ele><time>2026-03-22T18:28:21Z</time></trkpt><trkpt lat="43.53242080143235" lon="11.381210278152063"><ele>838.0</ele><time>2026-03-22T18:28:22Z</time></trkpt><trkpt lat="43.53245379574993" lon="11.38106755261514"><ele>838.0</ele><time>2026-03-22T18:28:24Z</time></trkpt><trkpt lat="43.53250356538195" lon="11.380921003252054"><ele>837.9999999999999</ele><time>2026-03-22T18:28:26Z</time></trkpt><trkpt lat="43.532547200624954" lon="11.380829416644417"><ele>838.0</ele><time>2026-03-22T18:28:28Z</time></trkpt><trkpt lat="43.532542331417005" lon="11.38069645939503"><ele>838.0</ele><time>2026-03-22T18:28:30Z</time></trkpt><trkpt lat="43.53250234829703" lon="11.38057782336446"><ele>838.0</ele><time>2026-03-22T18:28:32Z</time></trkpt><trkpt lat="43.532494342860346" lon="11.380432227788587"><ele>837.9999999999999</ele><time>2026-03-22T18:28:34Z</time></trkpt><trkpt lat="43.53249068501468" lon="11.380337932163561"><ele>838.0</ele><time>2026-03-22T18:28:35Z</time></trkpt><trkpt lat="43.53248857246123" lon="11.380225235724803"><ele>837.9999999999999</ele><time>2026-03-22T18:28:36Z</time></trkpt><trkpt lat="43.53248792128464" lon="11.380133812299942"><ele>838.0</ele><time>2026-03-22T18:28:37Z</time></trkpt><trkpt lat="43.532498880176185" lon="11.380004993459007"><ele>838.0</ele><time>2026-03-22T18:28:39Z</time></trkpt><trkpt lat="43.532470918202165" lon="11.37985691210107"><ele>838.0</ele><time>2026-03-22T18:28:41Z</time></trkpt><trkpt lat="43.532465086064256" lon="11.379757563652992"><ele>837.9999999999999</ele><time>2026-03-22T18:28:42Z</time></trkpt><trkpt lat="43.53245377151233" lon="11.379662602574957"><ele>838.0</ele><time>2026-03-22T18:28:43Z</time></trkpt><trkpt lat="43.53244684398355" lon="11.379493737526513"><ele>837.5999999999999</ele><time>2026-03-22T18:28:45Z</time></trkpt><trkpt lat="43.53242463540886" lon="11.379348164738936"><ele>837.1999999999999</ele><time>2026-03-22T18:28:47Z</time></trkpt><trkpt lat="43.53236594171553" lon="11.379271272243454"><ele>836.8</ele><time>2026-03-22T18:28:49Z</time></trkpt><trkpt lat="43.532310255287506" lon="11.379176245237073"><ele>836.4</ele><time>2026-03-22T18:28:51Z</time></trkpt><trkpt lat="43.53225514787407" lon="11.379053991809103"><ele>836.0</ele><time>2026-03-22T18:28:53Z</time></trkpt><trkpt lat="43.53222232608695" lon="11.37895306392842"><ele>833.5999999999999</ele><time>2026-03-22T18:28:55Z</time></trkpt><trkpt lat="43.532195825106875" lon="11.378826697548092"><ele>831.2</ele><time>2026-03-22T18:28:57Z</time></trkpt><trkpt lat="43.53216121528989" lon="11.378731555453099"><ele>828.8</ele><time>2026-03-22T18:28:59Z</time></trkpt><trkpt lat="43.5320941319709" lon="11.378626941431255"><ele>826.4000000000001</ele><time>2026-03-22T18:29:01Z</time></trkpt><trkpt lat="43.5320311350923" lon="11.37851919132591"><ele>824.0</ele><time>2026-03-22T18:29:03Z</time></trkpt><trkpt lat="43.53197014949975" lon="11.378397322127514"><ele>823.6</ele><time>2026-03-22T18:29:05Z</time></trkpt><trkpt lat="43.53191705204832" lon="11.378288393229312"><ele>823.2</ele><time>2026-03-22T18:29:07Z</time></trkpt><trkpt lat="43.53185179276118" lon="11.37818174699852"><ele>822.8000000000001</ele><time>2026-03-22T18:29:09Z</time></trkpt><trkpt lat="43.53179853001719" lon="11.378067446545304"><ele>822.4000000000001</ele><time>2026-03-22T18:29:11Z</time></trkpt><trkpt lat="43.531752862253214" lon="11.377955604293447"><ele>822.0</ele><time>2026-03-22T18:29:13Z</time></trkpt><trkpt lat="43.531706323734056" lon="11.37789408114141"><ele>820.6666666666666</ele><time>2026-03-22T18:29:14Z</time></trkpt><trkpt lat="43.53164653166373" lon="11.377843695947197"><ele>819.3333333333333</ele><time>2026-03-22T18:29:15Z</time></trkpt><trkpt lat="43.53155943034695" lon="11.377740329950166"><ele>818.0</ele><time>2026-03-22T18:29:17Z</time></trkpt><trkpt lat="43.53150943749736" lon="11.37766804978642"><ele>816.6666666666666</ele><time>2026-03-22T18:29:18Z</time></trkpt><trkpt lat="43.53146388464697" lon="11.377603118750821"><ele>815.3333333333333</ele><time>2026-03-22T18:29:19Z</time></trkpt><trkpt lat="43.53141631976958" lon="11.377536981398714"><ele>814.0</ele><time>2026-03-22T18:29:20Z</time></trkpt><trkpt lat="43.53136638841379" lon="11.377461272425244"><ele>813.9999999999999</ele><time>2026-03-22T18:29:21Z</time></trkpt><trkpt lat="43.53131496638175" lon="11.37737464910956"><ele>814.0</ele><time>2026-03-22T18:29:22Z</time></trkpt><trkpt lat="43.53126676526215" lon="11.377270892942601"><ele>814.0</ele><time>2026-03-22T18:29:23Z</time></trkpt><trkpt lat="43.53121954602802" lon="11.37717598808523"><ele>814.0</ele><time>2026-03-22T18:29:24Z</time></trkpt><trkpt lat="43.53117247883691" lon="11.377078470928234"><ele>813.9999999999999</ele><time>2026-03-22T18:29:25Z</time></trkpt><trkpt lat="43.53112513672242" lon="11.376982835016905"><ele>814.0</ele><time>2026-03-22T18:29:26Z</time></trkpt><trkpt lat="43.53108583932066" lon="11.376891689575102"><ele>813.8571428571429</ele><time>2026-03-22T18:29:27Z</time></trkpt><trkpt lat="43.53105142528928" lon="11.376801707879208"><ele>813.7142857142858</ele><time>2026-03-22T18:29:28Z</time></trkpt><trkpt lat="43.531016296298795" lon="11.37671395819833"><ele>813.5714285714287</ele><time>2026-03-22T18:29:29Z</time></trkpt><trkpt lat="43.530984397321085" lon="11.376625023918635"><ele>813.4285714285714</ele><time>2026-03-22T18:29:30Z</time></trkpt><trkpt lat="43.53095680613488" lon="11.376537838133537"><ele>813.2857142857142</ele><time>2026-03-22T18:29:31Z</time></trkpt><trkpt lat="43.53092584213812" lon="11.376446928850235"><ele>813.1428571428572</ele><time>2026-03-22T18:29:32Z</time></trkpt><trkpt lat="43.530895056276485" lon="11.37635280785566"><ele>813.0</ele><time>2026-03-22T18:29:33Z</time></trkpt><trkpt lat="43.530867386320075" lon="11.37627429598053"><ele>811.4</ele><time>2026-03-22T18:29:34Z</time></trkpt><trkpt lat="43.530842281295094" lon="11.376178090505036"><ele>809.8</ele><time>2026-03-22T18:29:35Z</time></trkpt><trkpt lat="43.53082658174498" lon="11.376086626659397"><ele>808.2</ele><time>2026-03-22T18:29:36Z</time></trkpt><trkpt lat="43.53082135301269" lon="11.3759835361208"><ele>806.6</ele><time>2026-03-22T18:29:37Z</time></trkpt><trkpt lat="43.53080808027466" lon="11.375797280218475"><ele>805.0</ele><time>2026-03-22T18:29:39Z</time></trkpt><trkpt lat="43.53080131995409" lon="11.37564185934526"><ele>805.0</ele><time>2026-03-22T18:29:41Z</time></trkpt><trkpt lat="43.5308140479845" lon="11.375542711045899"><ele>805.0</ele><time>2026-03-22T18:29:42Z</time></trkpt><trkpt lat="43.5308228646109" lon="11.375392735048091"><ele>805.0</ele><time>2026-03-22T18:29:44Z</time></trkpt><trkpt lat="43.530841423198744" lon="11.375250191678088"><ele>805.0</ele><time>2026-03-22T18:29:46Z</time></trkpt><trkpt lat="43.530835375524944" lon="11.375082734584506"><ele>805.0</ele><time>2026-03-22T18:29:48Z</time></trkpt><trkpt lat="43.5308129455841" lon="11.374942309927722"><ele>803.4</ele><time>2026-03-22T18:29:50Z</time></trkpt><trkpt lat="43.53078886351597" lon="11.374805641524592"><ele>801.8</ele><time>2026-03-22T18:29:52Z</time></trkpt><trkpt lat="43.5307787074057" lon="11.37469341363952"><ele>800.2</ele><time>2026-03-22T18:29:53Z</time></trkpt><trkpt lat="43.53076803296816" lon="11.374587611989288"><ele>798.6</ele><time>2026-03-22T18:29:54Z</time></trkpt><trkpt lat="43.530764325397016" lon="11.374445331398112"><ele>797.0</ele><time>2026-03-22T18:29:56Z</time></trkpt><trkpt lat="43.530738080759555" lon="11.374302109315266"><ele>795.2</ele><time>2026-03-22T18:29:58Z</time></trkpt><trkpt lat="43.53068418994886" lon="11.374144938499272"><ele>793.4000000000001</ele><time>2026-03-22T18:30:00Z</time></trkpt><trkpt lat="43.53062359710278" lon="11.373993221317692"><ele>791.5999999999999</ele><time>2026-03-22T18:30:02Z</time></trkpt><trkpt lat="43.53059621395656" lon="11.373912119008482"><ele>789.8</ele><time>2026-03-22T18:30:03Z</time></trkpt><trkpt lat="43.53055336081775" lon="11.37376605799786"><ele>788.0</ele><time>2026-03-22T18:30:05Z</time></trkpt><trkpt lat="43.530495017887176" lon="11.37359539177041"><ele>785.5</ele><time>2026-03-22T18:30:07Z</time></trkpt><trkpt lat="43.530438155471415" lon="11.373454084070506"><ele>783.0</ele><time>2026-03-22T18:30:09Z</time></trkpt><trkpt lat="43.53034187312438" lon="11.373351605184675"><ele>780.5</ele><time>2026-03-22T18:30:11Z</time></trkpt><trkpt lat="43.53023469480109" lon="11.373314242456317"><ele>778.0</ele><time>2026-03-22T18:30:13Z</time></trkpt><trkpt lat="43.53013847676965" lon="11.373252797053949"><ele>778.0</ele><time>2026-03-22T18:30:15Z</time></trkpt><trkpt lat="43.53003356479759" lon="11.373162749983784"><ele>778.0</ele><time>2026-03-22T18:30:17Z</time></trkpt><trkpt lat="43.52992706470642" lon="11.37310130612033"><ele>778.0</ele><time>2026-03-22T18:30:19Z</time></trkpt><trkpt lat="43.52982619988616" lon="11.373013203327707"><ele>778.0</ele><time>2026-03-22T18:30:21Z</time></trkpt><trkpt lat="43.52978240799619" lon="11.372936583603959"><ele>778.0</ele><time>2026-03-22T18:30:22Z</time></trkpt><trkpt lat="43.52974914138042" lon="11.372861914883833"><ele>776.9999999999999</ele><time>2026-03-22T18:30:23Z</time></trkpt><trkpt lat="43.52968127083913" lon="11.372732242526872"><ele>776.0</ele><time>2026-03-22T18:30:25Z</time></trkpt><trkpt lat="43.52962171894912" lon="11.37259659541235"><ele>775.0</ele><time>2026-03-22T18:30:27Z</time></trkpt><trkpt lat="43.5295951604329" lon="11.372510434264376"><ele>774.0</ele><time>2026-03-22T18:30:28Z</time></trkpt><trkpt lat="43.5295664394421" lon="11.3724141510389"><ele>772.9999999999999</ele><time>2026-03-22T18:30:29Z</time></trkpt><trkpt lat="43.52953675017479" lon="11.372334799742921"><ele>772.0</ele><time>2026-03-22T18:30:30Z</time></trkpt><trkpt lat="43.52951128083296" lon="11.372250507384225"><ele>770.4999999999999</ele><time>2026-03-22T18:30:31Z</time></trkpt><trkpt lat="43.529494823378734" lon="11.37216348467242"><ele>769.0</ele><time>2026-03-22T18:30:32Z</time></trkpt><trkpt lat="43.529481538056736" lon="11.371986029446719"><ele>767.5</ele><time>2026-03-22T18:30:34Z</time></trkpt><trkpt lat="43.529452986334704" lon="11.371825300106536"><ele>766.0</ele><time>2026-03-22T18:30:36Z</time></trkpt><trkpt lat="43.52942570122148" lon="11.371738704559874"><ele>764.5</ele><time>2026-03-22T18:30:37Z</time></trkpt><trkpt lat="43.52940075220226" lon="11.371658440377868"><ele>763.0</ele><time>2026-03-22T18:30:38Z</time></trkpt><trkpt lat="43.52939491920162" lon="11.371493825964242"><ele>762.0</ele><time>2026-03-22T18:30:40Z</time></trkpt><trkpt lat="43.529371544608445" lon="11.371301738903327"><ele>761.0</ele><time>2026-03-22T18:30:42Z</time></trkpt><trkpt lat="43.52934747020483" lon="11.371209589813352"><ele>760.0</ele><time>2026-03-22T18:30:43Z</time></trkpt><trkpt lat="43.529311827822724" lon="11.371125573579276"><ele>759.0</ele><time>2026-03-22T18:30:44Z</time></trkpt><trkpt lat="43.52928238426624" lon="11.37098680161642"><ele>758.0</ele><time>2026-03-22T18:30:46Z</time></trkpt><trkpt lat="43.52928002838066" lon="11.370831938039164"><ele>758.0</ele><time>2026-03-22T18:30:48Z</time></trkpt><trkpt lat="43.52926632956216" lon="11.370727273925615"><ele>758.0</ele><time>2026-03-22T18:30:49Z</time></trkpt><trkpt lat="43.52925769204947" lon="11.370617657773012"><ele>758.0</ele><time>2026-03-22T18:30:50Z</time></trkpt><trkpt lat="43.52925354559803" lon="11.370512324119135"><ele>758.0</ele><time>2026-03-22T18:30:51Z</time></trkpt><trkpt lat="43.52924085884067" lon="11.370407375809213"><ele>758.0</ele><time>2026-03-22T18:30:52Z</time></trkpt><trkpt lat="43.52920813694235" lon="11.370320234042506"><ele>758.0</ele><time>2026-03-22T18:30:53Z</time></trkpt><trkpt lat="43.529173983455415" lon="11.370235059442528"><ele>757.1428571428572</ele><time>2026-03-22T18:30:54Z</time></trkpt><trkpt lat="43.529137880366875" lon="11.370150010339746"><ele>756.2857142857143</ele><time>2026-03-22T18:30:55Z</time></trkpt><trkpt lat="43.52908635714194" lon="11.370093977563867"><ele>755.4285714285714</ele><time>2026-03-22T18:30:56Z</time></trkpt><trkpt lat="43.52903539124367" lon="11.370025216136087"><ele>754.5714285714287</ele><time>2026-03-22T18:30:57Z</time></trkpt><trkpt lat="43.52900285802424" lon="11.369944680128508"><ele>753.7142857142857</ele><time>2026-03-22T18:30:58Z</time></trkpt><trkpt lat="43.52898398890239" lon="11.369860193359889"><ele>752.8571428571429</ele><time>2026-03-22T18:30:59Z</time></trkpt><trkpt lat="43.528959244747504" lon="11.369769576871695"><ele>752.0</ele><time>2026-03-22T18:31:00Z</time></trkpt><trkpt lat="43.528921277717096" lon="11.369671424503998"><ele>750.5</ele><time>2026-03-22T18:31:01Z</time></trkpt><trkpt lat="43.528881820076315" lon="11.369563243150322"><ele>749.0</ele><time>2026-03-22T18:31:02Z</time></trkpt><trkpt lat="43.52884645851349" lon="11.369476320819128"><ele>747.5</ele><time>2026-03-22T18:31:03Z</time></trkpt><trkpt lat="43.52880994109801" lon="11.369374024400008"><ele>746.0</ele><time>2026-03-22T18:31:04Z</time></trkpt><trkpt lat="43.52879365185509" lon="11.369271783016297"><ele>744.5</ele><time>2026-03-22T18:31:05Z</time></trkpt><trkpt lat="43.52878029326019" lon="11.369175117189846"><ele>743.0</ele><time>2026-03-22T18:31:06Z</time></trkpt><trkpt lat="43.528745633181565" lon="11.369095243128523"><ele>741.8</ele><time>2026-03-22T18:31:07Z</time></trkpt><trkpt lat="43.52869077066775" lon="11.369035200203108"><ele>740.5999999999999</ele><time>2026-03-22T18:31:08Z</time></trkpt><trkpt lat="43.52861058167453" lon="11.368938802195995"><ele>739.4000000000001</ele><time>2026-03-22T18:31:10Z</time></trkpt><trkpt lat="43.52854070641438" lon="11.368832277783268"><ele>738.2</ele><time>2026-03-22T18:31:12Z</time></trkpt><trkpt lat="43.52844964179708" lon="11.368690233224237"><ele>737.0</ele><time>2026-03-22T18:31:14Z</time></trkpt><trkpt lat="43.528406379650676" lon="11.368609274958397"><ele>735.6</ele><time>2026-03-22T18:31:15Z</time></trkpt><trkpt lat="43.52836518822923" lon="11.36854192426255"><ele>734.2</ele><time>2026-03-22T18:31:16Z</time></trkpt><trkpt lat="43.52824406316469" lon="11.36847679371871"><ele>732.8</ele><time>2026-03-22T18:31:18Z</time></trkpt><trkpt lat="43.52814572375121" lon="11.368407753360199"><ele>731.4</ele><time>2026-03-22T18:31:20Z</time></trkpt><trkpt lat="43.52808205327308" lon="11.368299919694094"><ele>730.0</ele><time>2026-03-22T18:31:22Z</time></trkpt><trkpt lat="43.52804290235751" lon="11.368228233820776"><ele>730.0</ele><time>2026-03-22T18:31:23Z</time></trkpt><trkpt lat="43.528002285013315" lon="11.36816154651255"><ele>730.0</ele><time>2026-03-22T18:31:24Z</time></trkpt><trkpt lat="43.527945332176174" lon="11.368050971184259"><ele>730.0</ele><time>2026-03-22T18:31:26Z</time></trkpt><trkpt lat="43.52788248623481" lon="11.367917361020826"><ele>730.0</ele><time>2026-03-22T18:31:28Z</time></trkpt><trkpt lat="43.527843223997095" lon="11.367824033439572"><ele>730.0</ele><time>2026-03-22T18:31:29Z</time></trkpt><trkpt lat="43.52779515719732" lon="11.367724660275016"><ele>730.0</ele><time>2026-03-22T18:31:30Z</time></trkpt><trkpt lat="43.5277555442893" lon="11.3676409364458"><ele>728.0</ele><time>2026-03-22T18:31:31Z</time></trkpt><trkpt lat="43.52771083348784" lon="11.36754343557089"><ele>726.0</ele><time>2026-03-22T18:31:32Z</time></trkpt><trkpt lat="43.527665097278174" lon="11.367453648087915"><ele>724.0</ele><time>2026-03-22T18:31:33Z</time></trkpt><trkpt lat="43.52760915655449" lon="11.36735635261869"><ele>722.0</ele><time>2026-03-22T18:31:34Z</time></trkpt><trkpt lat="43.527556651820596" lon="11.36722660335983"><ele>720.0</ele><time>2026-03-22T18:31:35Z</time></trkpt><trkpt lat="43.527523936430576" lon="11.367127256525405"><ele>718.0</ele><time>2026-03-22T18:31:36Z</time></trkpt><trkpt lat="43.52749290169948" lon="11.367040269792623"><ele>717.4</ele><time>2026-03-22T18:31:37Z</time></trkpt><trkpt lat="43.52744433452738" lon="11.36688745547542"><ele>716.8</ele><time>2026-03-22T18:31:39Z</time></trkpt><trkpt lat="43.527377719622706" lon="11.366758808687674"><ele>716.2</ele><time>2026-03-22T18:31:41Z</time></trkpt><trkpt lat="43.5273394682655" lon="11.366668027425117"><ele>715.6</ele><time>2026-03-22T18:31:42Z</time></trkpt><trkpt lat="43.52730359315134" lon="11.366582278514262"><ele>715.0</ele><time>2026-03-22T18:31:43Z</time></trkpt><trkpt lat="43.52724583457557" lon="11.366442096104445"><ele>713.8333333333334</ele><time>2026-03-22T18:31:45Z</time></trkpt><trkpt lat="43.52721669458542" lon="11.366355827170972"><ele>712.6666666666667</ele><time>2026-03-22T18:31:46Z</time></trkpt><trkpt lat="43.527181697171976" lon="11.366269875274488"><ele>711.5</ele><time>2026-03-22T18:31:47Z</time></trkpt><trkpt lat="43.52716124385775" lon="11.366176942278203"><ele>710.3333333333334</ele><time>2026-03-22T18:31:48Z</time></trkpt><trkpt lat="43.52710236154593" lon="11.366078805551712"><ele>709.1666666666666</ele><time>2026-03-22T18:31:50Z</time></trkpt><trkpt lat="43.52706493417727" lon="11.365928310315196"><ele>708.0</ele><time>2026-03-22T18:31:52Z</time></trkpt><trkpt lat="43.527038853732876" lon="11.365844912380023"><ele>707.5</ele><time>2026-03-22T18:31:53Z</time></trkpt><trkpt lat="43.52700459907986" lon="11.365765679653016"><ele>707.0</ele><time>2026-03-22T18:31:54Z</time></trkpt><trkpt lat="43.52694235870957" lon="11.36562982854631"><ele>706.5</ele><time>2026-03-22T18:31:56Z</time></trkpt><trkpt lat="43.52689747036977" lon="11.365546688070754"><ele>706.0</ele><time>2026-03-22T18:31:57Z</time></trkpt><trkpt lat="43.52683395143598" lon="11.365467543614328"><ele>705.5</ele><time>2026-03-22T18:31:58Z</time></trkpt><trkpt lat="43.526787100941874" lon="11.365387482198654"><ele>705.0</ele><time>2026-03-22T18:31:59Z</time></trkpt><trkpt lat="43.52675216475643" lon="11.365299796160242"><ele>704.3333333333334</ele><time>2026-03-22T18:32:00Z</time></trkpt><trkpt lat="43.526726490092294" lon="11.365206196366906"><ele>703.6666666666666</ele><time>2026-03-22T18:32:01Z</time></trkpt><trkpt lat="43.52669594346354" lon="11.365109212566828"><ele>703.0</ele><time>2026-03-22T18:32:02Z</time></trkpt><trkpt lat="43.526654818866625" lon="11.36503031321204"><ele>702.3333333333333</ele><time>2026-03-22T18:32:03Z</time></trkpt><trkpt lat="43.52660096221677" lon="11.364951817477905"><ele>701.6666666666666</ele><time>2026-03-22T18:32:04Z</time></trkpt><trkpt lat="43.52654610835999" lon="11.364869205827619"><ele>701.0</ele><time>2026-03-22T18:32:05Z</time></trkpt><trkpt lat="43.52648640666065" lon="11.364758603008317"><ele>699.6666666666666</ele><time>2026-03-22T18:32:06Z</time></trkpt><trkpt lat="43.52644393281451" lon="11.364663027068799"><ele>698.3333333333333</ele><time>2026-03-22T18:32:07Z</time></trkpt><trkpt lat="43.52639253485351" lon="11.364568939745533"><ele>697.0</ele><time>2026-03-22T18:32:08Z</time></trkpt><trkpt lat="43.526336680839215" lon="11.364468828154259"><ele>695.6666666666666</ele><time>2026-03-22T18:32:09Z</time></trkpt><trkpt lat="43.52627938830488" lon="11.36436523757538"><ele>694.3333333333334</ele><time>2026-03-22T18:32:10Z</time></trkpt><trkpt lat="43.526227946736775" lon="11.364267920343307"><ele>693.0</ele><time>2026-03-22T18:32:11Z</time></trkpt><trkpt lat="43.52617991889615" lon="11.364171960026185"><ele>693.0</ele><time>2026-03-22T18:32:12Z</time></trkpt><trkpt lat="43.526133874658235" lon="11.364078002934415"><ele>693.0</ele><time>2026-03-22T18:32:13Z</time></trkpt><trkpt lat="43.526091828795686" lon="11.363978496852244"><ele>693.0</ele><time>2026-03-22T18:32:14Z</time></trkpt><trkpt lat="43.52606053023275" lon="11.363864192072361"><ele>693.0</ele><time>2026-03-22T18:32:15Z</time></trkpt><trkpt lat="43.52603933726752" lon="11.363742831270113"><ele>693.0</ele><time>2026-03-22T18:32:16Z</time></trkpt><trkpt lat="43.52602415044109" lon="11.363621963064809"><ele>693.0</ele><time>2026-03-22T18:32:17Z</time></trkpt><trkpt lat="43.52601002867875" lon="11.363494861690889"><ele>693.0</ele><time>2026-03-22T18:32:18Z</time></trkpt><trkpt lat="43.52599225900488" lon="11.363368759336284"><ele>693.0</ele><time>2026-03-22T18:32:19Z</time></trkpt><trkpt lat="43.52598400566195" lon="11.36324869479362"><ele>693.0</ele><time>2026-03-22T18:32:20Z</time></trkpt><trkpt lat="43.52599388812487" lon="11.363122345844246"><ele>693.0</ele><time>2026-03-22T18:32:21Z</time></trkpt><trkpt lat="43.52598222375247" lon="11.363011523379237"><ele>693.0</ele><time>2026-03-22T18:32:22Z</time></trkpt><trkpt lat="43.52597000593227" lon="11.36289544267372"><ele>693.0</ele><time>2026-03-22T18:32:23Z</time></trkpt><trkpt lat="43.52595909367" lon="11.362783987874142"><ele>693.0</ele><time>2026-03-22T18:32:24Z</time></trkpt><trkpt lat="43.52594696032944" lon="11.362657983745203"><ele>693.0</ele><time>2026-03-22T18:32:25Z</time></trkpt><trkpt lat="43.52592271578702" lon="11.362541243813114"><ele>693.0</ele><time>2026-03-22T18:32:26Z</time></trkpt><trkpt lat="43.52591504559302" lon="11.36242314468798"><ele>693.0</ele><time>2026-03-22T18:32:27Z</time></trkpt><trkpt lat="43.5259048403394" lon="11.362295689447688"><ele>693.0</ele><time>2026-03-22T18:32:28Z</time></trkpt><trkpt lat="43.525888095355114" lon="11.36215570432583"><ele>693.0</ele><time>2026-03-22T18:32:29Z</time></trkpt><trkpt lat="43.52587205399644" lon="11.362017953494497"><ele>693.0</ele><time>2026-03-22T18:32:30Z</time></trkpt><trkpt lat="43.52585357882764" lon="11.361879065449124"><ele>693.0</ele><time>2026-03-22T18:32:31Z</time></trkpt><trkpt lat="43.52584239071009" lon="11.361755686087697"><ele>693.0</ele><time>2026-03-22T18:32:32Z</time></trkpt><trkpt lat="43.52584412212463" lon="11.361627181566996"><ele>693.0</ele><time>2026-03-22T18:32:33Z</time></trkpt><trkpt lat="43.525832808961134" lon="11.3615126658926"><ele>693.0</ele><time>2026-03-22T18:32:34Z</time></trkpt><trkpt lat="43.52581023509732" lon="11.361400142845278"><ele>693.0</ele><time>2026-03-22T18:32:35Z</time></trkpt><trkpt lat="43.5258040421196" lon="11.36128532134223"><ele>693.0</ele><time>2026-03-22T18:32:36Z</time></trkpt><trkpt lat="43.525815349397114" lon="11.361170735871399"><ele>693.0</ele><time>2026-03-22T18:32:37Z</time></trkpt><trkpt lat="43.5258003849459" lon="11.361053138728572"><ele>693.0</ele><time>2026-03-22T18:32:38Z</time></trkpt><trkpt lat="43.5258218924399" lon="11.360930409697845"><ele>693.0</ele><time>2026-03-22T18:32:39Z</time></trkpt><trkpt lat="43.52584643344981" lon="11.360814074973527"><ele>692.5</ele><time>2026-03-22T18:32:40Z</time></trkpt><trkpt lat="43.52587485821437" lon="11.360713489826678"><ele>692.0</ele><time>2026-03-22T18:32:41Z</time></trkpt><trkpt lat="43.525921518605735" lon="11.360627298882237"><ele>691.5</ele><time>2026-03-22T18:32:42Z</time></trkpt><trkpt lat="43.52596992947316" lon="11.360536878249215"><ele>691.0</ele><time>2026-03-22T18:32:43Z</time></trkpt><trkpt lat="43.52601728082144" lon="11.36045086448779"><ele>690.5</ele><time>2026-03-22T18:32:44Z</time></trkpt><trkpt lat="43.52607900246537" lon="11.3603780973607"><ele>690.0</ele><time>2026-03-22T18:32:45Z</time></trkpt><trkpt lat="43.52612810462239" lon="11.360304370352667"><ele>689.1666666666666</ele><time>2026-03-22T18:32:46Z</time></trkpt><trkpt lat="43.52618647955458" lon="11.360230815441339"><ele>688.3333333333334</ele><time>2026-03-22T18:32:47Z</time></trkpt><trkpt lat="43.5262511894235" lon="11.36015587238419"><ele>687.5</ele><time>2026-03-22T18:32:48Z</time></trkpt><trkpt lat="43.526307032843135" lon="11.360057834716454"><ele>686.6666666666667</ele><time>2026-03-22T18:32:49Z</time></trkpt><trkpt lat="43.52635822361714" lon="11.359965193837537"><ele>685.8333333333334</ele><time>2026-03-22T18:32:50Z</time></trkpt><trkpt lat="43.526421263464506" lon="11.359872368385888"><ele>685.0</ele><time>2026-03-22T18:32:51Z</time></trkpt><trkpt lat="43.526487624161085" lon="11.35977462406393"><ele>687.2</ele><time>2026-03-22T18:32:52Z</time></trkpt><trkpt lat="43.52655433943005" lon="11.359688265588147"><ele>689.4</ele><time>2026-03-22T18:32:53Z</time></trkpt><trkpt lat="43.526630039603866" lon="11.359590681092838"><ele>691.5999999999999</ele><time>2026-03-22T18:32:54Z</time></trkpt><trkpt lat="43.52670404186763" lon="11.359502152017512"><ele>693.8</ele><time>2026-03-22T18:32:55Z</time></trkpt><trkpt lat="43.52677521597731" lon="11.359425265653535"><ele>696.0</ele><time>2026-03-22T18:32:56Z</time></trkpt><trkpt lat="43.52684670738589" lon="11.359352057345312"><ele>696.0</ele><time>2026-03-22T18:32:57Z</time></trkpt><trkpt lat="43.526920523382685" lon="11.359273467530729"><ele>696.0</ele><time>2026-03-22T18:32:58Z</time></trkpt><trkpt lat="43.5269972299038" lon="11.359200385192363"><ele>696.0</ele><time>2026-03-22T18:32:59Z</time></trkpt><trkpt lat="43.52707940630782" lon="11.359132189697574"><ele>696.0</ele><time>2026-03-22T18:33:00Z</time></trkpt><trkpt lat="43.52715323714537" lon="11.35906609061396"><ele>696.0</ele><time>2026-03-22T18:33:01Z</time></trkpt><trkpt lat="43.52721843173257" lon="11.358995359856713"><ele>693.0</ele><time>2026-03-22T18:33:02Z</time></trkpt><trkpt lat="43.52727308907946" lon="11.358918726571735"><ele>690.0</ele><time>2026-03-22T18:33:03Z</time></trkpt><trkpt lat="43.527324142009896" lon="11.358835196831402"><ele>687.0</ele><time>2026-03-22T18:33:04Z</time></trkpt><trkpt lat="43.527374466827524" lon="11.358741637004973"><ele>684.0</ele><time>2026-03-22T18:33:05Z</time></trkpt><trkpt lat="43.52742455977182" lon="11.358644049938617"><ele>681.0</ele><time>2026-03-22T18:33:06Z</time></trkpt><trkpt lat="43.52746581703417" lon="11.358531832447174"><ele>678.0</ele><time>2026-03-22T18:33:07Z</time></trkpt><trkpt lat="43.52750302709686" lon="11.358423969310945"><ele>678.0</ele><time>2026-03-22T18:33:08Z</time></trkpt><trkpt lat="43.52753333948181" lon="11.358320582303532"><ele>678.0</ele><time>2026-03-22T18:33:09Z</time></trkpt><trkpt lat="43.52755501402457" lon="11.358212659662502"><ele>678.0</ele><time>2026-03-22T18:33:10Z</time></trkpt><trkpt lat="43.527581618082436" lon="11.358106929086013"><ele>678.0</ele><time>2026-03-22T18:33:11Z</time></trkpt><trkpt lat="43.52757771168085" lon="11.357989643453042"><ele>678.0</ele><time>2026-03-22T18:33:12Z</time></trkpt><trkpt lat="43.52756006018484" lon="11.357876868977764"><ele>678.0</ele><time>2026-03-22T18:33:13Z</time></trkpt><trkpt lat="43.527530240478434" lon="11.357765471208845"><ele>677.8333333333334</ele><time>2026-03-22T18:33:14Z</time></trkpt><trkpt lat="43.52752164388994" lon="11.357661796188903"><ele>677.6666666666666</ele><time>2026-03-22T18:33:15Z</time></trkpt><trkpt lat="43.527535369987646" lon="11.35753992022952"><ele>677.5</ele><time>2026-03-22T18:33:16Z</time></trkpt><trkpt lat="43.52754754326354" lon="11.357425165953307"><ele>677.3333333333333</ele><time>2026-03-22T18:33:17Z</time></trkpt><trkpt lat="43.52755982014247" lon="11.357308838809164"><ele>677.1666666666666</ele><time>2026-03-22T18:33:18Z</time></trkpt><trkpt lat="43.52759837586752" lon="11.357210001956428"><ele>677.0</ele><time>2026-03-22T18:33:19Z</time></trkpt><trkpt lat="43.527637350178956" lon="11.357109546689852"><ele>676.6666666666666</ele><time>2026-03-22T18:33:20Z</time></trkpt><trkpt lat="43.52768349238502" lon="11.35699452589963"><ele>676.3333333333333</ele><time>2026-03-22T18:33:21Z</time></trkpt><trkpt lat="43.5277310597956" lon="11.356886999852787"><ele>676.0</ele><time>2026-03-22T18:33:22Z</time></trkpt><trkpt lat="43.52777509699594" lon="11.356785329946705"><ele>675.6666666666666</ele><time>2026-03-22T18:33:23Z</time></trkpt><trkpt lat="43.527821746158665" lon="11.356683861838805"><ele>675.3333333333334</ele><time>2026-03-22T18:33:24Z</time></trkpt><trkpt lat="43.527866256415685" lon="11.356589093633179"><ele>675.0</ele><time>2026-03-22T18:33:25Z</time></trkpt><trkpt lat="43.527913390309244" lon="11.35648989921994"><ele>674.6</ele><time>2026-03-22T18:33:26Z</time></trkpt><trkpt lat="43.52795849801445" lon="11.356382309876354"><ele>674.2</ele><time>2026-03-22T18:33:27Z</time></trkpt><trkpt lat="43.528013740811254" lon="11.35625316582177"><ele>673.8</ele><time>2026-03-22T18:33:28Z</time></trkpt><trkpt lat="43.528084239569985" lon="11.356135630094984"><ele>673.4</ele><time>2026-03-22T18:33:29Z</time></trkpt><trkpt lat="43.5281380152769" lon="11.35602027108541"><ele>673.0</ele><time>2026-03-22T18:33:30Z</time></trkpt><trkpt lat="43.5281917283036" lon="11.35592173040426"><ele>671.2</ele><time>2026-03-22T18:33:31Z</time></trkpt><trkpt lat="43.52825373286971" lon="11.355818812527684"><ele>669.4</ele><time>2026-03-22T18:33:32Z</time></trkpt><trkpt lat="43.52831632376306" lon="11.35572746219199"><ele>667.6</ele><time>2026-03-22T18:33:33Z</time></trkpt><trkpt lat="43.528392431507456" lon="11.355666449009972"><ele>665.8000000000001</ele><time>2026-03-22T18:33:34Z</time></trkpt><trkpt lat="43.52848440132379" lon="11.355605953756774"><ele>664.0</ele><time>2026-03-22T18:33:35Z</time></trkpt><trkpt lat="43.52858277529272" lon="11.355537054217026"><ele>662.4000000000001</ele><time>2026-03-22T18:33:36Z</time></trkpt><trkpt lat="43.52868999902748" lon="11.355465373300412"><ele>660.8</ele><time>2026-03-22T18:33:37Z</time></trkpt><trkpt lat="43.52878577698087" lon="11.355408363835284"><ele>659.2</ele><time>2026-03-22T18:33:38Z</time></trkpt><trkpt lat="43.52887192018007" lon="11.355370576053332"><ele>657.5999999999999</ele><time>2026-03-22T18:33:39Z</time></trkpt><trkpt lat="43.52895026256135" lon="11.35534400391598"><ele>656.0</ele><time>2026-03-22T18:33:40Z</time></trkpt><trkpt lat="43.52904060128115" lon="11.355333418176498"><ele>656.0</ele><time>2026-03-22T18:33:41Z</time></trkpt><trkpt lat="43.5291315860142" lon="11.355334427784644"><ele>656.0</ele><time>2026-03-22T18:33:42Z</time></trkpt><trkpt lat="43.52922647994961" lon="11.355355509481859"><ele>656.0</ele><time>2026-03-22T18:33:43Z</time></trkpt><trkpt lat="43.529331167307674" lon="11.355389883327714"><ele>656.0</ele><time>2026-03-22T18:33:44Z</time></trkpt><trkpt lat="43.52943460683989" lon="11.355419647811964"><ele>656.0</ele><time>2026-03-22T18:33:45Z</time></trkpt><trkpt lat="43.52954598852922" lon="11.355451976709633"><ele>655.8</ele><time>2026-03-22T18:33:46Z</time></trkpt><trkpt lat="43.52965100167853" lon="11.355483072152472"><ele>655.5999999999999</ele><time>2026-03-22T18:33:47Z</time></trkpt><trkpt lat="43.52974183316805" lon="11.35553716863089"><ele>655.4</ele><time>2026-03-22T18:33:48Z</time></trkpt><trkpt lat="43.529829206339016" lon="11.355550008395284"><ele>655.2</ele><time>2026-03-22T18:33:49Z</time></trkpt><trkpt lat="43.529914181506975" lon="11.355589194879299"><ele>655.0</ele><time>2026-03-22T18:33:50Z</time></trkpt><trkpt lat="43.52999705613635" lon="11.355658645991863"><ele>656.5</ele><time>2026-03-22T18:33:51Z</time></trkpt><trkpt lat="43.53008278219394" lon="11.3557121201485"><ele>658.0</ele><time>2026-03-22T18:33:52Z</time></trkpt><trkpt lat="43.53016255639319" lon="11.355736867999104"><ele>659.5</ele><time>2026-03-22T18:33:53Z</time></trkpt><trkpt lat="43.53023751790988" lon="11.35579283018802"><ele>661.0</ele><time>2026-03-22T18:33:54Z</time></trkpt><trkpt lat="43.530314236603836" lon="11.35582189231826"><ele>662.5</ele><time>2026-03-22T18:33:55Z</time></trkpt><trkpt lat="43.53039793296757" lon="11.355855365637378"><ele>664.0</ele><time>2026-03-22T18:33:56Z</time></trkpt><trkpt lat="43.530472550072005" lon="11.355901712687288"><ele>664.0</ele><time>2026-03-22T18:33:57Z</time></trkpt><trkpt lat="43.53054532215343" lon="11.355927693649718"><ele>664.0</ele><time>2026-03-22T18:33:58Z</time></trkpt><trkpt lat="43.530612910601945" lon="11.355948160432751"><ele>664.0</ele><time>2026-03-22T18:33:59Z</time></trkpt><trkpt lat="43.53070641738724" lon="11.355822578558552"><ele>664.0</ele><time>2026-03-22T18:34:00Z</time></trkpt><trkpt lat="43.53078386787308" lon="11.355750158691372"><ele>664.0</ele><time>2026-03-22T18:34:01Z</time></trkpt><trkpt lat="43.53085077753058" lon="11.355670197703711"><ele>664.0</ele><time>2026-03-22T18:34:02Z</time></trkpt><trkpt lat="43.530907242912775" lon="11.355578424758725"><ele>664.0</ele><time>2026-03-22T18:34:03Z</time></trkpt><trkpt lat="43.53095599869847" lon="11.355479118848049"><ele>664.0</ele><time>2026-03-22T18:34:04Z</time></trkpt><trkpt lat="43.5309969606353" lon="11.355386669638488"><ele>664.0</ele><time>2026-03-22T18:34:05Z</time></trkpt><trkpt lat="43.53104243937438" lon="11.355284654292607"><ele>664.0</ele><time>2026-03-22T18:34:06Z</time></trkpt><trkpt lat="43.53108116729721" lon="11.355175702863033"><ele>664.0</ele><time>2026-03-22T18:34:07Z</time></trkpt><trkpt lat="43.53112686717934" lon="11.355051957286758"><ele>663.6</ele><time>2026-03-22T18:34:08Z</time></trkpt><trkpt lat="43.531169406597705" lon="11.354927233873866"><ele>663.2</ele><time>2026-03-22T18:34:09Z</time></trkpt><trkpt lat="43.531206302008805" lon="11.354790316653727"><ele>662.8000000000001</ele><time>2026-03-22T18:34:10Z</time></trkpt><trkpt lat="43.5312398975078" lon="11.35465111319354"><ele>662.4000000000001</ele><time>2026-03-22T18:34:11Z</time></trkpt><trkpt lat="43.53128258637384" lon="11.354498289281441"><ele>662.0</ele><time>2026-03-22T18:34:12Z</time></trkpt><trkpt lat="43.53132788085206" lon="11.354329295862238"><ele>662.0</ele><time>2026-03-22T18:34:13Z</time></trkpt><trkpt lat="43.53137033772676" lon="11.354167648988739"><ele>662.0</ele><time>2026-03-22T18:34:14Z</time></trkpt><trkpt lat="43.53140522418004" lon="11.35402787139208"><ele>662.0</ele><time>2026-03-22T18:34:15Z</time></trkpt><trkpt lat="43.531428441736175" lon="11.353902062865949"><ele>662.0</ele><time>2026-03-22T18:34:16Z</time></trkpt><trkpt lat="43.53144738378677" lon="11.353777876319917"><ele>662.0</ele><time>2026-03-22T18:34:17Z</time></trkpt><trkpt lat="43.53147163440009" lon="11.353651799777289"><ele>662.6</ele><time>2026-03-22T18:34:18Z</time></trkpt><trkpt lat="43.53148994278258" lon="11.353516699968372"><ele>663.2</ele><time>2026-03-22T18:34:19Z</time></trkpt><trkpt lat="43.53150186316241" lon="11.353376101382036"><ele>663.8</ele><time>2026-03-22T18:34:20Z</time></trkpt><trkpt lat="43.53151657952201" lon="11.353229772946149"><ele>664.4</ele><time>2026-03-22T18:34:21Z</time></trkpt><trkpt lat="43.53152822566139" lon="11.35309030752053"><ele>665.0</ele><time>2026-03-22T18:34:22Z</time></trkpt><trkpt lat="43.53154196782021" lon="11.352973118156868"><ele>665.6</ele><time>2026-03-22T18:34:23Z</time></trkpt><trkpt lat="43.53155689921661" lon="11.352853320737633"><ele>666.2</ele><time>2026-03-22T18:34:24Z</time></trkpt><trkpt lat="43.531575421976" lon="11.35274707314832"><ele>666.8</ele><time>2026-03-22T18:34:25Z</time></trkpt><trkpt lat="43.531595244982555" lon="11.352649136673218"><ele>667.4</ele><time>2026-03-22T18:34:26Z</time></trkpt><trkpt lat="43.531621432124986" lon="11.352553390574574"><ele>668.0</ele><time>2026-03-22T18:34:28Z</time></trkpt><trkpt lat="43.53175956438523" lon="11.352563680725142"><ele>668.0</ele><time>2026-03-22T18:34:30Z</time></trkpt><trkpt lat="43.531837760613875" lon="11.352571043037694"><ele>668.0</ele><time>2026-03-22T18:34:32Z</time></trkpt><trkpt lat="43.53192718871721" lon="11.35264152234336"><ele>668.0</ele><time>2026-03-22T18:34:34Z</time></trkpt><trkpt lat="43.53199034506897" lon="11.352679995266413"><ele>668.0</ele><time>2026-03-22T18:34:36Z</time></trkpt><trkpt lat="43.53208683247732" lon="11.352703507499172"><ele>668.0</ele><time>2026-03-22T18:34:38Z</time></trkpt><trkpt lat="43.53214889153258" lon="11.352774358021826"><ele>668.0</ele><time>2026-03-22T18:34:40Z</time></trkpt><trkpt lat="43.53220889317046" lon="11.352851945350823"><ele>667.5</ele><time>2026-03-22T18:34:43Z</time></trkpt><trkpt lat="43.532263312483394" lon="11.352910652452062"><ele>667.0</ele><time>2026-03-22T18:34:44Z</time></trkpt><trkpt lat="43.532328104336614" lon="11.352975087005508"><ele>666.5</ele><time>2026-03-22T18:34:45Z</time></trkpt><trkpt lat="43.53237690732526" lon="11.353040246821053"><ele>666.0</ele><time>2026-03-22T18:34:46Z</time></trkpt><trkpt lat="43.532415734605216" lon="11.353116054210634"><ele>665.5</ele><time>2026-03-22T18:34:47Z</time></trkpt><trkpt lat="43.53246562299502" lon="11.353250538918356"><ele>665.0</ele><time>2026-03-22T18:34:49Z</time></trkpt><trkpt lat="43.53251196694291" lon="11.353387758228767"><ele>665.0</ele><time>2026-03-22T18:34:51Z</time></trkpt><trkpt lat="43.53259866174308" lon="11.35346678257477"><ele>665.0</ele><time>2026-03-22T18:34:53Z</time></trkpt><trkpt lat="43.53265015483946" lon="11.353519091945662"><ele>665.0</ele><time>2026-03-22T18:34:54Z</time></trkpt><trkpt lat="43.53270132479778" lon="11.353585736419221"><ele>665.0</ele><time>2026-03-22T18:34:55Z</time></trkpt><trkpt lat="43.5327482413122" lon="11.35365849647252"><ele>665.0</ele><time>2026-03-22T18:34:56Z</time></trkpt><trkpt lat="43.53279402267758" lon="11.353720736737863"><ele>665.0</ele><time>2026-03-22T18:34:57Z</time></trkpt><trkpt lat="43.53285646041057" lon="11.35375825560495"><ele>665.0</ele><time>2026-03-22T18:34:58Z</time></trkpt><trkpt lat="43.53292586152288" lon="11.35379023420096"><ele>665.6666666666666</ele><time>2026-03-22T18:34:59Z</time></trkpt><trkpt lat="43.532996880045886" lon="11.353822613472248"><ele>666.3333333333333</ele><time>2026-03-22T18:35:00Z</time></trkpt><trkpt lat="43.53305833310184" lon="11.35386259832339"><ele>667.0</ele><time>2026-03-22T18:35:01Z</time></trkpt><trkpt lat="43.53313223155394" lon="11.353921991394856"><ele>667.6666666666666</ele><time>2026-03-22T18:35:02Z</time></trkpt><trkpt lat="43.53320875853322" lon="11.353969899288632"><ele>668.3333333333334</ele><time>2026-03-22T18:35:03Z</time></trkpt><trkpt lat="43.53328006081597" lon="11.354000911650319"><ele>669.0</ele><time>2026-03-22T18:35:04Z</time></trkpt><trkpt lat="43.53334994941373" lon="11.354015769589177"><ele>665.5</ele><time>2026-03-22T18:35:05Z</time></trkpt><trkpt lat="43.533470295346625" lon="11.35403090286188"><ele>662.0</ele><time>2026-03-22T18:35:07Z</time></trkpt><trkpt lat="43.53356516927669" lon="11.354122838513234"><ele>658.5</ele><time>2026-03-22T18:35:09Z</time></trkpt><trkpt lat="43.53361718690579" lon="11.354269440503368"><ele>655.0</ele><time>2026-03-22T18:35:11Z</time></trkpt><trkpt lat="43.53371842907962" lon="11.354379614933062"><ele>654.2857142857143</ele><time>2026-03-22T18:35:13Z</time></trkpt><trkpt lat="43.533783669986775" lon="11.354414311210238"><ele>653.5714285714286</ele><time>2026-03-22T18:35:14Z</time></trkpt><trkpt lat="43.533856082424045" lon="11.35444915264436"><ele>652.8571428571429</ele><time>2026-03-22T18:35:15Z</time></trkpt><trkpt lat="43.53393143859805" lon="11.35447073248368"><ele>652.1428571428571</ele><time>2026-03-22T18:35:16Z</time></trkpt><trkpt lat="43.53400471452636" lon="11.354475919583944"><ele>651.4285714285714</ele><time>2026-03-22T18:35:17Z</time></trkpt><trkpt lat="43.53408169153589" lon="11.354473115239077"><ele>650.7142857142857</ele><time>2026-03-22T18:35:18Z</time></trkpt><trkpt lat="43.53414909344146" lon="11.354472708200625"><ele>650.0</ele><time>2026-03-22T18:35:19Z</time></trkpt><trkpt lat="43.534213389274704" lon="11.354462038590231"><ele>650.0</ele><time>2026-03-22T18:35:20Z</time></trkpt><trkpt lat="43.53432912881817" lon="11.35440182066179"><ele>650.0</ele><time>2026-03-22T18:35:22Z</time></trkpt><trkpt lat="43.5343971561205" lon="11.354351773303367"><ele>650.0</ele><time>2026-03-22T18:35:23Z</time></trkpt><trkpt lat="43.5344655684255" lon="11.354362484801207"><ele>650.0</ele><time>2026-03-22T18:35:24Z</time></trkpt><trkpt lat="43.53453413626366" lon="11.35433382183835"><ele>650.0</ele><time>2026-03-22T18:35:25Z</time></trkpt><trkpt lat="43.53459875793444" lon="11.354289956359336"><ele>650.0</ele><time>2026-03-22T18:35:26Z</time></trkpt><trkpt lat="43.53469956956029" lon="11.354208054291043"><ele>649.5</ele><time>2026-03-22T18:35:28Z</time></trkpt><trkpt lat="43.53480265804492" lon="11.354134850988213"><ele>649.0</ele><time>2026-03-22T18:35:30Z</time></trkpt><trkpt lat="43.53484931693451" lon="11.354054973289244"><ele>648.5</ele><time>2026-03-22T18:35:32Z</time></trkpt><trkpt lat="43.534896927988584" lon="11.353959958664833"><ele>648.0</ele><time>2026-03-22T18:35:34Z</time></trkpt><trkpt lat="43.534950441487496" lon="11.353878729164833"><ele>647.5</ele><time>2026-03-22T18:35:37Z</time></trkpt><trkpt lat="43.534986908240356" lon="11.353778205503712"><ele>647.0</ele><time>2026-03-22T18:39:45Z</time></trkpt><trkpt lat="43.53501938576359" lon="11.353688020268232"><ele>647.0</ele><time>2026-03-22T18:39:49Z</time></trkpt><trkpt lat="43.53505183040847" lon="11.353607120477633"><ele>647.0</ele><time>2026-03-22T18:40:03Z</time></trkpt><trkpt lat="43.53507940043854" lon="11.353693434220634"><ele>647.0</ele><time>2026-03-22T18:40:25Z</time></trkpt><trkpt lat="43.534999021262" lon="11.353750014311217"><ele>647.0</ele><time>2026-03-22T18:40:34Z</time></trkpt><trkpt lat="43.534966302403454" lon="11.353865739126462"><ele>647.0</ele><time>2026-03-22T18:40:38Z</time></trkpt><trkpt lat="43.53493276650003" lon="11.353943181233092"><ele>647.0</ele><time>2026-03-22T18:40:40Z</time></trkpt><trkpt lat="43.53487825255033" lon="11.354012465162365"><ele>647.6</ele><time>2026-03-22T18:40:43Z</time></trkpt><trkpt lat="43.53483313267697" lon="11.354103013144107"><ele>648.2</ele><time>2026-03-22T18:40:45Z</time></trkpt><trkpt lat="43.534770667106784" lon="11.354199250403125"><ele>648.8</ele><time>2026-03-22T18:40:47Z</time></trkpt><trkpt lat="43.534687387102466" lon="11.35423149543794"><ele>649.4</ele><time>2026-03-22T18:40:49Z</time></trkpt><trkpt lat="43.534613954743975" lon="11.354321208243254"><ele>650.0</ele><time>2026-03-22T18:40:51Z</time></trkpt><trkpt lat="43.53452073837651" lon="11.35435837464679"><ele>650.0</ele><time>2026-03-22T18:40:53Z</time></trkpt><trkpt lat="43.53442872948456" lon="11.354388152044546"><ele>650.0</ele><time>2026-03-22T18:40:55Z</time></trkpt><trkpt lat="43.534370432601044" lon="11.354422583260106"><ele>650.0</ele><time>2026-03-22T18:40:56Z</time></trkpt><trkpt lat="43.53425551744526" lon="11.354456380461363"><ele>650.0</ele><time>2026-03-22T18:40:58Z</time></trkpt><trkpt lat="43.53414188202087" lon="11.354479527277897"><ele>650.0</ele><time>2026-03-22T18:41:00Z</time></trkpt><trkpt lat="43.53402356421288" lon="11.354477942550647"><ele>650.0</ele><time>2026-03-22T18:41:02Z</time></trkpt><trkpt lat="43.53389799063276" lon="11.354469282482329"><ele>650.0</ele><time>2026-03-22T18:41:04.001Z</time></trkpt><trkpt lat="43.5337752469101" lon="11.35442885988702"><ele>650.0</ele><time>2026-03-22T18:41:06.001Z</time></trkpt><trkpt lat="43.53371285653396" lon="11.354391080236354"><ele>650.0</ele><time>2026-03-22T18:41:07.001Z</time></trkpt><trkpt lat="43.5336568337565" lon="11.354344493071684"><ele>650.0</ele><time>2026-03-22T18:41:08.001Z</time></trkpt><trkpt lat="43.53358069031202" lon="11.354230773924765"><ele>651.0</ele><time>2026-03-22T18:41:10.001Z</time></trkpt><trkpt lat="43.53350951818431" lon="11.354076877035453"><ele>652.0</ele><time>2026-03-22T18:41:12.001Z</time></trkpt><trkpt lat="43.533403735987186" lon="11.35400167434218"><ele>653.0</ele><time>2026-03-22T18:41:14.001Z</time></trkpt><trkpt lat="43.53329248043271" lon="11.353984976959323"><ele>654.0</ele><time>2026-03-22T18:41:16.001Z</time></trkpt><trkpt lat="43.53322899872001" lon="11.353968633749854"><ele>655.0</ele><time>2026-03-22T18:41:17.001Z</time></trkpt><trkpt lat="43.53315372076077" lon="11.35393493008499"><ele>655.0</ele><time>2026-03-22T18:41:18.001Z</time></trkpt><trkpt lat="43.53308220868775" lon="11.353883549914714"><ele>655.0</ele><time>2026-03-22T18:41:19.001Z</time></trkpt><trkpt lat="43.53300700396008" lon="11.35382305639861"><ele>655.0</ele><time>2026-03-22T18:41:20.001Z</time></trkpt><trkpt lat="43.53293084636646" lon="11.353770099983675"><ele>655.0</ele><time>2026-03-22T18:41:21.001Z</time></trkpt><trkpt lat="43.53286246986061" lon="11.353729348900364"><ele>655.0</ele><time>2026-03-22T18:41:22.001Z</time></trkpt><trkpt lat="43.53279192202463" lon="11.353690658921915"><ele>655.0</ele><time>2026-03-22T18:41:23.001Z</time></trkpt><trkpt lat="43.5327248448332" lon="11.35363495102894"><ele>656.6666666666667</ele><time>2026-03-22T18:41:24.001Z</time></trkpt><trkpt lat="43.53268034508428" lon="11.353568489345143"><ele>658.3333333333334</ele><time>2026-03-22T18:41:25.001Z</time></trkpt><trkpt lat="43.53263099110712" lon="11.353484785350116"><ele>660.0</ele><time>2026-03-22T18:41:26.001Z</time></trkpt><trkpt lat="43.53252403554317" lon="11.353370671598555"><ele>661.6666666666666</ele><time>2026-03-22T18:41:28.001Z</time></trkpt><trkpt lat="43.53247043772166" lon="11.353294469180875"><ele>663.3333333333333</ele><time>2026-03-22T18:41:29.001Z</time></trkpt><trkpt lat="43.5324388484073" lon="11.35320898693788"><ele>665.0</ele><time>2026-03-22T18:41:30.001Z</time></trkpt><trkpt lat="43.5324061265201" lon="11.353103686697324"><ele>665.5</ele><time>2026-03-22T18:41:31.001Z</time></trkpt><trkpt lat="43.5323760706198" lon="11.353026417929998"><ele>666.0</ele><time>2026-03-22T18:41:32.001Z</time></trkpt><trkpt lat="43.53232822170749" lon="11.352945118647794"><ele>666.5</ele><time>2026-03-22T18:41:33.001Z</time></trkpt><trkpt lat="43.53225932654384" lon="11.352878173852462"><ele>667.0</ele><time>2026-03-22T18:41:34.001Z</time></trkpt><trkpt lat="43.53218152751508" lon="11.352797323740047"><ele>667.5</ele><time>2026-03-22T18:41:35.001Z</time></trkpt><trkpt lat="43.53210125052492" lon="11.352712863916272"><ele>668.0</ele><time>2026-03-22T18:41:37.001Z</time></trkpt><trkpt lat="43.5319994205423" lon="11.35264917964524"><ele>668.0</ele><time>2026-03-22T18:41:39Z</time></trkpt><trkpt lat="43.531936369256016" lon="11.352610906556093"><ele>668.0</ele><time>2026-03-22T18:41:41Z</time></trkpt><trkpt lat="43.53189632231944" lon="11.352486993316099"><ele>668.0</ele><time>2026-03-22T18:41:44Z</time></trkpt><trkpt lat="43.53193978479279" lon="11.352348861095432"><ele>668.0</ele><time>2026-03-22T18:41:46Z</time></trkpt><trkpt lat="43.53196403393115" lon="11.352237069578338"><ele>668.0</ele><time>2026-03-22T18:41:48Z</time></trkpt><trkpt lat="43.531978540219654" lon="11.3521084239073"><ele>667.8333333333333</ele><time>2026-03-22T18:41:50Z</time></trkpt><trkpt lat="43.532030109487295" lon="11.3520335760175"><ele>667.6666666666666</ele><time>2026-03-22T18:41:52Z</time></trkpt><trkpt lat="43.53213624279007" lon="11.352036462094308"><ele>667.5</ele><time>2026-03-22T18:41:54Z</time></trkpt><trkpt lat="43.532226906794094" lon="11.35201836461543"><ele>667.3333333333334</ele><time>2026-03-22T18:41:56Z</time></trkpt><trkpt lat="43.532317765000975" lon="11.352008160422915"><ele>667.1666666666667</ele><time>2026-03-22T18:41:58Z</time></trkpt><trkpt lat="43.53238716991613" lon="11.352018771678752"><ele>667.0</ele><time>2026-03-22T18:41:59Z</time></trkpt><trkpt lat="43.532486382794545" lon="11.351983006990878"><ele>669.0</ele><time>2026-03-22T18:42:01Z</time></trkpt><trkpt lat="43.53258801961275" lon="11.351991045144253"><ele>671.0</ele><time>2026-03-22T18:42:03Z</time></trkpt><trkpt lat="43.532650959939325" lon="11.352056904320133"><ele>673.0</ele><time>2026-03-22T18:42:04Z</time></trkpt><trkpt lat="43.53270619353106" lon="11.35214225756049"><ele>675.0</ele><time>2026-03-22T18:42:05Z</time></trkpt><trkpt lat="43.53275168000552" lon="11.352211941847374"><ele>677.0</ele><time>2026-03-22T18:42:06Z</time></trkpt><trkpt lat="43.53283909449311" lon="11.352321937826899"><ele>677.6</ele><time>2026-03-22T18:42:08Z</time></trkpt><trkpt lat="43.532926824673076" lon="11.352419402331233"><ele>678.2</ele><time>2026-03-22T18:42:10Z</time></trkpt><trkpt lat="43.533013719472414" lon="11.35250788771735"><ele>678.8</ele><time>2026-03-22T18:42:12Z</time></trkpt><trkpt lat="43.53312581878579" lon="11.352513135439677"><ele>679.4</ele><time>2026-03-22T18:42:14Z</time></trkpt><trkpt lat="43.53322131936227" lon="11.352552073926875"><ele>680.0</ele><time>2026-03-22T18:42:16Z</time></trkpt><trkpt lat="43.53328854928483" lon="11.352613172143245"><ele>680.0</ele><time>2026-03-22T18:42:18Z</time></trkpt><trkpt lat="43.53336351852462" lon="11.35268469582198"><ele>680.0</ele><time>2026-03-22T18:42:20Z</time></trkpt><trkpt lat="43.53341700482395" lon="11.352742068452297"><ele>680.0</ele><time>2026-03-22T18:42:21Z</time></trkpt><trkpt lat="43.53349770832054" lon="11.352825758730075"><ele>680.0</ele><time>2026-03-22T18:42:23Z</time></trkpt><trkpt lat="43.53355024757318" lon="11.35291887766265"><ele>680.0</ele><time>2026-03-22T18:42:25Z</time></trkpt><trkpt lat="43.53360371484406" lon="11.35298832384914"><ele>680.0</ele><time>2026-03-22T18:42:27Z</time></trkpt><trkpt lat="43.53368709854667" lon="11.35302003704063"><ele>680.0</ele><time>2026-03-22T18:42:29Z</time></trkpt><trkpt lat="43.533782063811174" lon="11.353056004334286"><ele>680.0</ele><time>2026-03-22T18:42:31Z</time></trkpt><trkpt lat="43.533852614924" lon="11.35307917149724"><ele>680.0</ele><time>2026-03-22T18:42:33Z</time></trkpt><trkpt lat="43.53388341256806" lon="11.353002890263122"><ele>680.0</ele><time>2026-03-22T18:42:37Z</time></trkpt><trkpt lat="43.53381762346255" lon="11.35295337687467"><ele>680.0</ele><time>2026-03-22T18:42:40Z</time></trkpt><trkpt lat="43.53375479434961" lon="11.352975240765451"><ele>680.0</ele><time>2026-03-22T18:42:42Z</time></trkpt><trkpt lat="43.533695944692994" lon="11.353032808346788"><ele>680.0</ele><time>2026-03-22T18:42:45Z</time></trkpt><trkpt lat="43.53359465877531" lon="11.353001817953976"><ele>680.0</ele><time>2026-03-22T18:42:48Z</time></trkpt><trkpt lat="43.53352536750594" lon="11.352922564334206"><ele>680.0</ele><time>2026-03-22T18:42:50Z</time></trkpt><trkpt lat="43.53346636015925" lon="11.352834456987791"><ele>680.0</ele><time>2026-03-22T18:42:52Z</time></trkpt><trkpt lat="43.533405510843835" lon="11.352733772299713"><ele>680.0</ele><time>2026-03-22T18:42:54Z</time></trkpt><trkpt lat="43.533311258384025" lon="11.352657196808911"><ele>680.0</ele><time>2026-03-22T18:42:56Z</time></trkpt><trkpt lat="43.53325606590722" lon="11.352601089333978"><ele>680.0</ele><time>2026-03-22T18:42:57Z</time></trkpt><trkpt lat="43.53316556508769" lon="11.352528207870147"><ele>680.0</ele><time>2026-03-22T18:42:59Z</time></trkpt><trkpt lat="43.53310388579516" lon="11.352507444846095"><ele>680.0</ele><time>2026-03-22T18:43:00Z</time></trkpt><trkpt lat="43.532986470977185" lon="11.35245835235437"><ele>680.0</ele><time>2026-03-22T18:43:02Z</time></trkpt><trkpt lat="43.532926737425264" lon="11.352417769933226"><ele>680.0</ele><time>2026-03-22T18:43:03Z</time></trkpt><trkpt lat="43.532870038596066" lon="11.352366191026409"><ele>680.0</ele><time>2026-03-22T18:43:04Z</time></trkpt><trkpt lat="43.53281811220018" lon="11.352310227404612"><ele>679.8333333333333</ele><time>2026-03-22T18:43:05Z</time></trkpt><trkpt lat="43.53276920165029" lon="11.352241709137154"><ele>679.6666666666666</ele><time>2026-03-22T18:43:06Z</time></trkpt><trkpt lat="43.53270655555342" lon="11.352161526196898"><ele>679.5</ele><time>2026-03-22T18:43:07Z</time></trkpt><trkpt lat="43.532637839161715" lon="11.352073006016715"><ele>679.3333333333334</ele><time>2026-03-22T18:43:08Z</time></trkpt><trkpt lat="43.53256506027001" lon="11.351998300560899"><ele>679.1666666666667</ele><time>2026-03-22T18:43:09.001Z</time></trkpt><trkpt lat="43.53250750534211" lon="11.351954249132081"><ele>679.0</ele><time>2026-03-22T18:43:10.001Z</time></trkpt><trkpt lat="43.53243686170616" lon="11.351991997147568"><ele>679.0</ele><time>2026-03-22T18:43:12.001Z</time></trkpt><trkpt lat="43.53234547662773" lon="11.35203955332582"><ele>679.0</ele><time>2026-03-22T18:43:14.001Z</time></trkpt><trkpt lat="43.53224095500503" lon="11.352003077007057"><ele>679.0</ele><time>2026-03-22T18:43:16.001Z</time></trkpt><trkpt lat="43.53213603855355" lon="11.352022092525065"><ele>679.0</ele><time>2026-03-22T18:43:18.001Z</time></trkpt><trkpt lat="43.53203776706262" lon="11.352039926322067"><ele>679.0</ele><time>2026-03-22T18:43:20.001Z</time></trkpt><trkpt lat="43.53196552783836" lon="11.352024241206061"><ele>679.0</ele><time>2026-03-22T18:43:22.001Z</time></trkpt><trkpt lat="43.53191106566617" lon="11.351960839760393"><ele>679.0</ele><time>2026-03-22T18:43:24.001Z</time></trkpt><trkpt lat="43.531924874268846" lon="11.351853090157487"><ele>679.0</ele><time>2026-03-22T18:43:26.001Z</time></trkpt><trkpt lat="43.53195962220543" lon="11.351761327458323"><ele>679.0</ele><time>2026-03-22T18:43:28.001Z</time></trkpt><trkpt lat="43.53201089309016" lon="11.351688019996425"><ele>679.0</ele><time>2026-03-22T18:43:30.001Z</time></trkpt><trkpt lat="43.53207679347839" lon="11.351585151172511"><ele>679.0</ele><time>2026-03-22T18:43:32.001Z</time></trkpt><trkpt lat="43.532125750998325" lon="11.351494041637412"><ele>677.8000000000001</ele><time>2026-03-22T18:43:34.001Z</time></trkpt><trkpt lat="43.532122457646324" lon="11.351365857673807"><ele>676.6</ele><time>2026-03-22T18:43:36.001Z</time></trkpt><trkpt lat="43.53215214763933" lon="11.351242311962634"><ele>675.4</ele><time>2026-03-22T18:43:38.001Z</time></trkpt><trkpt lat="43.532210956997616" lon="11.351143274565116"><ele>674.2</ele><time>2026-03-22T18:43:40Z</time></trkpt><trkpt lat="43.53230770539163" lon="11.351115097347854"><ele>673.0</ele><time>2026-03-22T18:43:42Z</time></trkpt><trkpt lat="43.532403391419685" lon="11.351194641587306"><ele>673.0</ele><time>2026-03-22T18:43:44Z</time></trkpt><trkpt lat="43.5324899059748" lon="11.351267958474839"><ele>673.0</ele><time>2026-03-22T18:43:46Z</time></trkpt><trkpt lat="43.53255503689361" lon="11.351312028897938"><ele>673.0</ele><time>2026-03-22T18:43:48Z</time></trkpt><trkpt lat="43.53263462451307" lon="11.35136182510862"><ele>673.0</ele><time>2026-03-22T18:43:50Z</time></trkpt><trkpt lat="43.53274655640525" lon="11.351392805938849"><ele>673.0</ele><time>2026-03-22T18:43:52Z</time></trkpt><trkpt lat="43.53280029422685" lon="11.351494683557409"><ele>674.5999999999999</ele><time>2026-03-22T18:43:54Z</time></trkpt><trkpt lat="43.53289381403162" lon="11.351585472983183"><ele>676.1999999999999</ele><time>2026-03-22T18:43:56Z</time></trkpt><trkpt lat="43.532984663473734" lon="11.35163574681229"><ele>677.8</ele><time>2026-03-22T18:43:58Z</time></trkpt><trkpt lat="43.533034719016456" lon="11.351734335077602"><ele>679.4</ele><time>2026-03-22T18:44:00Z</time></trkpt><trkpt lat="43.53309860277552" lon="11.351824136403678"><ele>681.0</ele><time>2026-03-22T18:44:02Z</time></trkpt><trkpt lat="43.533158170864716" lon="11.351856937391574"><ele>681.0</ele><time>2026-03-22T18:44:03Z</time></trkpt><trkpt lat="43.53322547274115" lon="11.351903703664851"><ele>681.0</ele><time>2026-03-22T18:44:04Z</time></trkpt><trkpt lat="43.53330856499867" lon="11.35196442659407"><ele>681.0</ele><time>2026-03-22T18:44:06Z</time></trkpt><trkpt lat="43.53338448134049" lon="11.351960287848305"><ele>681.0</ele><time>2026-03-22T18:44:08Z</time></trkpt><trkpt lat="43.533442387689625" lon="11.35184502777666"><ele>681.0</ele><time>2026-03-22T18:44:10Z</time></trkpt><trkpt lat="43.533479589767914" lon="11.351754534017278"><ele>681.0</ele><time>2026-03-22T18:44:11Z</time></trkpt><trkpt lat="43.53351277966302" lon="11.351672076403025"><ele>681.0</ele><time>2026-03-22T18:44:12Z</time></trkpt><trkpt lat="43.53358060042183" lon="11.351541629159419"><ele>681.0</ele><time>2026-03-22T18:44:14Z</time></trkpt><trkpt lat="43.533668843978106" lon="11.351470041828621"><ele>681.0</ele><time>2026-03-22T18:44:16Z</time></trkpt><trkpt lat="43.533774749588744" lon="11.351389298094738"><ele>681.0</ele><time>2026-03-22T18:44:18Z</time></trkpt><trkpt lat="43.53387676444595" lon="11.351329305882913"><ele>679.1999999999999</ele><time>2026-03-22T18:44:20Z</time></trkpt><trkpt lat="43.53394220923689" lon="11.351252989902399"><ele>677.4</ele><time>2026-03-22T18:44:22Z</time></trkpt><trkpt lat="43.53399283160746" lon="11.351107573040563"><ele>675.6</ele><time>2026-03-22T18:44:24Z</time></trkpt><trkpt lat="43.53396972927611" lon="11.350983275221306"><ele>673.8</ele><time>2026-03-22T18:44:26Z</time></trkpt><trkpt lat="43.53398973078105" lon="11.350857006794019"><ele>672.0</ele><time>2026-03-22T18:44:28Z</time></trkpt><trkpt lat="43.53401614784639" lon="11.350695023363464"><ele>670.6</ele><time>2026-03-22T18:44:30Z</time></trkpt><trkpt lat="43.53400125024095" lon="11.350537677004962"><ele>669.2</ele><time>2026-03-22T18:44:32Z</time></trkpt><trkpt lat="43.53400515311213" lon="11.350425489349817"><ele>667.8</ele><time>2026-03-22T18:44:33Z</time></trkpt><trkpt lat="43.53401554611324" lon="11.350324401945857"><ele>666.4</ele><time>2026-03-22T18:44:34Z</time></trkpt><trkpt lat="43.53399845252576" lon="11.35023693864616"><ele>665.0</ele><time>2026-03-22T18:44:35Z</time></trkpt><trkpt lat="43.53393764537352" lon="11.350081724243822"><ele>665.0</ele><time>2026-03-22T18:44:37Z</time></trkpt><trkpt lat="43.533886434595196" lon="11.35001071076539"><ele>665.0</ele><time>2026-03-22T18:44:38Z</time></trkpt><trkpt lat="43.533788407285655" lon="11.349884522811047"><ele>665.0</ele><time>2026-03-22T18:44:40Z</time></trkpt><trkpt lat="43.53374812959568" lon="11.34980716022084"><ele>665.0</ele><time>2026-03-22T18:44:41Z</time></trkpt><trkpt lat="43.533682076231045" lon="11.349679783002692"><ele>665.0</ele><time>2026-03-22T18:44:43Z</time></trkpt><trkpt lat="43.533618327996074" lon="11.349603647178503"><ele>663.8</ele><time>2026-03-22T18:44:44Z</time></trkpt><trkpt lat="43.53356756634741" lon="11.349525359540449"><ele>662.6</ele><time>2026-03-22T18:44:45Z</time></trkpt><trkpt lat="43.53352297312577" lon="11.34945553814294"><ele>661.4000000000001</ele><time>2026-03-22T18:44:46Z</time></trkpt><trkpt lat="43.533451703840655" lon="11.349351354465403"><ele>660.2</ele><time>2026-03-22T18:44:48Z</time></trkpt><trkpt lat="43.53335744633208" lon="11.349212002284917"><ele>659.0</ele><time>2026-03-22T18:44:50Z</time></trkpt><trkpt lat="43.53328118117112" lon="11.349122977942505"><ele>659.0</ele><time>2026-03-22T18:44:52Z</time></trkpt><trkpt lat="43.53333527893801" lon="11.34902099154119"><ele>659.0</ele><time>2026-03-22T18:44:55Z</time></trkpt><trkpt lat="43.53344354281057" lon="11.348945073175267"><ele>659.0</ele><time>2026-03-22T18:44:57Z</time></trkpt><trkpt lat="43.53350724783461" lon="11.348887952290031"><ele>659.0</ele><time>2026-03-22T18:44:58Z</time></trkpt><trkpt lat="43.533579452905784" lon="11.348816445807659"><ele>659.0</ele><time>2026-03-22T18:44:59Z</time></trkpt><trkpt lat="43.53368902112909" lon="11.348718779654728"><ele>657.25</ele><time>2026-03-22T18:45:00Z</time></trkpt><trkpt lat="43.533805453259326" lon="11.348619709092356"><ele>655.5</ele><time>2026-03-22T18:45:01Z</time></trkpt><trkpt lat="43.53393590967348" lon="11.348519696276826"><ele>653.75</ele><time>2026-03-22T18:45:02Z</time></trkpt><trkpt lat="43.53405958997758" lon="11.348411785851914"><ele>652.0</ele><time>2026-03-22T18:45:03Z</time></trkpt><trkpt lat="43.53416838106939" lon="11.348322115997371"><ele>652.0</ele><time>2026-03-22T18:45:04Z</time></trkpt><trkpt lat="43.53427347142124" lon="11.34824321755266"><ele>652.0</ele><time>2026-03-22T18:45:05Z</time></trkpt><trkpt lat="43.534366923563944" lon="11.348169444299854"><ele>652.0</ele><time>2026-03-22T18:45:06Z</time></trkpt><trkpt lat="43.534448116435755" lon="11.34809807842353"><ele>652.0</ele><time>2026-03-22T18:45:07Z</time></trkpt><trkpt lat="43.534528270444" lon="11.348027127625025"><ele>652.0</ele><time>2026-03-22T18:45:08Z</time></trkpt><trkpt lat="43.53459572963515" lon="11.347967533731655"><ele>652.5</ele><time>2026-03-22T18:45:09Z</time></trkpt><trkpt lat="43.53466929077697" lon="11.347917067591377"><ele>653.0</ele><time>2026-03-22T18:45:10Z</time></trkpt><trkpt lat="43.53474477315961" lon="11.347856882424832"><ele>653.5</ele><time>2026-03-22T18:45:11Z</time></trkpt><trkpt lat="43.534811595575945" lon="11.347797512648887"><ele>654.0</ele><time>2026-03-22T18:45:12Z</time></trkpt><trkpt lat="43.53490929720572" lon="11.347739606329649"><ele>654.5</ele><time>2026-03-22T18:45:14Z</time></trkpt><trkpt lat="43.53497165185574" lon="11.347681225014226"><ele>655.0</ele><time>2026-03-22T18:45:16Z</time></trkpt><trkpt lat="43.53506476238785" lon="11.347619140354594"><ele>655.0</ele><time>2026-03-22T18:45:18Z</time></trkpt><trkpt lat="43.535150504070145" lon="11.347564902845026"><ele>655.0</ele><time>2026-03-22T18:45:20Z</time></trkpt><trkpt lat="43.53520611303712" lon="11.34749557186723"><ele>655.0</ele><time>2026-03-22T18:45:22Z</time></trkpt><trkpt lat="43.53530688116734" lon="11.347396732560187"><ele>655.0</ele><time>2026-03-22T18:45:24Z</time></trkpt><trkpt lat="43.535359587578476" lon="11.347345143166137"><ele>655.0</ele><time>2026-03-22T18:45:25Z</time></trkpt><trkpt lat="43.53543966321021" lon="11.347266764584425"><ele>653.6666666666667</ele><time>2026-03-22T18:45:27Z</time></trkpt><trkpt lat="43.53554295813628" lon="11.347169018423267"><ele>652.3333333333334</ele><time>2026-03-22T18:45:29Z</time></trkpt><trkpt lat="43.535599998424665" lon="11.347119163327315"><ele>651.0</ele><time>2026-03-22T18:45:30Z</time></trkpt><trkpt lat="43.535659745231506" lon="11.34706894339672"><ele>649.6666666666666</ele><time>2026-03-22T18:45:31Z</time></trkpt><trkpt lat="43.53572028281564" lon="11.34701805554826"><ele>648.3333333333333</ele><time>2026-03-22T18:45:32Z</time></trkpt><trkpt lat="43.53577692991952" lon="11.34696776523956"><ele>647.0</ele><time>2026-03-22T18:45:33Z</time></trkpt><trkpt lat="43.535866940030765" lon="11.346881369138613"><ele>647.0</ele><time>2026-03-22T18:45:35Z</time></trkpt><trkpt lat="43.53593113708988" lon="11.346788702368581"><ele>647.0</ele><time>2026-03-22T18:45:37Z</time></trkpt><trkpt lat="43.53596985189714" lon="11.346693405981904"><ele>647.0</ele><time>2026-03-22T18:45:39Z</time></trkpt><trkpt lat="43.53599597564859" lon="11.346608775756312"><ele>647.0</ele><time>2026-03-22T18:45:41Z</time></trkpt><trkpt lat="43.53603320688451" lon="11.346532220341754"><ele>647.0</ele><time>2026-03-22T18:45:43Z</time></trkpt><trkpt lat="43.53602263849351" lon="11.346418925698968"><ele>647.0</ele><time>2026-03-22T18:45:45Z</time></trkpt><trkpt lat="43.536071434654694" lon="11.346310397376598"><ele>646.25</ele><time>2026-03-22T18:45:46Z</time></trkpt><trkpt lat="43.53611542672068" lon="11.346149456637932"><ele>645.5</ele><time>2026-03-22T18:45:47Z</time></trkpt><trkpt lat="43.5361762950771" lon="11.345987649276623"><ele>644.75</ele><time>2026-03-22T18:45:48Z</time></trkpt><trkpt lat="43.53623609269135" lon="11.345831341708857"><ele>644.0</ele><time>2026-03-22T18:45:49Z</time></trkpt><trkpt lat="43.53628099252946" lon="11.345690954949475"><ele>642.8000000000001</ele><time>2026-03-22T18:45:50Z</time></trkpt><trkpt lat="43.536324037215174" lon="11.345561372204953"><ele>641.6</ele><time>2026-03-22T18:45:51Z</time></trkpt><trkpt lat="43.536364946141816" lon="11.345440594988652"><ele>640.4</ele><time>2026-03-22T18:45:52Z</time></trkpt><trkpt lat="43.53640076250542" lon="11.345342111320525"><ele>639.2</ele><time>2026-03-22T18:45:53Z</time></trkpt><trkpt lat="43.53643427284999" lon="11.345258471650757"><ele>638.0</ele><time>2026-03-22T18:45:54Z</time></trkpt><trkpt lat="43.53648322310674" lon="11.345106154252699"><ele>638.0</ele><time>2026-03-22T18:45:56Z</time></trkpt><trkpt lat="43.536509472026985" lon="11.345009479152871"><ele>638.0</ele><time>2026-03-22T18:45:57Z</time></trkpt><trkpt lat="43.536544107040534" lon="11.344907544272287"><ele>638.0</ele><time>2026-03-22T18:45:58Z</time></trkpt><trkpt lat="43.53656858290246" lon="11.344810742519215"><ele>638.0</ele><time>2026-03-22T18:45:59Z</time></trkpt><trkpt lat="43.53661695089736" lon="11.34470943362862"><ele>638.0</ele><time>2026-03-22T18:46:00Z</time></trkpt><trkpt lat="43.53664945135744" lon="11.344598651568926"><ele>638.0</ele><time>2026-03-22T18:46:01Z</time></trkpt><trkpt lat="43.5366834896716" lon="11.344482627535221"><ele>637.1666666666666</ele><time>2026-03-22T18:46:02Z</time></trkpt><trkpt lat="43.53671195831256" lon="11.344396817583275"><ele>636.3333333333333</ele><time>2026-03-22T18:46:05Z</time></trkpt><trkpt lat="43.536736672598074" lon="11.34427336469993"><ele>635.5</ele><time>2026-03-22T18:46:42Z</time></trkpt><trkpt lat="43.536771876982826" lon="11.34416604153093"><ele>634.6666666666666</ele><time>2026-03-22T18:46:45Z</time></trkpt><trkpt lat="43.536806467519305" lon="11.34404597973743"><ele>633.8333333333334</ele><time>2026-03-22T18:46:47Z</time></trkpt><trkpt lat="43.53684409442601" lon="11.343906847090073"><ele>633.0</ele><time>2026-03-22T18:46:49Z</time></trkpt><trkpt lat="43.536881956121285" lon="11.343773296404278"><ele>633.1666666666666</ele><time>2026-03-22T18:46:51Z</time></trkpt><trkpt lat="43.53691599509108" lon="11.34364041235616"><ele>633.3333333333334</ele><time>2026-03-22T18:46:53Z</time></trkpt><trkpt lat="43.53694764095479" lon="11.343525149488535"><ele>633.5</ele><time>2026-03-22T18:46:55Z</time></trkpt><trkpt lat="43.536974578432975" lon="11.343426875259668"><ele>633.6666666666667</ele><time>2026-03-22T18:46:57Z</time></trkpt><trkpt lat="43.53699619582137" lon="11.34332458399097"><ele>633.8333333333334</ele><time>2026-03-22T18:47:00Z</time></trkpt><trkpt lat="43.537020886271456" lon="11.34323655984402"><ele>634.0</ele><time>2026-03-22T18:47:11.999Z</time></trkpt><trkpt lat="43.53719464883018" lon="11.343237034228467"><ele>634.0</ele><time>2026-03-22T18:47:30Z</time></trkpt><trkpt lat="43.5372215173374" lon="11.343315762820659"><ele>634.0</ele><time>2026-03-22T18:47:32Z</time></trkpt><trkpt lat="43.53730771661122" lon="11.343335660292636"><ele>634.0</ele><time>2026-03-22T18:47:35Z</time></trkpt><trkpt lat="43.5373464236881" lon="11.3432632454409"><ele>634.0</ele><time>2026-03-22T18:47:36Z</time></trkpt><trkpt lat="43.53739134884972" lon="11.343180208819204"><ele>634.0</ele><time>2026-03-22T18:47:37Z</time></trkpt><trkpt lat="43.53748393075819" lon="11.343074755193594"><ele>634.0</ele><time>2026-03-22T18:47:39Z</time></trkpt><trkpt lat="43.53757937222654" lon="11.34298725533461"><ele>633.2</ele><time>2026-03-22T18:47:41Z</time></trkpt><trkpt lat="43.53766251747659" lon="11.342913025230546"><ele>632.4</ele><time>2026-03-22T18:47:43Z</time></trkpt><trkpt lat="43.53774634047386" lon="11.342821058851294"><ele>631.6</ele><time>2026-03-22T18:47:45Z</time></trkpt><trkpt lat="43.53783400365181" lon="11.342768922590453"><ele>630.8</ele><time>2026-03-22T18:47:47Z</time></trkpt><trkpt lat="43.53793367089084" lon="11.342701165651514"><ele>630.0</ele><time>2026-03-22T18:47:49Z</time></trkpt><trkpt lat="43.53799505206729" lon="11.342598435136404"><ele>629.8333333333334</ele><time>2026-03-22T18:47:51Z</time></trkpt><trkpt lat="43.53805338534921" lon="11.342511051548577"><ele>629.6666666666666</ele><time>2026-03-22T18:47:53Z</time></trkpt><trkpt lat="43.53812411599076" lon="11.342449438632546"><ele>629.5</ele><time>2026-03-22T18:47:55Z</time></trkpt><trkpt lat="43.53820208788882" lon="11.34239570600516"><ele>629.3333333333333</ele><time>2026-03-22T18:47:57Z</time></trkpt><trkpt lat="43.538270748153856" lon="11.342399111015359"><ele>629.1666666666666</ele><time>2026-03-22T18:47:59Z</time></trkpt><trkpt lat="43.53828746478624" lon="11.34229421952824"><ele>629.0</ele><time>2026-03-22T18:48:04Z</time></trkpt><trkpt lat="43.53826103215736" lon="11.34219379074426"><ele>629.0</ele><time>2026-03-22T18:48:08Z</time></trkpt><trkpt lat="43.53822436841261" lon="11.34211243490422"><ele>629.0</ele><time>2026-03-22T18:48:18Z</time></trkpt><trkpt lat="43.5382206134455" lon="11.342023948012578"><ele>629.0</ele><time>2026-03-22T18:48:27Z</time></trkpt><trkpt lat="43.538155456823674" lon="11.342034640703698"><ele>629.0</ele><time>2026-03-22T18:48:42Z</time></trkpt><trkpt lat="43.53810691098872" lon="11.341951636336711"><ele>629.0</ele><time>2026-03-22T18:49:10.999Z</time></trkpt><trkpt lat="43.53804035176905" lon="11.341909142282397"><ele>629.0</ele><time>2026-03-22T18:49:13.999Z</time></trkpt><trkpt lat="43.53797722482153" lon="11.341800875770728"><ele>629.0</ele><time>2026-03-22T18:49:16.999Z</time></trkpt><trkpt lat="43.53791963388516" lon="11.341732038576742"><ele>629.0</ele><time>2026-03-22T18:49:18.999Z</time></trkpt><trkpt lat="43.537851866167635" lon="11.341703715021648"><ele>629.0</ele><time>2026-03-22T18:49:20.999Z</time></trkpt><trkpt lat="43.537771918644204" lon="11.34166537174399"><ele>629.0</ele><time>2026-03-22T18:49:22.999Z</time></trkpt><trkpt lat="43.537731317995885" lon="11.3415459593358"><ele>629.0</ele><time>2026-03-22T18:49:25.999Z</time></trkpt><trkpt lat="43.53771568648694" lon="11.341424136458487"><ele>629.0</ele><time>2026-03-22T18:49:28Z</time></trkpt><trkpt lat="43.53767201748017" lon="11.341360187516589"><ele>628.0</ele><time>2026-03-22T18:50:01Z</time></trkpt><trkpt lat="43.537671556849084" lon="11.34126520202018"><ele>627.0</ele><time>2026-03-22T18:50:34Z</time></trkpt><trkpt lat="43.5376166163497" lon="11.341117794530618"><ele>626.0</ele><time>2026-03-22T18:50:54Z</time></trkpt><trkpt lat="43.5375502952597" lon="11.34106037413391"><ele>625.0</ele><time>2026-03-22T18:50:56Z</time></trkpt><trkpt lat="43.53749145310788" lon="11.341026890974579"><ele>624.0</ele><time>2026-03-22T18:50:58Z</time></trkpt><trkpt lat="43.537433083268056" lon="11.340969773966478"><ele>623.0</ele><time>2026-03-22T18:51:00Z</time></trkpt><trkpt lat="43.53738026806056" lon="11.340872121455169"><ele>623.0</ele><time>2026-03-22T18:51:03.999Z</time></trkpt><trkpt lat="43.537301148605785" lon="11.340802996756441"><ele>623.0</ele><time>2026-03-22T18:51:05.999Z</time></trkpt><trkpt lat="43.53720864544003" lon="11.340729791483259"><ele>623.0</ele><time>2026-03-22T18:51:07.999Z</time></trkpt><trkpt lat="43.53714917987464" lon="11.340656361882582"><ele>623.0</ele><time>2026-03-22T18:51:09.999Z</time></trkpt><trkpt lat="43.537080923008574" lon="11.340587960876316"><ele>623.0</ele><time>2026-03-22T18:51:11.999Z</time></trkpt><trkpt lat="43.537043267281945" lon="11.340474379486993"><ele>622.0</ele><time>2026-03-22T18:51:14.999Z</time></trkpt><trkpt lat="43.53698578200812" lon="11.340384806677802"><ele>621.0</ele><time>2026-03-22T18:51:17.999Z</time></trkpt><trkpt lat="43.536944498995226" lon="11.340310371505181"><ele>620.0</ele><time>2026-03-22T18:51:19.999Z</time></trkpt><trkpt lat="43.5368871301234" lon="11.340270995554528"><ele>619.0</ele><time>2026-03-22T18:51:21.999Z</time></trkpt><trkpt lat="43.53682685169706" lon="11.340214398746733"><ele>618.0</ele><time>2026-03-22T18:51:23.999Z</time></trkpt><trkpt lat="43.53677763878811" lon="11.34015585265182"><ele>617.0</ele><time>2026-03-22T18:51:25.999Z</time></trkpt><trkpt lat="43.536718606123436" lon="11.34010732648591"><ele>616.0</ele><time>2026-03-22T18:51:27.999Z</time></trkpt><trkpt lat="43.536642570224714" lon="11.340015035366052"><ele>616.0</ele><time>2026-03-22T18:51:29.999Z</time></trkpt><trkpt lat="43.53657077067269" lon="11.339956968564668"><ele>616.0</ele><time>2026-03-22T18:51:32Z</time></trkpt><trkpt lat="43.53649916034363" lon="11.339876233253305"><ele>616.0</ele><time>2026-03-22T18:51:34Z</time></trkpt><trkpt lat="43.53642490235082" lon="11.339809984047008"><ele>616.0</ele><time>2026-03-22T18:51:36Z</time></trkpt><trkpt lat="43.53638738020981" lon="11.339734789665668"><ele>616.0</ele><time>2026-03-22T18:51:38Z</time></trkpt><trkpt lat="43.536359117731706" lon="11.33963738161601"><ele>616.0</ele><time>2026-03-22T18:51:40Z</time></trkpt><trkpt lat="43.53629981899847" lon="11.33954744922014"><ele>614.5714285714286</ele><time>2026-03-22T18:51:43Z</time></trkpt><trkpt lat="43.536263199538496" lon="11.339460248216156"><ele>613.1428571428571</ele><time>2026-03-22T18:51:45Z</time></trkpt><trkpt lat="43.53621454165495" lon="11.339386037920026"><ele>611.7142857142858</ele><time>2026-03-22T18:51:47Z</time></trkpt><trkpt lat="43.53618684344899" lon="11.339297984798113"><ele>610.2857142857142</ele><time>2026-03-22T18:51:49Z</time></trkpt><trkpt lat="43.53612453277193" lon="11.33926994073446"><ele>608.8571428571429</ele><time>2026-03-22T18:51:51Z</time></trkpt><trkpt lat="43.53605916705376" lon="11.339207200716938"><ele>607.4285714285714</ele><time>2026-03-22T18:51:53Z</time></trkpt><trkpt lat="43.53603581097769" lon="11.339117043479268"><ele>606.0</ele><time>2026-03-22T18:51:56Z</time></trkpt><trkpt lat="43.53600060774513" lon="11.339028165149415"><ele>606.0</ele><time>2026-03-22T18:51:59Z</time></trkpt><trkpt lat="43.5359625402488" lon="11.33891773637036"><ele>606.0</ele><time>2026-03-22T18:52:08Z</time></trkpt><trkpt lat="43.53596827235603" lon="11.33882415593914"><ele>606.0</ele><time>2026-03-22T18:52:10Z</time></trkpt><trkpt lat="43.53599738887308" lon="11.338736164482969"><ele>606.0</ele><time>2026-03-22T18:52:13Z</time></trkpt><trkpt lat="43.536028460440406" lon="11.338633050861763"><ele>606.0</ele><time>2026-03-22T18:52:16Z</time></trkpt><trkpt lat="43.536091826279794" lon="11.338593457947843"><ele>606.0</ele><time>2026-03-22T18:52:18Z</time></trkpt><trkpt lat="43.53614633001968" lon="11.338502531024893"><ele>603.3333333333334</ele><time>2026-03-22T18:52:21Z</time></trkpt><trkpt lat="43.53619922209632" lon="11.338447227050507"><ele>600.6666666666666</ele><time>2026-03-22T18:52:23Z</time></trkpt><trkpt lat="43.53626244301952" lon="11.338415605839026"><ele>598.0</ele><time>2026-03-22T18:52:25Z</time></trkpt><trkpt lat="43.53633753440534" lon="11.3383360170575"><ele>595.3333333333333</ele><time>2026-03-22T18:52:28Z</time></trkpt><trkpt lat="43.536399280453274" lon="11.338254258879743"><ele>592.6666666666666</ele><time>2026-03-22T18:52:31Z</time></trkpt><trkpt lat="43.53644601301949" lon="11.338169883980983"><ele>590.0</ele><time>2026-03-22T18:52:42Z</time></trkpt><trkpt lat="43.53652811435925" lon="11.338113096299029"><ele>586.0</ele><time>2026-03-22T18:52:45Z</time></trkpt><trkpt lat="43.536570466687756" lon="11.338029878586767"><ele>582.0</ele><time>2026-03-22T18:52:48Z</time></trkpt><trkpt lat="43.53652614245428" lon="11.337952696786155"><ele>578.0</ele><time>2026-03-22T18:52:51Z</time></trkpt><trkpt lat="43.53647208449512" lon="11.337855102583429"><ele>574.0</ele><time>2026-03-22T18:52:54Z</time></trkpt><trkpt lat="43.53647014562891" lon="11.337735019030179"><ele>570.0</ele><time>2026-03-22T18:52:57Z</time></trkpt><trkpt lat="43.53647706401726" lon="11.337619509652042"><ele>566.0</ele><time>2026-03-22T18:53:00Z</time></trkpt><trkpt lat="43.536460646715916" lon="11.337497905039605"><ele>566.0</ele><time>2026-03-22T18:53:03Z</time></trkpt><trkpt lat="43.53644316549951" lon="11.337407084041626"><ele>566.0</ele><time>2026-03-22T18:53:05Z</time></trkpt><trkpt lat="43.536467420212155" lon="11.337325558419623"><ele>566.0</ele><time>2026-03-22T18:53:07Z</time></trkpt><trkpt lat="43.53649462980034" lon="11.337212886008032"><ele>566.0</ele><time>2026-03-22T18:53:10Z</time></trkpt><trkpt lat="43.536506491989456" lon="11.33709582145998"><ele>566.0</ele><time>2026-03-22T18:53:11.999Z</time></trkpt><trkpt lat="43.53653614854614" lon="11.336995978101763"><ele>566.0</ele><time>2026-03-22T18:53:13.999Z</time></trkpt><trkpt lat="43.53653123284895" lon="11.336887098875925"><ele>563.0</ele><time>2026-03-22T18:53:16.999Z</time></trkpt><trkpt lat="43.53656867024959" lon="11.336798846271652"><ele>560.0</ele><time>2026-03-22T18:53:19.999Z</time></trkpt><trkpt lat="43.536611737463765" lon="11.336726424331573"><ele>557.0</ele><time>2026-03-22T18:53:22.999Z</time></trkpt><trkpt lat="43.5366560659005" lon="11.336638578592332"><ele>554.0</ele><time>2026-03-22T18:53:27.999Z</time></trkpt><trkpt lat="43.53671607609043" lon="11.336590951979725"><ele>551.0</ele><time>2026-03-22T18:53:33.999Z</time></trkpt><trkpt lat="43.53674861995799" lon="11.336496099419119"><ele>548.0</ele><time>2026-03-22T18:53:36.999Z</time></trkpt><trkpt lat="43.53678672672935" lon="11.336386324264591"><ele>544.6666666666666</ele><time>2026-03-22T18:53:40Z</time></trkpt><trkpt lat="43.536850576143635" lon="11.336320046132402"><ele>541.3333333333333</ele><time>2026-03-22T18:53:43Z</time></trkpt><trkpt lat="43.53691640190631" lon="11.336297737077563"><ele>538.0</ele><time>2026-03-22T18:53:46Z</time></trkpt><trkpt lat="43.5369693663198" lon="11.33619986829597"><ele>534.6666666666666</ele><time>2026-03-22T18:53:49Z</time></trkpt><trkpt lat="43.53701654015613" lon="11.336113599086802"><ele>531.3333333333334</ele><time>2026-03-22T18:53:51Z</time></trkpt><trkpt lat="43.53707279394634" lon="11.336007453869529"><ele>528.0</ele><time>2026-03-22T18:53:54Z</time></trkpt><trkpt lat="43.53705636500788" lon="11.335911806666907"><ele>528.0</ele><time>2026-03-22T18:53:57Z</time></trkpt><trkpt lat="43.53697063256426" lon="11.335893147526448"><ele>528.0</ele><time>2026-03-22T18:54:01Z</time></trkpt><trkpt lat="43.53697788722108" lon="11.335797327374081"><ele>528.0</ele><time>2026-03-22T18:54:09Z</time></trkpt><trkpt lat="43.53701603589929" lon="11.335676094987408"><ele>528.0</ele><time>2026-03-22T18:54:13Z</time></trkpt><trkpt lat="43.53709486012253" lon="11.33550281903665"><ele>528.0</ele><time>2026-03-22T18:54:15Z</time></trkpt><trkpt lat="43.537148912622136" lon="11.335378199306309"><ele>526.0</ele><time>2026-03-22T18:54:16Z</time></trkpt><trkpt lat="43.53718776292782" lon="11.335261398391829"><ele>524.0</ele><time>2026-03-22T18:54:17Z</time></trkpt><trkpt lat="43.53721989031841" lon="11.335158445794807"><ele>522.0</ele><time>2026-03-22T18:54:18Z</time></trkpt><trkpt lat="43.53724342878259" lon="11.335053613644362"><ele>520.0</ele><time>2026-03-22T18:54:19Z</time></trkpt><trkpt lat="43.53727120450363" lon="11.33494668131999"><ele>518.0</ele><time>2026-03-22T18:54:20Z</time></trkpt><trkpt lat="43.53729475374022" lon="11.334841562831244"><ele>516.0</ele><time>2026-03-22T18:54:21Z</time></trkpt><trkpt lat="43.537320101051854" lon="11.334724431057698"><ele>514.8</ele><time>2026-03-22T18:54:22Z</time></trkpt><trkpt lat="43.53734199854304" lon="11.33459169304919"><ele>513.6</ele><time>2026-03-22T18:54:23Z</time></trkpt><trkpt lat="43.53736085439178" lon="11.334480565810837"><ele>512.4</ele><time>2026-03-22T18:54:24Z</time></trkpt><trkpt lat="43.53738576075216" lon="11.334358373899683"><ele>511.2</ele><time>2026-03-22T18:54:25Z</time></trkpt><trkpt lat="43.53740426332131" lon="11.33424157542144"><ele>510.0</ele><time>2026-03-22T18:54:26Z</time></trkpt><trkpt lat="43.537413071269754" lon="11.33411666782368"><ele>510.0</ele><time>2026-03-22T18:54:27Z</time></trkpt><trkpt lat="43.53744203533299" lon="11.33398915905429"><ele>510.0</ele><time>2026-03-22T18:54:28Z</time></trkpt><trkpt lat="43.53743908587858" lon="11.333880781131183"><ele>510.0</ele><time>2026-03-22T18:54:29Z</time></trkpt><trkpt lat="43.53743278648109" lon="11.333774933686989"><ele>510.0</ele><time>2026-03-22T18:54:30Z</time></trkpt><trkpt lat="43.537423035234006" lon="11.333666195895427"><ele>510.0</ele><time>2026-03-22T18:54:31Z</time></trkpt><trkpt lat="43.537382951347745" lon="11.333561517989082"><ele>510.0</ele><time>2026-03-22T18:54:32Z</time></trkpt><trkpt lat="43.537377965306845" lon="11.333445769757322"><ele>509.8</ele><time>2026-03-22T18:54:33Z</time></trkpt><trkpt lat="43.5373884064922" lon="11.333345315212869"><ele>509.6</ele><time>2026-03-22T18:54:34Z</time></trkpt><trkpt lat="43.537417002246535" lon="11.333227018446706"><ele>509.4</ele><time>2026-03-22T18:54:35Z</time></trkpt><trkpt lat="43.53744767226066" lon="11.333097484278438"><ele>509.2</ele><time>2026-03-22T18:54:36Z</time></trkpt><trkpt lat="43.53748068010762" lon="11.332960005504177"><ele>509.0</ele><time>2026-03-22T18:54:37Z</time></trkpt><trkpt lat="43.53751237146922" lon="11.332828355048736"><ele>509.0</ele><time>2026-03-22T18:54:38Z</time></trkpt><trkpt lat="43.53755200578431" lon="11.332712699385189"><ele>509.0</ele><time>2026-03-22T18:54:39Z</time></trkpt><trkpt lat="43.53759299967154" lon="11.3325953907881"><ele>509.0</ele><time>2026-03-22T18:54:40Z</time></trkpt><trkpt lat="43.537629276368676" lon="11.332463869931322"><ele>509.0</ele><time>2026-03-22T18:54:41Z</time></trkpt><trkpt lat="43.53767083656587" lon="11.33235098240143"><ele>509.0</ele><time>2026-03-22T18:54:42Z</time></trkpt><trkpt lat="43.53772502170774" lon="11.332244351191816"><ele>508.6</ele><time>2026-03-22T18:54:43Z</time></trkpt><trkpt lat="43.53778622324564" lon="11.332149993249873"><ele>508.2</ele><time>2026-03-22T18:54:44Z</time></trkpt><trkpt lat="43.53784958896252" lon="11.332058727625132"><ele>507.80000000000007</ele><time>2026-03-22T18:54:45Z</time></trkpt><trkpt lat="43.53791789423836" lon="11.33195700956353"><ele>507.40000000000003</ele><time>2026-03-22T18:54:46Z</time></trkpt><trkpt lat="43.53798018146579" lon="11.33185013413925"><ele>507.0</ele><time>2026-03-22T18:54:47Z</time></trkpt><trkpt lat="43.53803022431103" lon="11.331747432072536"><ele>508.40000000000003</ele><time>2026-03-22T18:54:48Z</time></trkpt><trkpt lat="43.5380676806613" lon="11.331636833880044"><ele>509.80000000000007</ele><time>2026-03-22T18:54:49Z</time></trkpt><trkpt lat="43.53809724893134" lon="11.331527040967876"><ele>511.2</ele><time>2026-03-22T18:54:50Z</time></trkpt><trkpt lat="43.538122333668774" lon="11.331393316074827"><ele>512.6</ele><time>2026-03-22T18:54:51Z</time></trkpt><trkpt lat="43.53813599206753" lon="11.331262807724997"><ele>514.0</ele><time>2026-03-22T18:54:52Z</time></trkpt><trkpt lat="43.53813652222" lon="11.331138990950612"><ele>514.8</ele><time>2026-03-22T18:54:53Z</time></trkpt><trkpt lat="43.5381245630867" lon="11.331008937185674"><ele>515.5999999999999</ele><time>2026-03-22T18:54:54Z</time></trkpt><trkpt lat="43.53811061454932" lon="11.330879122075556"><ele>516.4</ele><time>2026-03-22T18:54:55Z</time></trkpt><trkpt lat="43.53809962185933" lon="11.33074966837131"><ele>517.1999999999999</ele><time>2026-03-22T18:54:56Z</time></trkpt><trkpt lat="43.5380902321458" lon="11.330609258098512"><ele>518.0</ele><time>2026-03-22T18:54:57Z</time></trkpt><trkpt lat="43.53807946076621" lon="11.330462492253398"><ele>519.4</ele><time>2026-03-22T18:54:58Z</time></trkpt><trkpt lat="43.53806562252339" lon="11.33031246533251"><ele>520.8</ele><time>2026-03-22T18:54:59Z</time></trkpt><trkpt lat="43.538053242789786" lon="11.330163287848547"><ele>522.2</ele><time>2026-03-22T18:55:00Z</time></trkpt><trkpt lat="43.538040209141904" lon="11.330012428516198"><ele>523.6</ele><time>2026-03-22T18:55:01Z</time></trkpt><trkpt lat="43.53802580538808" lon="11.329855508131084"><ele>525.0</ele><time>2026-03-22T18:55:02Z</time></trkpt><trkpt lat="43.538010972421304" lon="11.329699201636974"><ele>525.6</ele><time>2026-03-22T18:55:03Z</time></trkpt><trkpt lat="43.53799782487268" lon="11.329542726625656"><ele>526.2</ele><time>2026-03-22T18:55:04Z</time></trkpt><trkpt lat="43.53798951310644" lon="11.329393917569872"><ele>526.8</ele><time>2026-03-22T18:55:05Z</time></trkpt><trkpt lat="43.53799030257791" lon="11.32924382915296"><ele>527.4</ele><time>2026-03-22T18:55:06Z</time></trkpt><trkpt lat="43.537996331689534" lon="11.329082858249924"><ele>528.0</ele><time>2026-03-22T18:55:07Z</time></trkpt><trkpt lat="43.538000423155715" lon="11.328927047123958"><ele>526.8</ele><time>2026-03-22T18:55:08Z</time></trkpt><trkpt lat="43.538020766890476" lon="11.32879255779942"><ele>525.5999999999999</ele><time>2026-03-22T18:55:09Z</time></trkpt><trkpt lat="43.53804443169033" lon="11.328666665125345"><ele>524.4000000000001</ele><time>2026-03-22T18:55:10Z</time></trkpt><trkpt lat="43.53807338036009" lon="11.328559977326883"><ele>523.2</ele><time>2026-03-22T18:55:11Z</time></trkpt><trkpt lat="43.53812366428613" lon="11.328456146352599"><ele>522.0</ele><time>2026-03-22T18:55:12Z</time></trkpt><trkpt lat="43.53817116377498" lon="11.32835447908935"><ele>522.0</ele><time>2026-03-22T18:55:13Z</time></trkpt><trkpt lat="43.53823785456056" lon="11.328257929646684"><ele>522.0</ele><time>2026-03-22T18:55:14Z</time></trkpt><trkpt lat="43.53829895680222" lon="11.328165437091071"><ele>522.0</ele><time>2026-03-22T18:55:15Z</time></trkpt><trkpt lat="43.53835220214641" lon="11.328080762352366"><ele>522.0</ele><time>2026-03-22T18:55:16Z</time></trkpt><trkpt lat="43.53840795443785" lon="11.327992296088286"><ele>522.0</ele><time>2026-03-22T18:55:17Z</time></trkpt><trkpt lat="43.53846988350069" lon="11.327892828204105"><ele>522.0</ele><time>2026-03-22T18:55:18Z</time></trkpt><trkpt lat="43.5385451858894" lon="11.32779392929709"><ele>521.6</ele><time>2026-03-22T18:55:18.999Z</time></trkpt><trkpt lat="43.538602923495205" lon="11.327684197651667"><ele>521.2</ele><time>2026-03-22T18:55:19.999Z</time></trkpt><trkpt lat="43.538654741341006" lon="11.32756700598921"><ele>520.8</ele><time>2026-03-22T18:55:20.999Z</time></trkpt><trkpt lat="43.538701271325806" lon="11.327446364847834"><ele>520.4</ele><time>2026-03-22T18:55:21.999Z</time></trkpt><trkpt lat="43.53874383613798" lon="11.327317605534851"><ele>520.0</ele><time>2026-03-22T18:55:22.999Z</time></trkpt><trkpt lat="43.53877893077812" lon="11.327181671683109"><ele>520.0</ele><time>2026-03-22T18:55:23.999Z</time></trkpt><trkpt lat="43.538803987114356" lon="11.32703793571239"><ele>520.0</ele><time>2026-03-22T18:55:24.999Z</time></trkpt><trkpt lat="43.53881042830413" lon="11.326898991404208"><ele>520.0</ele><time>2026-03-22T18:55:25.999Z</time></trkpt><trkpt lat="43.53880034239245" lon="11.32677626054251"><ele>520.0</ele><time>2026-03-22T18:55:26.999Z</time></trkpt><trkpt lat="43.538767017075074" lon="11.326646533072456"><ele>520.0</ele><time>2026-03-22T18:55:27.999Z</time></trkpt><trkpt lat="43.53872980658587" lon="11.326514793652096"><ele>516.6</ele><time>2026-03-22T18:55:28.999Z</time></trkpt><trkpt lat="43.53870026507701" lon="11.326390016189437"><ele>513.2</ele><time>2026-03-22T18:55:29.999Z</time></trkpt><trkpt lat="43.53867707084038" lon="11.326270983796018"><ele>509.79999999999995</ele><time>2026-03-22T18:55:30.999Z</time></trkpt><trkpt lat="43.53866350474339" lon="11.326142954753248"><ele>506.4</ele><time>2026-03-22T18:55:31.999Z</time></trkpt><trkpt lat="43.53865544392114" lon="11.326020621132525"><ele>503.0</ele><time>2026-03-22T18:55:32.999Z</time></trkpt><trkpt lat="43.53866135221765" lon="11.3259042448157"><ele>503.0</ele><time>2026-03-22T18:55:33.999Z</time></trkpt><trkpt lat="43.538686893889924" lon="11.32578214912749"><ele>502.99999999999994</ele><time>2026-03-22T18:55:34.999Z</time></trkpt><trkpt lat="43.538710911991096" lon="11.325644265887611"><ele>502.99999999999994</ele><time>2026-03-22T18:55:35.999Z</time></trkpt><trkpt lat="43.538735062516515" lon="11.325517860862611"><ele>503.0</ele><time>2026-03-22T18:55:36.999Z</time></trkpt><trkpt lat="43.53877400299987" lon="11.325395590461618"><ele>503.0</ele><time>2026-03-22T18:55:37.999Z</time></trkpt><trkpt lat="43.53882194088536" lon="11.325272798960603"><ele>503.4</ele><time>2026-03-22T18:55:38.999Z</time></trkpt><trkpt lat="43.53886029623786" lon="11.325148244036905"><ele>503.79999999999995</ele><time>2026-03-22T18:55:39.999Z</time></trkpt><trkpt lat="43.538894895972916" lon="11.32502759667693"><ele>504.2</ele><time>2026-03-22T18:55:40.999Z</time></trkpt><trkpt lat="43.53893514692615" lon="11.324919763932874"><ele>504.6</ele><time>2026-03-22T18:55:41.999Z</time></trkpt><trkpt lat="43.53897391903152" lon="11.324795439328959"><ele>505.0</ele><time>2026-03-22T18:55:42.999Z</time></trkpt><trkpt lat="43.539020744026075" lon="11.324672479086182"><ele>505.0</ele><time>2026-03-22T18:55:44Z</time></trkpt><trkpt lat="43.539059206949574" lon="11.32453397748135"><ele>505.0</ele><time>2026-03-22T18:55:45Z</time></trkpt><trkpt lat="43.53910053857506" lon="11.324404667140533"><ele>505.0</ele><time>2026-03-22T18:55:46Z</time></trkpt><trkpt lat="43.53915024405212" lon="11.324272767492898"><ele>505.0</ele><time>2026-03-22T18:55:47Z</time></trkpt><trkpt lat="43.539222454856244" lon="11.32414866916819"><ele>505.0</ele><time>2026-03-22T18:55:48Z</time></trkpt><trkpt lat="43.53929346801828" lon="11.3240174518354"><ele>504.5</ele><time>2026-03-22T18:55:49Z</time></trkpt><trkpt lat="43.53936279031691" lon="11.323868055356467"><ele>504.0</ele><time>2026-03-22T18:55:50Z</time></trkpt><trkpt lat="43.53941605284055" lon="11.32371227128343"><ele>503.5</ele><time>2026-03-22T18:55:51Z</time></trkpt><trkpt lat="43.53948569531769" lon="11.323574440287317"><ele>503.0</ele><time>2026-03-22T18:55:52Z</time></trkpt><trkpt lat="43.53954316037883" lon="11.323438887938384"><ele>502.59999999999997</ele><time>2026-03-22T18:55:53Z</time></trkpt><trkpt lat="43.53962339733242" lon="11.32331165061993"><ele>502.19999999999993</ele><time>2026-03-22T18:55:54Z</time></trkpt><trkpt lat="43.53967338719538" lon="11.323179873522916"><ele>501.8</ele><time>2026-03-22T18:55:55Z</time></trkpt><trkpt lat="43.539738552790304" lon="11.32307354624691"><ele>501.4</ele><time>2026-03-22T18:55:56Z</time></trkpt><trkpt lat="43.53981423990042" lon="11.322975020025545"><ele>501.0</ele><time>2026-03-22T18:55:57Z</time></trkpt><trkpt lat="43.539893742056535" lon="11.322881334547153"><ele>503.1666666666667</ele><time>2026-03-22T18:55:58Z</time></trkpt><trkpt lat="43.539969340375904" lon="11.32280395858268"><ele>505.33333333333337</ele><time>2026-03-22T18:55:59Z</time></trkpt><trkpt lat="43.5400428942002" lon="11.322740243545695"><ele>507.5</ele><time>2026-03-22T18:56:00Z</time></trkpt><trkpt lat="43.54012065759426" lon="11.322687035063602"><ele>509.6666666666667</ele><time>2026-03-22T18:56:01Z</time></trkpt><trkpt lat="43.54018065038814" lon="11.322607255575065"><ele>511.83333333333337</ele><time>2026-03-22T18:56:02Z</time></trkpt><trkpt lat="43.540226316006866" lon="11.322489669724193"><ele>514.0</ele><time>2026-03-22T18:56:03Z</time></trkpt><trkpt lat="43.54022814446971" lon="11.322341119552517"><ele>514.0</ele><time>2026-03-22T18:56:04Z</time></trkpt><trkpt lat="43.5402510924019" lon="11.322219588256141"><ele>514.0</ele><time>2026-03-22T18:56:05Z</time></trkpt><trkpt lat="43.5402931959221" lon="11.322098157810716"><ele>514.0</ele><time>2026-03-22T18:56:06Z</time></trkpt><trkpt lat="43.54033505935574" lon="11.321964557209073"><ele>514.0</ele><time>2026-03-22T18:56:07Z</time></trkpt><trkpt lat="43.54040272125471" lon="11.321857957849762"><ele>514.0</ele><time>2026-03-22T18:56:08Z</time></trkpt><trkpt lat="43.54045634911882" lon="11.321745023168173"><ele>512.2</ele><time>2026-03-22T18:56:09Z</time></trkpt><trkpt lat="43.540511057480884" lon="11.321629813024467"><ele>510.4</ele><time>2026-03-22T18:56:10Z</time></trkpt><trkpt lat="43.540565219301556" lon="11.32151575443982"><ele>508.6</ele><time>2026-03-22T18:56:11Z</time></trkpt><trkpt lat="43.540619788263946" lon="11.321395234636139"><ele>506.8</ele><time>2026-03-22T18:56:12Z</time></trkpt><trkpt lat="43.540668711015165" lon="11.321277477558038"><ele>505.0</ele><time>2026-03-22T18:56:13Z</time></trkpt><trkpt lat="43.54071761610259" lon="11.3211597627484"><ele>505.0</ele><time>2026-03-22T18:56:14Z</time></trkpt><trkpt lat="43.540772653063726" lon="11.321026143766959"><ele>505.0</ele><time>2026-03-22T18:56:15Z</time></trkpt><trkpt lat="43.54082464245268" lon="11.32089936474056"><ele>505.0</ele><time>2026-03-22T18:56:16Z</time></trkpt><trkpt lat="43.54087628318422" lon="11.320778341427552"><ele>505.0</ele><time>2026-03-22T18:56:17Z</time></trkpt><trkpt lat="43.54092877621434" lon="11.320656792776564"><ele>505.0</ele><time>2026-03-22T18:56:18Z</time></trkpt><trkpt lat="43.54098764718876" lon="11.320537491465439"><ele>504.0</ele><time>2026-03-22T18:56:19Z</time></trkpt><trkpt lat="43.541056863365306" lon="11.320433488623507"><ele>503.0</ele><time>2026-03-22T18:56:20Z</time></trkpt><trkpt lat="43.54113740128283" lon="11.320338982448673"><ele>502.0</ele><time>2026-03-22T18:56:21Z</time></trkpt><trkpt lat="43.541219991786704" lon="11.320244529394293"><ele>501.0</ele><time>2026-03-22T18:56:22Z</time></trkpt><trkpt lat="43.54130037984584" lon="11.320132613470632"><ele>500.0</ele><time>2026-03-22T18:56:23Z</time></trkpt><trkpt lat="43.54139765027383" lon="11.320031470192058"><ele>498.75</ele><time>2026-03-22T18:56:24Z</time></trkpt><trkpt lat="43.54149071339441" lon="11.319933396375857"><ele>497.5</ele><time>2026-03-22T18:56:25Z</time></trkpt><trkpt lat="43.54158597807901" lon="11.31984051514502"><ele>496.25</ele><time>2026-03-22T18:56:26Z</time></trkpt><trkpt lat="43.541684482611764" lon="11.319747326894936"><ele>495.0</ele><time>2026-03-22T18:56:27Z</time></trkpt><trkpt lat="43.54178494170297" lon="11.319649968969921"><ele>494.5</ele><time>2026-03-22T18:56:28Z</time></trkpt><trkpt lat="43.54188661077739" lon="11.319540154283018"><ele>494.0</ele><time>2026-03-22T18:56:29Z</time></trkpt><trkpt lat="43.54198684661876" lon="11.319447067543193"><ele>493.5</ele><time>2026-03-22T18:56:30Z</time></trkpt><trkpt lat="43.54206957291422" lon="11.319348676388303"><ele>493.0</ele><time>2026-03-22T18:56:31Z</time></trkpt><trkpt lat="43.54216101191167" lon="11.319273460591644"><ele>492.4</ele><time>2026-03-22T18:56:32Z</time></trkpt><trkpt lat="43.54224346137731" lon="11.31918750987418"><ele>491.79999999999995</ele><time>2026-03-22T18:56:33Z</time></trkpt><trkpt lat="43.54233527263868" lon="11.319091799815132"><ele>491.2</ele><time>2026-03-22T18:56:34Z</time></trkpt><trkpt lat="43.54242403535702" lon="11.318999267750478"><ele>490.6</ele><time>2026-03-22T18:56:35Z</time></trkpt><trkpt lat="43.542513000521765" lon="11.318904893590759"><ele>490.0</ele><time>2026-03-22T18:56:36Z</time></trkpt><trkpt lat="43.54258655163764" lon="11.318797412851257"><ele>489.6</ele><time>2026-03-22T18:56:37Z</time></trkpt><trkpt lat="43.5426741940063" lon="11.31871253120369"><ele>489.2</ele><time>2026-03-22T18:56:38Z</time></trkpt><trkpt lat="43.54275976500133" lon="11.31862078302852"><ele>488.79999999999995</ele><time>2026-03-22T18:56:39Z</time></trkpt><trkpt lat="43.54284671411341" lon="11.318534775186054"><ele>488.4</ele><time>2026-03-22T18:56:40Z</time></trkpt><trkpt lat="43.542932893470656" lon="11.318444569687092"><ele>488.0</ele><time>2026-03-22T18:56:41Z</time></trkpt><trkpt lat="43.54300280743653" lon="11.31835871992716"><ele>487.99999999999994</ele><time>2026-03-22T18:56:42Z</time></trkpt><trkpt lat="43.543066233964815" lon="11.318270874682696"><ele>488.0</ele><time>2026-03-22T18:56:43Z</time></trkpt><trkpt lat="43.54311035730181" lon="11.318188824128512"><ele>488.0</ele><time>2026-03-22T18:56:44Z</time></trkpt><trkpt lat="43.54316215658818" lon="11.318105107555777"><ele>488.0</ele><time>2026-03-22T18:56:45Z</time></trkpt><trkpt lat="43.54320531897009" lon="11.318035177149522"><ele>487.99999999999994</ele><time>2026-03-22T18:56:46Z</time></trkpt><trkpt lat="43.5432480218785" lon="11.317968466044075"><ele>488.0</ele><time>2026-03-22T18:56:47Z</time></trkpt><trkpt lat="43.54328099753777" lon="11.317831534050715"><ele>488.3333333333333</ele><time>2026-03-22T18:56:49Z</time></trkpt><trkpt lat="43.543188091665414" lon="11.317725576896231"><ele>488.66666666666663</ele><time>2026-03-22T18:56:52Z</time></trkpt><trkpt lat="43.54312290962715" lon="11.317704068087991"><ele>489.0</ele><time>2026-03-22T18:56:53Z</time></trkpt><trkpt lat="43.54305174111802" lon="11.317683464438629"><ele>489.33333333333337</ele><time>2026-03-22T18:56:54Z</time></trkpt><trkpt lat="43.542982134210554" lon="11.317663716300764"><ele>489.6666666666667</ele><time>2026-03-22T18:56:55Z</time></trkpt><trkpt lat="43.542916128798154" lon="11.317650623386942"><ele>490.0</ele><time>2026-03-22T18:56:56Z</time></trkpt><trkpt lat="43.54284767229739" lon="11.317654033190664"><ele>488.33333333333337</ele><time>2026-03-22T18:56:57Z</time></trkpt><trkpt lat="43.542780819775174" lon="11.317628766387415"><ele>486.6666666666667</ele><time>2026-03-22T18:56:58Z</time></trkpt><trkpt lat="43.542707926278005" lon="11.317724369930442"><ele>485.0</ele><time>2026-03-22T18:56:59Z</time></trkpt><trkpt lat="43.54264179073159" lon="11.31779113529974"><ele>483.33333333333337</ele><time>2026-03-22T18:57:00Z</time></trkpt><trkpt lat="43.54257292011484" lon="11.317866822925804"><ele>481.6666666666667</ele><time>2026-03-22T18:57:01Z</time></trkpt><trkpt lat="43.542516052211134" lon="11.317956177276491"><ele>480.0</ele><time>2026-03-22T18:57:02Z</time></trkpt><trkpt lat="43.542452380189815" lon="11.318019922880794"><ele>479.0</ele><time>2026-03-22T18:57:03Z</time></trkpt><trkpt lat="43.54237911162494" lon="11.318078924605418"><ele>478.0</ele><time>2026-03-22T18:57:04Z</time></trkpt><trkpt lat="43.542301859025514" lon="11.31812116866455"><ele>477.0</ele><time>2026-03-22T18:57:05Z</time></trkpt><trkpt lat="43.542226712375545" lon="11.318145731743591"><ele>476.0</ele><time>2026-03-22T18:57:06Z</time></trkpt><trkpt lat="43.54214873065541" lon="11.318138873810554"><ele>475.0</ele><time>2026-03-22T18:57:07Z</time></trkpt><trkpt lat="43.54206533732375" lon="11.318113130333414"><ele>474.0</ele><time>2026-03-22T18:57:08Z</time></trkpt><trkpt lat="43.541988215692285" lon="11.318036030855875"><ele>474.0</ele><time>2026-03-22T18:57:09Z</time></trkpt><trkpt lat="43.54190642840035" lon="11.317981387886519"><ele>474.0</ele><time>2026-03-22T18:57:10Z</time></trkpt><trkpt lat="43.54182534895552" lon="11.317926946791026"><ele>474.0</ele><time>2026-03-22T18:57:11Z</time></trkpt><trkpt lat="43.54174981857174" lon="11.31787374948153"><ele>474.0</ele><time>2026-03-22T18:57:12Z</time></trkpt><trkpt lat="43.541680273823324" lon="11.317824626015724"><ele>474.0</ele><time>2026-03-22T18:57:13Z</time></trkpt><trkpt lat="43.541596317145185" lon="11.317780280350425"><ele>474.0</ele><time>2026-03-22T18:57:14Z</time></trkpt><trkpt lat="43.54151788733949" lon="11.317739197533825"><ele>474.0</ele><time>2026-03-22T18:57:15Z</time></trkpt><trkpt lat="43.541436125305246" lon="11.317708718196855"><ele>474.0</ele><time>2026-03-22T18:57:16Z</time></trkpt><trkpt lat="43.541349557397375" lon="11.317688688355881"><ele>474.0</ele><time>2026-03-22T18:57:17Z</time></trkpt><trkpt lat="43.54125888570918" lon="11.317678639512234"><ele>474.0</ele><time>2026-03-22T18:57:18Z</time></trkpt><trkpt lat="43.541162200131915" lon="11.317646671210161"><ele>474.0</ele><time>2026-03-22T18:57:19Z</time></trkpt><trkpt lat="43.54106900972136" lon="11.31763735821562"><ele>473.1666666666667</ele><time>2026-03-22T18:57:20Z</time></trkpt><trkpt lat="43.540979978286046" lon="11.317628558160875"><ele>472.33333333333337</ele><time>2026-03-22T18:57:21Z</time></trkpt><trkpt lat="43.54089468710075" lon="11.31762039382394"><ele>471.5</ele><time>2026-03-22T18:57:22Z</time></trkpt><trkpt lat="43.540812927851974" lon="11.317612567580078"><ele>470.6666666666667</ele><time>2026-03-22T18:57:23Z</time></trkpt><trkpt lat="43.54072928120377" lon="11.317604560663218"><ele>469.83333333333337</ele><time>2026-03-22T18:57:24Z</time></trkpt><trkpt lat="43.54064536090543" lon="11.317597723468761"><ele>469.0</ele><time>2026-03-22T18:57:25Z</time></trkpt><trkpt lat="43.54056299203096" lon="11.317591606610181"><ele>469.00000000000006</ele><time>2026-03-22T18:57:26Z</time></trkpt><trkpt lat="43.54049142199966" lon="11.317585925520765"><ele>469.0</ele><time>2026-03-22T18:57:27Z</time></trkpt><trkpt lat="43.54042560571673" lon="11.317570700495914"><ele>469.0</ele><time>2026-03-22T18:57:28Z</time></trkpt><trkpt lat="43.54032790858921" lon="11.317535781481574"><ele>469.0</ele><time>2026-03-22T18:57:30Z</time></trkpt><trkpt lat="43.54027858671611" lon="11.31743275851667"><ele>469.00000000000006</ele><time>2026-03-22T18:57:32Z</time></trkpt><trkpt lat="43.540222972132796" lon="11.317386012017112"><ele>469.0</ele><time>2026-03-22T18:57:34Z</time></trkpt><trkpt lat="43.54017883690245" lon="11.317289324060217"><ele>467.2</ele><time>2026-03-22T19:00:32Z</time></trkpt><trkpt lat="43.54014377905906" lon="11.317203960784143"><ele>465.4</ele><time>2026-03-22T19:00:34Z</time></trkpt><trkpt lat="43.54006657149637" lon="11.317220471436407"><ele>463.6</ele><time>2026-03-22T19:00:37Z</time></trkpt><trkpt lat="43.539971507135974" lon="11.317271996298203"><ele>461.8</ele><time>2026-03-22T19:00:39Z</time></trkpt><trkpt lat="43.53987249585813" lon="11.317287466874328"><ele>460.0</ele><time>2026-03-22T19:00:41Z</time></trkpt><trkpt lat="43.539774135169004" lon="11.317250547946077"><ele>457.6666666666667</ele><time>2026-03-22T19:00:43Z</time></trkpt><trkpt lat="43.53968325262022" lon="11.317229800346919"><ele>455.33333333333337</ele><time>2026-03-22T19:00:45Z</time></trkpt><trkpt lat="43.53959038590064" lon="11.317214818748402"><ele>453.0</ele><time>2026-03-22T19:00:47Z</time></trkpt><trkpt lat="43.539528266411075" lon="11.31719934665624"><ele>450.66666666666663</ele><time>2026-03-22T19:00:49Z</time></trkpt><trkpt lat="43.539539404501575" lon="11.317076720451288"><ele>448.3333333333333</ele><time>2026-03-22T19:00:51Z</time></trkpt><trkpt lat="43.53963203647467" lon="11.317047121365121"><ele>446.0</ele><time>2026-03-22T19:00:54Z</time></trkpt><trkpt lat="43.53964381310139" lon="11.316896430553847"><ele>446.0</ele><time>2026-03-22T19:00:55Z</time></trkpt><trkpt lat="43.53971990939523" lon="11.31690306672146"><ele>446.0</ele><time>2026-03-22T19:00:57Z</time></trkpt><trkpt lat="43.539787975107906" lon="11.317260783552923"><ele>446.0</ele><time>2026-03-22T19:00:59Z</time></trkpt><trkpt lat="43.5397107005623" lon="11.317309044375488"><ele>446.0</ele><time>2026-03-22T19:01:02Z</time></trkpt><trkpt lat="43.53963907803869" lon="11.317285080977207"><ele>446.0</ele><time>2026-03-22T19:01:03Z</time></trkpt><trkpt lat="43.53954779993723" lon="11.317223463361413"><ele>446.0</ele><time>2026-03-22T19:01:04Z</time></trkpt><trkpt lat="43.53948714882356" lon="11.317169677296413"><ele>446.0</ele><time>2026-03-22T19:01:05Z</time></trkpt><trkpt lat="43.5394391074699" lon="11.317019407620872"><ele>446.0</ele><time>2026-03-22T19:01:07Z</time></trkpt><trkpt lat="43.539475357645756" lon="11.31692514969179"><ele>446.0</ele><time>2026-03-22T19:01:08Z</time></trkpt><trkpt lat="43.5396163082506" lon="11.31683805084233"><ele>446.0</ele><time>2026-03-22T19:01:10Z</time></trkpt><trkpt lat="43.539709389603985" lon="11.316816383070584"><ele>446.0</ele><time>2026-03-22T19:01:11Z</time></trkpt><trkpt lat="43.539821921296905" lon="11.316774603871213"><ele>446.0</ele><time>2026-03-22T19:01:12Z</time></trkpt><trkpt lat="43.53994173231105" lon="11.31672860751386"><ele>446.0</ele><time>2026-03-22T19:01:13Z</time></trkpt><trkpt lat="43.540044592004676" lon="11.316678673441505"><ele>446.0</ele><time>2026-03-22T19:01:14Z</time></trkpt><trkpt lat="43.540132947702475" lon="11.316617300417079"><ele>446.0</ele><time>2026-03-22T19:01:15Z</time></trkpt><trkpt lat="43.54020781857989" lon="11.316536987169817"><ele>446.0</ele><time>2026-03-22T19:01:16Z</time></trkpt><trkpt lat="43.54027237121307" lon="11.316441473738935"><ele>446.0</ele><time>2026-03-22T19:01:17Z</time></trkpt><trkpt lat="43.54032802805675" lon="11.31633540633166"><ele>446.0</ele><time>2026-03-22T19:01:18Z</time></trkpt><trkpt lat="43.54038020908404" lon="11.316232736531447"><ele>446.0</ele><time>2026-03-22T19:01:19Z</time></trkpt><trkpt lat="43.54042871540984" lon="11.316136948270538"><ele>444.4</ele><time>2026-03-22T19:01:20Z</time></trkpt><trkpt lat="43.54049843405519" lon="11.31606738772322"><ele>442.8</ele><time>2026-03-22T19:01:21Z</time></trkpt><trkpt lat="43.54057343132703" lon="11.315984758902005"><ele>441.19999999999993</ele><time>2026-03-22T19:01:22Z</time></trkpt><trkpt lat="43.54064386134258" lon="11.315886156455287"><ele>439.59999999999997</ele><time>2026-03-22T19:01:23Z</time></trkpt><trkpt lat="43.54072791764717" lon="11.315820984108074"><ele>438.0</ele><time>2026-03-22T19:01:24Z</time></trkpt><trkpt lat="43.540820713569" lon="11.315763675027183"><ele>438.0</ele><time>2026-03-22T19:01:25Z</time></trkpt><trkpt lat="43.54092450161259" lon="11.315736297533226"><ele>437.99999999999994</ele><time>2026-03-22T19:01:26Z</time></trkpt><trkpt lat="43.541026042538846" lon="11.315701359084011"><ele>437.99999999999994</ele><time>2026-03-22T19:01:27Z</time></trkpt><trkpt lat="43.54112684969107" lon="11.315695474630806"><ele>438.0</ele><time>2026-03-22T19:01:28Z</time></trkpt><trkpt lat="43.541245684023124" lon="11.315705726219953"><ele>438.0</ele><time>2026-03-22T19:01:29Z</time></trkpt><trkpt lat="43.541367067811876" lon="11.315736242597264"><ele>438.25</ele><time>2026-03-22T19:01:30Z</time></trkpt><trkpt lat="43.54149574661638" lon="11.315781685149465"><ele>438.5</ele><time>2026-03-22T19:01:31Z</time></trkpt><trkpt lat="43.541641454477116" lon="11.315804270507806"><ele>438.75</ele><time>2026-03-22T19:01:32Z</time></trkpt><trkpt lat="43.54177820725053" lon="11.315821252735786"><ele>439.0</ele><time>2026-03-22T19:01:33Z</time></trkpt><trkpt lat="43.54189923440655" lon="11.31578325627368"><ele>439.0</ele><time>2026-03-22T19:01:34Z</time></trkpt><trkpt lat="43.54202936997046" lon="11.315752594977925"><ele>439.0</ele><time>2026-03-22T19:01:35Z</time></trkpt><trkpt lat="43.54215305310539" lon="11.315673622187198"><ele>439.0</ele><time>2026-03-22T19:01:36Z</time></trkpt><trkpt lat="43.54228300430813" lon="11.315620361978176"><ele>439.0</ele><time>2026-03-22T19:01:37Z</time></trkpt><trkpt lat="43.54241147380209" lon="11.315566872648514"><ele>438.0</ele><time>2026-03-22T19:01:38Z</time></trkpt><trkpt lat="43.54254048442338" lon="11.315506004553908"><ele>437.0</ele><time>2026-03-22T19:01:39Z</time></trkpt><trkpt lat="43.54266704921461" lon="11.315444317808806"><ele>436.0</ele><time>2026-03-22T19:01:40Z</time></trkpt><trkpt lat="43.54279124641756" lon="11.315388247957738"><ele>435.0</ele><time>2026-03-22T19:01:41Z</time></trkpt><trkpt lat="43.54289844057194" lon="11.315333908816596"><ele>438.5</ele><time>2026-03-22T19:01:42Z</time></trkpt><trkpt lat="43.54300527739682" lon="11.315290454947613"><ele>442.0</ele><time>2026-03-22T19:01:43Z</time></trkpt><trkpt lat="43.543115910183005" lon="11.315235180785251"><ele>445.5</ele><time>2026-03-22T19:01:44Z</time></trkpt><trkpt lat="43.5432265459628" lon="11.315184025924788"><ele>449.0</ele><time>2026-03-22T19:01:45Z</time></trkpt><trkpt lat="43.543334279448665" lon="11.315103471942933"><ele>449.0</ele><time>2026-03-22T19:01:46Z</time></trkpt><trkpt lat="43.5434389475405" lon="11.315015079180963"><ele>449.0</ele><time>2026-03-22T19:01:47Z</time></trkpt><trkpt lat="43.54354185450328" lon="11.31491641393986"><ele>449.0</ele><time>2026-03-22T19:01:48Z</time></trkpt><trkpt lat="43.54364904710787" lon="11.314808367439674"><ele>449.0</ele><time>2026-03-22T19:01:49Z</time></trkpt><trkpt lat="43.54374240680104" lon="11.314712247047073"><ele>450.2</ele><time>2026-03-22T19:01:50Z</time></trkpt><trkpt lat="43.543824341278" lon="11.314625447927051"><ele>451.4</ele><time>2026-03-22T19:01:51Z</time></trkpt><trkpt lat="43.543895042760234" lon="11.314520621267068"><ele>452.6</ele><time>2026-03-22T19:01:52Z</time></trkpt><trkpt lat="43.543947020080644" lon="11.314397908816668"><ele>453.8</ele><time>2026-03-22T19:01:53Z</time></trkpt><trkpt lat="43.54398038924792" lon="11.314269088616607"><ele>455.0</ele><time>2026-03-22T19:01:54Z</time></trkpt><trkpt lat="43.54399229807356" lon="11.314134600168014"><ele>455.0</ele><time>2026-03-22T19:01:55Z</time></trkpt><trkpt lat="43.54399303277638" lon="11.313991650501645"><ele>455.0</ele><time>2026-03-22T19:01:56Z</time></trkpt><trkpt lat="43.54396462400019" lon="11.313833458588434"><ele>455.0</ele><time>2026-03-22T19:01:57Z</time></trkpt><trkpt lat="43.54391865992042" lon="11.313677364831575"><ele>455.0</ele><time>2026-03-22T19:01:58Z</time></trkpt><trkpt lat="43.54386595615661" lon="11.313521638570974"><ele>454.6</ele><time>2026-03-22T19:01:59Z</time></trkpt><trkpt lat="43.54381393864099" lon="11.313359139052693"><ele>454.2</ele><time>2026-03-22T19:02:00Z</time></trkpt><trkpt lat="43.54378323514244" lon="11.313210597982735"><ele>453.79999999999995</ele><time>2026-03-22T19:02:01Z</time></trkpt><trkpt lat="43.543784824919584" lon="11.313080909931893"><ele>453.4</ele><time>2026-03-22T19:02:02.001Z</time></trkpt><trkpt lat="43.5438242803517" lon="11.312961194472516"><ele>453.0</ele><time>2026-03-22T19:02:03.001Z</time></trkpt><trkpt lat="43.5438973982592" lon="11.312859579249656"><ele>451.75</ele><time>2026-03-22T19:02:04.001Z</time></trkpt><trkpt lat="43.54400036679839" lon="11.312786210071106"><ele>450.5</ele><time>2026-03-22T19:02:05.001Z</time></trkpt><trkpt lat="43.544099159803096" lon="11.312690060172395"><ele>449.25</ele><time>2026-03-22T19:02:06.001Z</time></trkpt><trkpt lat="43.54419988732895" lon="11.312591000803163"><ele>448.0</ele><time>2026-03-22T19:02:07.001Z</time></trkpt><trkpt lat="43.54429340605732" lon="11.312473000086497"><ele>448.0</ele><time>2026-03-22T19:02:08.001Z</time></trkpt><trkpt lat="43.54440058818405" lon="11.312374340058058"><ele>448.0</ele><time>2026-03-22T19:02:09.001Z</time></trkpt><trkpt lat="43.544503904432176" lon="11.312272174800261"><ele>448.0</ele><time>2026-03-22T19:02:10.001Z</time></trkpt><trkpt lat="43.54459756344335" lon="11.31217083007616"><ele>448.0</ele><time>2026-03-22T19:02:11.001Z</time></trkpt><trkpt lat="43.54468501324953" lon="11.312081206671953"><ele>448.5</ele><time>2026-03-22T19:02:12.001Z</time></trkpt><trkpt lat="43.544777065413285" lon="11.31199757665449"><ele>449.0</ele><time>2026-03-22T19:02:13.001Z</time></trkpt><trkpt lat="43.54486581848816" lon="11.311903432748295"><ele>449.5</ele><time>2026-03-22T19:02:14.001Z</time></trkpt><trkpt lat="43.544960959612546" lon="11.311816290407148"><ele>450.0</ele><time>2026-03-22T19:02:15.001Z</time></trkpt><trkpt lat="43.545040338186766" lon="11.31168709600385"><ele>450.0</ele><time>2026-03-22T19:02:16.001Z</time></trkpt><trkpt lat="43.54509418583513" lon="11.311523948141378"><ele>450.0</ele><time>2026-03-22T19:02:17.001Z</time></trkpt><trkpt lat="43.54513941692538" lon="11.311370135446458"><ele>450.0</ele><time>2026-03-22T19:02:18.001Z</time></trkpt><trkpt lat="43.54516675408754" lon="11.311200875591416"><ele>450.0</ele><time>2026-03-22T19:02:19.001Z</time></trkpt><trkpt lat="43.5451883490332" lon="11.311032968666275"><ele>449.6</ele><time>2026-03-22T19:02:20.001Z</time></trkpt><trkpt lat="43.54521751592781" lon="11.310866557773108"><ele>449.2</ele><time>2026-03-22T19:02:21.001Z</time></trkpt><trkpt lat="43.545241351940554" lon="11.31071053696269"><ele>448.79999999999995</ele><time>2026-03-22T19:02:22.001Z</time></trkpt><trkpt lat="43.54526963185911" lon="11.310591462204112"><ele>448.4</ele><time>2026-03-22T19:02:23.001Z</time></trkpt><trkpt lat="43.545295960135135" lon="11.310495977041565"><ele>448.0</ele><time>2026-03-22T19:02:24.001Z</time></trkpt><trkpt lat="43.545347814529386" lon="11.310441307284771"><ele>449.83333333333337</ele><time>2026-03-22T19:02:25Z</time></trkpt><trkpt lat="43.54540366219544" lon="11.310387833165187"><ele>451.6666666666667</ele><time>2026-03-22T19:02:26Z</time></trkpt><trkpt lat="43.54542496517299" lon="11.310304582674501"><ele>453.5</ele><time>2026-03-22T19:02:27Z</time></trkpt><trkpt lat="43.545416023882744" lon="11.310189713188032"><ele>455.33333333333337</ele><time>2026-03-22T19:02:28Z</time></trkpt><trkpt lat="43.54539545545094" lon="11.310065274079784"><ele>457.1666666666667</ele><time>2026-03-22T19:02:29Z</time></trkpt><trkpt lat="43.545411091427844" lon="11.30994828727851"><ele>459.0</ele><time>2026-03-22T19:02:30Z</time></trkpt><trkpt lat="43.54540816611286" lon="11.309814360943756"><ele>458.0</ele><time>2026-03-22T19:02:31Z</time></trkpt><trkpt lat="43.545432120848496" lon="11.309694258293506"><ele>457.0</ele><time>2026-03-22T19:02:32Z</time></trkpt><trkpt lat="43.54545889186639" lon="11.30956906466279"><ele>456.0</ele><time>2026-03-22T19:02:33Z</time></trkpt><trkpt lat="43.5455207246519" lon="11.30947800853988"><ele>455.0</ele><time>2026-03-22T19:02:34Z</time></trkpt><trkpt lat="43.54557645408432" lon="11.309371241503138"><ele>454.0</ele><time>2026-03-22T19:02:35Z</time></trkpt><trkpt lat="43.545617960221186" lon="11.309245482326254"><ele>454.00000000000006</ele><time>2026-03-22T19:02:36Z</time></trkpt><trkpt lat="43.545673765733845" lon="11.309139977696194"><ele>454.0</ele><time>2026-03-22T19:02:37Z</time></trkpt><trkpt lat="43.54572633504814" lon="11.309032639572736"><ele>454.0</ele><time>2026-03-22T19:02:38Z</time></trkpt><trkpt lat="43.54577549900442" lon="11.30893322995265"><ele>454.0</ele><time>2026-03-22T19:02:39Z</time></trkpt><trkpt lat="43.54581320218807" lon="11.308833742429135"><ele>454.00000000000006</ele><time>2026-03-22T19:02:40Z</time></trkpt><trkpt lat="43.54585874849075" lon="11.30873532165482"><ele>454.0</ele><time>2026-03-22T19:02:41Z</time></trkpt><trkpt lat="43.54590266716061" lon="11.308643520403393"><ele>452.6</ele><time>2026-03-22T19:02:42Z</time></trkpt><trkpt lat="43.54596154365174" lon="11.30854550504368"><ele>451.2</ele><time>2026-03-22T19:02:43Z</time></trkpt><trkpt lat="43.54604264013138" lon="11.308466573065227"><ele>449.80000000000007</ele><time>2026-03-22T19:02:44Z</time></trkpt><trkpt lat="43.54611335718328" lon="11.308351874187759"><ele>448.40000000000003</ele><time>2026-03-22T19:02:45Z</time></trkpt><trkpt lat="43.54619767359268" lon="11.308238821106432"><ele>447.0</ele><time>2026-03-22T19:02:46Z</time></trkpt><trkpt lat="43.54627151005649" lon="11.308115583957033"><ele>449.25</ele><time>2026-03-22T19:02:47Z</time></trkpt><trkpt lat="43.546346261137344" lon="11.307987453650476"><ele>451.5</ele><time>2026-03-22T19:02:48Z</time></trkpt><trkpt lat="43.54644434766292" lon="11.307893988071799"><ele>453.75</ele><time>2026-03-22T19:02:49Z</time></trkpt><trkpt lat="43.54653969321988" lon="11.307792446252533"><ele>456.0</ele><time>2026-03-22T19:02:50Z</time></trkpt><trkpt lat="43.54660562690047" lon="11.307666936504233"><ele>456.0</ele><time>2026-03-22T19:02:51Z</time></trkpt><trkpt lat="43.5466536627051" lon="11.307523133025255"><ele>456.0</ele><time>2026-03-22T19:02:52Z</time></trkpt><trkpt lat="43.546691516308584" lon="11.307364003816721"><ele>456.0</ele><time>2026-03-22T19:02:53Z</time></trkpt><trkpt lat="43.546730326558205" lon="11.307204239145328"><ele>456.0</ele><time>2026-03-22T19:02:54Z</time></trkpt><trkpt lat="43.546775772275964" lon="11.3070420442049"><ele>455.4</ele><time>2026-03-22T19:02:55Z</time></trkpt><trkpt lat="43.546832221639455" lon="11.306899271635643"><ele>454.8</ele><time>2026-03-22T19:02:56Z</time></trkpt><trkpt lat="43.546914993127615" lon="11.306808144011137"><ele>454.19999999999993</ele><time>2026-03-22T19:02:57Z</time></trkpt><trkpt lat="43.546993915846464" lon="11.306777814536124"><ele>453.59999999999997</ele><time>2026-03-22T19:02:58Z</time></trkpt><trkpt lat="43.54708442330583" lon="11.306721629612031"><ele>453.0</ele><time>2026-03-22T19:02:59Z</time></trkpt><trkpt lat="43.54717731349668" lon="11.306659522671369"><ele>455.79999999999995</ele><time>2026-03-22T19:03:00Z</time></trkpt><trkpt lat="43.547271818051215" lon="11.306591771780695"><ele>458.59999999999997</ele><time>2026-03-22T19:03:01Z</time></trkpt><trkpt lat="43.54736532250603" lon="11.306530382167365"><ele>461.40000000000003</ele><time>2026-03-22T19:03:02Z</time></trkpt><trkpt lat="43.547456714259035" lon="11.306477478361371"><ele>464.20000000000005</ele><time>2026-03-22T19:03:03Z</time></trkpt><trkpt lat="43.5475476763708" lon="11.306435438616274"><ele>467.0</ele><time>2026-03-22T19:03:04Z</time></trkpt><trkpt lat="43.54764081208413" lon="11.306416728614881"><ele>465.8333333333333</ele><time>2026-03-22T19:03:05Z</time></trkpt><trkpt lat="43.54774018616221" lon="11.30639658323092"><ele>464.66666666666663</ele><time>2026-03-22T19:03:06Z</time></trkpt><trkpt lat="43.54782655275935" lon="11.306408347781456"><ele>463.5</ele><time>2026-03-22T19:03:07Z</time></trkpt><trkpt lat="43.547905997725394" lon="11.30645075548265"><ele>462.33333333333337</ele><time>2026-03-22T19:03:08Z</time></trkpt><trkpt lat="43.54797425687357" lon="11.306500437906111"><ele>461.1666666666667</ele><time>2026-03-22T19:03:09Z</time></trkpt><trkpt lat="43.548042552583986" lon="11.306547465834653"><ele>460.0</ele><time>2026-03-22T19:03:10Z</time></trkpt><trkpt lat="43.548116222047284" lon="11.306598809161843"><ele>462.2</ele><time>2026-03-22T19:03:11Z</time></trkpt><trkpt lat="43.54818086359882" lon="11.306633304801705"><ele>464.4</ele><time>2026-03-22T19:03:12Z</time></trkpt><trkpt lat="43.54829958164149" lon="11.306643406584271"><ele>466.6</ele><time>2026-03-22T19:03:14Z</time></trkpt><trkpt lat="43.54836881260402" lon="11.306583621214076"><ele>468.8</ele><time>2026-03-22T19:03:15Z</time></trkpt><trkpt lat="43.54845721761849" lon="11.306456872191413"><ele>471.0</ele><time>2026-03-22T19:03:17Z</time></trkpt><trkpt lat="43.54852408997236" lon="11.306404560753377"><ele>471.0</ele><time>2026-03-22T19:03:18Z</time></trkpt><trkpt lat="43.548579345574105" lon="11.306337431735669"><ele>471.0</ele><time>2026-03-22T19:03:19Z</time></trkpt><trkpt lat="43.54863963816232" lon="11.306262822130657"><ele>471.0</ele><time>2026-03-22T19:03:20Z</time></trkpt><trkpt lat="43.548703325652134" lon="11.306179654415763"><ele>471.0</ele><time>2026-03-22T19:03:21Z</time></trkpt><trkpt lat="43.54876600858081" lon="11.306099512883305"><ele>471.0</ele><time>2026-03-22T19:03:22Z</time></trkpt><trkpt lat="43.548835164555534" lon="11.306008468693388"><ele>471.0</ele><time>2026-03-22T19:03:23Z</time></trkpt><trkpt lat="43.548894747208" lon="11.305894332972537"><ele>470.8</ele><time>2026-03-22T19:03:24Z</time></trkpt><trkpt lat="43.54897778025547" lon="11.305813158102543"><ele>470.6</ele><time>2026-03-22T19:03:25Z</time></trkpt><trkpt lat="43.54904831195399" lon="11.30571673100339"><ele>470.4</ele><time>2026-03-22T19:03:26Z</time></trkpt><trkpt lat="43.54912031955123" lon="11.305615098194751"><ele>470.2</ele><time>2026-03-22T19:03:27Z</time></trkpt><trkpt lat="43.54918926598966" lon="11.30551703232675"><ele>470.0</ele><time>2026-03-22T19:03:28Z</time></trkpt><trkpt lat="43.5492483333789" lon="11.305410686366766"><ele>471.6</ele><time>2026-03-22T19:03:29Z</time></trkpt><trkpt lat="43.54932710054852" lon="11.3053290625049"><ele>473.2</ele><time>2026-03-22T19:03:30Z</time></trkpt><trkpt lat="43.54940273418412" lon="11.305238291874637"><ele>474.79999999999995</ele><time>2026-03-22T19:03:31Z</time></trkpt><trkpt lat="43.54947978783924" lon="11.305144676036143"><ele>476.4</ele><time>2026-03-22T19:03:32Z</time></trkpt><trkpt lat="43.549556084900615" lon="11.305049495011726"><ele>478.0</ele><time>2026-03-22T19:03:33Z</time></trkpt><trkpt lat="43.54962358746442" lon="11.304933575683892"><ele>478.0</ele><time>2026-03-22T19:03:34Z</time></trkpt><trkpt lat="43.54970645460639" lon="11.304837759344815"><ele>477.99999999999994</ele><time>2026-03-22T19:03:35Z</time></trkpt><trkpt lat="43.54980034708618" lon="11.304761677097044"><ele>477.99999999999994</ele><time>2026-03-22T19:03:36Z</time></trkpt><trkpt lat="43.54988587524286" lon="11.30467123559263"><ele>478.0</ele><time>2026-03-22T19:03:37Z</time></trkpt><trkpt lat="43.549973809667065" lon="11.304584653349197"><ele>478.0</ele><time>2026-03-22T19:03:38Z</time></trkpt><trkpt lat="43.55005659980662" lon="11.304480434514868"><ele>479.79999999999995</ele><time>2026-03-22T19:03:39Z</time></trkpt><trkpt lat="43.550148236180476" lon="11.304390100703277"><ele>481.59999999999997</ele><time>2026-03-22T19:03:40Z</time></trkpt><trkpt lat="43.550239459525066" lon="11.304295557315124"><ele>483.40000000000003</ele><time>2026-03-22T19:03:41Z</time></trkpt><trkpt lat="43.55032099302722" lon="11.30420767507371"><ele>485.20000000000005</ele><time>2026-03-22T19:03:42Z</time></trkpt><trkpt lat="43.55040225447042" lon="11.304114721250462"><ele>487.0</ele><time>2026-03-22T19:03:43Z</time></trkpt><trkpt lat="43.55048358284417" lon="11.304019046376261"><ele>487.0</ele><time>2026-03-22T19:03:44Z</time></trkpt><trkpt lat="43.550567700818696" lon="11.303926345092933"><ele>487.00000000000006</ele><time>2026-03-22T19:03:45Z</time></trkpt><trkpt lat="43.55064564010796" lon="11.3038171268446"><ele>487.00000000000006</ele><time>2026-03-22T19:03:46Z</time></trkpt><trkpt lat="43.55072910197483" lon="11.30371733941593"><ele>487.0</ele><time>2026-03-22T19:03:47Z</time></trkpt><trkpt lat="43.550821381977585" lon="11.303630856580536"><ele>487.0</ele><time>2026-03-22T19:03:48Z</time></trkpt><trkpt lat="43.55089468267197" lon="11.303516572880518"><ele>489.0</ele><time>2026-03-22T19:03:49Z</time></trkpt><trkpt lat="43.55097764537451" lon="11.30342382841085"><ele>491.00000000000006</ele><time>2026-03-22T19:03:50Z</time></trkpt><trkpt lat="43.55106417929515" lon="11.303336775037229"><ele>493.00000000000006</ele><time>2026-03-22T19:03:51Z</time></trkpt><trkpt lat="43.55114971855185" lon="11.303255103415736"><ele>495.0</ele><time>2026-03-22T19:03:52Z</time></trkpt><trkpt lat="43.55123526277212" lon="11.30318433819705"><ele>497.0</ele><time>2026-03-22T19:03:53Z</time></trkpt><trkpt lat="43.551320214085514" lon="11.303110038177149"><ele>497.8</ele><time>2026-03-22T19:03:54Z</time></trkpt><trkpt lat="43.55140908138577" lon="11.303057687398015"><ele>498.6</ele><time>2026-03-22T19:03:55Z</time></trkpt><trkpt lat="43.551500084020624" lon="11.302979272748368"><ele>499.40000000000003</ele><time>2026-03-22T19:03:56Z</time></trkpt><trkpt lat="43.55157721282073" lon="11.302904961828864"><ele>500.20000000000005</ele><time>2026-03-22T19:03:57Z</time></trkpt><trkpt lat="43.551647705214" lon="11.30279683130275"><ele>501.0</ele><time>2026-03-22T19:03:58Z</time></trkpt><trkpt lat="43.551712025129035" lon="11.302704553970015"><ele>501.0</ele><time>2026-03-22T19:03:59Z</time></trkpt><trkpt lat="43.551783312370745" lon="11.302603657058757"><ele>501.0</ele><time>2026-03-22T19:04:00Z</time></trkpt><trkpt lat="43.55183305599478" lon="11.302497687533716"><ele>501.0</ele><time>2026-03-22T19:04:01Z</time></trkpt><trkpt lat="43.55186247473105" lon="11.302388317616682"><ele>501.0</ele><time>2026-03-22T19:04:02Z</time></trkpt><trkpt lat="43.55191422087833" lon="11.302286768190369"><ele>501.0</ele><time>2026-03-22T19:04:03Z</time></trkpt><trkpt lat="43.55196595625885" lon="11.302174787558327"><ele>500.0</ele><time>2026-03-22T19:04:04Z</time></trkpt><trkpt lat="43.55201660649482" lon="11.302045087267967"><ele>499.0</ele><time>2026-03-22T19:04:05Z</time></trkpt><trkpt lat="43.552071373953076" lon="11.301901926822646"><ele>498.0</ele><time>2026-03-22T19:04:06Z</time></trkpt><trkpt lat="43.55211923496542" lon="11.301753333174865"><ele>497.0</ele><time>2026-03-22T19:04:07Z</time></trkpt><trkpt lat="43.55216294518358" lon="11.301599642451773"><ele>497.0</ele><time>2026-03-22T19:04:08.001Z</time></trkpt><trkpt lat="43.552202259861104" lon="11.301437861048035"><ele>497.0</ele><time>2026-03-22T19:04:09.001Z</time></trkpt><trkpt lat="43.55223007417249" lon="11.301256274677176"><ele>497.0</ele><time>2026-03-22T19:04:10.001Z</time></trkpt><trkpt lat="43.55228194003844" lon="11.301106642374116"><ele>497.0</ele><time>2026-03-22T19:04:11.001Z</time></trkpt><trkpt lat="43.55234607367123" lon="11.300975245396396"><ele>498.0</ele><time>2026-03-22T19:04:12.001Z</time></trkpt><trkpt lat="43.55240003766116" lon="11.300844512905691"><ele>499.0</ele><time>2026-03-22T19:04:13.001Z</time></trkpt><trkpt lat="43.55245904045506" lon="11.300704466199244"><ele>500.0</ele><time>2026-03-22T19:04:14.001Z</time></trkpt><trkpt lat="43.5525193005172" lon="11.30056035364185"><ele>501.0</ele><time>2026-03-22T19:04:15.001Z</time></trkpt><trkpt lat="43.55257033623116" lon="11.300407948153032"><ele>501.0</ele><time>2026-03-22T19:04:16.001Z</time></trkpt><trkpt lat="43.552634581408796" lon="11.300273509946303"><ele>501.0</ele><time>2026-03-22T19:04:17.001Z</time></trkpt><trkpt lat="43.552692114719335" lon="11.300147804666318"><ele>501.0</ele><time>2026-03-22T19:04:18.001Z</time></trkpt><trkpt lat="43.55274856439641" lon="11.300037204917464"><ele>501.0</ele><time>2026-03-22T19:04:19.001Z</time></trkpt><trkpt lat="43.552803499107746" lon="11.29991800460358"><ele>501.0</ele><time>2026-03-22T19:04:20.001Z</time></trkpt><trkpt lat="43.552855142468864" lon="11.299786934654861"><ele>500.0</ele><time>2026-03-22T19:04:21.001Z</time></trkpt><trkpt lat="43.552904731278254" lon="11.299661261106774"><ele>499.0</ele><time>2026-03-22T19:04:22.001Z</time></trkpt><trkpt lat="43.552948689088346" lon="11.299537935484173"><ele>498.0</ele><time>2026-03-22T19:04:23.001Z</time></trkpt><trkpt lat="43.55298940146727" lon="11.299418859795152"><ele>497.0</ele><time>2026-03-22T19:04:24.001Z</time></trkpt><trkpt lat="43.55303390397111" lon="11.299304521754001"><ele>496.0</ele><time>2026-03-22T19:04:25.001Z</time></trkpt><trkpt lat="43.55308262865917" lon="11.299191468298291"><ele>496.0</ele><time>2026-03-22T19:04:26Z</time></trkpt><trkpt lat="43.55314693540413" lon="11.299082797964422"><ele>496.0</ele><time>2026-03-22T19:04:27Z</time></trkpt><trkpt lat="43.553225794213674" lon="11.298993023401865"><ele>496.0</ele><time>2026-03-22T19:04:28Z</time></trkpt><trkpt lat="43.55332065030825" lon="11.298918052458815"><ele>496.0</ele><time>2026-03-22T19:04:29Z</time></trkpt><trkpt lat="43.553438326598084" lon="11.298891375532094"><ele>496.0</ele><time>2026-03-22T19:04:30Z</time></trkpt><trkpt lat="43.55356333010425" lon="11.298863127838793"><ele>493.5</ele><time>2026-03-22T19:04:31Z</time></trkpt><trkpt lat="43.553705084821296" lon="11.298853096560352"><ele>491.0</ele><time>2026-03-22T19:04:32Z</time></trkpt><trkpt lat="43.55383921353273" lon="11.298865995789932"><ele>488.5</ele><time>2026-03-22T19:04:33Z</time></trkpt><trkpt lat="43.553965580122714" lon="11.298850297300017"><ele>486.0</ele><time>2026-03-22T19:04:34Z</time></trkpt><trkpt lat="43.55409037861425" lon="11.29883937673348"><ele>485.0</ele><time>2026-03-22T19:04:35Z</time></trkpt><trkpt lat="43.55419717898869" lon="11.29879298917878"><ele>484.0</ele><time>2026-03-22T19:04:36Z</time></trkpt><trkpt lat="43.5542961239966" lon="11.298721458870537"><ele>483.0</ele><time>2026-03-22T19:04:37Z</time></trkpt><trkpt lat="43.554396777115635" lon="11.298647927386323"><ele>482.0</ele><time>2026-03-22T19:04:38Z</time></trkpt><trkpt lat="43.55447505187163" lon="11.298516904331093"><ele>482.0</ele><time>2026-03-22T19:04:39Z</time></trkpt><trkpt lat="43.55455498707198" lon="11.298410229891408"><ele>482.0</ele><time>2026-03-22T19:04:40Z</time></trkpt><trkpt lat="43.55463943886339" lon="11.298308180305916"><ele>482.0</ele><time>2026-03-22T19:04:41Z</time></trkpt><trkpt lat="43.55473925437916" lon="11.29821881981935"><ele>482.0</ele><time>2026-03-22T19:04:42Z</time></trkpt><trkpt lat="43.55485036205504" lon="11.298130857298824"><ele>481.75</ele><time>2026-03-22T19:04:43Z</time></trkpt><trkpt lat="43.554973607202335" lon="11.298073047788675"><ele>481.5</ele><time>2026-03-22T19:04:44Z</time></trkpt><trkpt lat="43.55509060041023" lon="11.298010911839732"><ele>481.25</ele><time>2026-03-22T19:04:45Z</time></trkpt><trkpt lat="43.555217815879466" lon="11.29795554387718"><ele>481.0</ele><time>2026-03-22T19:04:46Z</time></trkpt><trkpt lat="43.555343262384945" lon="11.297914461425648"><ele>482.5</ele><time>2026-03-22T19:04:47Z</time></trkpt><trkpt lat="43.55547100952512" lon="11.297875638827353"><ele>484.0</ele><time>2026-03-22T19:04:48Z</time></trkpt><trkpt lat="43.55559858081448" lon="11.29783832585047"><ele>485.5</ele><time>2026-03-22T19:04:49Z</time></trkpt><trkpt lat="43.55572840224717" lon="11.297800355020863"><ele>487.0</ele><time>2026-03-22T19:04:50Z</time></trkpt><trkpt lat="43.55585790220772" lon="11.2977619695063"><ele>487.0</ele><time>2026-03-22T19:04:51Z</time></trkpt><trkpt lat="43.55598053316488" lon="11.297725880643595"><ele>487.0</ele><time>2026-03-22T19:04:52Z</time></trkpt><trkpt lat="43.55609604059034" lon="11.29769814908666"><ele>487.0</ele><time>2026-03-22T19:04:53Z</time></trkpt><trkpt lat="43.556220001572655" lon="11.297675083337701"><ele>487.0</ele><time>2026-03-22T19:04:54Z</time></trkpt><trkpt lat="43.55635412461585" lon="11.29765544146314"><ele>488.5</ele><time>2026-03-22T19:04:55Z</time></trkpt><trkpt lat="43.55648424705693" lon="11.297638876220404"><ele>490.0</ele><time>2026-03-22T19:04:56Z</time></trkpt><trkpt lat="43.55661571456453" lon="11.297610341992856"><ele>491.5</ele><time>2026-03-22T19:04:57Z</time></trkpt><trkpt lat="43.55673639241182" lon="11.297546161556932"><ele>493.0</ele><time>2026-03-22T19:04:58Z</time></trkpt><trkpt lat="43.55686028871769" lon="11.297497641297245"><ele>493.0</ele><time>2026-03-22T19:04:59Z</time></trkpt><trkpt lat="43.55698258042605" lon="11.297445216890123"><ele>493.0</ele><time>2026-03-22T19:05:00Z</time></trkpt><trkpt lat="43.55711449126172" lon="11.297431936330776"><ele>493.0</ele><time>2026-03-22T19:05:01Z</time></trkpt><trkpt lat="43.55723738566847" lon="11.297412110954742"><ele>493.0</ele><time>2026-03-22T19:05:02Z</time></trkpt><trkpt lat="43.55735655905477" lon="11.29741689940313"><ele>494.2</ele><time>2026-03-22T19:05:03Z</time></trkpt><trkpt lat="43.55747375003066" lon="11.29744554998875"><ele>495.4</ele><time>2026-03-22T19:05:04Z</time></trkpt><trkpt lat="43.557588125085346" lon="11.297468836448324"><ele>496.59999999999997</ele><time>2026-03-22T19:05:05Z</time></trkpt><trkpt lat="43.557681654893436" lon="11.297465100985615"><ele>497.79999999999995</ele><time>2026-03-22T19:05:06Z</time></trkpt><trkpt lat="43.557760406956234" lon="11.297414704002438"><ele>499.0</ele><time>2026-03-22T19:05:07Z</time></trkpt><trkpt lat="43.55783251625925" lon="11.29736689739439"><ele>499.6</ele><time>2026-03-22T19:05:08Z</time></trkpt><trkpt lat="43.5579176559742" lon="11.297326993591197"><ele>500.2</ele><time>2026-03-22T19:05:09Z</time></trkpt><trkpt lat="43.557995595397806" lon="11.297274049707914"><ele>500.80000000000007</ele><time>2026-03-22T19:05:10Z</time></trkpt><trkpt lat="43.55807851724399" lon="11.297221878362059"><ele>501.40000000000003</ele><time>2026-03-22T19:05:11Z</time></trkpt><trkpt lat="43.55816316440924" lon="11.297169625406594"><ele>502.0</ele><time>2026-03-22T19:05:12Z</time></trkpt><trkpt lat="43.55824882622632" lon="11.29710515699173"><ele>502.0</ele><time>2026-03-22T19:05:13Z</time></trkpt><trkpt lat="43.55834823598258" lon="11.297071989022525"><ele>502.00000000000006</ele><time>2026-03-22T19:05:14Z</time></trkpt><trkpt lat="43.558443718090466" lon="11.297035165890497"><ele>502.00000000000006</ele><time>2026-03-22T19:05:15Z</time></trkpt><trkpt lat="43.55854608658481" lon="11.297017150349713"><ele>502.0</ele><time>2026-03-22T19:05:16Z</time></trkpt><trkpt lat="43.55865282760309" lon="11.296978383959788"><ele>502.0</ele><time>2026-03-22T19:05:17Z</time></trkpt><trkpt lat="43.55875479706002" lon="11.296979684010656"><ele>502.00000000000006</ele><time>2026-03-22T19:05:18Z</time></trkpt><trkpt lat="43.558842312330945" lon="11.29695401560655"><ele>502.0</ele><time>2026-03-22T19:05:19Z</time></trkpt><trkpt lat="43.55892200773892" lon="11.296920244099994"><ele>502.0</ele><time>2026-03-22T19:05:20Z</time></trkpt><trkpt lat="43.558990473940895" lon="11.296867635825842"><ele>502.0</ele><time>2026-03-22T19:05:21Z</time></trkpt><trkpt lat="43.5590677116817" lon="11.296836867963314"><ele>502.00000000000006</ele><time>2026-03-22T19:05:22Z</time></trkpt><trkpt lat="43.55914450317016" lon="11.296808201273903"><ele>502.0</ele><time>2026-03-22T19:05:23Z</time></trkpt><trkpt lat="43.559225924030976" lon="11.296774046006584"><ele>502.0</ele><time>2026-03-22T19:05:24Z</time></trkpt><trkpt lat="43.55931675788368" lon="11.296746352957584"><ele>502.00000000000006</ele><time>2026-03-22T19:05:25Z</time></trkpt><trkpt lat="43.55941657802511" lon="11.296719763658642"><ele>502.00000000000006</ele><time>2026-03-22T19:05:26Z</time></trkpt><trkpt lat="43.559519872546964" lon="11.2967245349318"><ele>502.0</ele><time>2026-03-22T19:05:27Z</time></trkpt><trkpt lat="43.55962341374961" lon="11.296727720073934"><ele>502.0</ele><time>2026-03-22T19:05:28Z</time></trkpt><trkpt lat="43.55972521578486" lon="11.296730784196823"><ele>501.83333333333337</ele><time>2026-03-22T19:05:29Z</time></trkpt><trkpt lat="43.55981891392057" lon="11.296733604401389"><ele>501.6666666666667</ele><time>2026-03-22T19:05:30Z</time></trkpt><trkpt lat="43.5599022412299" lon="11.296713201382378"><ele>501.5</ele><time>2026-03-22T19:05:31Z</time></trkpt><trkpt lat="43.55996840738119" lon="11.296713198454988"><ele>501.33333333333337</ele><time>2026-03-22T19:05:32Z</time></trkpt><trkpt lat="43.560058354859976" lon="11.296719788872212"><ele>501.1666666666667</ele><time>2026-03-22T19:05:34Z</time></trkpt><trkpt lat="43.56013098367562" lon="11.296704445708563"><ele>501.0</ele><time>2026-03-22T19:05:37Z</time></trkpt><trkpt lat="43.56020195518523" lon="11.296666076270288"><ele>501.0</ele><time>2026-03-22T19:05:54Z</time></trkpt><trkpt lat="43.56027406306215" lon="11.296635211857044"><ele>501.0</ele><time>2026-03-22T19:05:55Z</time></trkpt><trkpt lat="43.56035886763144" lon="11.296592566371238"><ele>501.0</ele><time>2026-03-22T19:05:56Z</time></trkpt><trkpt lat="43.56043341961742" lon="11.296555076593412"><ele>501.0</ele><time>2026-03-22T19:05:56.999Z</time></trkpt><trkpt lat="43.56055519073072" lon="11.296490182064433"><ele>501.0</ele><time>2026-03-22T19:05:57.999Z</time></trkpt><trkpt lat="43.56068319847921" lon="11.296418769057757"><ele>500.5</ele><time>2026-03-22T19:05:58.999Z</time></trkpt><trkpt lat="43.56081481172648" lon="11.296347065521026"><ele>500.0</ele><time>2026-03-22T19:05:59.999Z</time></trkpt><trkpt lat="43.56095108171249" lon="11.296266684913748"><ele>499.5</ele><time>2026-03-22T19:06:00.999Z</time></trkpt><trkpt lat="43.561058751303655" lon="11.296173963842385"><ele>499.0</ele><time>2026-03-22T19:06:01.999Z</time></trkpt><trkpt lat="43.561161339183336" lon="11.296114840914978"><ele>501.5</ele><time>2026-03-22T19:06:02.999Z</time></trkpt><trkpt lat="43.56125527901414" lon="11.296030595113608"><ele>504.0</ele><time>2026-03-22T19:06:03.999Z</time></trkpt><trkpt lat="43.561347665928444" lon="11.295940433977202"><ele>506.5</ele><time>2026-03-22T19:06:04.999Z</time></trkpt><trkpt lat="43.56143953242871" lon="11.295850513581746"><ele>509.0</ele><time>2026-03-22T19:06:05.999Z</time></trkpt><trkpt lat="43.5615305213716" lon="11.295755100642904"><ele>509.0</ele><time>2026-03-22T19:06:06.999Z</time></trkpt><trkpt lat="43.56163374556262" lon="11.295696300468197"><ele>509.0</ele><time>2026-03-22T19:06:07.999Z</time></trkpt><trkpt lat="43.561735016318366" lon="11.295639853254869"><ele>509.0</ele><time>2026-03-22T19:06:08.999Z</time></trkpt><trkpt lat="43.56183611282009" lon="11.295606995150862"><ele>509.0</ele><time>2026-03-22T19:06:09.999Z</time></trkpt><trkpt lat="43.56193774736931" lon="11.295574565387327"><ele>509.0</ele><time>2026-03-22T19:06:10.999Z</time></trkpt><trkpt lat="43.562032607850334" lon="11.295546677333869"><ele>506.2</ele><time>2026-03-22T19:06:11.999Z</time></trkpt><trkpt lat="43.56212390347351" lon="11.295511641351453"><ele>503.4</ele><time>2026-03-22T19:06:12.999Z</time></trkpt><trkpt lat="43.56219625774169" lon="11.295440831790497"><ele>500.6</ele><time>2026-03-22T19:06:14.001Z</time></trkpt><trkpt lat="43.562269082785605" lon="11.29538080658293"><ele>497.8</ele><time>2026-03-22T19:06:15.001Z</time></trkpt><trkpt lat="43.56229179157694" lon="11.295242708093062"><ele>495.0</ele><time>2026-03-22T19:06:16.001Z</time></trkpt><trkpt lat="43.562303382912646" lon="11.29510452464358"><ele>495.0</ele><time>2026-03-22T19:06:17.001Z</time></trkpt><trkpt lat="43.56230837599294" lon="11.294962560163892"><ele>495.0</ele><time>2026-03-22T19:06:18.001Z</time></trkpt><trkpt lat="43.5623206766814" lon="11.294814597673563"><ele>495.0</ele><time>2026-03-22T19:06:19Z</time></trkpt><trkpt lat="43.5623386254365" lon="11.294657526011502"><ele>495.0</ele><time>2026-03-22T19:06:20Z</time></trkpt><trkpt lat="43.56237046684716" lon="11.294508967051874"><ele>495.0</ele><time>2026-03-22T19:06:21.001Z</time></trkpt><trkpt lat="43.56240405376364" lon="11.294359693705143"><ele>494.4</ele><time>2026-03-22T19:06:22Z</time></trkpt><trkpt lat="43.562441914807096" lon="11.294210167274828"><ele>493.8</ele><time>2026-03-22T19:06:23Z</time></trkpt><trkpt lat="43.562477172112374" lon="11.29406914905861"><ele>493.20000000000005</ele><time>2026-03-22T19:06:24Z</time></trkpt><trkpt lat="43.56251576669446" lon="11.293935469601"><ele>492.6</ele><time>2026-03-22T19:06:25Z</time></trkpt><trkpt lat="43.56255498685715" lon="11.293805335348768"><ele>492.0</ele><time>2026-03-22T19:06:26Z</time></trkpt><trkpt lat="43.56259682580381" lon="11.293676600255608"><ele>491.20000000000005</ele><time>2026-03-22T19:06:27Z</time></trkpt><trkpt lat="43.562642716789604" lon="11.29354243685952"><ele>490.40000000000003</ele><time>2026-03-22T19:06:28Z</time></trkpt><trkpt lat="43.56268916584308" lon="11.293416277461539"><ele>489.59999999999997</ele><time>2026-03-22T19:06:29Z</time></trkpt><trkpt lat="43.56273554514559" lon="11.293294650855756"><ele>488.79999999999995</ele><time>2026-03-22T19:06:30Z</time></trkpt><trkpt lat="43.56279489762873" lon="11.29318756051532"><ele>488.0</ele><time>2026-03-22T19:06:31Z</time></trkpt><trkpt lat="43.56284903557825" lon="11.293071887829896"><ele>485.59999999999997</ele><time>2026-03-22T19:06:32Z</time></trkpt><trkpt lat="43.56290688065159" lon="11.292960429554789"><ele>483.19999999999993</ele><time>2026-03-22T19:06:33Z</time></trkpt><trkpt lat="43.56297169003158" lon="11.292850275971098"><ele>480.8</ele><time>2026-03-22T19:06:34Z</time></trkpt><trkpt lat="43.563042542733065" lon="11.292734896193833"><ele>478.4</ele><time>2026-03-22T19:06:35Z</time></trkpt><trkpt lat="43.56311347121224" lon="11.292592703795789"><ele>476.0</ele><time>2026-03-22T19:06:36Z</time></trkpt><trkpt lat="43.56319810152127" lon="11.29248679587226"><ele>476.0</ele><time>2026-03-22T19:06:37Z</time></trkpt><trkpt lat="43.56328366788177" lon="11.292389571066373"><ele>476.0</ele><time>2026-03-22T19:06:38Z</time></trkpt><trkpt lat="43.563381581355344" lon="11.292326690144918"><ele>476.0</ele><time>2026-03-22T19:06:39Z</time></trkpt><trkpt lat="43.563473114760576" lon="11.29223356166603"><ele>476.0</ele><time>2026-03-22T19:06:40Z</time></trkpt><trkpt lat="43.56356781230486" lon="11.292167522090574"><ele>476.0</ele><time>2026-03-22T19:06:41Z</time></trkpt><trkpt lat="43.56366154240983" lon="11.292108358916645"><ele>473.4</ele><time>2026-03-22T19:06:42Z</time></trkpt><trkpt lat="43.563758559575916" lon="11.292050513905025"><ele>470.8</ele><time>2026-03-22T19:06:43Z</time></trkpt><trkpt lat="43.563858073341265" lon="11.292031532489315"><ele>468.19999999999993</ele><time>2026-03-22T19:06:44Z</time></trkpt><trkpt lat="43.56394655616735" lon="11.291984680681837"><ele>465.59999999999997</ele><time>2026-03-22T19:06:45Z</time></trkpt><trkpt lat="43.564034894809986" lon="11.291975613681199"><ele>463.0</ele><time>2026-03-22T19:06:46Z</time></trkpt><trkpt lat="43.56411959289288" lon="11.291959053820262"><ele>463.00000000000006</ele><time>2026-03-22T19:06:47Z</time></trkpt><trkpt lat="43.564190880423475" lon="11.291931153041364"><ele>463.0</ele><time>2026-03-22T19:06:48Z</time></trkpt><trkpt lat="43.56425581712724" lon="11.291876736006293"><ele>463.0</ele><time>2026-03-22T19:06:49Z</time></trkpt><trkpt lat="43.56430480050701" lon="11.29179500846765"><ele>463.0</ele><time>2026-03-22T19:06:50Z</time></trkpt><trkpt lat="43.564362390502474" lon="11.291664615296176"><ele>463.00000000000006</ele><time>2026-03-22T19:06:52Z</time></trkpt><trkpt lat="43.5644167564662" lon="11.291593829292449"><ele>463.0</ele><time>2026-03-22T19:06:54Z</time></trkpt><trkpt lat="43.5644498845035" lon="11.291486088178534"><ele>461.25</ele><time>2026-03-22T19:06:57Z</time></trkpt><trkpt lat="43.564395447260196" lon="11.291103999115473"><ele>459.5</ele><time>2026-03-22T19:06:58Z</time></trkpt><trkpt lat="43.56445551973387" lon="11.291055657894628"><ele>457.75</ele><time>2026-03-22T19:06:59Z</time></trkpt><trkpt lat="43.564532993412875" lon="11.290994249318432"><ele>456.0</ele><time>2026-03-22T19:07:01Z</time></trkpt><trkpt lat="43.56459670160798" lon="11.290943985081078"><ele>455.6</ele><time>2026-03-22T19:07:03Z</time></trkpt><trkpt lat="43.56465519043772" lon="11.290897838814882"><ele>455.20000000000005</ele><time>2026-03-22T19:07:05Z</time></trkpt><trkpt lat="43.56471222927712" lon="11.29085224170164"><ele>454.79999999999995</ele><time>2026-03-22T19:07:07Z</time></trkpt><trkpt lat="43.56477779485237" lon="11.290798631262657"><ele>454.4</ele><time>2026-03-22T19:07:09Z</time></trkpt><trkpt lat="43.56483647103113" lon="11.290750653975264"><ele>454.0</ele><time>2026-03-22T19:07:12Z</time></trkpt><trkpt lat="43.565204434115195" lon="11.291334517147973"><ele>453.79999999999995</ele><time>2026-03-22T19:07:33Z</time></trkpt><trkpt lat="43.565249061152876" lon="11.291425315812816"><ele>453.59999999999997</ele><time>2026-03-22T19:07:35Z</time></trkpt><trkpt lat="43.565443643628974" lon="11.291384460126178"><ele>453.4</ele><time>2026-03-22T19:07:37Z</time></trkpt><trkpt lat="43.565496530861154" lon="11.291487272757523"><ele>453.2</ele><time>2026-03-22T19:07:39Z</time></trkpt><trkpt lat="43.5655539244894" lon="11.291540505065534"><ele>453.0</ele><time>2026-03-22T19:07:41.999Z</time></trkpt><trkpt lat="43.56562247493799" lon="11.291608474844837"><ele>451.0</ele><time>2026-03-22T19:07:46.999Z</time></trkpt><trkpt lat="43.565689460057456" lon="11.29164364165428"><ele>448.99999999999994</ele><time>2026-03-22T19:07:49.999Z</time></trkpt><trkpt lat="43.565784707926944" lon="11.291669135998202"><ele>446.99999999999994</ele><time>2026-03-22T19:07:53.999Z</time></trkpt><trkpt lat="43.56591073857035" lon="11.291756132867741"><ele>445.0</ele><time>2026-03-22T19:07:55.999Z</time></trkpt><trkpt lat="43.56596790976623" lon="11.29182995633357"><ele>443.0</ele><time>2026-03-22T19:07:56.999Z</time></trkpt><trkpt lat="43.56601656383089" lon="11.291909134860148"><ele>443.0</ele><time>2026-03-22T19:07:57.999Z</time></trkpt><trkpt lat="43.56606392595428" lon="11.291991465560773"><ele>442.99999999999994</ele><time>2026-03-22T19:07:58.999Z</time></trkpt><trkpt lat="43.566109507383246" lon="11.292074297518647"><ele>442.99999999999994</ele><time>2026-03-22T19:07:59.999Z</time></trkpt><trkpt lat="43.566181283164326" lon="11.292200360724035"><ele>443.0</ele><time>2026-03-22T19:08:01.999Z</time></trkpt><trkpt lat="43.56618841338725" lon="11.292289328843994"><ele>443.0</ele><time>2026-03-22T19:08:04.999Z</time></trkpt><trkpt lat="43.56632604034758" lon="11.292167456950818"><ele>441.4</ele><time>2026-03-22T19:08:06.999Z</time></trkpt><trkpt lat="43.566387847466956" lon="11.292101233346862"><ele>439.79999999999995</ele><time>2026-03-22T19:08:07.999Z</time></trkpt><trkpt lat="43.566485513696655" lon="11.292005959585076"><ele>438.2</ele><time>2026-03-22T19:08:09.999Z</time></trkpt><trkpt lat="43.56660464628182" lon="11.292057756977824"><ele>436.6</ele><time>2026-03-22T19:08:11.999Z</time></trkpt><trkpt lat="43.566674060298" lon="11.292069310250298"><ele>435.0</ele><time>2026-03-22T19:08:12.999Z</time></trkpt><trkpt lat="43.56675285959948" lon="11.292076938555088"><ele>435.0</ele><time>2026-03-22T19:08:13.999Z</time></trkpt><trkpt lat="43.5668312422911" lon="11.292077254772275"><ele>435.0</ele><time>2026-03-22T19:08:14.999Z</time></trkpt><trkpt lat="43.5669007685475" lon="11.292073954274194"><ele>435.0</ele><time>2026-03-22T19:08:15.999Z</time></trkpt><trkpt lat="43.56697087179201" lon="11.292074758836844"><ele>435.0</ele><time>2026-03-22T19:08:16.999Z</time></trkpt><trkpt lat="43.567044209937016" lon="11.292052789441565"><ele>435.0</ele><time>2026-03-22T19:08:17.999Z</time></trkpt><trkpt lat="43.567120904048856" lon="11.292030964918224"><ele>435.0</ele><time>2026-03-22T19:08:18.999Z</time></trkpt><trkpt lat="43.56721865144367" lon="11.292003149364536"><ele>434.5</ele><time>2026-03-22T19:08:20Z</time></trkpt><trkpt lat="43.56730679563688" lon="11.2919957022725"><ele>434.0</ele><time>2026-03-22T19:08:21Z</time></trkpt><trkpt lat="43.56737092740506" lon="11.291941371106573"><ele>433.5</ele><time>2026-03-22T19:08:22Z</time></trkpt><trkpt lat="43.567437086996186" lon="11.29192548954514"><ele>433.0</ele><time>2026-03-22T19:08:23Z</time></trkpt><trkpt lat="43.567528427303735" lon="11.292006860738418"><ele>432.5</ele><time>2026-03-22T19:08:25Z</time></trkpt><trkpt lat="43.56758092735346" lon="11.292057042634701"><ele>432.0</ele><time>2026-03-22T19:08:26Z</time></trkpt><trkpt lat="43.567663527175654" lon="11.292103195573144"><ele>432.0</ele><time>2026-03-22T19:08:27Z</time></trkpt><trkpt lat="43.567730326210715" lon="11.292164311176291"><ele>432.0</ele><time>2026-03-22T19:08:28Z</time></trkpt><trkpt lat="43.56780721311419" lon="11.292221248814283"><ele>432.0</ele><time>2026-03-22T19:08:29Z</time></trkpt><trkpt lat="43.567879305459456" lon="11.292286538823204"><ele>432.0</ele><time>2026-03-22T19:08:30Z</time></trkpt><trkpt lat="43.567947700148295" lon="11.292360595571436"><ele>432.0</ele><time>2026-03-22T19:08:31Z</time></trkpt><trkpt lat="43.56801537499905" lon="11.292448598401736"><ele>432.0</ele><time>2026-03-22T19:08:32Z</time></trkpt><trkpt lat="43.56807129576973" lon="11.292527043815573"><ele>429.8333333333333</ele><time>2026-03-22T19:08:33Z</time></trkpt><trkpt lat="43.56812429766241" lon="11.292596939586703"><ele>427.66666666666663</ele><time>2026-03-22T19:08:34Z</time></trkpt><trkpt lat="43.56818871194905" lon="11.292650672731176"><ele>425.5</ele><time>2026-03-22T19:08:35Z</time></trkpt><trkpt lat="43.56824573651816" lon="11.292688436414663"><ele>423.3333333333333</ele><time>2026-03-22T19:08:36Z</time></trkpt><trkpt lat="43.56830608056072" lon="11.292802649934632"><ele>421.16666666666663</ele><time>2026-03-22T19:08:37Z</time></trkpt><trkpt lat="43.56837319278368" lon="11.292870401651362"><ele>419.0</ele><time>2026-03-22T19:08:38Z</time></trkpt><trkpt lat="43.5684508383107" lon="11.292948787108902"><ele>419.0</ele><time>2026-03-22T19:08:39Z</time></trkpt><trkpt lat="43.56854329537408" lon="11.293039169115556"><ele>419.0</ele><time>2026-03-22T19:08:40Z</time></trkpt><trkpt lat="43.56863148181616" lon="11.293124173153263"><ele>419.0</ele><time>2026-03-22T19:08:41Z</time></trkpt><trkpt lat="43.56870719567823" lon="11.293197154710633"><ele>419.0</ele><time>2026-03-22T19:08:42Z</time></trkpt><trkpt lat="43.56877472151317" lon="11.293262243692714"><ele>419.0</ele><time>2026-03-22T19:08:43Z</time></trkpt><trkpt lat="43.56883841998765" lon="11.293322611173274"><ele>416.16666666666663</ele><time>2026-03-22T19:08:44Z</time></trkpt><trkpt lat="43.56890660480303" lon="11.293386728277635"><ele>413.3333333333333</ele><time>2026-03-22T19:08:45Z</time></trkpt><trkpt lat="43.56896674450399" lon="11.293445555722995"><ele>410.5</ele><time>2026-03-22T19:08:46Z</time></trkpt><trkpt lat="43.56902072735616" lon="11.293510308222405"><ele>407.66666666666663</ele><time>2026-03-22T19:08:47Z</time></trkpt><trkpt lat="43.56905359635808" lon="11.29358450172407"><ele>404.8333333333333</ele><time>2026-03-22T19:08:48Z</time></trkpt><trkpt lat="43.56909850101133" lon="11.293666122946284"><ele>402.0</ele><time>2026-03-22T19:08:49Z</time></trkpt><trkpt lat="43.569157268633724" lon="11.293751802830585"><ele>402.0</ele><time>2026-03-22T19:08:50Z</time></trkpt><trkpt lat="43.569223706721715" lon="11.293834192492517"><ele>402.0</ele><time>2026-03-22T19:08:51Z</time></trkpt><trkpt lat="43.56926241541417" lon="11.293902791475173"><ele>402.0</ele><time>2026-03-22T19:08:52Z</time></trkpt><trkpt lat="43.569330116704435" lon="11.293940416382062"><ele>402.0</ele><time>2026-03-22T19:08:53Z</time></trkpt><trkpt lat="43.56941573067442" lon="11.293954414035081"><ele>402.0</ele><time>2026-03-22T19:08:54Z</time></trkpt><trkpt lat="43.56951576170875" lon="11.293978035582027"><ele>402.0</ele><time>2026-03-22T19:08:55Z</time></trkpt><trkpt lat="43.56960329264658" lon="11.294022568436052"><ele>398.6666666666667</ele><time>2026-03-22T19:08:56Z</time></trkpt><trkpt lat="43.56965577863664" lon="11.294085454361326"><ele>395.3333333333333</ele><time>2026-03-22T19:08:57Z</time></trkpt><trkpt lat="43.569744886620214" lon="11.294167678487563"><ele>392.0</ele><time>2026-03-22T19:08:59Z</time></trkpt><trkpt lat="43.569817048948195" lon="11.294311747789273"><ele>388.66666666666663</ele><time>2026-03-22T19:09:01Z</time></trkpt><trkpt lat="43.56984364149641" lon="11.29439506111144"><ele>385.3333333333333</ele><time>2026-03-22T19:09:02Z</time></trkpt><trkpt lat="43.56988934130155" lon="11.294476053539565"><ele>382.0</ele><time>2026-03-22T19:09:03Z</time></trkpt><trkpt lat="43.569924685594906" lon="11.294551977001536"><ele>382.0</ele><time>2026-03-22T19:09:04Z</time></trkpt><trkpt lat="43.56997536165096" lon="11.294614573441628"><ele>382.0</ele><time>2026-03-22T19:09:05Z</time></trkpt><trkpt lat="43.570035135456024" lon="11.294663932927543"><ele>382.0</ele><time>2026-03-22T19:09:06Z</time></trkpt><trkpt lat="43.570086960139456" lon="11.294720788486687"><ele>382.0</ele><time>2026-03-22T19:09:07Z</time></trkpt><trkpt lat="43.57015701625375" lon="11.294875616805513"><ele>382.0</ele><time>2026-03-22T19:09:09Z</time></trkpt><trkpt lat="43.57019852257217" lon="11.294946859565952"><ele>382.0</ele><time>2026-03-22T19:09:10Z</time></trkpt><trkpt lat="43.57024559923439" lon="11.295026483668074"><ele>380.5</ele><time>2026-03-22T19:09:11Z</time></trkpt><trkpt lat="43.570293348714316" lon="11.295106891837717"><ele>379.0</ele><time>2026-03-22T19:09:12Z</time></trkpt><trkpt lat="43.57035159506907" lon="11.295202657583653"><ele>377.5</ele><time>2026-03-22T19:09:13Z</time></trkpt><trkpt lat="43.57041442616395" lon="11.2953058755377"><ele>376.0</ele><time>2026-03-22T19:09:14Z</time></trkpt><trkpt lat="43.570471262074165" lon="11.295390791974409"><ele>374.5</ele><time>2026-03-22T19:09:15Z</time></trkpt><trkpt lat="43.570551374376514" lon="11.295477041479321"><ele>373.0</ele><time>2026-03-22T19:09:17Z</time></trkpt><trkpt lat="43.57060225438298" lon="11.295404182125989"><ele>370.3333333333333</ele><time>2026-03-22T19:09:19Z</time></trkpt><trkpt lat="43.5706895630584" lon="11.295336800919697"><ele>367.66666666666663</ele><time>2026-03-22T19:09:21Z</time></trkpt><trkpt lat="43.570744334649746" lon="11.295279329838197"><ele>365.0</ele><time>2026-03-22T19:09:22Z</time></trkpt><trkpt lat="43.5708024773505" lon="11.2952278048657"><ele>362.3333333333333</ele><time>2026-03-22T19:09:23Z</time></trkpt><trkpt lat="43.570858659340196" lon="11.295187745211736"><ele>359.6666666666667</ele><time>2026-03-22T19:09:24Z</time></trkpt><trkpt lat="43.57097032086672" lon="11.29517455920401"><ele>357.0</ele><time>2026-03-22T19:09:26Z</time></trkpt><trkpt lat="43.571085746652855" lon="11.29524072639225"><ele>357.0</ele><time>2026-03-22T19:09:28Z</time></trkpt><trkpt lat="43.57114417834238" lon="11.295278565506527"><ele>357.0</ele><time>2026-03-22T19:09:29Z</time></trkpt><trkpt lat="43.571255453964305" lon="11.295340095737341"><ele>357.0</ele><time>2026-03-22T19:09:31Z</time></trkpt><trkpt lat="43.57132295070183" lon="11.295385556777171"><ele>357.0</ele><time>2026-03-22T19:09:32Z</time></trkpt><trkpt lat="43.57139166049635" lon="11.295424915179872"><ele>357.0</ele><time>2026-03-22T19:09:32.999Z</time></trkpt><trkpt lat="43.57146291322644" lon="11.295465997025234"><ele>357.0</ele><time>2026-03-22T19:09:33.999Z</time></trkpt><trkpt lat="43.57153088500944" lon="11.295502527333701"><ele>354.0</ele><time>2026-03-22T19:09:34.999Z</time></trkpt><trkpt lat="43.57159083789808" lon="11.295539929478398"><ele>351.0</ele><time>2026-03-22T19:09:35.999Z</time></trkpt><trkpt lat="43.57167592375764" lon="11.295650726830848"><ele>348.0</ele><time>2026-03-22T19:09:37.999Z</time></trkpt><trkpt lat="43.57167645770661" lon="11.295747806756518"><ele>345.0</ele><time>2026-03-22T19:09:38.999Z</time></trkpt><trkpt lat="43.571665291863575" lon="11.295858974942389"><ele>342.0</ele><time>2026-03-22T19:09:39.999Z</time></trkpt><trkpt lat="43.57163294876343" lon="11.295973380463485"><ele>339.0</ele><time>2026-03-22T19:09:40.999Z</time></trkpt><trkpt lat="43.57159142616093" lon="11.296052681650696"><ele>338.6666666666667</ele><time>2026-03-22T19:09:41.999Z</time></trkpt><trkpt lat="43.57157504934655" lon="11.296142173081762"><ele>338.3333333333333</ele><time>2026-03-22T19:09:42.999Z</time></trkpt><trkpt lat="43.571536112032" lon="11.296272636337383"><ele>338.0</ele><time>2026-03-22T19:09:44.999Z</time></trkpt><trkpt lat="43.57155436745406" lon="11.296403980067318"><ele>337.66666666666663</ele><time>2026-03-22T19:09:46.999Z</time></trkpt><trkpt lat="43.57162197889141" lon="11.296449430587144"><ele>337.3333333333333</ele><time>2026-03-22T19:09:47.999Z</time></trkpt><trkpt lat="43.571680428339214" lon="11.296501615286308"><ele>337.0</ele><time>2026-03-22T19:09:48.999Z</time></trkpt><trkpt lat="43.57174373627129" lon="11.296548880799127"><ele>335.8333333333333</ele><time>2026-03-22T19:09:49.999Z</time></trkpt><trkpt lat="43.57179346943744" lon="11.296621387612404"><ele>334.66666666666663</ele><time>2026-03-22T19:09:50.999Z</time></trkpt><trkpt lat="43.57184281661091" lon="11.296679780076287"><ele>333.5</ele><time>2026-03-22T19:09:51.999Z</time></trkpt><trkpt lat="43.57192735057715" lon="11.29680566735194"><ele>332.3333333333333</ele><time>2026-03-22T19:09:53.999Z</time></trkpt><trkpt lat="43.57199421833882" lon="11.29693114518015"><ele>331.1666666666667</ele><time>2026-03-22T19:09:55.999Z</time></trkpt><trkpt lat="43.5720309135873" lon="11.29700552293904"><ele>330.0</ele><time>2026-03-22T19:09:56.999Z</time></trkpt><trkpt lat="43.57209952295448" lon="11.297073953746612"><ele>328.8</ele><time>2026-03-22T19:09:57.999Z</time></trkpt><trkpt lat="43.57216444289227" lon="11.29713740697497"><ele>327.6</ele><time>2026-03-22T19:09:58.999Z</time></trkpt><trkpt lat="43.57225265999762" lon="11.29723742524011"><ele>326.4</ele><time>2026-03-22T19:09:59.999Z</time></trkpt><trkpt lat="43.57233982614651" lon="11.297310164590952"><ele>325.2</ele><time>2026-03-22T19:10:00.999Z</time></trkpt><trkpt lat="43.57241805187614" lon="11.297374230227616"><ele>324.0</ele><time>2026-03-22T19:10:01.999Z</time></trkpt><trkpt lat="43.5724806559119" lon="11.297428770807556"><ele>324.2857142857143</ele><time>2026-03-22T19:10:02.999Z</time></trkpt><trkpt lat="43.57254554184151" lon="11.297488716843452"><ele>324.57142857142856</ele><time>2026-03-22T19:10:03.999Z</time></trkpt><trkpt lat="43.572604102637726" lon="11.297541309836982"><ele>324.8571428571429</ele><time>2026-03-22T19:10:04.999Z</time></trkpt><trkpt lat="43.572671089411216" lon="11.297585757836169"><ele>325.1428571428571</ele><time>2026-03-22T19:10:05.999Z</time></trkpt><trkpt lat="43.57273449711213" lon="11.297614643408654"><ele>325.4285714285714</ele><time>2026-03-22T19:10:06.999Z</time></trkpt><trkpt lat="43.57280987160799" lon="11.297608399711045"><ele>325.7142857142857</ele><time>2026-03-22T19:10:07.999Z</time></trkpt><trkpt lat="43.572880449955086" lon="11.297548992043026"><ele>326.0</ele><time>2026-03-22T19:10:08.999Z</time></trkpt><trkpt lat="43.572996868887586" lon="11.297558635578959"><ele>326.0</ele><time>2026-03-22T19:10:10.999Z</time></trkpt><trkpt lat="43.57305904486237" lon="11.297625753963969"><ele>326.0</ele><time>2026-03-22T19:10:11.999Z</time></trkpt><trkpt lat="43.57312897581455" lon="11.297683582512834"><ele>326.0</ele><time>2026-03-22T19:10:12.999Z</time></trkpt><trkpt lat="43.57321071646904" lon="11.297763035136924"><ele>326.0</ele><time>2026-03-22T19:10:13.999Z</time></trkpt><trkpt lat="43.57329747087362" lon="11.297858948566914"><ele>326.0</ele><time>2026-03-22T19:10:14.999Z</time></trkpt><trkpt lat="43.57339150854156" lon="11.297944125821408"><ele>326.0</ele><time>2026-03-22T19:10:15.999Z</time></trkpt><trkpt lat="43.573489827255166" lon="11.298062248626495"><ele>326.0</ele><time>2026-03-22T19:10:16.999Z</time></trkpt><trkpt lat="43.57356695983409" lon="11.298164699372185"><ele>326.0</ele><time>2026-03-22T19:10:17.999Z</time></trkpt><trkpt lat="43.5736393767667" lon="11.298258232671396"><ele>326.0</ele><time>2026-03-22T19:10:18.999Z</time></trkpt><trkpt lat="43.57370196489627" lon="11.29834750750316"><ele>326.0</ele><time>2026-03-22T19:10:19.999Z</time></trkpt><trkpt lat="43.57375405963449" lon="11.298422186044947"><ele>326.25</ele><time>2026-03-22T19:10:20.999Z</time></trkpt><trkpt lat="43.57389090328152" lon="11.29849051282134"><ele>326.5</ele><time>2026-03-22T19:10:22.999Z</time></trkpt><trkpt lat="43.57398070713276" lon="11.298502858350437"><ele>326.75</ele><time>2026-03-22T19:10:23.999Z</time></trkpt><trkpt lat="43.57408184789731" lon="11.298533317199471"><ele>327.0</ele><time>2026-03-22T19:10:24.999Z</time></trkpt><trkpt lat="43.57419479621682" lon="11.298549060509522"><ele>327.0</ele><time>2026-03-22T19:10:26Z</time></trkpt><trkpt lat="43.574276463131504" lon="11.298538432444554"><ele>327.0</ele><time>2026-03-22T19:10:27Z</time></trkpt><trkpt lat="43.57436081389707" lon="11.298649153994928"><ele>327.0</ele><time>2026-03-22T19:10:29Z</time></trkpt><trkpt lat="43.57438114519128" lon="11.298734464557544"><ele>327.0</ele><time>2026-03-22T19:10:30Z</time></trkpt><trkpt lat="43.57441593991134" lon="11.298857234836673"><ele>327.0</ele><time>2026-03-22T19:10:31Z</time></trkpt><trkpt lat="43.57445659202805" lon="11.298948300972345"><ele>327.0</ele><time>2026-03-22T19:10:32Z</time></trkpt><trkpt lat="43.57452081597173" lon="11.299091081901915"><ele>328.1666666666667</ele><time>2026-03-22T19:10:34Z</time></trkpt><trkpt lat="43.574569989790945" lon="11.29917350970837"><ele>329.3333333333333</ele><time>2026-03-22T19:10:35Z</time></trkpt><trkpt lat="43.574619762531256" lon="11.299269954306688"><ele>330.5</ele><time>2026-03-22T19:10:36Z</time></trkpt><trkpt lat="43.57469437723468" lon="11.29940485530707"><ele>331.66666666666663</ele><time>2026-03-22T19:10:38Z</time></trkpt><trkpt lat="43.574737474536064" lon="11.299484530061212"><ele>332.8333333333333</ele><time>2026-03-22T19:10:39Z</time></trkpt><trkpt lat="43.5747818756672" lon="11.299555133049687"><ele>334.0</ele><time>2026-03-22T19:10:40Z</time></trkpt><trkpt lat="43.57488734684798" lon="11.299673888224875"><ele>330.0</ele><time>2026-03-22T19:10:42Z</time></trkpt><trkpt lat="43.57498534440934" lon="11.299775938661973"><ele>326.0</ele><time>2026-03-22T19:10:44Z</time></trkpt><trkpt lat="43.57503617755699" lon="11.299834128290565"><ele>322.0</ele><time>2026-03-22T19:10:45Z</time></trkpt><trkpt lat="43.57513300298094" lon="11.299935912969515"><ele>318.0</ele><time>2026-03-22T19:10:47Z</time></trkpt><trkpt lat="43.57517598469546" lon="11.300004699591113"><ele>314.0</ele><time>2026-03-22T19:10:48Z</time></trkpt><trkpt lat="43.57523511165778" lon="11.300065743997548"><ele>314.0</ele><time>2026-03-22T19:10:49Z</time></trkpt><trkpt lat="43.57532311103751" lon="11.30015312569424"><ele>314.0</ele><time>2026-03-22T19:10:51Z</time></trkpt><trkpt lat="43.575389959962315" lon="11.300210282562553"><ele>314.0</ele><time>2026-03-22T19:10:53Z</time></trkpt><trkpt lat="43.575473964604946" lon="11.300252391578887"><ele>314.0</ele><time>2026-03-22T19:10:55Z</time></trkpt><trkpt lat="43.575601958367386" lon="11.300280621277611"><ele>314.0</ele><time>2026-03-22T19:10:57Z</time></trkpt><trkpt lat="43.575673864265454" lon="11.300277658622292"><ele>313.83333333333337</ele><time>2026-03-22T19:10:58Z</time></trkpt><trkpt lat="43.57573499774515" lon="11.300250036710768"><ele>313.6666666666667</ele><time>2026-03-22T19:10:59Z</time></trkpt><trkpt lat="43.57578892718395" lon="11.300203331260358"><ele>313.5</ele><time>2026-03-22T19:11:00Z</time></trkpt><trkpt lat="43.57586328570205" lon="11.300150730339636"><ele>313.3333333333333</ele><time>2026-03-22T19:11:02Z</time></trkpt><trkpt lat="43.57595466886733" lon="11.300077233838296"><ele>313.16666666666663</ele><time>2026-03-22T19:11:05Z</time></trkpt><trkpt lat="43.576058151665194" lon="11.30004787470771"><ele>313.0</ele><time>2026-03-22T19:11:07Z</time></trkpt><trkpt lat="43.5761441044148" lon="11.299995136054706"><ele>312.8</ele><time>2026-03-22T19:11:09Z</time></trkpt><trkpt lat="43.57622367889917" lon="11.299931333866121"><ele>312.6</ele><time>2026-03-22T19:11:11Z</time></trkpt><trkpt lat="43.5763095416227" lon="11.299882100167695"><ele>312.4</ele><time>2026-03-22T19:11:13Z</time></trkpt><trkpt lat="43.57637640513367" lon="11.299854798824597"><ele>312.2</ele><time>2026-03-22T19:11:30.999Z</time></trkpt><trkpt lat="43.57650202343395" lon="11.299939445816062"><ele>312.0</ele><time>2026-03-22T19:11:35.999Z</time></trkpt><trkpt lat="43.57634568368094" lon="11.300157623364585"><ele>312.0</ele><time>2026-03-22T19:11:36.999Z</time></trkpt><trkpt lat="43.576325796607094" lon="11.300278311527448"><ele>312.0</ele><time>2026-03-22T19:11:37.999Z</time></trkpt><trkpt lat="43.57629897182559" lon="11.300411760750242"><ele>312.0</ele><time>2026-03-22T19:11:38.999Z</time></trkpt><trkpt lat="43.5762739789839" lon="11.300512356947438"><ele>312.0</ele><time>2026-03-22T19:11:39.999Z</time></trkpt><trkpt lat="43.57625486973464" lon="11.300598562346899"><ele>312.0</ele><time>2026-03-22T19:11:40.999Z</time></trkpt><trkpt lat="43.576205412602405" lon="11.300749678479932"><ele>310.0</ele><time>2026-03-22T19:11:42.999Z</time></trkpt><trkpt lat="43.57616381040377" lon="11.300834379589963"><ele>308.0</ele><time>2026-03-22T19:11:43.999Z</time></trkpt><trkpt lat="43.57610871171963" lon="11.30092609232617"><ele>306.0</ele><time>2026-03-22T19:11:44.999Z</time></trkpt><trkpt lat="43.57603835132454" lon="11.301024868686284"><ele>304.0</ele><time>2026-03-22T19:11:45.999Z</time></trkpt><trkpt lat="43.575965709926436" lon="11.30111757587592"><ele>302.0</ele><time>2026-03-22T19:11:46.999Z</time></trkpt><trkpt lat="43.57591714768872" lon="11.301203699179622"><ele>300.0</ele><time>2026-03-22T19:11:47.999Z</time></trkpt><trkpt lat="43.575870409412786" lon="11.301262741245084"><ele>300.0</ele><time>2026-03-22T19:11:48.999Z</time></trkpt><trkpt lat="43.57581254547662" lon="11.301300560779902"><ele>300.0</ele><time>2026-03-22T19:11:49.999Z</time></trkpt><trkpt lat="43.57571274523412" lon="11.30138777362104"><ele>300.0</ele><time>2026-03-22T19:11:51.999Z</time></trkpt><trkpt lat="43.57563217156176" lon="11.301487674388182"><ele>300.0</ele><time>2026-03-22T19:11:53.999Z</time></trkpt><trkpt lat="43.575556059058385" lon="11.301534522122719"><ele>300.0</ele><time>2026-03-22T19:11:55.999Z</time></trkpt><trkpt lat="43.575496126995475" lon="11.301586496167227"><ele>300.0</ele><time>2026-03-22T19:11:57.999Z</time></trkpt><trkpt lat="43.57569081464468" lon="11.301490475136982"><ele>298.0</ele><time>2026-03-22T19:11:59.999Z</time></trkpt><trkpt lat="43.57582422166546" lon="11.301534189839597"><ele>296.0</ele><time>2026-03-22T19:12:01.999Z</time></trkpt><trkpt lat="43.575918981983676" lon="11.301703196450083"><ele>294.0</ele><time>2026-03-22T19:12:02.999Z</time></trkpt><trkpt lat="43.57597504459705" lon="11.301769077863725"><ele>292.0</ele><time>2026-03-22T19:12:07.999Z</time></trkpt><trkpt lat="43.575995570810576" lon="11.301928114394228"><ele>294.3333333333333</ele><time>2026-03-22T19:12:09.999Z</time></trkpt><trkpt lat="43.57576169903048" lon="11.302285789614613"><ele>296.6666666666667</ele><time>2026-03-22T19:12:10.999Z</time></trkpt><trkpt lat="43.57582416887522" lon="11.30237421424717"><ele>299.0</ele><time>2026-03-22T19:12:12.999Z</time></trkpt><trkpt lat="43.57592131125535" lon="11.30237089429546"><ele>299.0</ele><time>2026-03-22T19:12:14.999Z</time></trkpt><trkpt lat="43.57598633342054" lon="11.302380897471949"><ele>299.0</ele><time>2026-03-22T19:12:15.999Z</time></trkpt><trkpt lat="43.576082187738955" lon="11.302399501611292"><ele>299.0</ele><time>2026-03-22T19:12:17.999Z</time></trkpt><trkpt lat="43.5761825531035" lon="11.302417630097896"><ele>299.0</ele><time>2026-03-22T19:12:19.999Z</time></trkpt><trkpt lat="43.57626180984589" lon="11.302428272239998"><ele>299.0</ele><time>2026-03-22T19:12:21.999Z</time></trkpt><trkpt lat="43.57639475075056" lon="11.302419021047202"><ele>298.0</ele><time>2026-03-22T19:12:23.999Z</time></trkpt><trkpt lat="43.57647779586398" lon="11.302412879574087"><ele>297.0</ele><time>2026-03-22T19:12:24.999Z</time></trkpt><trkpt lat="43.57658452694617" lon="11.302409883501122"><ele>296.0</ele><time>2026-03-22T19:12:26.999Z</time></trkpt><trkpt lat="43.57668938404147" lon="11.302463662934016"><ele>295.0</ele><time>2026-03-22T19:12:28.999Z</time></trkpt><trkpt lat="43.576758496714554" lon="11.302563057901137"><ele>294.0</ele><time>2026-03-22T19:12:30.999Z</time></trkpt><trkpt lat="43.57679172152534" lon="11.302650149799797"><ele>294.0</ele><time>2026-03-22T19:12:32Z</time></trkpt><trkpt lat="43.57684208743399" lon="11.302707304312328"><ele>294.0</ele><time>2026-03-22T19:12:33Z</time></trkpt><trkpt lat="43.5768964580589" lon="11.302760321827789"><ele>294.0</ele><time>2026-03-22T19:12:34Z</time></trkpt><trkpt lat="43.57694022762633" lon="11.302832553295465"><ele>294.0</ele><time>2026-03-22T19:12:35Z</time></trkpt><trkpt lat="43.57702532213099" lon="11.30298501938931"><ele>294.0</ele><time>2026-03-22T19:12:37Z</time></trkpt><trkpt lat="43.577104995949675" lon="11.303038759529684"><ele>294.0</ele><time>2026-03-22T19:12:38Z</time></trkpt><trkpt lat="43.577197926842835" lon="11.303070914432912"><ele>293.3333333333333</ele><time>2026-03-22T19:12:40Z</time></trkpt><trkpt lat="43.57726514333121" lon="11.303156253840616"><ele>292.6666666666667</ele><time>2026-03-22T19:12:42Z</time></trkpt><trkpt lat="43.577283268065734" lon="11.303242172941678"><ele>292.0</ele><time>2026-03-22T19:12:43Z</time></trkpt><trkpt lat="43.57733370066634" lon="11.303335794282614"><ele>291.33333333333337</ele><time>2026-03-22T19:12:44Z</time></trkpt><trkpt lat="43.57739117099048" lon="11.30349163344964"><ele>290.6666666666667</ele><time>2026-03-22T19:12:46Z</time></trkpt><trkpt lat="43.577441538661276" lon="11.30357994863416"><ele>290.0</ele><time>2026-03-22T19:12:47Z</time></trkpt><trkpt lat="43.57749310902587" lon="11.303685068448173"><ele>290.0</ele><time>2026-03-22T19:12:48Z</time></trkpt><trkpt lat="43.57753297314287" lon="11.303782167214996"><ele>290.0</ele><time>2026-03-22T19:12:49Z</time></trkpt><trkpt lat="43.57756853556736" lon="11.303864447824106"><ele>290.0</ele><time>2026-03-22T19:12:50Z</time></trkpt><trkpt lat="43.57763247277904" lon="11.304010916848625"><ele>290.0</ele><time>2026-03-22T19:12:52Z</time></trkpt><trkpt lat="43.57768540054713" lon="11.304136131648981"><ele>290.0</ele><time>2026-03-22T19:12:54Z</time></trkpt><trkpt lat="43.577619216370564" lon="11.303952830494504"><ele>290.0</ele><time>2026-03-22T19:13:10Z</time></trkpt><trkpt lat="43.57757226819015" lon="11.303832505445888"><ele>290.0</ele><time>2026-03-22T19:13:11Z</time></trkpt><trkpt lat="43.57752740871981" lon="11.303725327327172"><ele>290.0</ele><time>2026-03-22T19:13:12Z</time></trkpt><trkpt lat="43.57747966565265" lon="11.30362413055236"><ele>290.0</ele><time>2026-03-22T19:13:13Z</time></trkpt><trkpt lat="43.577438410862335" lon="11.303530409021477"><ele>290.0</ele><time>2026-03-22T19:13:14Z</time></trkpt><trkpt lat="43.57739176290686" lon="11.303438174423427"><ele>290.0</ele><time>2026-03-22T19:13:15Z</time></trkpt><trkpt lat="43.57735510601702" lon="11.3033585895344"><ele>290.0</ele><time>2026-03-22T19:13:16Z</time></trkpt><trkpt lat="43.57731182681651" lon="11.303280523198625"><ele>290.0</ele><time>2026-03-22T19:13:17Z</time></trkpt><trkpt lat="43.5772491238528" lon="11.303140007428805"><ele>290.0</ele><time>2026-03-22T19:13:19Z</time></trkpt><trkpt lat="43.57720717806015" lon="11.303074001755325"><ele>290.0</ele><time>2026-03-22T19:13:20Z</time></trkpt><trkpt lat="43.57710927566425" lon="11.303031189633355"><ele>290.0</ele><time>2026-03-22T19:13:22Z</time></trkpt><trkpt lat="43.5769809468946" lon="11.302971069542197"><ele>290.8</ele><time>2026-03-22T19:13:24Z</time></trkpt><trkpt lat="43.576946167070794" lon="11.302893855119546"><ele>291.6</ele><time>2026-03-22T19:13:25Z</time></trkpt><trkpt lat="43.5769201111472" lon="11.302802750772045"><ele>292.4</ele><time>2026-03-22T19:13:26Z</time></trkpt><trkpt lat="43.57686909148405" lon="11.302712122375025"><ele>293.2</ele><time>2026-03-22T19:13:27.999Z</time></trkpt><trkpt lat="43.576772029961376" lon="11.302595390963587"><ele>294.0</ele><time>2026-03-22T19:13:29.999Z</time></trkpt><trkpt lat="43.576704113516996" lon="11.302478304284822"><ele>294.0</ele><time>2026-03-22T19:13:31.999Z</time></trkpt><trkpt lat="43.57663732928804" lon="11.302436527644584"><ele>294.0</ele><time>2026-03-22T19:13:32.999Z</time></trkpt><trkpt lat="43.57656548985556" lon="11.302421982930378"><ele>294.0</ele><time>2026-03-22T19:13:33.999Z</time></trkpt><trkpt lat="43.57650138567171" lon="11.302418924856921"><ele>294.0</ele><time>2026-03-22T19:13:34.999Z</time></trkpt><trkpt lat="43.5764274928436" lon="11.302436592580147"><ele>294.0</ele><time>2026-03-22T19:13:35.999Z</time></trkpt><trkpt lat="43.57635591483239" lon="11.302448355913333"><ele>294.0</ele><time>2026-03-22T19:13:36.999Z</time></trkpt><trkpt lat="43.576287604423044" lon="11.302448168088754"><ele>294.0</ele><time>2026-03-22T19:13:37.999Z</time></trkpt><trkpt lat="43.57622202500145" lon="11.302448661143744"><ele>294.8333333333333</ele><time>2026-03-22T19:13:38.999Z</time></trkpt><trkpt lat="43.576147173730526" lon="11.302444990888779"><ele>295.6666666666667</ele><time>2026-03-22T19:13:39.999Z</time></trkpt><trkpt lat="43.57607702302288" lon="11.302425728479706"><ele>296.5</ele><time>2026-03-22T19:13:40.999Z</time></trkpt><trkpt lat="43.576006231923444" lon="11.30241007544302"><ele>297.33333333333337</ele><time>2026-03-22T19:13:41.999Z</time></trkpt><trkpt lat="43.57591883138673" lon="11.302403241037798"><ele>298.1666666666667</ele><time>2026-03-22T19:13:42.999Z</time></trkpt><trkpt lat="43.575844424233985" lon="11.302406410431338"><ele>299.0</ele><time>2026-03-22T19:13:43.999Z</time></trkpt><trkpt lat="43.57575268074535" lon="11.302425216919765"><ele>299.0</ele><time>2026-03-22T19:13:46.999Z</time></trkpt><trkpt lat="43.575707511031105" lon="11.302511615199437"><ele>299.0</ele><time>2026-03-22T19:13:57.999Z</time></trkpt><trkpt lat="43.57561865980302" lon="11.302593871442687"><ele>299.0</ele><time>2026-03-22T19:14:00.999Z</time></trkpt><trkpt lat="43.57554174270764" lon="11.302679138181125"><ele>299.0</ele><time>2026-03-22T19:14:02.999Z</time></trkpt><trkpt lat="43.57545775154554" lon="11.302808675178994"><ele>299.0</ele><time>2026-03-22T19:14:04.999Z</time></trkpt><trkpt lat="43.57541941050258" lon="11.302884992855633"><ele>302.0</ele><time>2026-03-22T19:14:05.999Z</time></trkpt><trkpt lat="43.57534995284137" lon="11.303000965895436"><ele>305.0</ele><time>2026-03-22T19:14:07.999Z</time></trkpt><trkpt lat="43.575314731079786" lon="11.303138974329297"><ele>308.0</ele><time>2026-03-22T19:14:09.999Z</time></trkpt><trkpt lat="43.57529292769636" lon="11.30329857032638"><ele>311.0</ele><time>2026-03-22T19:14:11.999Z</time></trkpt><trkpt lat="43.57526133115048" lon="11.303439029180938"><ele>314.0</ele><time>2026-03-22T19:14:13.999Z</time></trkpt><trkpt lat="43.575310497206225" lon="11.303582407212707"><ele>314.0</ele><time>2026-03-22T19:14:15.999Z</time></trkpt><trkpt lat="43.575344614040226" lon="11.303672827593179"><ele>314.0</ele><time>2026-03-22T19:14:16.999Z</time></trkpt><trkpt lat="43.57537935390083" lon="11.303784136294293"><ele>314.0</ele><time>2026-03-22T19:14:17.999Z</time></trkpt><trkpt lat="43.57541576729258" lon="11.303895069613622"><ele>314.0</ele><time>2026-03-22T19:14:18.999Z</time></trkpt><trkpt lat="43.57548256640369" lon="11.304036711600267"><ele>314.0</ele><time>2026-03-22T19:14:20.999Z</time></trkpt><trkpt lat="43.575512511353146" lon="11.30411569340283"><ele>314.0</ele><time>2026-03-22T19:14:21.999Z</time></trkpt><trkpt lat="43.575536916503886" lon="11.304200039551253"><ele>315.6</ele><time>2026-03-22T19:14:22.999Z</time></trkpt><trkpt lat="43.57559566563144" lon="11.304360125616283"><ele>317.2</ele><time>2026-03-22T19:14:24.999Z</time></trkpt><trkpt lat="43.575643155474324" lon="11.304463225636376"><ele>318.8</ele><time>2026-03-22T19:14:25.999Z</time></trkpt><trkpt lat="43.57566676003529" lon="11.304592087424465"><ele>320.40000000000003</ele><time>2026-03-22T19:14:27.999Z</time></trkpt><trkpt lat="43.57564022461277" lon="11.304693276024203"><ele>322.0</ele><time>2026-03-22T19:14:29.999Z</time></trkpt><trkpt lat="43.57556568301427" lon="11.304847808160924"><ele>323.8</ele><time>2026-03-22T19:14:31.999Z</time></trkpt><trkpt lat="43.57552107324785" lon="11.304939810730067"><ele>325.6</ele><time>2026-03-22T19:14:32.999Z</time></trkpt><trkpt lat="43.57547346242695" lon="11.305103805431422"><ele>327.40000000000003</ele><time>2026-03-22T19:14:34.999Z</time></trkpt><trkpt lat="43.575445911413006" lon="11.305194598829633"><ele>329.20000000000005</ele><time>2026-03-22T19:14:35.999Z</time></trkpt><trkpt lat="43.57539062397839" lon="11.30533225743088"><ele>331.0</ele><time>2026-03-22T19:14:38Z</time></trkpt><trkpt lat="43.575352770805615" lon="11.305426476206268"><ele>331.0</ele><time>2026-03-22T19:14:40Z</time></trkpt><trkpt lat="43.57538198019841" lon="11.30550927315733"><ele>331.0</ele><time>2026-03-22T19:14:43Z</time></trkpt><trkpt lat="43.575453481895195" lon="11.305538227480685"><ele>331.0</ele><time>2026-03-22T19:14:46Z</time></trkpt><trkpt lat="43.575552821351806" lon="11.305555823863202"><ele>331.0</ele><time>2026-03-22T19:14:49Z</time></trkpt><trkpt lat="43.575634535190474" lon="11.305593130470998"><ele>331.0</ele><time>2026-03-22T19:14:51Z</time></trkpt><trkpt lat="43.575715138290796" lon="11.305611691139308"><ele>331.0</ele><time>2026-03-22T19:14:52Z</time></trkpt><trkpt lat="43.57578482419282" lon="11.305638276138284"><ele>334.16666666666663</ele><time>2026-03-22T19:14:53Z</time></trkpt><trkpt lat="43.57590140520405" lon="11.30565501769882"><ele>337.3333333333333</ele><time>2026-03-22T19:14:55Z</time></trkpt><trkpt lat="43.576007267749276" lon="11.305693044463709"><ele>340.5</ele><time>2026-03-22T19:14:57Z</time></trkpt><trkpt lat="43.57607247742158" lon="11.305711290738369"><ele>343.6666666666667</ele><time>2026-03-22T19:14:59Z</time></trkpt><trkpt lat="43.57601048922234" lon="11.305686706172489"><ele>346.83333333333337</ele><time>2026-03-22T19:15:06Z</time></trkpt><trkpt lat="43.57593922731906" lon="11.305658620806145"><ele>350.0</ele><time>2026-03-22T19:15:07Z</time></trkpt><trkpt lat="43.57584907320711" lon="11.305636264724562"><ele>350.0</ele><time>2026-03-22T19:15:08Z</time></trkpt><trkpt lat="43.5757443069249" lon="11.305614203594063"><ele>350.0</ele><time>2026-03-22T19:15:09Z</time></trkpt><trkpt lat="43.57563668958738" lon="11.30559505108428"><ele>350.0</ele><time>2026-03-22T19:15:10Z</time></trkpt><trkpt lat="43.575543809852654" lon="11.305568583742522"><ele>350.0</ele><time>2026-03-22T19:15:11Z</time></trkpt><trkpt lat="43.57546799670403" lon="11.305548559761027"><ele>350.0</ele><time>2026-03-22T19:15:12Z</time></trkpt><trkpt lat="43.57540105721595" lon="11.305518818146746"><ele>346.8</ele><time>2026-03-22T19:15:13Z</time></trkpt><trkpt lat="43.57534535098138" lon="11.305475811996967"><ele>343.6</ele><time>2026-03-22T19:15:14Z</time></trkpt><trkpt lat="43.5752461653062" lon="11.3053949061625"><ele>340.4</ele><time>2026-03-22T19:15:16Z</time></trkpt><trkpt lat="43.575130484954194" lon="11.305343628530562"><ele>337.2</ele><time>2026-03-22T19:15:18Z</time></trkpt><trkpt lat="43.57504326139194" lon="11.305246421065565"><ele>334.0</ele><time>2026-03-22T19:15:20Z</time></trkpt><trkpt lat="43.57501032700521" lon="11.305170347651464"><ele>334.0</ele><time>2026-03-22T19:15:21Z</time></trkpt><trkpt lat="43.574950578664364" lon="11.305011611986535"><ele>334.0</ele><time>2026-03-22T19:15:23Z</time></trkpt><trkpt lat="43.574909388906555" lon="11.304942271398254"><ele>334.0</ele><time>2026-03-22T19:15:24Z</time></trkpt><trkpt lat="43.57479737315177" lon="11.304883281485504"><ele>334.0</ele><time>2026-03-22T19:15:26Z</time></trkpt><trkpt lat="43.57468622632333" lon="11.304909583482097"><ele>334.0</ele><time>2026-03-22T19:15:28Z</time></trkpt><trkpt lat="43.574586610639756" lon="11.304933996749078"><ele>333.0</ele><time>2026-03-22T19:15:30Z</time></trkpt><trkpt lat="43.574495594687505" lon="11.304933962832553"><ele>332.0</ele><time>2026-03-22T19:15:31.999Z</time></trkpt><trkpt lat="43.574413839305436" lon="11.304842875672156"><ele>331.0</ele><time>2026-03-22T19:15:33.999Z</time></trkpt><trkpt lat="43.5743276663379" lon="11.304718036634503"><ele>330.0</ele><time>2026-03-22T19:15:35.999Z</time></trkpt><trkpt lat="43.5742159620249" lon="11.304717950655556"><ele>329.0</ele><time>2026-03-22T19:15:37.999Z</time></trkpt><trkpt lat="43.574143046597506" lon="11.304723197173939"><ele>329.0</ele><time>2026-03-22T19:15:38.999Z</time></trkpt><trkpt lat="43.57406060598439" lon="11.304726904643571"><ele>329.0</ele><time>2026-03-22T19:15:39.999Z</time></trkpt><trkpt lat="43.57398702917629" lon="11.304741025389443"><ele>329.0</ele><time>2026-03-22T19:15:40.999Z</time></trkpt><trkpt lat="43.573899188773915" lon="11.304749998818252"><ele>329.0</ele><time>2026-03-22T19:15:41.999Z</time></trkpt><trkpt lat="43.57381463632213" lon="11.304748996371845"><ele>329.0</ele><time>2026-03-22T19:15:42.999Z</time></trkpt><trkpt lat="43.57372017071783" lon="11.30475098972631"><ele>329.0</ele><time>2026-03-22T19:15:43.999Z</time></trkpt><trkpt lat="43.573632985416374" lon="11.304733625591238"><ele>330.79999999999995</ele><time>2026-03-22T19:15:44.999Z</time></trkpt><trkpt lat="43.573547270175766" lon="11.304726139085192"><ele>332.59999999999997</ele><time>2026-03-22T19:15:45.999Z</time></trkpt><trkpt lat="43.57348239938662" lon="11.304730468472346"><ele>334.4</ele><time>2026-03-22T19:15:46.999Z</time></trkpt><trkpt lat="43.573375744557154" lon="11.304792577294782"><ele>336.2</ele><time>2026-03-22T19:15:48.999Z</time></trkpt><trkpt lat="43.57326755542586" lon="11.304914944940972"><ele>338.0</ele><time>2026-03-22T19:15:50.999Z</time></trkpt><trkpt lat="43.57322242902579" lon="11.305000013227533"><ele>340.83333333333337</ele><time>2026-03-22T19:15:51.999Z</time></trkpt><trkpt lat="43.57312237535992" lon="11.305079687759804"><ele>343.6666666666667</ele><time>2026-03-22T19:15:53.999Z</time></trkpt><trkpt lat="43.57305858354205" lon="11.30508317501859"><ele>346.5</ele><time>2026-03-22T19:15:54.999Z</time></trkpt><trkpt lat="43.57296339744897" lon="11.304998244249653"><ele>349.3333333333333</ele><time>2026-03-22T19:15:56.999Z</time></trkpt><trkpt lat="43.57291476363755" lon="11.304923337085366"><ele>352.16666666666663</ele><time>2026-03-22T19:15:57.999Z</time></trkpt><trkpt lat="43.57285887523698" lon="11.304857827064126"><ele>355.0</ele><time>2026-03-22T19:15:58.999Z</time></trkpt><trkpt lat="43.5727464317301" lon="11.304791837315998"><ele>354.4</ele><time>2026-03-22T19:16:00.999Z</time></trkpt><trkpt lat="43.5726776344077" lon="11.304779288414142"><ele>353.8</ele><time>2026-03-22T19:16:01.999Z</time></trkpt><trkpt lat="43.57255915659719" lon="11.304795367167994"><ele>353.20000000000005</ele><time>2026-03-22T19:16:03.999Z</time></trkpt><trkpt lat="43.57246090826616" lon="11.304731871188803"><ele>352.6</ele><time>2026-03-22T19:16:05.999Z</time></trkpt><trkpt lat="43.572421046097475" lon="11.304648097110858"><ele>352.0</ele><time>2026-03-22T19:16:06.999Z</time></trkpt><trkpt lat="43.57235631624388" lon="11.30457063105655"><ele>352.0</ele><time>2026-03-22T19:16:07.999Z</time></trkpt><trkpt lat="43.57229807124469" lon="11.304514158156065"><ele>352.0</ele><time>2026-03-22T19:16:08.999Z</time></trkpt><trkpt lat="43.57222774881814" lon="11.30448120937045"><ele>352.0</ele><time>2026-03-22T19:16:09.999Z</time></trkpt><trkpt lat="43.57213743373783" lon="11.304454934904527"><ele>352.0</ele><time>2026-03-22T19:16:10.999Z</time></trkpt><trkpt lat="43.572037190219554" lon="11.304424594413787"><ele>352.0</ele><time>2026-03-22T19:16:11.999Z</time></trkpt><trkpt lat="43.57196417645745" lon="11.304365596327546"><ele>352.0</ele><time>2026-03-22T19:16:12.999Z</time></trkpt><trkpt lat="43.57190433757103" lon="11.304301836098412"><ele>356.20000000000005</ele><time>2026-03-22T19:16:13.999Z</time></trkpt><trkpt lat="43.57183370631572" lon="11.30423048209121"><ele>360.4</ele><time>2026-03-22T19:16:14.999Z</time></trkpt><trkpt lat="43.57175866892688" lon="11.304195694425873"><ele>364.6</ele><time>2026-03-22T19:16:15.999Z</time></trkpt><trkpt lat="43.57168345759554" lon="11.304179057755096"><ele>368.79999999999995</ele><time>2026-03-22T19:16:16.999Z</time></trkpt><trkpt lat="43.57160830450081" lon="11.304095883217201"><ele>373.0</ele><time>2026-03-22T19:16:18.999Z</time></trkpt><trkpt lat="43.571562545763264" lon="11.303950652835791"><ele>372.16666666666663</ele><time>2026-03-22T19:16:20.999Z</time></trkpt><trkpt lat="43.57152599201034" lon="11.303859144769953"><ele>371.3333333333333</ele><time>2026-03-22T19:16:21.999Z</time></trkpt><trkpt lat="43.571490295539625" lon="11.303767275440308"><ele>370.5</ele><time>2026-03-22T19:16:22.999Z</time></trkpt><trkpt lat="43.57147441183943" lon="11.303677599529289"><ele>369.6666666666667</ele><time>2026-03-22T19:16:23.999Z</time></trkpt><trkpt lat="43.571518959758656" lon="11.303528185472512"><ele>368.83333333333337</ele><time>2026-03-22T19:16:25.999Z</time></trkpt><trkpt lat="43.571535563319785" lon="11.303388447776753"><ele>368.0</ele><time>2026-03-22T19:16:27.999Z</time></trkpt><trkpt lat="43.57151586555438" lon="11.303299045819541"><ele>368.0</ele><time>2026-03-22T19:16:28.999Z</time></trkpt><trkpt lat="43.57150895421019" lon="11.303206971569404"><ele>368.0</ele><time>2026-03-22T19:16:29.999Z</time></trkpt><trkpt lat="43.57149760621837" lon="11.303117918929065"><ele>368.0</ele><time>2026-03-22T19:16:30.999Z</time></trkpt><trkpt lat="43.57146835441756" lon="11.30304041709217"><ele>368.0</ele><time>2026-03-22T19:16:31.999Z</time></trkpt><trkpt lat="43.571429185307494" lon="11.30296143862613"><ele>368.0</ele><time>2026-03-22T19:16:32.999Z</time></trkpt><trkpt lat="43.57139558411919" lon="11.302886827394328"><ele>368.0</ele><time>2026-03-22T19:16:33.999Z</time></trkpt><trkpt lat="43.57135680709921" lon="11.302793761705615"><ele>368.0</ele><time>2026-03-22T19:16:35.999Z</time></trkpt><trkpt lat="43.571272546252374" lon="11.302728216901269"><ele>368.79999999999995</ele><time>2026-03-22T19:16:38.999Z</time></trkpt><trkpt lat="43.571207883091624" lon="11.302693308252396"><ele>369.6</ele><time>2026-03-22T19:16:39.999Z</time></trkpt><trkpt lat="43.57114872571559" lon="11.302660385100198"><ele>370.4</ele><time>2026-03-22T19:16:40.999Z</time></trkpt><trkpt lat="43.57105420713149" lon="11.302641427971944"><ele>371.20000000000005</ele><time>2026-03-22T19:16:42.999Z</time></trkpt><trkpt lat="43.570948784745816" lon="11.302588865756103"><ele>372.0</ele><time>2026-03-22T19:16:45Z</time></trkpt><trkpt lat="43.570874634440436" lon="11.302476720522884"><ele>372.0</ele><time>2026-03-22T19:16:47Z</time></trkpt><trkpt lat="43.57078488748393" lon="11.30236708449076"><ele>372.0</ele><time>2026-03-22T19:16:49Z</time></trkpt><trkpt lat="43.57073383376584" lon="11.302304807221889"><ele>372.0</ele><time>2026-03-22T19:16:50Z</time></trkpt><trkpt lat="43.570683862758756" lon="11.302249232948"><ele>372.0</ele><time>2026-03-22T19:16:51Z</time></trkpt><trkpt lat="43.57065138335937" lon="11.302166526617984"><ele>372.0</ele><time>2026-03-22T19:16:52Z</time></trkpt><trkpt lat="43.57060702076755" lon="11.302073315349135"><ele>372.0</ele><time>2026-03-22T19:16:53Z</time></trkpt><trkpt lat="43.57057233926942" lon="11.301989192570199"><ele>370.40000000000003</ele><time>2026-03-22T19:16:54Z</time></trkpt><trkpt lat="43.57055647801708" lon="11.301856385718109"><ele>368.8</ele><time>2026-03-22T19:16:56Z</time></trkpt><trkpt lat="43.57064019915749" lon="11.301755657845085"><ele>367.2</ele><time>2026-03-22T19:16:58Z</time></trkpt><trkpt lat="43.57069897842336" lon="11.301712690374814"><ele>365.6</ele><time>2026-03-22T19:16:59Z</time></trkpt><trkpt lat="43.570769191433904" lon="11.301669909404787"><ele>364.0</ele><time>2026-03-22T19:17:00Z</time></trkpt><trkpt lat="43.570869633479" lon="11.301640418558613"><ele>364.0</ele><time>2026-03-22T19:17:01Z</time></trkpt><trkpt lat="43.57094073913113" lon="11.301609176327224"><ele>364.0</ele><time>2026-03-22T19:17:02Z</time></trkpt><trkpt lat="43.571028196032636" lon="11.301553572866798"><ele>364.0</ele><time>2026-03-22T19:17:04Z</time></trkpt><trkpt lat="43.570928317140115" lon="11.301618530526921"><ele>364.0</ele><time>2026-03-22T19:17:14Z</time></trkpt><trkpt lat="43.57084468636354" lon="11.301645042746452"><ele>364.0</ele><time>2026-03-22T19:17:15Z</time></trkpt><trkpt lat="43.5707403613006" lon="11.301690160655903"><ele>364.0</ele><time>2026-03-22T19:17:16Z</time></trkpt><trkpt lat="43.57066605370973" lon="11.301722908747717"><ele>364.0</ele><time>2026-03-22T19:17:17Z</time></trkpt><trkpt lat="43.57058252148061" lon="11.301816156340692"><ele>364.0</ele><time>2026-03-22T19:17:19Z</time></trkpt><trkpt lat="43.57054846848034" lon="11.301915744117185"><ele>364.0</ele><time>2026-03-22T19:17:21Z</time></trkpt><trkpt lat="43.570466553921044" lon="11.3019209427312"><ele>364.0</ele><time>2026-03-22T19:17:31Z</time></trkpt><trkpt lat="43.57053244856107" lon="11.30192074964422"><ele>364.0</ele><time>2026-03-22T19:18:16.999Z</time></trkpt><trkpt lat="43.5705862048003" lon="11.301781398248032"><ele>364.0</ele><time>2026-03-22T19:18:19.999Z</time></trkpt><trkpt lat="43.570692431287824" lon="11.301693855311363"><ele>364.0</ele><time>2026-03-22T19:18:21.999Z</time></trkpt><trkpt lat="43.57076352449383" lon="11.301664698637163"><ele>364.0</ele><time>2026-03-22T19:18:22.999Z</time></trkpt><trkpt lat="43.5708392079315" lon="11.301629323497595"><ele>364.0</ele><time>2026-03-22T19:18:23.999Z</time></trkpt><trkpt lat="43.57092910682031" lon="11.301588831210733"><ele>364.0</ele><time>2026-03-22T19:18:24.999Z</time></trkpt><trkpt lat="43.57101176812651" lon="11.301551882985828"><ele>364.0</ele><time>2026-03-22T19:18:25.999Z</time></trkpt><trkpt lat="43.57107532390767" lon="11.301506251486655"><ele>364.0</ele><time>2026-03-22T19:18:26.999Z</time></trkpt><trkpt lat="43.571147629105546" lon="11.301442877847657"><ele>364.0</ele><time>2026-03-22T19:18:27.999Z</time></trkpt><trkpt lat="43.5712423662254" lon="11.301368344443189"><ele>364.0</ele><time>2026-03-22T19:18:28.999Z</time></trkpt><trkpt lat="43.57132076732997" lon="11.301305712583735"><ele>364.0</ele><time>2026-03-22T19:18:29.999Z</time></trkpt><trkpt lat="43.571396675942395" lon="11.301243001606123"><ele>364.0</ele><time>2026-03-22T19:18:30.999Z</time></trkpt><trkpt lat="43.571472999481884" lon="11.301178218173416"><ele>361.79999999999995</ele><time>2026-03-22T19:18:31.999Z</time></trkpt><trkpt lat="43.57155296008101" lon="11.301121959463105"><ele>359.59999999999997</ele><time>2026-03-22T19:18:32.999Z</time></trkpt><trkpt lat="43.571646801179476" lon="11.301065652229232"><ele>357.4</ele><time>2026-03-22T19:18:33.999Z</time></trkpt><trkpt lat="43.571747566701966" lon="11.301003712348253"><ele>355.2</ele><time>2026-03-22T19:18:34.999Z</time></trkpt><trkpt lat="43.57185208358612" lon="11.3009432613208"><ele>353.0</ele><time>2026-03-22T19:18:35.999Z</time></trkpt><trkpt lat="43.57194626013923" lon="11.30088979444163"><ele>353.0</ele><time>2026-03-22T19:18:36.999Z</time></trkpt><trkpt lat="43.57202027444719" lon="11.30083709570023"><ele>353.0</ele><time>2026-03-22T19:18:37.999Z</time></trkpt><trkpt lat="43.57207361412877" lon="11.300781810965155"><ele>353.0</ele><time>2026-03-22T19:18:38.999Z</time></trkpt><trkpt lat="43.57211969430474" lon="11.300707316075865"><ele>353.0</ele><time>2026-03-22T19:18:39.999Z</time></trkpt><trkpt lat="43.572151835850434" lon="11.30062692312878"><ele>353.0</ele><time>2026-03-22T19:18:40.999Z</time></trkpt><trkpt lat="43.57220112349308" lon="11.300554281042807"><ele>353.0</ele><time>2026-03-22T19:18:41.999Z</time></trkpt><trkpt lat="43.57224272542045" lon="11.300480989610138"><ele>353.0</ele><time>2026-03-22T19:18:42.999Z</time></trkpt><trkpt lat="43.57230066885249" lon="11.30041755332422"><ele>350.1666666666667</ele><time>2026-03-22T19:18:43.999Z</time></trkpt><trkpt lat="43.572354092508824" lon="11.300355037821257"><ele>347.33333333333337</ele><time>2026-03-22T19:18:44.999Z</time></trkpt><trkpt lat="43.57240533737644" lon="11.300292499455583"><ele>344.5</ele><time>2026-03-22T19:18:45.999Z</time></trkpt><trkpt lat="43.57247857892084" lon="11.3001554615581"><ele>341.6666666666667</ele><time>2026-03-22T19:18:47.999Z</time></trkpt><trkpt lat="43.572507007789035" lon="11.300070745305314"><ele>338.8333333333333</ele><time>2026-03-22T19:18:49Z</time></trkpt><trkpt lat="43.57254029693635" lon="11.299970679957976"><ele>336.0</ele><time>2026-03-22T19:18:50Z</time></trkpt><trkpt lat="43.572580354727265" lon="11.29989048986962"><ele>336.0</ele><time>2026-03-22T19:18:51Z</time></trkpt><trkpt lat="43.57262375977343" lon="11.299822087478612"><ele>336.0</ele><time>2026-03-22T19:18:52Z</time></trkpt><trkpt lat="43.57267420481867" lon="11.299734249638753"><ele>336.0</ele><time>2026-03-22T19:18:53Z</time></trkpt><trkpt lat="43.572738427989584" lon="11.299691969833747"><ele>336.0</ele><time>2026-03-22T19:18:54Z</time></trkpt><trkpt lat="43.57280320528865" lon="11.299677148775691"><ele>336.0</ele><time>2026-03-22T19:18:55Z</time></trkpt><trkpt lat="43.5729158349481" lon="11.299699348074732"><ele>336.0</ele><time>2026-03-22T19:18:57Z</time></trkpt><trkpt lat="43.57302190625176" lon="11.299696420569127"><ele>332.0</ele><time>2026-03-22T19:18:59Z</time></trkpt><trkpt lat="43.57313226423441" lon="11.299705206222646"><ele>328.0</ele><time>2026-03-22T19:19:01Z</time></trkpt><trkpt lat="43.57317258480704" lon="11.299783424391137"><ele>324.0</ele><time>2026-03-22T19:19:02Z</time></trkpt><trkpt lat="43.5731778345477" lon="11.299880855790182"><ele>320.0</ele><time>2026-03-22T19:19:03Z</time></trkpt><trkpt lat="43.57312842102942" lon="11.300016660699146"><ele>316.0</ele><time>2026-03-22T19:19:05Z</time></trkpt><trkpt lat="43.57317940366748" lon="11.300117836333314"><ele>316.0</ele><time>2026-03-22T19:19:07Z</time></trkpt><trkpt lat="43.57324118986309" lon="11.300135944302323"><ele>316.0</ele><time>2026-03-22T19:19:08Z</time></trkpt><trkpt lat="43.57334136780016" lon="11.300087696940437"><ele>316.0</ele><time>2026-03-22T19:19:10Z</time></trkpt><trkpt lat="43.573449866605145" lon="11.299987003242864"><ele>316.0</ele><time>2026-03-22T19:19:12Z</time></trkpt><trkpt lat="43.573514551655784" lon="11.299937307944823"><ele>316.0</ele><time>2026-03-22T19:19:13Z</time></trkpt><trkpt lat="43.57356926866178" lon="11.299885598438237"><ele>316.0</ele><time>2026-03-22T19:19:14Z</time></trkpt><trkpt lat="43.57364128811344" lon="11.299832835089642"><ele>315.2</ele><time>2026-03-22T19:19:15Z</time></trkpt><trkpt lat="43.57371365764026" lon="11.299805470533556"><ele>314.40000000000003</ele><time>2026-03-22T19:19:16Z</time></trkpt><trkpt lat="43.573783832171976" lon="11.29983007211233"><ele>313.6</ele><time>2026-03-22T19:19:19Z</time></trkpt><trkpt lat="43.57386642958578" lon="11.299808745437069"><ele>312.8</ele><time>2026-03-22T19:19:22Z</time></trkpt><trkpt lat="43.573982637756714" lon="11.299744919910959"><ele>312.0</ele><time>2026-03-22T19:19:24Z</time></trkpt><trkpt lat="43.57410808431708" lon="11.299736894223868"><ele>312.0</ele><time>2026-03-22T19:19:26Z</time></trkpt><trkpt lat="43.57418960178916" lon="11.299735717496665"><ele>312.0</ele><time>2026-03-22T19:19:27Z</time></trkpt><trkpt lat="43.57425640167097" lon="11.299733694001633"><ele>312.0</ele><time>2026-03-22T19:19:28Z</time></trkpt><trkpt lat="43.574320236781496" lon="11.299737093496658"><ele>312.0</ele><time>2026-03-22T19:19:29Z</time></trkpt><trkpt lat="43.574383485544985" lon="11.299754965534508"><ele>312.0</ele><time>2026-03-22T19:19:30Z</time></trkpt><trkpt lat="43.57445947706119" lon="11.299790079550197"><ele>312.0</ele><time>2026-03-22T19:19:31Z</time></trkpt><trkpt lat="43.574531529627016" lon="11.299833249948374"><ele>312.0</ele><time>2026-03-22T19:19:32Z</time></trkpt><trkpt lat="43.57460918404037" lon="11.299870284577418"><ele>312.3333333333333</ele><time>2026-03-22T19:19:33Z</time></trkpt><trkpt lat="43.57469021742365" lon="11.299907271684015"><ele>312.6666666666667</ele><time>2026-03-22T19:19:34Z</time></trkpt><trkpt lat="43.57476066726072" lon="11.2999360137247"><ele>313.0</ele><time>2026-03-22T19:19:35Z</time></trkpt><trkpt lat="43.57482662627955" lon="11.299957842058868"><ele>313.33333333333337</ele><time>2026-03-22T19:19:36Z</time></trkpt><trkpt lat="43.574900869657874" lon="11.299988489160357"><ele>313.6666666666667</ele><time>2026-03-22T19:19:37Z</time></trkpt><trkpt lat="43.57498153407881" lon="11.300039383429574"><ele>314.0</ele><time>2026-03-22T19:19:37.999Z</time></trkpt><trkpt lat="43.57505477474949" lon="11.300103803390643"><ele>314.0</ele><time>2026-03-22T19:19:38.999Z</time></trkpt><trkpt lat="43.57518207227653" lon="11.300039770156243"><ele>314.0</ele><time>2026-03-22T19:19:39.999Z</time></trkpt><trkpt lat="43.57523846040351" lon="11.30009713119342"><ele>314.0</ele><time>2026-03-22T19:19:40.999Z</time></trkpt><trkpt lat="43.57530146704018" lon="11.30015880776377"><ele>314.0</ele><time>2026-03-22T19:19:41.999Z</time></trkpt><trkpt lat="43.575409074366156" lon="11.300247845263332"><ele>314.0</ele><time>2026-03-22T19:19:43.999Z</time></trkpt><trkpt lat="43.57550564321048" lon="11.300263034421151"><ele>313.83333333333337</ele><time>2026-03-22T19:19:45.999Z</time></trkpt><trkpt lat="43.57557710201764" lon="11.300283988823349"><ele>313.6666666666667</ele><time>2026-03-22T19:19:46.999Z</time></trkpt><trkpt lat="43.575682290249404" lon="11.300271841173833"><ele>313.5</ele><time>2026-03-22T19:19:47.999Z</time></trkpt><trkpt lat="43.57576606032079" lon="11.300225575995494"><ele>313.3333333333333</ele><time>2026-03-22T19:19:48.999Z</time></trkpt><trkpt lat="43.57582914920147" lon="11.300173998603743"><ele>313.16666666666663</ele><time>2026-03-22T19:19:49.999Z</time></trkpt><trkpt lat="43.57589708475999" lon="11.300131000182164"><ele>313.0</ele><time>2026-03-22T19:19:50.999Z</time></trkpt><trkpt lat="43.575966147241274" lon="11.300094543398767"><ele>313.0</ele><time>2026-03-22T19:19:51.999Z</time></trkpt><trkpt lat="43.576050901561594" lon="11.300041992844978"><ele>313.0</ele><time>2026-03-22T19:19:52.999Z</time></trkpt><trkpt lat="43.57613132499268" lon="11.299996163763975"><ele>313.0</ele><time>2026-03-22T19:19:53.999Z</time></trkpt><trkpt lat="43.576200626221016" lon="11.299939626481077"><ele>313.0</ele><time>2026-03-22T19:19:54.999Z</time></trkpt><trkpt lat="43.576284037585374" lon="11.29989093468551"><ele>313.0</ele><time>2026-03-22T19:19:55.999Z</time></trkpt><trkpt lat="43.57637315269226" lon="11.299856068136044"><ele>313.0</ele><time>2026-03-22T19:19:56.999Z</time></trkpt><trkpt lat="43.57643877824674" lon="11.299807969518382"><ele>312.8</ele><time>2026-03-22T19:19:57.999Z</time></trkpt><trkpt lat="43.57653680398927" lon="11.29990277642436"><ele>312.6</ele><time>2026-03-22T19:19:59.999Z</time></trkpt><trkpt lat="43.576570132996814" lon="11.29999974607544"><ele>312.4</ele><time>2026-03-22T19:20:00.999Z</time></trkpt><trkpt lat="43.57662979658284" lon="11.300122125252987"><ele>312.2</ele><time>2026-03-22T19:20:01.999Z</time></trkpt><trkpt lat="43.576688217933565" lon="11.30024895454321"><ele>312.0</ele><time>2026-03-22T19:20:02.999Z</time></trkpt><trkpt lat="43.57677193959201" lon="11.30036711981196"><ele>312.0</ele><time>2026-03-22T19:20:03.999Z</time></trkpt><trkpt lat="43.5768375973478" lon="11.300492962230834"><ele>312.0</ele><time>2026-03-22T19:20:04.999Z</time></trkpt><trkpt lat="43.57688128806258" lon="11.300591106169415"><ele>312.0</ele><time>2026-03-22T19:20:05.999Z</time></trkpt><trkpt lat="43.57693269463873" lon="11.300678891663662"><ele>312.0</ele><time>2026-03-22T19:20:06.999Z</time></trkpt><trkpt lat="43.57698164238888" lon="11.300750465857195"><ele>312.0</ele><time>2026-03-22T19:20:07.999Z</time></trkpt><trkpt lat="43.57705604607452" lon="11.300839008035668"><ele>312.0</ele><time>2026-03-22T19:20:08.999Z</time></trkpt><trkpt lat="43.577128824075714" lon="11.300921849363428"><ele>314.3333333333333</ele><time>2026-03-22T19:20:09.999Z</time></trkpt><trkpt lat="43.57720259625986" lon="11.301001764196332"><ele>316.6666666666667</ele><time>2026-03-22T19:20:10.999Z</time></trkpt><trkpt lat="43.57728507480778" lon="11.301074154188328"><ele>319.0</ele><time>2026-03-22T19:20:11.999Z</time></trkpt><trkpt lat="43.57735517436512" lon="11.301140836268804"><ele>321.33333333333337</ele><time>2026-03-22T19:20:12.999Z</time></trkpt><trkpt lat="43.57743199510583" lon="11.301213782022103"><ele>323.6666666666667</ele><time>2026-03-22T19:20:13.999Z</time></trkpt><trkpt lat="43.57749906468931" lon="11.3012623455148"><ele>326.0</ele><time>2026-03-22T19:20:14.999Z</time></trkpt><trkpt lat="43.577583904762314" lon="11.30129920572758"><ele>326.0</ele><time>2026-03-22T19:20:15.999Z</time></trkpt><trkpt lat="43.577675544706935" lon="11.301329639985605"><ele>326.0</ele><time>2026-03-22T19:20:16.999Z</time></trkpt><trkpt lat="43.57775973271082" lon="11.301364744727842"><ele>326.0</ele><time>2026-03-22T19:20:17.999Z</time></trkpt><trkpt lat="43.577857787183994" lon="11.301370533122565"><ele>326.0</ele><time>2026-03-22T19:20:18.999Z</time></trkpt><trkpt lat="43.5779653781813" lon="11.301364947253447"><ele>326.0</ele><time>2026-03-22T19:20:19.999Z</time></trkpt><trkpt lat="43.57807956010215" lon="11.301359454681375"><ele>327.6</ele><time>2026-03-22T19:20:20.999Z</time></trkpt><trkpt lat="43.57818842810744" lon="11.30136163258064"><ele>329.20000000000005</ele><time>2026-03-22T19:20:21.999Z</time></trkpt><trkpt lat="43.57829544338802" lon="11.301370267697463"><ele>330.79999999999995</ele><time>2026-03-22T19:20:22.999Z</time></trkpt><trkpt lat="43.57840828937066" lon="11.301381810339223"><ele>332.4</ele><time>2026-03-22T19:20:23.999Z</time></trkpt><trkpt lat="43.578524392938625" lon="11.301392322645194"><ele>334.0</ele><time>2026-03-22T19:20:24.999Z</time></trkpt><trkpt lat="43.578651145532895" lon="11.301403991785886"><ele>332.0</ele><time>2026-03-22T19:20:25.999Z</time></trkpt><trkpt lat="43.57879667816783" lon="11.301423377592906"><ele>330.0</ele><time>2026-03-22T19:20:26.999Z</time></trkpt><trkpt lat="43.57891610339984" lon="11.30144682609457"><ele>328.0</ele><time>2026-03-22T19:20:27.999Z</time></trkpt><trkpt lat="43.579022847163706" lon="11.301472469840254"><ele>326.0</ele><time>2026-03-22T19:20:28.999Z</time></trkpt><trkpt lat="43.579130599049" lon="11.30150222585516"><ele>326.0</ele><time>2026-03-22T19:20:29.999Z</time></trkpt><trkpt lat="43.57923420768663" lon="11.301534145340188"><ele>326.0</ele><time>2026-03-22T19:20:30.999Z</time></trkpt><trkpt lat="43.579332091008446" lon="11.301588048576162"><ele>326.0</ele><time>2026-03-22T19:20:31.999Z</time></trkpt><trkpt lat="43.57941229244146" lon="11.301649651632617"><ele>326.0</ele><time>2026-03-22T19:20:32.999Z</time></trkpt><trkpt lat="43.57948804007796" lon="11.301701211921149"><ele>326.0</ele><time>2026-03-22T19:20:33.999Z</time></trkpt><trkpt lat="43.57956437362616" lon="11.301734571445278"><ele>327.20000000000005</ele><time>2026-03-22T19:20:34.999Z</time></trkpt><trkpt lat="43.57966146471094" lon="11.301736803218505"><ele>328.40000000000003</ele><time>2026-03-22T19:20:35.999Z</time></trkpt><trkpt lat="43.57975642665311" lon="11.301701488917157"><ele>329.6</ele><time>2026-03-22T19:20:36.999Z</time></trkpt><trkpt lat="43.579844603640474" lon="11.301702440863021"><ele>330.8</ele><time>2026-03-22T19:20:37.999Z</time></trkpt><trkpt lat="43.5799564171921" lon="11.301714258399052"><ele>332.0</ele><time>2026-03-22T19:20:38.999Z</time></trkpt><trkpt lat="43.580058542223085" lon="11.301737570277446"><ele>332.0</ele><time>2026-03-22T19:20:39.999Z</time></trkpt><trkpt lat="43.580133252962796" lon="11.301762409249802"><ele>332.0</ele><time>2026-03-22T19:20:40.999Z</time></trkpt><trkpt lat="43.58020756128893" lon="11.30178463193778"><ele>332.0</ele><time>2026-03-22T19:20:41.999Z</time></trkpt><trkpt lat="43.58028402077682" lon="11.3018046617131"><ele>332.0</ele><time>2026-03-22T19:20:42.999Z</time></trkpt><trkpt lat="43.58035179934607" lon="11.30182241739682"><ele>332.0</ele><time>2026-03-22T19:20:43.999Z</time></trkpt><trkpt lat="43.58044306237455" lon="11.301842969220974"><ele>332.0</ele><time>2026-03-22T19:20:45.999Z</time></trkpt><trkpt lat="43.580509727918525" lon="11.301851050201634"><ele>332.83333333333337</ele><time>2026-03-22T19:20:48.999Z</time></trkpt><trkpt lat="43.58056877552429" lon="11.301805468297585"><ele>333.6666666666667</ele><time>2026-03-22T19:20:49.999Z</time></trkpt><trkpt lat="43.58065897113956" lon="11.301785574942526"><ele>334.5</ele><time>2026-03-22T19:20:51.999Z</time></trkpt><trkpt lat="43.58072449159357" lon="11.301774706907443"><ele>335.3333333333333</ele><time>2026-03-22T19:20:54Z</time></trkpt><trkpt lat="43.58079930856721" lon="11.301762297108235"><ele>336.16666666666663</ele><time>2026-03-22T19:20:56Z</time></trkpt><trkpt lat="43.580903856907035" lon="11.301744955939318"><ele>337.0</ele><time>2026-03-22T19:20:58Z</time></trkpt><trkpt lat="43.58097112708352" lon="11.30153366373424"><ele>337.00000000000006</ele><time>2026-03-22T19:20:59Z</time></trkpt><trkpt lat="43.58105529980449" lon="11.301481146085017"><ele>337.0</ele><time>2026-03-22T19:21:00Z</time></trkpt><trkpt lat="43.58111865917131" lon="11.301438648090505"><ele>337.0</ele><time>2026-03-22T19:21:01Z</time></trkpt><trkpt lat="43.58117863111873" lon="11.30140303988141"><ele>337.0</ele><time>2026-03-22T19:21:02Z</time></trkpt><trkpt lat="43.58124513815655" lon="11.30136923957656"><ele>337.0</ele><time>2026-03-22T19:21:03Z</time></trkpt><trkpt lat="43.58130163788594" lon="11.301326062791592"><ele>337.00000000000006</ele><time>2026-03-22T19:21:04Z</time></trkpt><trkpt lat="43.58136505586266" lon="11.301278611621502"><ele>337.0</ele><time>2026-03-22T19:21:05Z</time></trkpt><trkpt lat="43.581426686572726" lon="11.301233856229151"><ele>334.0</ele><time>2026-03-22T19:21:06Z</time></trkpt><trkpt lat="43.581495479735636" lon="11.301189882282921"><ele>331.0</ele><time>2026-03-22T19:21:07Z</time></trkpt><trkpt lat="43.58161164058676" lon="11.301125910681058"><ele>328.0</ele><time>2026-03-22T19:21:09Z</time></trkpt><trkpt lat="43.58171995225529" lon="11.301060919742078"><ele>325.0</ele><time>2026-03-22T19:21:11Z</time></trkpt><trkpt lat="43.58182090451744" lon="11.300993430919362"><ele>322.0</ele><time>2026-03-22T19:21:13Z</time></trkpt><trkpt lat="43.58192488949384" lon="11.300947038398903"><ele>319.66666666666663</ele><time>2026-03-22T19:21:15Z</time></trkpt><trkpt lat="43.58203687399661" lon="11.30087797706258"><ele>317.3333333333333</ele><time>2026-03-22T19:21:17Z</time></trkpt><trkpt lat="43.58212387036307" lon="11.300828236241903"><ele>315.0</ele><time>2026-03-22T19:21:18Z</time></trkpt><trkpt lat="43.582195631877305" lon="11.300797740064787"><ele>312.6666666666667</ele><time>2026-03-22T19:21:19Z</time></trkpt><trkpt lat="43.58225819928783" lon="11.300787552190714"><ele>310.33333333333337</ele><time>2026-03-22T19:21:20Z</time></trkpt><trkpt lat="43.58232363606853" lon="11.300774460215782"><ele>308.0</ele><time>2026-03-22T19:21:21Z</time></trkpt><trkpt lat="43.58238706071931" lon="11.300774921199261"><ele>308.0</ele><time>2026-03-22T19:21:22Z</time></trkpt><trkpt lat="43.58251266530058" lon="11.300776478347117"><ele>308.0</ele><time>2026-03-22T19:21:24Z</time></trkpt><trkpt lat="43.58257634282177" lon="11.30078687429381"><ele>308.0</ele><time>2026-03-22T19:21:25Z</time></trkpt><trkpt lat="43.58269236098578" lon="11.300788883479443"><ele>308.0</ele><time>2026-03-22T19:21:27Z</time></trkpt><trkpt lat="43.58280325244627" lon="11.30072729198863"><ele>308.0</ele><time>2026-03-22T19:21:29Z</time></trkpt><trkpt lat="43.582873855980125" lon="11.300667268716921"><ele>309.2</ele><time>2026-03-22T19:21:30Z</time></trkpt><trkpt lat="43.58295311427379" lon="11.300614517012916"><ele>310.4</ele><time>2026-03-22T19:21:31Z</time></trkpt><trkpt lat="43.58304480468798" lon="11.30058002227687"><ele>311.59999999999997</ele><time>2026-03-22T19:21:32Z</time></trkpt><trkpt lat="43.58315462175403" lon="11.300548691391114"><ele>312.8</ele><time>2026-03-22T19:21:33Z</time></trkpt><trkpt lat="43.58329544948036" lon="11.300531032199695"><ele>314.0</ele><time>2026-03-22T19:21:34Z</time></trkpt><trkpt lat="43.58338134369127" lon="11.300459874132754"><ele>314.0</ele><time>2026-03-22T19:21:35Z</time></trkpt><trkpt lat="43.58352133601937" lon="11.300414662646402"><ele>314.0</ele><time>2026-03-22T19:21:36Z</time></trkpt><trkpt lat="43.58365625421965" lon="11.300363817444403"><ele>314.0</ele><time>2026-03-22T19:21:37Z</time></trkpt><trkpt lat="43.583770693641526" lon="11.300326713369868"><ele>314.0</ele><time>2026-03-22T19:21:38Z</time></trkpt><trkpt lat="43.58390041370943" lon="11.300276529989096"><ele>317.25</ele><time>2026-03-22T19:21:39Z</time></trkpt><trkpt lat="43.58401796576677" lon="11.300234446801753"><ele>320.5</ele><time>2026-03-22T19:21:40Z</time></trkpt><trkpt lat="43.58414873456166" lon="11.300194434651653"><ele>323.75</ele><time>2026-03-22T19:21:41Z</time></trkpt><trkpt lat="43.58427271994111" lon="11.300149938361626"><ele>327.0</ele><time>2026-03-22T19:21:42Z</time></trkpt><trkpt lat="43.58440831599657" lon="11.300099934523077"><ele>329.5</ele><time>2026-03-22T19:21:43Z</time></trkpt><trkpt lat="43.58454017872817" lon="11.300045388484449"><ele>332.0</ele><time>2026-03-22T19:21:44Z</time></trkpt><trkpt lat="43.584650828477194" lon="11.300002457880485"><ele>334.5</ele><time>2026-03-22T19:21:44.999Z</time></trkpt><trkpt lat="43.58476284113068" lon="11.299963609338675"><ele>337.0</ele><time>2026-03-22T19:21:45.999Z</time></trkpt><trkpt lat="43.584876519197074" lon="11.29993273951665"><ele>337.0</ele><time>2026-03-22T19:21:46.999Z</time></trkpt><trkpt lat="43.584991457840744" lon="11.299889130952778"><ele>337.0</ele><time>2026-03-22T19:21:47.999Z</time></trkpt><trkpt lat="43.58509241652024" lon="11.299861760369694"><ele>337.0</ele><time>2026-03-22T19:21:48.999Z</time></trkpt><trkpt lat="43.58517595754734" lon="11.299832393798784"><ele>337.0</ele><time>2026-03-22T19:21:49.999Z</time></trkpt><trkpt lat="43.58526144370416" lon="11.299824793280685"><ele>337.0</ele><time>2026-03-22T19:21:51.999Z</time></trkpt><trkpt lat="43.58533015471604" lon="11.300013070656277"><ele>337.0</ele><time>2026-03-22T19:21:55.999Z</time></trkpt><trkpt lat="43.58533965259783" lon="11.30012775264346"><ele>337.0</ele><time>2026-03-22T19:21:56.999Z</time></trkpt><trkpt lat="43.58533942999203" lon="11.300270740180979"><ele>337.0</ele><time>2026-03-22T19:21:57.999Z</time></trkpt><trkpt lat="43.58533916167479" lon="11.300443089986594"><ele>337.0</ele><time>2026-03-22T19:21:58.999Z</time></trkpt><trkpt lat="43.58533890603869" lon="11.300607296788169"><ele>337.0</ele><time>2026-03-22T19:21:59.999Z</time></trkpt><trkpt lat="43.585337798480026" lon="11.300744832286188"><ele>337.16666666666663</ele><time>2026-03-22T19:22:00.999Z</time></trkpt><trkpt lat="43.585336996431685" lon="11.300861274761498"><ele>337.3333333333333</ele><time>2026-03-22T19:22:01.999Z</time></trkpt><trkpt lat="43.58532382362391" lon="11.300956938080349"><ele>337.5</ele><time>2026-03-22T19:22:02.999Z</time></trkpt><trkpt lat="43.58537257520675" lon="11.301054918841581"><ele>337.6666666666667</ele><time>2026-03-22T19:22:03.999Z</time></trkpt><trkpt lat="43.58540817913673" lon="11.301172156194468"><ele>337.83333333333337</ele><time>2026-03-22T19:22:04.999Z</time></trkpt><trkpt lat="43.585467005012816" lon="11.30127419130676"><ele>338.0</ele><time>2026-03-22T19:22:05.999Z</time></trkpt><trkpt lat="43.58552419238929" lon="11.30136449899224"><ele>338.5</ele><time>2026-03-22T19:22:06.999Z</time></trkpt><trkpt lat="43.58557167923957" lon="11.30144798629119"><ele>339.0</ele><time>2026-03-22T19:22:07.999Z</time></trkpt><trkpt lat="43.58561104407768" lon="11.301532412534227"><ele>339.5</ele><time>2026-03-22T19:22:08.999Z</time></trkpt><trkpt lat="43.58564185050138" lon="11.30163053451043"><ele>340.0</ele><time>2026-03-22T19:22:09.999Z</time></trkpt><trkpt lat="43.58564996457145" lon="11.3017396622892"><ele>340.5</ele><time>2026-03-22T19:22:10.999Z</time></trkpt><trkpt lat="43.585660992459914" lon="11.301857212016976"><ele>341.0</ele><time>2026-03-22T19:22:11.999Z</time></trkpt><trkpt lat="43.585672158749546" lon="11.301988144979209"><ele>341.0</ele><time>2026-03-22T19:22:12.999Z</time></trkpt><trkpt lat="43.58568010107688" lon="11.302110482231736"><ele>341.0</ele><time>2026-03-22T19:22:13.999Z</time></trkpt><trkpt lat="43.58568942311207" lon="11.302230112792522"><ele>341.0</ele><time>2026-03-22T19:22:14.999Z</time></trkpt><trkpt lat="43.58572980569459" lon="11.302343645666054"><ele>341.0</ele><time>2026-03-22T19:22:15.999Z</time></trkpt><trkpt lat="43.58577271848857" lon="11.302445820071865"><ele>341.0</ele><time>2026-03-22T19:22:16.999Z</time></trkpt><trkpt lat="43.585828725693815" lon="11.302542423033142"><ele>341.0</ele><time>2026-03-22T19:22:17.999Z</time></trkpt><trkpt lat="43.58588706212166" lon="11.302645968945573"><ele>341.0</ele><time>2026-03-22T19:22:18.999Z</time></trkpt><trkpt lat="43.58595618282478" lon="11.302739360613035"><ele>341.0</ele><time>2026-03-22T19:22:19.999Z</time></trkpt><trkpt lat="43.58602091000497" lon="11.302829520826114"><ele>341.0</ele><time>2026-03-22T19:22:20.999Z</time></trkpt><trkpt lat="43.58608668669841" lon="11.302953713900823"><ele>341.0</ele><time>2026-03-22T19:22:21.999Z</time></trkpt><trkpt lat="43.586175134993" lon="11.303058101056939"><ele>341.0</ele><time>2026-03-22T19:22:22.999Z</time></trkpt><trkpt lat="43.586256364965635" lon="11.303162875770346"><ele>339.33333333333337</ele><time>2026-03-22T19:22:23.999Z</time></trkpt><trkpt lat="43.586318603824665" lon="11.303239583721387"><ele>337.6666666666667</ele><time>2026-03-22T19:22:24.999Z</time></trkpt><trkpt lat="43.586371282857044" lon="11.303308819000911"><ele>336.0</ele><time>2026-03-22T19:22:25.999Z</time></trkpt><trkpt lat="43.58644607421848" lon="11.303380739517143"><ele>334.3333333333333</ele><time>2026-03-22T19:22:26.999Z</time></trkpt><trkpt lat="43.58651917513126" lon="11.303435742679108"><ele>332.66666666666663</ele><time>2026-03-22T19:22:27.999Z</time></trkpt><trkpt lat="43.586595421629895" lon="11.303493112375486"><ele>331.0</ele><time>2026-03-22T19:22:28.999Z</time></trkpt><trkpt lat="43.58667216295571" lon="11.303551314263753"><ele>331.0</ele><time>2026-03-22T19:22:29.999Z</time></trkpt><trkpt lat="43.58673214591827" lon="11.30359977913344"><ele>331.0</ele><time>2026-03-22T19:22:30.999Z</time></trkpt><trkpt lat="43.58681223920649" lon="11.303668848034317"><ele>331.0</ele><time>2026-03-22T19:22:32.999Z</time></trkpt><trkpt lat="43.58686981700823" lon="11.303721459315302"><ele>331.0</ele><time>2026-03-22T19:22:34.999Z</time></trkpt><trkpt lat="43.58693859696334" lon="11.3038371065192"><ele>331.0</ele><time>2026-03-22T19:22:36.999Z</time></trkpt><trkpt lat="43.586978707874" lon="11.303935114496978"><ele>331.0</ele><time>2026-03-22T19:22:37.999Z</time></trkpt><trkpt lat="43.587001495488536" lon="11.30401722653086"><ele>329.6</ele><time>2026-03-22T19:22:38.999Z</time></trkpt><trkpt lat="43.58702018808516" lon="11.304151639155974"><ele>328.20000000000005</ele><time>2026-03-22T19:22:40.999Z</time></trkpt><trkpt lat="43.586998062027305" lon="11.304236778107665"><ele>326.79999999999995</ele><time>2026-03-22T19:22:41.999Z</time></trkpt><trkpt lat="43.58696146782878" lon="11.304389408679947"><ele>325.4</ele><time>2026-03-22T19:22:43.999Z</time></trkpt><trkpt lat="43.586953192438116" lon="11.304482579891687"><ele>324.0</ele><time>2026-03-22T19:22:44.999Z</time></trkpt><trkpt lat="43.587267869427144" lon="11.30469828597396"><ele>323.0</ele><time>2026-03-22T19:22:46.999Z</time></trkpt><trkpt lat="43.587260586283456" lon="11.30479580853198"><ele>322.0</ele><time>2026-03-22T19:22:48.999Z</time></trkpt><trkpt lat="43.58716121240902" lon="11.304895786310674"><ele>321.0</ele><time>2026-03-22T19:22:50.999Z</time></trkpt><trkpt lat="43.58706603085455" lon="11.304959673308474"><ele>320.0</ele><time>2026-03-22T19:22:51.999Z</time></trkpt><trkpt lat="43.58697629541623" lon="11.305054972200535"><ele>319.0</ele><time>2026-03-22T19:22:52.999Z</time></trkpt><trkpt lat="43.58692379025904" lon="11.305166284643468"><ele>319.0</ele><time>2026-03-22T19:22:53.999Z</time></trkpt><trkpt lat="43.58689236026398" lon="11.30530493432124"><ele>319.0</ele><time>2026-03-22T19:22:54.999Z</time></trkpt><trkpt lat="43.586791342638556" lon="11.30544921925069"><ele>319.0</ele><time>2026-03-22T19:22:55.999Z</time></trkpt><trkpt lat="43.586763366145156" lon="11.305632093018016"><ele>319.0</ele><time>2026-03-22T19:22:56.999Z</time></trkpt><trkpt lat="43.58673980692511" lon="11.30578980044431"><ele>317.25</ele><time>2026-03-22T19:22:57.999Z</time></trkpt><trkpt lat="43.58671833997582" lon="11.305937241319894"><ele>315.5</ele><time>2026-03-22T19:22:58.999Z</time></trkpt><trkpt lat="43.58669512001944" lon="11.306096722795191"><ele>313.75</ele><time>2026-03-22T19:23:00Z</time></trkpt><trkpt lat="43.58666964257524" lon="11.306271708594322"><ele>312.0</ele><time>2026-03-22T19:23:01Z</time></trkpt><trkpt lat="43.58673646853698" lon="11.306474101417441"><ele>310.5</ele><time>2026-03-22T19:23:02Z</time></trkpt><trkpt lat="43.58672252920867" lon="11.306638982292977"><ele>309.0</ele><time>2026-03-22T19:23:03Z</time></trkpt><trkpt lat="43.586711410593615" lon="11.306790515780238"><ele>307.5</ele><time>2026-03-22T19:23:04Z</time></trkpt><trkpt lat="43.586698835625654" lon="11.306957035627368"><ele>306.0</ele><time>2026-03-22T19:23:05Z</time></trkpt><trkpt lat="43.58670292780485" lon="11.307113147439884"><ele>304.40000000000003</ele><time>2026-03-22T19:23:06Z</time></trkpt><trkpt lat="43.58672039084589" lon="11.307278137241429"><ele>302.8</ele><time>2026-03-22T19:23:07Z</time></trkpt><trkpt lat="43.58674379526655" lon="11.307439486464949"><ele>301.20000000000005</ele><time>2026-03-22T19:23:08Z</time></trkpt><trkpt lat="43.58675724439311" lon="11.307587462944305"><ele>299.6</ele><time>2026-03-22T19:23:09Z</time></trkpt><trkpt lat="43.58676870810855" lon="11.307725286626818"><ele>298.0</ele><time>2026-03-22T19:23:10Z</time></trkpt><trkpt lat="43.58677714177462" lon="11.307871021664866"><ele>298.0</ele><time>2026-03-22T19:23:11Z</time></trkpt><trkpt lat="43.58669410004984" lon="11.308047236092346"><ele>298.0</ele><time>2026-03-22T19:23:12Z</time></trkpt><trkpt lat="43.58671069359192" lon="11.30819506677885"><ele>298.0</ele><time>2026-03-22T19:23:13Z</time></trkpt><trkpt lat="43.586722805195464" lon="11.30830258695891"><ele>298.0</ele><time>2026-03-22T19:23:14Z</time></trkpt><trkpt lat="43.58674029371339" lon="11.308457714202985"><ele>296.2</ele><time>2026-03-22T19:23:16Z</time></trkpt><trkpt lat="43.58675395012054" lon="11.30858098395681"><ele>294.4</ele><time>2026-03-22T19:23:18Z</time></trkpt><trkpt lat="43.586783085777334" lon="11.308698929892936"><ele>292.59999999999997</ele><time>2026-03-22T19:23:19Z</time></trkpt><trkpt lat="43.58678424398862" lon="11.308854432699698"><ele>290.8</ele><time>2026-03-22T19:23:20Z</time></trkpt><trkpt lat="43.58680497344746" lon="11.309041548264618"><ele>289.0</ele><time>2026-03-22T19:23:21Z</time></trkpt><trkpt lat="43.5868407792339" lon="11.30921583093225"><ele>286.5</ele><time>2026-03-22T19:23:22Z</time></trkpt><trkpt lat="43.586843472109095" lon="11.309381434976086"><ele>284.0</ele><time>2026-03-22T19:23:23Z</time></trkpt><trkpt lat="43.58687874485921" lon="11.309536674792712"><ele>281.5</ele><time>2026-03-22T19:23:24Z</time></trkpt><trkpt lat="43.586896209375546" lon="11.309686197735676"><ele>279.0</ele><time>2026-03-22T19:23:25Z</time></trkpt><trkpt lat="43.58689778948547" lon="11.309830324775039"><ele>277.4</ele><time>2026-03-22T19:23:26Z</time></trkpt><trkpt lat="43.58691140375938" lon="11.309961587823976"><ele>275.79999999999995</ele><time>2026-03-22T19:23:27Z</time></trkpt><trkpt lat="43.58692135649702" lon="11.310090038031014"><ele>274.20000000000005</ele><time>2026-03-22T19:23:28Z</time></trkpt><trkpt lat="43.58692687010791" lon="11.31021141614375"><ele>272.6</ele><time>2026-03-22T19:23:29Z</time></trkpt><trkpt lat="43.586864313569365" lon="11.31032490638862"><ele>271.0</ele><time>2026-03-22T19:23:30Z</time></trkpt><trkpt lat="43.58681871275865" lon="11.310451145989925"><ele>269.40000000000003</ele><time>2026-03-22T19:23:31Z</time></trkpt><trkpt lat="43.586786674879114" lon="11.310581367553054"><ele>267.8</ele><time>2026-03-22T19:23:32Z</time></trkpt><trkpt lat="43.586735698421435" lon="11.310703773236751"><ele>266.20000000000005</ele><time>2026-03-22T19:23:33Z</time></trkpt><trkpt lat="43.58668686152024" lon="11.310805815403997"><ele>264.6</ele><time>2026-03-22T19:23:34Z</time></trkpt><trkpt lat="43.58662525106689" lon="11.310885608615033"><ele>263.0</ele><time>2026-03-22T19:23:35Z</time></trkpt><trkpt lat="43.586525754815334" lon="11.310902663982585"><ele>263.0</ele><time>2026-03-22T19:23:36Z</time></trkpt><trkpt lat="43.58646661693331" lon="11.310956018990357"><ele>263.0</ele><time>2026-03-22T19:23:37Z</time></trkpt><trkpt lat="43.58638814820615" lon="11.311071099218498"><ele>263.0</ele><time>2026-03-22T19:23:39Z</time></trkpt><trkpt lat="43.586373759571714" lon="11.311159311581152"><ele>263.0</ele><time>2026-03-22T19:23:40Z</time></trkpt><trkpt lat="43.58643134284419" lon="11.31128084852195"><ele>263.0</ele><time>2026-03-22T19:23:41Z</time></trkpt><trkpt lat="43.58647616974912" lon="11.311407705981033"><ele>261.33333333333337</ele><time>2026-03-22T19:23:42Z</time></trkpt><trkpt lat="43.58649442246885" lon="11.311538965865228"><ele>259.6666666666667</ele><time>2026-03-22T19:23:43Z</time></trkpt><trkpt lat="43.586544955609334" lon="11.311640810126267"><ele>258.0</ele><time>2026-03-22T19:23:44Z</time></trkpt><trkpt lat="43.586583933025075" lon="11.311744531520603"><ele>256.3333333333333</ele><time>2026-03-22T19:23:45Z</time></trkpt><trkpt lat="43.58663425925928" lon="11.311834176182135"><ele>254.66666666666666</ele><time>2026-03-22T19:23:46Z</time></trkpt><trkpt lat="43.58670978263906" lon="11.311899704059886"><ele>253.0</ele><time>2026-03-22T19:23:47Z</time></trkpt><trkpt lat="43.5867795284567" lon="11.311957628514968"><ele>252.99999999999997</ele><time>2026-03-22T19:23:48Z</time></trkpt><trkpt lat="43.586858164577905" lon="11.311980659050835"><ele>253.0</ele><time>2026-03-22T19:23:48.999Z</time></trkpt><trkpt lat="43.58693108280868" lon="11.312012281934566"><ele>253.0</ele><time>2026-03-22T19:23:49.999Z</time></trkpt><trkpt lat="43.58700822996159" lon="11.312047751064341"><ele>253.0</ele><time>2026-03-22T19:23:50.999Z</time></trkpt><trkpt lat="43.58708366946106" lon="11.312087921106093"><ele>252.99999999999997</ele><time>2026-03-22T19:23:51.999Z</time></trkpt><trkpt lat="43.58716292432867" lon="11.31213340721778"><ele>253.0</ele><time>2026-03-22T19:23:52.999Z</time></trkpt><trkpt lat="43.5872400346052" lon="11.31218998713422"><ele>250.83333333333331</ele><time>2026-03-22T19:23:53.999Z</time></trkpt><trkpt lat="43.58729741568001" lon="11.312263749517342"><ele>248.66666666666666</ele><time>2026-03-22T19:23:54.999Z</time></trkpt><trkpt lat="43.58737123179089" lon="11.312319196975425"><ele>246.5</ele><time>2026-03-22T19:23:55.999Z</time></trkpt><trkpt lat="43.58744003214773" lon="11.312356709376992"><ele>244.33333333333331</ele><time>2026-03-22T19:23:56.999Z</time></trkpt><trkpt lat="43.58750268550479" lon="11.312398434580741"><ele>242.16666666666666</ele><time>2026-03-22T19:23:57.999Z</time></trkpt><trkpt lat="43.587561190077494" lon="11.312437365610752"><ele>240.0</ele><time>2026-03-22T19:23:58.999Z</time></trkpt><trkpt lat="43.58765529534834" lon="11.312527809840988"><ele>240.0</ele><time>2026-03-22T19:24:00.999Z</time></trkpt><trkpt lat="43.587651622728174" lon="11.312624042322403"><ele>240.0</ele><time>2026-03-22T19:24:01.999Z</time></trkpt><trkpt lat="43.587596999236055" lon="11.31271953978384"><ele>240.0</ele><time>2026-03-22T19:24:02.999Z</time></trkpt><trkpt lat="43.58751867000464" lon="11.312812452843074"><ele>240.0</ele><time>2026-03-22T19:24:03.999Z</time></trkpt><trkpt lat="43.58746337673643" lon="11.312902154161485"><ele>240.0</ele><time>2026-03-22T19:24:04.999Z</time></trkpt><trkpt lat="43.58741391286321" lon="11.31299508425869"><ele>240.0</ele><time>2026-03-22T19:24:05.999Z</time></trkpt><trkpt lat="43.587370255120526" lon="11.313069906430867"><ele>238.33333333333334</ele><time>2026-03-22T19:24:06.999Z</time></trkpt><trkpt lat="43.58732448375024" lon="11.313157533681546"><ele>236.66666666666669</ele><time>2026-03-22T19:24:07.999Z</time></trkpt><trkpt lat="43.58727755765167" lon="11.31324248167949"><ele>235.0</ele><time>2026-03-22T19:24:08.999Z</time></trkpt><trkpt lat="43.58722804055004" lon="11.313325364078946"><ele>233.33333333333334</ele><time>2026-03-22T19:24:09.999Z</time></trkpt><trkpt lat="43.58718445475161" lon="11.313409213369292"><ele>231.66666666666669</ele><time>2026-03-22T19:24:10.999Z</time></trkpt><trkpt lat="43.58714816115989" lon="11.31348437952584"><ele>230.0</ele><time>2026-03-22T19:24:11.999Z</time></trkpt><trkpt lat="43.58707607125431" lon="11.313606050678946"><ele>230.0</ele><time>2026-03-22T19:24:13.999Z</time></trkpt><trkpt lat="43.58702977662741" lon="11.313675956258404"><ele>230.0</ele><time>2026-03-22T19:24:15.999Z</time></trkpt><trkpt lat="43.58693041430032" lon="11.313695427756752"><ele>230.0</ele><time>2026-03-22T19:24:18.999Z</time></trkpt><trkpt lat="43.586871221985575" lon="11.313659715123842"><ele>230.0</ele><time>2026-03-22T19:24:19.999Z</time></trkpt><trkpt lat="43.58676349440017" lon="11.31362622530261"><ele>230.0</ele><time>2026-03-22T19:24:21.999Z</time></trkpt><trkpt lat="43.58665468263455" lon="11.313660464167064"><ele>229.8</ele><time>2026-03-22T19:24:23.999Z</time></trkpt><trkpt lat="43.58657357250613" lon="11.31371631595554"><ele>229.6</ele><time>2026-03-22T19:24:25.999Z</time></trkpt><trkpt lat="43.586575345539885" lon="11.313871556905854"><ele>229.39999999999998</ele><time>2026-03-22T19:24:28.999Z</time></trkpt><trkpt lat="43.58666856191288" lon="11.313961244775252"><ele>229.2</ele><time>2026-03-22T19:24:30.999Z</time></trkpt><trkpt lat="43.58673832859948" lon="11.31406897768364"><ele>229.0</ele><time>2026-03-22T19:24:32.999Z</time></trkpt><trkpt lat="43.58669148856167" lon="11.314191160861336"><ele>228.79999999999998</ele><time>2026-03-22T19:24:34.999Z</time></trkpt><trkpt lat="43.58662357498214" lon="11.314289396025933"><ele>228.59999999999997</ele><time>2026-03-22T19:24:36.999Z</time></trkpt><trkpt lat="43.58656234405013" lon="11.314395578703982"><ele>228.4</ele><time>2026-03-22T19:24:38.999Z</time></trkpt><trkpt lat="43.5865071648888" lon="11.314500790311428"><ele>228.2</ele><time>2026-03-22T19:24:40.999Z</time></trkpt><trkpt lat="43.586457232819306" lon="11.314607354340634"><ele>228.0</ele><time>2026-03-22T19:24:42.999Z</time></trkpt><trkpt lat="43.58641841271055" lon="11.314685426490431"><ele>228.0</ele><time>2026-03-22T19:24:44.999Z</time></trkpt><trkpt lat="43.58636528425806" lon="11.314799731601127"><ele>228.0</ele><time>2026-03-22T19:24:46.999Z</time></trkpt><trkpt lat="43.58630414850563" lon="11.314898300263518"><ele>228.0</ele><time>2026-03-22T19:24:47.999Z</time></trkpt><trkpt lat="43.586272316900846" lon="11.314977136964293"><ele>228.0</ele><time>2026-03-22T19:24:48.999Z</time></trkpt><trkpt lat="43.58623142449007" lon="11.315122650448155"><ele>228.0</ele><time>2026-03-22T19:24:50.999Z</time></trkpt><trkpt lat="43.58624381451416" lon="11.315231239414716"><ele>228.0</ele><time>2026-03-22T19:24:51.999Z</time></trkpt><trkpt lat="43.5862617451237" lon="11.315352901170192"><ele>228.0</ele><time>2026-03-22T19:24:52.999Z</time></trkpt><trkpt lat="43.586284249621" lon="11.315491990794584"><ele>228.0</ele><time>2026-03-22T19:24:53.999Z</time></trkpt><trkpt lat="43.58630899730592" lon="11.315631403421113"><ele>228.0</ele><time>2026-03-22T19:24:54.999Z</time></trkpt><trkpt lat="43.586332423824025" lon="11.315779163356723"><ele>228.0</ele><time>2026-03-22T19:24:55.999Z</time></trkpt><trkpt lat="43.58635299414606" lon="11.315924576205251"><ele>229.2</ele><time>2026-03-22T19:24:56.999Z</time></trkpt><trkpt lat="43.58636957357078" lon="11.316071520143796"><ele>230.4</ele><time>2026-03-22T19:24:57.999Z</time></trkpt><trkpt lat="43.586386740625095" lon="11.31622216450623"><ele>231.59999999999997</ele><time>2026-03-22T19:24:58.999Z</time></trkpt><trkpt lat="43.58640162533255" lon="11.31636398374963"><ele>232.79999999999998</ele><time>2026-03-22T19:24:59.999Z</time></trkpt><trkpt lat="43.586418611867586" lon="11.316498236391888"><ele>234.0</ele><time>2026-03-22T19:25:00.999Z</time></trkpt><trkpt lat="43.5864374400543" lon="11.316628084403753"><ele>235.79999999999998</ele><time>2026-03-22T19:25:01.999Z</time></trkpt><trkpt lat="43.586455079288726" lon="11.31675816288433"><ele>237.59999999999997</ele><time>2026-03-22T19:25:02.999Z</time></trkpt><trkpt lat="43.58647001088824" lon="11.31689313457988"><ele>239.4</ele><time>2026-03-22T19:25:03.999Z</time></trkpt><trkpt lat="43.58648777125123" lon="11.317052684865931"><ele>241.2</ele><time>2026-03-22T19:25:05Z</time></trkpt><trkpt lat="43.586501711505974" lon="11.317154354915617"><ele>243.0</ele><time>2026-03-22T19:25:06Z</time></trkpt><trkpt lat="43.58651744879648" lon="11.317251983432532"><ele>244.0</ele><time>2026-03-22T19:25:07Z</time></trkpt><trkpt lat="43.586524635441734" lon="11.317346342323091"><ele>245.0</ele><time>2026-03-22T19:25:08Z</time></trkpt><trkpt lat="43.5865404265555" lon="11.317441135190213"><ele>246.0</ele><time>2026-03-22T19:25:09Z</time></trkpt><trkpt lat="43.58656869985763" lon="11.317587959130119"><ele>247.0</ele><time>2026-03-22T19:25:11Z</time></trkpt><trkpt lat="43.58657505094773" lon="11.317688713192826"><ele>248.0</ele><time>2026-03-22T19:25:13Z</time></trkpt><trkpt lat="43.58642774304868" lon="11.31770758909595"><ele>248.0</ele><time>2026-03-22T19:25:16Z</time></trkpt><trkpt lat="43.58654370977723" lon="11.317840470946031"><ele>248.0</ele><time>2026-03-22T19:25:18Z</time></trkpt><trkpt lat="43.586481827808434" lon="11.317983878600819"><ele>248.0</ele><time>2026-03-22T19:25:20Z</time></trkpt><trkpt lat="43.586545560636075" lon="11.318040138082475"><ele>248.0</ele><time>2026-03-22T19:25:21Z</time></trkpt><trkpt lat="43.58660608294267" lon="11.318113789864293"><ele>248.0</ele><time>2026-03-22T19:25:22Z</time></trkpt><trkpt lat="43.586655160940516" lon="11.31819929483161"><ele>249.00000000000003</ele><time>2026-03-22T19:25:23Z</time></trkpt><trkpt lat="43.58667640596022" lon="11.318287073858954"><ele>250.0</ele><time>2026-03-22T19:25:24Z</time></trkpt><trkpt lat="43.58662526070958" lon="11.31842808574244"><ele>251.0</ele><time>2026-03-22T19:25:26Z</time></trkpt><trkpt lat="43.586575247196045" lon="11.318486011297425"><ele>252.0</ele><time>2026-03-22T19:25:27Z</time></trkpt><trkpt lat="43.58650240615747" lon="11.318590599187504"><ele>253.00000000000003</ele><time>2026-03-22T19:25:29Z</time></trkpt><trkpt lat="43.58646731990747" lon="11.31866392181932"><ele>254.0</ele><time>2026-03-22T19:25:30Z</time></trkpt><trkpt lat="43.586421217020586" lon="11.318761857980771"><ele>254.0</ele><time>2026-03-22T19:25:31Z</time></trkpt><trkpt lat="43.586367628216315" lon="11.318889094352226"><ele>253.99999999999997</ele><time>2026-03-22T19:25:32Z</time></trkpt><trkpt lat="43.58632005603868" lon="11.319011137526319"><ele>253.99999999999997</ele><time>2026-03-22T19:25:33Z</time></trkpt><trkpt lat="43.58628473407635" lon="11.319116438614648"><ele>254.0</ele><time>2026-03-22T19:25:34Z</time></trkpt><trkpt lat="43.58624009527618" lon="11.319235269396916"><ele>254.0</ele><time>2026-03-22T19:25:35Z</time></trkpt><trkpt lat="43.586187865647766" lon="11.319322911602864"><ele>255.83333333333334</ele><time>2026-03-22T19:25:36Z</time></trkpt><trkpt lat="43.58614075187298" lon="11.319435589962719"><ele>257.6666666666667</ele><time>2026-03-22T19:25:37Z</time></trkpt><trkpt lat="43.5860928410883" lon="11.319537132843152"><ele>259.5</ele><time>2026-03-22T19:25:38Z</time></trkpt><trkpt lat="43.58606428106541" lon="11.31962243484156"><ele>261.3333333333333</ele><time>2026-03-22T19:25:39Z</time></trkpt><trkpt lat="43.58600739617224" lon="11.319706121358895"><ele>263.16666666666663</ele><time>2026-03-22T19:25:41Z</time></trkpt><trkpt lat="43.58597307551796" lon="11.319794853054956"><ele>265.0</ele><time>2026-03-22T19:25:43Z</time></trkpt><trkpt lat="43.58617316943553" lon="11.320075448114098"><ele>264.8</ele><time>2026-03-22T19:25:44Z</time></trkpt><trkpt lat="43.58621068354232" lon="11.320213881006437"><ele>264.6</ele><time>2026-03-22T19:25:44.999Z</time></trkpt><trkpt lat="43.58626061175225" lon="11.32036550310843"><ele>264.4</ele><time>2026-03-22T19:25:45.999Z</time></trkpt><trkpt lat="43.58630941874212" lon="11.320513295458698"><ele>264.2</ele><time>2026-03-22T19:25:46.999Z</time></trkpt><trkpt lat="43.58634397944125" lon="11.320647852057741"><ele>264.0</ele><time>2026-03-22T19:25:47.999Z</time></trkpt><trkpt lat="43.586387053519424" lon="11.320776835664304"><ele>264.4</ele><time>2026-03-22T19:25:48.999Z</time></trkpt><trkpt lat="43.58642796229758" lon="11.320910308169031"><ele>264.79999999999995</ele><time>2026-03-22T19:25:49.999Z</time></trkpt><trkpt lat="43.58647251822797" lon="11.321044895036474"><ele>265.20000000000005</ele><time>2026-03-22T19:25:50.999Z</time></trkpt><trkpt lat="43.586509879378774" lon="11.321167490748087"><ele>265.6</ele><time>2026-03-22T19:25:51.999Z</time></trkpt><trkpt lat="43.58655524241642" lon="11.321292820509262"><ele>266.0</ele><time>2026-03-22T19:25:52.999Z</time></trkpt><trkpt lat="43.586597548917865" lon="11.321449045843002"><ele>267.1666666666667</ele><time>2026-03-22T19:25:54.999Z</time></trkpt><trkpt lat="43.58656092369122" lon="11.321544749075011"><ele>268.33333333333337</ele><time>2026-03-22T19:25:56.999Z</time></trkpt><trkpt lat="43.58656240269396" lon="11.321658441701977"><ele>269.5</ele><time>2026-03-22T19:25:57.999Z</time></trkpt><trkpt lat="43.58658919368116" lon="11.32176949692594"><ele>270.6666666666667</ele><time>2026-03-22T19:25:58.999Z</time></trkpt><trkpt lat="43.58660593594159" lon="11.321896308010066"><ele>271.8333333333333</ele><time>2026-03-22T19:25:59.999Z</time></trkpt><trkpt lat="43.586613923655776" lon="11.322040364748757"><ele>273.0</ele><time>2026-03-22T19:26:00.999Z</time></trkpt><trkpt lat="43.58662397705957" lon="11.32216637704571"><ele>274.2</ele><time>2026-03-22T19:26:01.999Z</time></trkpt><trkpt lat="43.58665219339389" lon="11.322362006239006"><ele>275.4</ele><time>2026-03-22T19:26:03.999Z</time></trkpt><trkpt lat="43.586664386427586" lon="11.32245296726365"><ele>276.59999999999997</ele><time>2026-03-22T19:26:04.999Z</time></trkpt><trkpt lat="43.58671624191793" lon="11.32256299786306"><ele>277.8</ele><time>2026-03-22T19:26:06.999Z</time></trkpt><trkpt lat="43.586844731727695" lon="11.322549578369284"><ele>279.0</ele><time>2026-03-22T19:26:08.999Z</time></trkpt><trkpt lat="43.5869381658913" lon="11.322547392648877"><ele>279.0</ele><time>2026-03-22T19:26:09.999Z</time></trkpt><trkpt lat="43.587000803680105" lon="11.322563340675561"><ele>279.0</ele><time>2026-03-22T19:26:10.999Z</time></trkpt><trkpt lat="43.58705790746136" lon="11.322671543508541"><ele>279.0</ele><time>2026-03-22T19:26:12.999Z</time></trkpt><trkpt lat="43.58708790081434" lon="11.322777436600235"><ele>279.0</ele><time>2026-03-22T19:26:13.999Z</time></trkpt><trkpt lat="43.58710438898675" lon="11.322875729669729"><ele>279.0</ele><time>2026-03-22T19:26:14.999Z</time></trkpt><trkpt lat="43.58712280923188" lon="11.322986688190113"><ele>279.0</ele><time>2026-03-22T19:26:15.999Z</time></trkpt><trkpt lat="43.58712310207803" lon="11.323098415358976"><ele>279.6666666666667</ele><time>2026-03-22T19:26:16.999Z</time></trkpt><trkpt lat="43.58710304053414" lon="11.323256156539609"><ele>280.3333333333333</ele><time>2026-03-22T19:26:18.999Z</time></trkpt><trkpt lat="43.58709084782249" lon="11.323346915880434"><ele>281.0</ele><time>2026-03-22T19:26:19.999Z</time></trkpt><trkpt lat="43.58709084817073" lon="11.323467628371885"><ele>281.66666666666663</ele><time>2026-03-22T19:26:20.999Z</time></trkpt><trkpt lat="43.587097746209544" lon="11.323583295732016"><ele>282.3333333333333</ele><time>2026-03-22T19:26:21.999Z</time></trkpt><trkpt lat="43.5871203371898" lon="11.323692284617605"><ele>283.0</ele><time>2026-03-22T19:26:22.999Z</time></trkpt><trkpt lat="43.587145749034455" lon="11.323773270543002"><ele>283.0</ele><time>2026-03-22T19:26:23.999Z</time></trkpt><trkpt lat="43.58715932897036" lon="11.323871498110496"><ele>283.0</ele><time>2026-03-22T19:26:24.999Z</time></trkpt><trkpt lat="43.5871422928934" lon="11.32395678152169"><ele>283.0</ele><time>2026-03-22T19:26:25.999Z</time></trkpt><trkpt lat="43.58711289296561" lon="11.324047026038459"><ele>283.0</ele><time>2026-03-22T19:26:26.999Z</time></trkpt><trkpt lat="43.58710236863877" lon="11.324192530779172"><ele>283.0</ele><time>2026-03-22T19:26:27.999Z</time></trkpt><trkpt lat="43.587114511037186" lon="11.324369513436983"><ele>283.0</ele><time>2026-03-22T19:26:28.999Z</time></trkpt><trkpt lat="43.58711158821164" lon="11.32449594610782"><ele>284.2857142857143</ele><time>2026-03-22T19:26:29.999Z</time></trkpt><trkpt lat="43.58711790398796" lon="11.324597430567096"><ele>285.5714285714286</ele><time>2026-03-22T19:26:30.999Z</time></trkpt><trkpt lat="43.58712438827725" lon="11.32468776621063"><ele>286.8571428571429</ele><time>2026-03-22T19:26:31.999Z</time></trkpt><trkpt lat="43.58713149982514" lon="11.324787703319675"><ele>288.14285714285717</ele><time>2026-03-22T19:26:32.999Z</time></trkpt><trkpt lat="43.58714434585613" lon="11.324888079996432"><ele>289.42857142857144</ele><time>2026-03-22T19:26:33.999Z</time></trkpt><trkpt lat="43.587145581720776" lon="11.324982005478544"><ele>290.7142857142857</ele><time>2026-03-22T19:26:34.999Z</time></trkpt><trkpt lat="43.5871144702549" lon="11.325085226547456"><ele>292.0</ele><time>2026-03-22T19:26:35.999Z</time></trkpt><trkpt lat="43.58709071267598" lon="11.32517071824377"><ele>294.3333333333333</ele><time>2026-03-22T19:26:36.999Z</time></trkpt><trkpt lat="43.587057831684454" lon="11.325245511747765"><ele>296.66666666666663</ele><time>2026-03-22T19:26:37.999Z</time></trkpt><trkpt lat="43.58697292763776" lon="11.325352840680743"><ele>299.0</ele><time>2026-03-22T19:26:39.999Z</time></trkpt><trkpt lat="43.58692319579594" lon="11.325447960574815"><ele>301.3333333333333</ele><time>2026-03-22T19:26:40.999Z</time></trkpt><trkpt lat="43.58685748740402" lon="11.325539336690996"><ele>303.6666666666667</ele><time>2026-03-22T19:26:41.999Z</time></trkpt><trkpt lat="43.58680454906642" lon="11.325594878211692"><ele>306.0</ele><time>2026-03-22T19:26:42.999Z</time></trkpt><trkpt lat="43.58674673862284" lon="11.32567329740707"><ele>308.40000000000003</ele><time>2026-03-22T19:26:43.999Z</time></trkpt><trkpt lat="43.58668065233612" lon="11.325742601288454"><ele>310.8</ele><time>2026-03-22T19:26:45.999Z</time></trkpt><trkpt lat="43.58671965922419" lon="11.32590914949643"><ele>313.20000000000005</ele><time>2026-03-22T19:26:47.999Z</time></trkpt><trkpt lat="43.58675865188748" lon="11.326001090631644"><ele>315.6</ele><time>2026-03-22T19:26:48.999Z</time></trkpt><trkpt lat="43.58677380927427" lon="11.326132065288126"><ele>318.0</ele><time>2026-03-22T19:26:50.999Z</time></trkpt><trkpt lat="43.586703006157634" lon="11.326218815191835"><ele>318.0</ele><time>2026-03-22T19:26:52.999Z</time></trkpt><trkpt lat="43.58662872296817" lon="11.326246152080376"><ele>318.0</ele><time>2026-03-22T19:26:53.999Z</time></trkpt><trkpt lat="43.58654948595777" lon="11.326270772492961"><ele>318.0</ele><time>2026-03-22T19:26:54.999Z</time></trkpt><trkpt lat="43.58647748142813" lon="11.326291086444797"><ele>318.0</ele><time>2026-03-22T19:26:55.999Z</time></trkpt><trkpt lat="43.586411650830875" lon="11.326306075717685"><ele>318.0</ele><time>2026-03-22T19:26:56.999Z</time></trkpt><trkpt lat="43.586346087719285" lon="11.326316308177764"><ele>318.0</ele><time>2026-03-22T19:26:57.999Z</time></trkpt><trkpt lat="43.586237240864044" lon="11.326345232866354"><ele>317.4</ele><time>2026-03-22T19:26:59.999Z</time></trkpt><trkpt lat="43.58617732893127" lon="11.32646200886334"><ele>316.8</ele><time>2026-03-22T19:27:01.999Z</time></trkpt><trkpt lat="43.5861332077864" lon="11.326608230168146"><ele>316.2</ele><time>2026-03-22T19:27:03.999Z</time></trkpt><trkpt lat="43.58610214656432" lon="11.326721566857959"><ele>315.6</ele><time>2026-03-22T19:27:05.999Z</time></trkpt><trkpt lat="43.586182499895635" lon="11.326764103482422"><ele>315.0</ele><time>2026-03-22T19:27:08.999Z</time></trkpt><trkpt lat="43.5862521997015" lon="11.32673980626363"><ele>315.0</ele><time>2026-03-22T19:27:10Z</time></trkpt><trkpt lat="43.58631772513447" lon="11.326767829016692"><ele>315.0</ele><time>2026-03-22T19:27:11Z</time></trkpt><trkpt lat="43.5863642133263" lon="11.326860169815115"><ele>315.0</ele><time>2026-03-22T19:27:11.999Z</time></trkpt><trkpt lat="43.58640542035015" lon="11.326963620251492"><ele>315.0</ele><time>2026-03-22T19:27:12.999Z</time></trkpt><trkpt lat="43.58640761355554" lon="11.327092538215231"><ele>315.0</ele><time>2026-03-22T19:27:14Z</time></trkpt><trkpt lat="43.58646046628829" lon="11.327199908430405"><ele>315.0</ele><time>2026-03-22T19:27:14.999Z</time></trkpt><trkpt lat="43.58653370934016" lon="11.32727589954194"><ele>313.4</ele><time>2026-03-22T19:27:16Z</time></trkpt><trkpt lat="43.58661789469169" lon="11.32729580573221"><ele>311.8</ele><time>2026-03-22T19:27:17Z</time></trkpt><trkpt lat="43.58671409157416" lon="11.327316690741304"><ele>310.2</ele><time>2026-03-22T19:27:18Z</time></trkpt><trkpt lat="43.58680392323818" lon="11.327407916439139"><ele>308.6</ele><time>2026-03-22T19:27:19Z</time></trkpt><trkpt lat="43.586854851106544" lon="11.327541989953275"><ele>307.0</ele><time>2026-03-22T19:27:20Z</time></trkpt><trkpt lat="43.58689731559533" lon="11.32770060033938"><ele>307.0</ele><time>2026-03-22T19:27:21Z</time></trkpt><trkpt lat="43.58695793882259" lon="11.327871578477986"><ele>307.0</ele><time>2026-03-22T19:27:22Z</time></trkpt><trkpt lat="43.587019438906275" lon="11.32801405895283"><ele>307.0</ele><time>2026-03-22T19:27:23Z</time></trkpt><trkpt lat="43.58709536178461" lon="11.3281137960635"><ele>307.0</ele><time>2026-03-22T19:27:24Z</time></trkpt><trkpt lat="43.58718053774642" lon="11.328225426325488"><ele>310.75</ele><time>2026-03-22T19:27:25Z</time></trkpt><trkpt lat="43.58726623063323" lon="11.328346137129035"><ele>314.5</ele><time>2026-03-22T19:27:26Z</time></trkpt><trkpt lat="43.587319095690646" lon="11.328475106074109"><ele>318.25</ele><time>2026-03-22T19:27:27Z</time></trkpt><trkpt lat="43.587349100145325" lon="11.32862089945321"><ele>322.0</ele><time>2026-03-22T19:27:28Z</time></trkpt><trkpt lat="43.58735300494553" lon="11.328779555617913"><ele>321.25</ele><time>2026-03-22T19:27:29Z</time></trkpt><trkpt lat="43.58735041576675" lon="11.3289555153719"><ele>320.5</ele><time>2026-03-22T19:27:30Z</time></trkpt><trkpt lat="43.58735717060535" lon="11.329139675989506"><ele>319.75</ele><time>2026-03-22T19:27:31Z</time></trkpt><trkpt lat="43.587366940337716" lon="11.329333854718618"><ele>319.0</ele><time>2026-03-22T19:27:32Z</time></trkpt><trkpt lat="43.587382307225965" lon="11.329540455079336"><ele>319.75</ele><time>2026-03-22T19:27:33Z</time></trkpt><trkpt lat="43.58741518769583" lon="11.329752074043357"><ele>320.5</ele><time>2026-03-22T19:27:33.999Z</time></trkpt><trkpt lat="43.58744496404561" lon="11.32992394907179"><ele>321.25</ele><time>2026-03-22T19:27:34.999Z</time></trkpt><trkpt lat="43.587474447854" lon="11.330049567766842"><ele>322.0</ele><time>2026-03-22T19:27:35.999Z</time></trkpt><trkpt lat="43.587509467355865" lon="11.330148772463582"><ele>322.0</ele><time>2026-03-22T19:27:36.999Z</time></trkpt><trkpt lat="43.587533748999064" lon="11.330253671063414"><ele>322.0</ele><time>2026-03-22T19:27:37.999Z</time></trkpt><trkpt lat="43.5875271649835" lon="11.330348993159568"><ele>322.0</ele><time>2026-03-22T19:27:38.999Z</time></trkpt><trkpt lat="43.5874854673482" lon="11.330418160826992"><ele>322.0</ele><time>2026-03-22T19:27:39.999Z</time></trkpt><trkpt lat="43.58741782708623" lon="11.330447767122084"><ele>322.0</ele><time>2026-03-22T19:27:40.999Z</time></trkpt><trkpt lat="43.58733091243906" lon="11.330434739097639"><ele>322.0</ele><time>2026-03-22T19:27:41.999Z</time></trkpt><trkpt lat="43.58725912764475" lon="11.330387827884312"><ele>322.0</ele><time>2026-03-22T19:27:42.999Z</time></trkpt><trkpt lat="43.587186882891594" lon="11.33034740623069"><ele>322.0</ele><time>2026-03-22T19:27:43.999Z</time></trkpt><trkpt lat="43.58711431592596" lon="11.3303412069349"><ele>322.0</ele><time>2026-03-22T19:27:44.999Z</time></trkpt><trkpt lat="43.58699355257027" lon="11.330330050536219"><ele>322.0</ele><time>2026-03-22T19:27:46.999Z</time></trkpt><trkpt lat="43.58691764717607" lon="11.330334361240503"><ele>322.0</ele><time>2026-03-22T19:27:47.999Z</time></trkpt><trkpt lat="43.586810500439526" lon="11.330429370135569"><ele>321.20000000000005</ele><time>2026-03-22T19:27:49.999Z</time></trkpt><trkpt lat="43.58674497043148" lon="11.33047738780713"><ele>320.40000000000003</ele><time>2026-03-22T19:27:50.999Z</time></trkpt><trkpt lat="43.58659289983775" lon="11.33054273698751"><ele>319.6</ele><time>2026-03-22T19:27:52.999Z</time></trkpt><trkpt lat="43.586536894641" lon="11.33062015735919"><ele>318.8</ele><time>2026-03-22T19:27:53.999Z</time></trkpt><trkpt lat="43.586506555660016" lon="11.33072979555247"><ele>318.0</ele><time>2026-03-22T19:27:54.999Z</time></trkpt><trkpt lat="43.586494650967865" lon="11.330831247536782"><ele>320.2</ele><time>2026-03-22T19:27:55.999Z</time></trkpt><trkpt lat="43.586514371564995" lon="11.330927902177901"><ele>322.4</ele><time>2026-03-22T19:27:56.999Z</time></trkpt><trkpt lat="43.58654991402893" lon="11.331072398757685"><ele>324.59999999999997</ele><time>2026-03-22T19:27:57.999Z</time></trkpt><trkpt lat="43.5865982203901" lon="11.3312129829811"><ele>326.8</ele><time>2026-03-22T19:27:58.999Z</time></trkpt><trkpt lat="43.586652024635946" lon="11.331343299758686"><ele>329.0</ele><time>2026-03-22T19:27:59.999Z</time></trkpt><trkpt lat="43.586707687904834" lon="11.331463066983076"><ele>329.0</ele><time>2026-03-22T19:28:00.999Z</time></trkpt><trkpt lat="43.58678588390364" lon="11.331565438619908"><ele>329.0</ele><time>2026-03-22T19:28:01.999Z</time></trkpt><trkpt lat="43.58689540824934" lon="11.331652748123027"><ele>329.0</ele><time>2026-03-22T19:28:02.999Z</time></trkpt><trkpt lat="43.587015911175605" lon="11.331720271489173"><ele>329.0</ele><time>2026-03-22T19:28:03.999Z</time></trkpt><trkpt lat="43.58710510148892" lon="11.331783371175392"><ele>332.0</ele><time>2026-03-22T19:28:04.999Z</time></trkpt><trkpt lat="43.58718947492465" lon="11.331851987852168"><ele>335.0</ele><time>2026-03-22T19:28:05.999Z</time></trkpt><trkpt lat="43.58728976145078" lon="11.331910355476975"><ele>338.0</ele><time>2026-03-22T19:28:06.999Z</time></trkpt><trkpt lat="43.58741060298713" lon="11.331956690538814"><ele>341.0</ele><time>2026-03-22T19:28:07.999Z</time></trkpt><trkpt lat="43.587540229746544" lon="11.332024025773423"><ele>341.0</ele><time>2026-03-22T19:28:08.999Z</time></trkpt><trkpt lat="43.5876431076905" lon="11.332106689994918"><ele>341.0</ele><time>2026-03-22T19:28:09.999Z</time></trkpt><trkpt lat="43.58775529125424" lon="11.332182680527605"><ele>341.0</ele><time>2026-03-22T19:28:10.999Z</time></trkpt><trkpt lat="43.587866318455575" lon="11.332252551185238"><ele>341.0</ele><time>2026-03-22T19:28:11.999Z</time></trkpt><trkpt lat="43.58795420895322" lon="11.332318971012516"><ele>341.8</ele><time>2026-03-22T19:28:12.999Z</time></trkpt><trkpt lat="43.588047304536744" lon="11.332396014989621"><ele>342.6</ele><time>2026-03-22T19:28:13.999Z</time></trkpt><trkpt lat="43.58813907098198" lon="11.332471753649525"><ele>343.4</ele><time>2026-03-22T19:28:14.999Z</time></trkpt><trkpt lat="43.58824291673356" lon="11.332571188487243"><ele>344.2</ele><time>2026-03-22T19:28:15.999Z</time></trkpt><trkpt lat="43.588326325907055" lon="11.332660782271057"><ele>345.0</ele><time>2026-03-22T19:28:16.999Z</time></trkpt><trkpt lat="43.58838214424133" lon="11.332730530283762"><ele>345.0</ele><time>2026-03-22T19:28:17.999Z</time></trkpt><trkpt lat="43.588453680217434" lon="11.332783253020315"><ele>345.0</ele><time>2026-03-22T19:28:19.999Z</time></trkpt><trkpt lat="43.58853813534412" lon="11.332647462228605"><ele>345.0</ele><time>2026-03-22T19:28:21.999Z</time></trkpt><trkpt lat="43.58860292542671" lon="11.332572193306703"><ele>345.0</ele><time>2026-03-22T19:28:22.999Z</time></trkpt><trkpt lat="43.58867324360355" lon="11.332509962053223"><ele>345.0</ele><time>2026-03-22T19:28:23.999Z</time></trkpt><trkpt lat="43.58874989781034" lon="11.332449318504548"><ele>344.8333333333333</ele><time>2026-03-22T19:28:24.999Z</time></trkpt><trkpt lat="43.588817636499456" lon="11.332401903001697"><ele>344.6666666666667</ele><time>2026-03-22T19:28:25.999Z</time></trkpt><trkpt lat="43.58889039110945" lon="11.332358311058927"><ele>344.5</ele><time>2026-03-22T19:28:26.999Z</time></trkpt><trkpt lat="43.58896840524305" lon="11.332335319553293"><ele>344.33333333333337</ele><time>2026-03-22T19:28:27.999Z</time></trkpt><trkpt lat="43.58904149764198" lon="11.332335136955653"><ele>344.1666666666667</ele><time>2026-03-22T19:28:28.999Z</time></trkpt><trkpt lat="43.58911134900327" lon="11.332335703884374"><ele>344.0</ele><time>2026-03-22T19:28:29.999Z</time></trkpt><trkpt lat="43.58920417967931" lon="11.332286750264057"><ele>344.0</ele><time>2026-03-22T19:28:30.999Z</time></trkpt><trkpt lat="43.589269407244515" lon="11.332238728490998"><ele>344.0</ele><time>2026-03-22T19:28:31.999Z</time></trkpt><trkpt lat="43.589339741238895" lon="11.332209140555923"><ele>344.0</ele><time>2026-03-22T19:28:32.999Z</time></trkpt><trkpt lat="43.589435758820855" lon="11.332157094223593"><ele>344.0</ele><time>2026-03-22T19:28:34.999Z</time></trkpt><trkpt lat="43.58952516773622" lon="11.33212696132752"><ele>344.0</ele><time>2026-03-22T19:28:36.999Z</time></trkpt><trkpt lat="43.58959379832103" lon="11.332221945950247"><ele>344.0</ele><time>2026-03-22T19:28:38.999Z</time></trkpt><trkpt lat="43.589630754821854" lon="11.332334778105176"><ele>341.2</ele><time>2026-03-22T19:28:39.999Z</time></trkpt><trkpt lat="43.5896737515912" lon="11.332454867189522"><ele>338.4</ele><time>2026-03-22T19:28:40.999Z</time></trkpt><trkpt lat="43.58971902692141" lon="11.332572208669287"><ele>335.6</ele><time>2026-03-22T19:28:41.999Z</time></trkpt><trkpt lat="43.589758058284744" lon="11.332683872584312"><ele>332.8</ele><time>2026-03-22T19:28:42.999Z</time></trkpt><trkpt lat="43.58979223289191" lon="11.332788329111242"><ele>330.0</ele><time>2026-03-22T19:28:43.999Z</time></trkpt><trkpt lat="43.58982949615462" lon="11.332909687980012"><ele>330.0</ele><time>2026-03-22T19:28:44.999Z</time></trkpt><trkpt lat="43.58987002001739" lon="11.333007666916997"><ele>330.0</ele><time>2026-03-22T19:28:45.999Z</time></trkpt><trkpt lat="43.58990604822408" lon="11.33309904584446"><ele>330.0</ele><time>2026-03-22T19:28:46.999Z</time></trkpt><trkpt lat="43.58995114955355" lon="11.333200769723762"><ele>330.0</ele><time>2026-03-22T19:28:47.999Z</time></trkpt><trkpt lat="43.58999547159239" lon="11.333294457460264"><ele>330.0</ele><time>2026-03-22T19:28:48.999Z</time></trkpt><trkpt lat="43.59002800023814" lon="11.333389064527942"><ele>330.0</ele><time>2026-03-22T19:28:50.999Z</time></trkpt><trkpt lat="43.59005768989663" lon="11.33351626325933"><ele>331.6666666666667</ele><time>2026-03-22T19:28:53.999Z</time></trkpt><trkpt lat="43.59010687846183" lon="11.333583006160682"><ele>333.3333333333333</ele><time>2026-03-22T19:28:55.999Z</time></trkpt><trkpt lat="43.59014107700062" lon="11.333673095158522"><ele>335.0</ele><time>2026-03-22T19:28:57.999Z</time></trkpt><trkpt lat="43.59018367022538" lon="11.333737930394797"><ele>336.66666666666663</ele><time>2026-03-22T19:28:59.999Z</time></trkpt><trkpt lat="43.59025030530398" lon="11.333814511578165"><ele>338.3333333333333</ele><time>2026-03-22T19:29:01.999Z</time></trkpt><trkpt lat="43.59032749917305" lon="11.333963691250627"><ele>340.0</ele><time>2026-03-22T19:29:03.999Z</time></trkpt><trkpt lat="43.590360505852836" lon="11.3340571053521"><ele>340.0</ele><time>2026-03-22T19:29:04.999Z</time></trkpt><trkpt lat="43.59037415864275" lon="11.334160047840273"><ele>340.0</ele><time>2026-03-22T19:29:05.999Z</time></trkpt><trkpt lat="43.59038928666835" lon="11.334267754306941"><ele>340.0</ele><time>2026-03-22T19:29:06.999Z</time></trkpt><trkpt lat="43.59040431538001" lon="11.334364438201101"><ele>340.0</ele><time>2026-03-22T19:29:07.999Z</time></trkpt><trkpt lat="43.59043034813155" lon="11.334450473103253"><ele>340.0</ele><time>2026-03-22T19:29:08.999Z</time></trkpt><trkpt lat="43.590467656294564" lon="11.334573900204692"><ele>340.0</ele><time>2026-03-22T19:29:09.999Z</time></trkpt><trkpt lat="43.590513740466086" lon="11.334655747785702"><ele>340.0</ele><time>2026-03-22T19:29:10.999Z</time></trkpt><trkpt lat="43.59057760138917" lon="11.334700518669166"><ele>340.0</ele><time>2026-03-22T19:29:11.999Z</time></trkpt><trkpt lat="43.59065717616201" lon="11.334747160529174"><ele>340.0</ele><time>2026-03-22T19:29:12.999Z</time></trkpt><trkpt lat="43.59070514102387" lon="11.334838516166947"><ele>340.0</ele><time>2026-03-22T19:29:14.999Z</time></trkpt><trkpt lat="43.59062691720377" lon="11.33475730524387"><ele>340.0</ele><time>2026-03-22T19:29:31.999Z</time></trkpt><trkpt lat="43.59053461837063" lon="11.334658019814022"><ele>340.0</ele><time>2026-03-22T19:29:33.999Z</time></trkpt><trkpt lat="43.590474185771676" lon="11.334601324300078"><ele>340.0</ele><time>2026-03-22T19:29:34.999Z</time></trkpt><trkpt lat="43.59042414227505" lon="11.334486173123063"><ele>340.0</ele><time>2026-03-22T19:29:36.999Z</time></trkpt><trkpt lat="43.59038895010035" lon="11.33434129879229"><ele>340.0</ele><time>2026-03-22T19:29:38.999Z</time></trkpt><trkpt lat="43.59036078177124" lon="11.334194420081896"><ele>340.0</ele><time>2026-03-22T19:29:40.999Z</time></trkpt><trkpt lat="43.590342056518494" lon="11.334035091714917"><ele>341.4</ele><time>2026-03-22T19:29:42.999Z</time></trkpt><trkpt lat="43.59032244428549" lon="11.333951891169058"><ele>342.8</ele><time>2026-03-22T19:29:43.999Z</time></trkpt><trkpt lat="43.59025980555635" lon="11.333818207542755"><ele>344.20000000000005</ele><time>2026-03-22T19:29:45.999Z</time></trkpt><trkpt lat="43.59017978377777" lon="11.33375843321548"><ele>345.6</ele><time>2026-03-22T19:29:47.999Z</time></trkpt><trkpt lat="43.59011355841327" lon="11.333695994876118"><ele>347.0</ele><time>2026-03-22T19:29:49.999Z</time></trkpt><trkpt lat="43.59000951938176" lon="11.333650203198582"><ele>347.0</ele><time>2026-03-22T19:29:51.999Z</time></trkpt><trkpt lat="43.58994849649118" lon="11.333559393403064"><ele>347.0</ele><time>2026-03-22T19:29:53.999Z</time></trkpt><trkpt lat="43.58991807706937" lon="11.33345856648976"><ele>347.0</ele><time>2026-03-22T19:29:55.999Z</time></trkpt><trkpt lat="43.589903775967166" lon="11.333354561041283"><ele>347.0</ele><time>2026-03-22T19:30:04.999Z</time></trkpt></trkseg></trk></gpx>